<?xml version='1.0' encoding='UTF-8'?><gpx version="1.1" creator="JPX - https://github.com/jenetics/jpx" xmlns="http://www.topografix.com/GPX/1/1"><trk><trkseg><trkpt lat="45.2160045" lon="12.2762474"><ele>3.9999999999999996</ele><time>2026-04-26T09:11:11.884Z</time></trkpt><trkpt lat="45.2159472" lon="12.2763036"><ele>4.0</ele><time>2026-04-26T09:11:15.884Z</time></trkpt><trkpt lat="45.2160345" lon="12.2762864"><ele>4.0</ele><time>2026-04-26T09:11:25.888Z</time></trkpt><trkpt lat="45.2161072" lon="12.2763204"><ele>4.0</ele><time>2026-04-26T09:11:30.889Z</time></trkpt><trkpt lat="45.2160856" lon="12.2764202"><ele>3.9999999999999996</ele><time>2026-04-26T09:11:31.885Z</time></trkpt><trkpt lat="45.2160878" lon="12.2762941"><ele>4.0</ele><time>2026-04-26T09:11:37.885Z</time></trkpt><trkpt lat="45.2161218" lon="12.2762064"><ele>3.9999999999999996</ele><time>2026-04-26T09:11:44.885Z</time></trkpt><trkpt lat="45.2161913" lon="12.2761447"><ele>4.0</ele><time>2026-04-26T09:11:48.887Z</time></trkpt><trkpt lat="45.2162268" lon="12.2760403"><ele>4.0</ele><time>2026-04-26T09:11:52.889Z</time></trkpt><trkpt lat="45.2162464" lon="12.2759199"><ele>4.0</ele><time>2026-04-26T09:11:56.897Z</time></trkpt><trkpt lat="45.2162456" lon="12.2758089"><ele>3.9999999999999996</ele><time>2026-04-26T09:11:59.892Z</time></trkpt><trkpt lat="45.2162376" lon="12.2757148"><ele>4.0</ele><time>2026-04-26T09:12:02.898Z</time></trkpt><trkpt lat="45.2161683" lon="12.2756679"><ele>4.0</ele><time>2026-04-26T09:12:05.892Z</time></trkpt><trkpt lat="45.2160991" lon="12.2756513"><ele>3.9999999999999996</ele><time>2026-04-26T09:12:08.891Z</time></trkpt><trkpt lat="45.2160393" lon="12.2756207"><ele>4.0</ele><time>2026-04-26T09:12:11.894Z</time></trkpt><trkpt lat="45.2159768" lon="12.275606"><ele>4.0</ele><time>2026-04-26T09:12:14.891Z</time></trkpt><trkpt lat="45.215892" lon="12.2755953"><ele>3.9999999999999996</ele><time>2026-04-26T09:12:18.893Z</time></trkpt><trkpt lat="45.2158165" lon="12.2755682"><ele>4.0</ele><time>2026-04-26T09:12:21.896Z</time></trkpt><trkpt lat="45.2157976" lon="12.2754773"><ele>4.0</ele><time>2026-04-26T09:12:25.897Z</time></trkpt><trkpt lat="45.2157513" lon="12.2754143"><ele>3.833333333333333</ele><time>2026-04-26T09:12:30.894Z</time></trkpt><trkpt lat="45.2156752" lon="12.2754531"><ele>3.6666666666666665</ele><time>2026-04-26T09:12:54.894Z</time></trkpt><trkpt lat="45.2156346" lon="12.2755764"><ele>3.5</ele><time>2026-04-26T09:12:57.893Z</time></trkpt><trkpt lat="45.215609" lon="12.2756708"><ele>3.333333333333333</ele><time>2026-04-26T09:12:59.892Z</time></trkpt><trkpt lat="45.2155778" lon="12.2757617"><ele>3.1666666666666665</ele><time>2026-04-26T09:13:01.895Z</time></trkpt><trkpt lat="45.2155539" lon="12.275885"><ele>3.0</ele><time>2026-04-26T09:13:04.892Z</time></trkpt><trkpt lat="45.2155365" lon="12.2760101"><ele>3.0</ele><time>2026-04-26T09:13:07.897Z</time></trkpt><trkpt lat="45.2155172" lon="12.2761319"><ele>3.0</ele><time>2026-04-26T09:13:10.897Z</time></trkpt><trkpt lat="45.2154978" lon="12.2762461"><ele>3.0</ele><time>2026-04-26T09:13:13.897Z</time></trkpt><trkpt lat="45.2154793" lon="12.2763747"><ele>3.0</ele><time>2026-04-26T09:13:16.896Z</time></trkpt><trkpt lat="45.2154561" lon="12.2764609"><ele>3.0</ele><time>2026-04-26T09:13:18.896Z</time></trkpt><trkpt lat="45.215443" lon="12.2765892"><ele>3.0</ele><time>2026-04-26T09:13:21.895Z</time></trkpt><trkpt lat="45.2154398" lon="12.2767219"><ele>2.8333333333333335</ele><time>2026-04-26T09:13:24.893Z</time></trkpt><trkpt lat="45.2154167" lon="12.2768486"><ele>2.6666666666666665</ele><time>2026-04-26T09:13:27.895Z</time></trkpt><trkpt lat="45.2153918" lon="12.2769587"><ele>2.5</ele><time>2026-04-26T09:13:30.894Z</time></trkpt><trkpt lat="45.2153761" lon="12.277055"><ele>2.333333333333333</ele><time>2026-04-26T09:13:33.895Z</time></trkpt><trkpt lat="45.2153091" lon="12.2770913"><ele>2.1666666666666665</ele><time>2026-04-26T09:13:36.898Z</time></trkpt><trkpt lat="45.2152362" lon="12.2770808"><ele>2.0</ele><time>2026-04-26T09:13:38.897Z</time></trkpt><trkpt lat="45.215165" lon="12.2770592"><ele>1.9999999999999998</ele><time>2026-04-26T09:13:40.892Z</time></trkpt><trkpt lat="45.2150873" lon="12.2770516"><ele>2.0</ele><time>2026-04-26T09:13:42.898Z</time></trkpt><trkpt lat="45.2150089" lon="12.277037"><ele>2.0</ele><time>2026-04-26T09:13:44.895Z</time></trkpt><trkpt lat="45.2149239" lon="12.2770089"><ele>2.0</ele><time>2026-04-26T09:13:46.891Z</time></trkpt><trkpt lat="45.2148387" lon="12.2769818"><ele>1.9999999999999998</ele><time>2026-04-26T09:13:48.896Z</time></trkpt><trkpt lat="45.2147532" lon="12.2769589"><ele>2.0</ele><time>2026-04-26T09:13:50.894Z</time></trkpt><trkpt lat="45.2146793" lon="12.276931"><ele>1.8333333333333333</ele><time>2026-04-26T09:13:52.899Z</time></trkpt><trkpt lat="45.2146015" lon="12.2769002"><ele>1.6666666666666665</ele><time>2026-04-26T09:13:54.895Z</time></trkpt><trkpt lat="45.2145227" lon="12.2768604"><ele>1.5</ele><time>2026-04-26T09:13:56.895Z</time></trkpt><trkpt lat="45.2144409" lon="12.2768243"><ele>1.3333333333333333</ele><time>2026-04-26T09:13:58.894Z</time></trkpt><trkpt lat="45.2143478" lon="12.2768157"><ele>1.1666666666666665</ele><time>2026-04-26T09:14:00.896Z</time></trkpt><trkpt lat="45.2142501" lon="12.2768264"><ele>1.0</ele><time>2026-04-26T09:14:02.897Z</time></trkpt><trkpt lat="45.2141797" lon="12.2768074"><ele>0.9999999999999999</ele><time>2026-04-26T09:14:04.893Z</time></trkpt><trkpt lat="45.2141039" lon="12.2767902"><ele>1.0</ele><time>2026-04-26T09:14:06.899Z</time></trkpt><trkpt lat="45.2140278" lon="12.2767738"><ele>1.0</ele><time>2026-04-26T09:14:08.891Z</time></trkpt><trkpt lat="45.2139524" lon="12.27675"><ele>1.0</ele><time>2026-04-26T09:14:10.895Z</time></trkpt><trkpt lat="45.2138788" lon="12.2767234"><ele>0.9999999999999999</ele><time>2026-04-26T09:14:12.897Z</time></trkpt><trkpt lat="45.213805" lon="12.2767021"><ele>1.0</ele><time>2026-04-26T09:14:14.896Z</time></trkpt><trkpt lat="45.213728" lon="12.2766835"><ele>0.8333333333333333</ele><time>2026-04-26T09:14:16.893Z</time></trkpt><trkpt lat="45.2136429" lon="12.2766603"><ele>0.6666666666666666</ele><time>2026-04-26T09:14:18.892Z</time></trkpt><trkpt lat="45.213559" lon="12.2766339"><ele>0.5</ele><time>2026-04-26T09:14:20.893Z</time></trkpt><trkpt lat="45.2134727" lon="12.2766204"><ele>0.3333333333333333</ele><time>2026-04-26T09:14:22.897Z</time></trkpt><trkpt lat="45.2133902" lon="12.2766104"><ele>0.16666666666666666</ele><time>2026-04-26T09:14:24.891Z</time></trkpt><trkpt lat="45.2133132" lon="12.2765969"><ele>0.0</ele><time>2026-04-26T09:14:26.893Z</time></trkpt><trkpt lat="45.2132465" lon="12.2765747"><ele>0.0</ele><time>2026-04-26T09:14:28.894Z</time></trkpt><trkpt lat="45.2131723" lon="12.2765598"><ele>0.0</ele><time>2026-04-26T09:14:30.891Z</time></trkpt><trkpt lat="45.2130883" lon="12.2765516"><ele>0.0</ele><time>2026-04-26T09:14:32.9Z</time></trkpt><trkpt lat="45.2130049" lon="12.2765389"><ele>0.0</ele><time>2026-04-26T09:14:34.898Z</time></trkpt><trkpt lat="45.2129295" lon="12.276521"><ele>0.0</ele><time>2026-04-26T09:14:36.895Z</time></trkpt><trkpt lat="45.2128548" lon="12.2765076"><ele>0.0</ele><time>2026-04-26T09:14:38.899Z</time></trkpt><trkpt lat="45.2127883" lon="12.2764941"><ele>0.0</ele><time>2026-04-26T09:14:40.896Z</time></trkpt><trkpt lat="45.2127071" lon="12.2764752"><ele>0.0</ele><time>2026-04-26T09:14:43.899Z</time></trkpt><trkpt lat="45.2126265" lon="12.2764566"><ele>0.0</ele><time>2026-04-26T09:14:46.894Z</time></trkpt><trkpt lat="45.2125446" lon="12.2764339"><ele>0.0</ele><time>2026-04-26T09:14:49.895Z</time></trkpt><trkpt lat="45.2124712" lon="12.2764142"><ele>0.0</ele><time>2026-04-26T09:14:52.898Z</time></trkpt><trkpt lat="45.2124009" lon="12.2763974"><ele>0.0</ele><time>2026-04-26T09:14:55.896Z</time></trkpt><trkpt lat="45.2123228" lon="12.2763937"><ele>-0.16666666666666666</ele><time>2026-04-26T09:14:58.893Z</time></trkpt><trkpt lat="45.2122545" lon="12.2763935"><ele>-0.3333333333333333</ele><time>2026-04-26T09:15:01.894Z</time></trkpt><trkpt lat="45.212189" lon="12.2763776"><ele>-0.5</ele><time>2026-04-26T09:15:04.896Z</time></trkpt><trkpt lat="45.2120918" lon="12.2763493"><ele>-0.6666666666666666</ele><time>2026-04-26T09:15:07.895Z</time></trkpt><trkpt lat="45.2120088" lon="12.2763371"><ele>-0.8333333333333333</ele><time>2026-04-26T09:15:09.893Z</time></trkpt><trkpt lat="45.2119028" lon="12.2763331"><ele>-1.0</ele><time>2026-04-26T09:15:11.894Z</time></trkpt><trkpt lat="45.2117933" lon="12.2763184"><ele>-1.0</ele><time>2026-04-26T09:15:13.897Z</time></trkpt><trkpt lat="45.2116864" lon="12.2763036"><ele>-1.0</ele><time>2026-04-26T09:15:15.898Z</time></trkpt><trkpt lat="45.2115798" lon="12.2762816"><ele>-1.0</ele><time>2026-04-26T09:15:17.897Z</time></trkpt><trkpt lat="45.2114699" lon="12.2762589"><ele>-1.0</ele><time>2026-04-26T09:15:19.896Z</time></trkpt><trkpt lat="45.2113609" lon="12.2762363"><ele>-1.0</ele><time>2026-04-26T09:15:21.894Z</time></trkpt><trkpt lat="45.2112469" lon="12.2762166"><ele>-0.5</ele><time>2026-04-26T09:15:23.893Z</time></trkpt><trkpt lat="45.2111301" lon="12.276195"><ele>0.0</ele><time>2026-04-26T09:15:25.895Z</time></trkpt><trkpt lat="45.2110122" lon="12.2761725"><ele>0.5</ele><time>2026-04-26T09:15:27.89Z</time></trkpt><trkpt lat="45.2108986" lon="12.2761496"><ele>1.0</ele><time>2026-04-26T09:15:29.892Z</time></trkpt><trkpt lat="45.2107867" lon="12.2761288"><ele>1.0</ele><time>2026-04-26T09:15:31.894Z</time></trkpt><trkpt lat="45.2106772" lon="12.2761013"><ele>1.0</ele><time>2026-04-26T09:15:33.892Z</time></trkpt><trkpt lat="45.2105728" lon="12.2760795"><ele>1.0</ele><time>2026-04-26T09:15:35.894Z</time></trkpt><trkpt lat="45.2104685" lon="12.2760657"><ele>1.0</ele><time>2026-04-26T09:15:37.893Z</time></trkpt><trkpt lat="45.2103591" lon="12.2760466"><ele>1.0</ele><time>2026-04-26T09:15:39.9Z</time></trkpt><trkpt lat="45.2102514" lon="12.2760171"><ele>0.8333333333333333</ele><time>2026-04-26T09:15:41.896Z</time></trkpt><trkpt lat="45.2101416" lon="12.2759943"><ele>0.6666666666666666</ele><time>2026-04-26T09:15:43.896Z</time></trkpt><trkpt lat="45.2100441" lon="12.2759838"><ele>0.5</ele><time>2026-04-26T09:15:45.896Z</time></trkpt><trkpt lat="45.2099722" lon="12.2759846"><ele>0.3333333333333333</ele><time>2026-04-26T09:15:47.894Z</time></trkpt><trkpt lat="45.2098918" lon="12.2759612"><ele>0.16666666666666666</ele><time>2026-04-26T09:15:50.895Z</time></trkpt><trkpt lat="45.20982" lon="12.2759331"><ele>0.0</ele><time>2026-04-26T09:15:52.895Z</time></trkpt><trkpt lat="45.2097346" lon="12.2759136"><ele>-0.2</ele><time>2026-04-26T09:15:54.891Z</time></trkpt><trkpt lat="45.2096443" lon="12.2758962"><ele>-0.4</ele><time>2026-04-26T09:15:56.893Z</time></trkpt><trkpt lat="45.2095491" lon="12.2758762"><ele>-0.6000000000000001</ele><time>2026-04-26T09:15:58.895Z</time></trkpt><trkpt lat="45.2094481" lon="12.2758617"><ele>-0.8</ele><time>2026-04-26T09:16:00.901Z</time></trkpt><trkpt lat="45.2093477" lon="12.2758405"><ele>-1.0</ele><time>2026-04-26T09:16:02.899Z</time></trkpt><trkpt lat="45.2092457" lon="12.2758169"><ele>-1.0</ele><time>2026-04-26T09:16:04.9Z</time></trkpt><trkpt lat="45.2091419" lon="12.2757952"><ele>-1.0</ele><time>2026-04-26T09:16:06.896Z</time></trkpt><trkpt lat="45.2090384" lon="12.2757708"><ele>-1.0</ele><time>2026-04-26T09:16:08.894Z</time></trkpt><trkpt lat="45.2089308" lon="12.2757467"><ele>-1.0</ele><time>2026-04-26T09:16:10.898Z</time></trkpt><trkpt lat="45.2088233" lon="12.2757263"><ele>-1.0</ele><time>2026-04-26T09:16:12.904Z</time></trkpt><trkpt lat="45.2087179" lon="12.2757016"><ele>-1.0</ele><time>2026-04-26T09:16:14.897Z</time></trkpt><trkpt lat="45.2086102" lon="12.2756778"><ele>-1.0</ele><time>2026-04-26T09:16:16.892Z</time></trkpt><trkpt lat="45.2085047" lon="12.2756613"><ele>-1.0</ele><time>2026-04-26T09:16:18.895Z</time></trkpt><trkpt lat="45.2083979" lon="12.2756463"><ele>-1.0</ele><time>2026-04-26T09:16:20.891Z</time></trkpt><trkpt lat="45.2082933" lon="12.2756312"><ele>-1.0</ele><time>2026-04-26T09:16:22.896Z</time></trkpt><trkpt lat="45.208183" lon="12.2756224"><ele>-1.0</ele><time>2026-04-26T09:16:24.896Z</time></trkpt><trkpt lat="45.2080737" lon="12.2756259"><ele>-1.0</ele><time>2026-04-26T09:16:26.896Z</time></trkpt><trkpt lat="45.2079661" lon="12.2756411"><ele>-1.0</ele><time>2026-04-26T09:16:28.896Z</time></trkpt><trkpt lat="45.2078576" lon="12.2756649"><ele>-1.0</ele><time>2026-04-26T09:16:30.898Z</time></trkpt><trkpt lat="45.2077462" lon="12.2756884"><ele>-1.0</ele><time>2026-04-26T09:16:32.898Z</time></trkpt><trkpt lat="45.2076328" lon="12.2757097"><ele>-1.0</ele><time>2026-04-26T09:16:34.896Z</time></trkpt><trkpt lat="45.2075173" lon="12.2757361"><ele>-1.0</ele><time>2026-04-26T09:16:36.895Z</time></trkpt><trkpt lat="45.2074029" lon="12.2757611"><ele>-1.0</ele><time>2026-04-26T09:16:38.9Z</time></trkpt><trkpt lat="45.2072933" lon="12.2757913"><ele>-1.0</ele><time>2026-04-26T09:16:40.895Z</time></trkpt><trkpt lat="45.207185" lon="12.2758191"><ele>-0.8</ele><time>2026-04-26T09:16:42.895Z</time></trkpt><trkpt lat="45.2070776" lon="12.275845"><ele>-0.6000000000000001</ele><time>2026-04-26T09:16:44.895Z</time></trkpt><trkpt lat="45.2069696" lon="12.2758784"><ele>-0.4</ele><time>2026-04-26T09:16:46.895Z</time></trkpt><trkpt lat="45.2068645" lon="12.275907"><ele>-0.2</ele><time>2026-04-26T09:16:48.898Z</time></trkpt><trkpt lat="45.2067846" lon="12.2759235"><ele>0.0</ele><time>2026-04-26T09:16:50.897Z</time></trkpt><trkpt lat="45.2067121" lon="12.27592"><ele>0.0</ele><time>2026-04-26T09:16:52.896Z</time></trkpt><trkpt lat="45.2066364" lon="12.2759346"><ele>0.0</ele><time>2026-04-26T09:16:54.894Z</time></trkpt><trkpt lat="45.2065434" lon="12.2759664"><ele>0.0</ele><time>2026-04-26T09:16:56.893Z</time></trkpt><trkpt lat="45.2064409" lon="12.2759958"><ele>0.0</ele><time>2026-04-26T09:16:58.897Z</time></trkpt><trkpt lat="45.20634" lon="12.2760159"><ele>0.0</ele><time>2026-04-26T09:17:00.897Z</time></trkpt><trkpt lat="45.2062452" lon="12.2760441"><ele>0.4</ele><time>2026-04-26T09:17:02.899Z</time></trkpt><trkpt lat="45.206139" lon="12.2760646"><ele>0.8</ele><time>2026-04-26T09:17:04.895Z</time></trkpt><trkpt lat="45.2060305" lon="12.2760795"><ele>1.2000000000000002</ele><time>2026-04-26T09:17:06.897Z</time></trkpt><trkpt lat="45.2059236" lon="12.2761062"><ele>1.6</ele><time>2026-04-26T09:17:08.893Z</time></trkpt><trkpt lat="45.2058163" lon="12.276142"><ele>2.0</ele><time>2026-04-26T09:17:10.894Z</time></trkpt><trkpt lat="45.2057136" lon="12.2761681"><ele>2.5</ele><time>2026-04-26T09:17:12.896Z</time></trkpt><trkpt lat="45.2056079" lon="12.2761867"><ele>3.0</ele><time>2026-04-26T09:17:14.892Z</time></trkpt><trkpt lat="45.2054954" lon="12.2762034"><ele>3.5</ele><time>2026-04-26T09:17:16.9Z</time></trkpt><trkpt lat="45.2053788" lon="12.276245"><ele>4.0</ele><time>2026-04-26T09:17:18.896Z</time></trkpt><trkpt lat="45.2052597" lon="12.2762862"><ele>4.0</ele><time>2026-04-26T09:17:20.899Z</time></trkpt><trkpt lat="45.2051472" lon="12.2763116"><ele>4.0</ele><time>2026-04-26T09:17:22.899Z</time></trkpt><trkpt lat="45.2050477" lon="12.2763371"><ele>4.0</ele><time>2026-04-26T09:17:24.888Z</time></trkpt><trkpt lat="45.2049439" lon="12.2763534"><ele>4.0</ele><time>2026-04-26T09:17:26.892Z</time></trkpt><trkpt lat="45.2048327" lon="12.276376"><ele>4.0</ele><time>2026-04-26T09:17:28.894Z</time></trkpt><trkpt lat="45.2047308" lon="12.27639"><ele>3.8000000000000003</ele><time>2026-04-26T09:17:30.899Z</time></trkpt><trkpt lat="45.2046326" lon="12.2764038"><ele>3.6000000000000005</ele><time>2026-04-26T09:17:32.901Z</time></trkpt><trkpt lat="45.2045289" lon="12.2764188"><ele>3.4</ele><time>2026-04-26T09:17:34.897Z</time></trkpt><trkpt lat="45.2044252" lon="12.276454"><ele>3.2</ele><time>2026-04-26T09:17:36.896Z</time></trkpt><trkpt lat="45.2043234" lon="12.2764874"><ele>3.0</ele><time>2026-04-26T09:17:38.896Z</time></trkpt><trkpt lat="45.2042199" lon="12.276509"><ele>2.8</ele><time>2026-04-26T09:17:40.894Z</time></trkpt><trkpt lat="45.2041148" lon="12.2765323"><ele>2.5999999999999996</ele><time>2026-04-26T09:17:42.897Z</time></trkpt><trkpt lat="45.2040103" lon="12.2765589"><ele>2.4000000000000004</ele><time>2026-04-26T09:17:44.893Z</time></trkpt><trkpt lat="45.2039025" lon="12.2765744"><ele>2.2</ele><time>2026-04-26T09:17:46.894Z</time></trkpt><trkpt lat="45.2037991" lon="12.2765849"><ele>2.0</ele><time>2026-04-26T09:17:48.896Z</time></trkpt><trkpt lat="45.2036917" lon="12.2766047"><ele>2.4000000000000004</ele><time>2026-04-26T09:17:50.894Z</time></trkpt><trkpt lat="45.2035851" lon="12.2766326"><ele>2.8000000000000003</ele><time>2026-04-26T09:17:52.896Z</time></trkpt><trkpt lat="45.2034805" lon="12.2766579"><ele>3.2</ele><time>2026-04-26T09:17:54.894Z</time></trkpt><trkpt lat="45.2033741" lon="12.2766765"><ele>3.6</ele><time>2026-04-26T09:17:56.897Z</time></trkpt><trkpt lat="45.2032722" lon="12.2766951"><ele>4.0</ele><time>2026-04-26T09:17:58.894Z</time></trkpt><trkpt lat="45.2031664" lon="12.2767097"><ele>3.2</ele><time>2026-04-26T09:18:00.895Z</time></trkpt><trkpt lat="45.2030537" lon="12.2767302"><ele>2.4000000000000004</ele><time>2026-04-26T09:18:02.901Z</time></trkpt><trkpt lat="45.2029398" lon="12.2767488"><ele>1.6</ele><time>2026-04-26T09:18:04.899Z</time></trkpt><trkpt lat="45.2028317" lon="12.2767722"><ele>0.8</ele><time>2026-04-26T09:18:06.897Z</time></trkpt><trkpt lat="45.2027296" lon="12.2767752"><ele>0.0</ele><time>2026-04-26T09:18:08.897Z</time></trkpt><trkpt lat="45.2026237" lon="12.2767885"><ele>0.0</ele><time>2026-04-26T09:18:10.893Z</time></trkpt><trkpt lat="45.2025191" lon="12.2768006"><ele>0.0</ele><time>2026-04-26T09:18:12.898Z</time></trkpt><trkpt lat="45.2024149" lon="12.276802"><ele>0.0</ele><time>2026-04-26T09:18:14.891Z</time></trkpt><trkpt lat="45.2023058" lon="12.2768115"><ele>0.0</ele><time>2026-04-26T09:18:16.899Z</time></trkpt><trkpt lat="45.2021946" lon="12.2768375"><ele>0.0</ele><time>2026-04-26T09:18:18.899Z</time></trkpt><trkpt lat="45.2020851" lon="12.2768615"><ele>0.0</ele><time>2026-04-26T09:18:20.891Z</time></trkpt><trkpt lat="45.2019816" lon="12.2768845"><ele>0.0</ele><time>2026-04-26T09:18:22.898Z</time></trkpt><trkpt lat="45.2018831" lon="12.2768977"><ele>0.0</ele><time>2026-04-26T09:18:24.893Z</time></trkpt><trkpt lat="45.2017899" lon="12.2769049"><ele>0.0</ele><time>2026-04-26T09:18:26.898Z</time></trkpt><trkpt lat="45.2016841" lon="12.276928"><ele>0.0</ele><time>2026-04-26T09:18:28.898Z</time></trkpt><trkpt lat="45.2015772" lon="12.2769521"><ele>0.4</ele><time>2026-04-26T09:18:30.893Z</time></trkpt><trkpt lat="45.20147" lon="12.2769707"><ele>0.8</ele><time>2026-04-26T09:18:32.9Z</time></trkpt><trkpt lat="45.2013632" lon="12.2769798"><ele>1.2000000000000002</ele><time>2026-04-26T09:18:34.896Z</time></trkpt><trkpt lat="45.2012587" lon="12.2769764"><ele>1.6</ele><time>2026-04-26T09:18:36.894Z</time></trkpt><trkpt lat="45.2011543" lon="12.2769718"><ele>2.0</ele><time>2026-04-26T09:18:38.897Z</time></trkpt><trkpt lat="45.2010526" lon="12.2769711"><ele>2.0</ele><time>2026-04-26T09:18:40.891Z</time></trkpt><trkpt lat="45.2009486" lon="12.2769703"><ele>2.0</ele><time>2026-04-26T09:18:42.898Z</time></trkpt><trkpt lat="45.2008486" lon="12.2769627"><ele>2.0</ele><time>2026-04-26T09:18:44.893Z</time></trkpt><trkpt lat="45.2007483" lon="12.2769606"><ele>2.0</ele><time>2026-04-26T09:18:46.896Z</time></trkpt><trkpt lat="45.2006481" lon="12.2769654"><ele>2.0</ele><time>2026-04-26T09:18:48.898Z</time></trkpt><trkpt lat="45.2005516" lon="12.2769655"><ele>2.0</ele><time>2026-04-26T09:18:50.895Z</time></trkpt><trkpt lat="45.200458" lon="12.2769545"><ele>2.0</ele><time>2026-04-26T09:18:52.901Z</time></trkpt><trkpt lat="45.2003638" lon="12.2769493"><ele>2.0</ele><time>2026-04-26T09:18:54.899Z</time></trkpt><trkpt lat="45.2002682" lon="12.2769451"><ele>2.0</ele><time>2026-04-26T09:18:56.897Z</time></trkpt><trkpt lat="45.2001682" lon="12.2769358"><ele>2.0</ele><time>2026-04-26T09:18:58.896Z</time></trkpt><trkpt lat="45.2000661" lon="12.2769336"><ele>2.0</ele><time>2026-04-26T09:19:00.898Z</time></trkpt><trkpt lat="45.199961" lon="12.2769355"><ele>2.0</ele><time>2026-04-26T09:19:02.895Z</time></trkpt><trkpt lat="45.1998602" lon="12.2769266"><ele>2.0</ele><time>2026-04-26T09:19:04.896Z</time></trkpt><trkpt lat="45.1997583" lon="12.2769345"><ele>2.0</ele><time>2026-04-26T09:19:06.896Z</time></trkpt><trkpt lat="45.1996561" lon="12.276936"><ele>2.0</ele><time>2026-04-26T09:19:08.894Z</time></trkpt><trkpt lat="45.199557" lon="12.2769311"><ele>1.6</ele><time>2026-04-26T09:19:10.896Z</time></trkpt><trkpt lat="45.1994544" lon="12.2769266"><ele>1.2000000000000002</ele><time>2026-04-26T09:19:12.891Z</time></trkpt><trkpt lat="45.1993515" lon="12.2769279"><ele>0.8</ele><time>2026-04-26T09:19:14.894Z</time></trkpt><trkpt lat="45.199248" lon="12.2769264"><ele>0.4</ele><time>2026-04-26T09:19:16.894Z</time></trkpt><trkpt lat="45.1991533" lon="12.2769154"><ele>0.0</ele><time>2026-04-26T09:19:18.894Z</time></trkpt><trkpt lat="45.1990568" lon="12.2769037"><ele>0.4</ele><time>2026-04-26T09:19:20.896Z</time></trkpt><trkpt lat="45.1989549" lon="12.2768921"><ele>0.8</ele><time>2026-04-26T09:19:22.9Z</time></trkpt><trkpt lat="45.1988522" lon="12.2768752"><ele>1.2000000000000002</ele><time>2026-04-26T09:19:24.892Z</time></trkpt><trkpt lat="45.1987478" lon="12.2768572"><ele>1.6</ele><time>2026-04-26T09:19:26.895Z</time></trkpt><trkpt lat="45.1986431" lon="12.2768513"><ele>2.0</ele><time>2026-04-26T09:19:28.897Z</time></trkpt><trkpt lat="45.1985368" lon="12.2768376"><ele>2.0</ele><time>2026-04-26T09:19:30.897Z</time></trkpt><trkpt lat="45.1984354" lon="12.2768155"><ele>2.0</ele><time>2026-04-26T09:19:32.898Z</time></trkpt><trkpt lat="45.1983336" lon="12.2767974"><ele>2.0</ele><time>2026-04-26T09:19:34.899Z</time></trkpt><trkpt lat="45.1982277" lon="12.2767809"><ele>2.0</ele><time>2026-04-26T09:19:36.895Z</time></trkpt><trkpt lat="45.1981249" lon="12.2767645"><ele>2.0</ele><time>2026-04-26T09:19:38.894Z</time></trkpt><trkpt lat="45.19802" lon="12.276751"><ele>1.8</ele><time>2026-04-26T09:19:40.893Z</time></trkpt><trkpt lat="45.1979148" lon="12.2767402"><ele>1.6</ele><time>2026-04-26T09:19:42.904Z</time></trkpt><trkpt lat="45.1978092" lon="12.2767284"><ele>1.4000000000000001</ele><time>2026-04-26T09:19:44.897Z</time></trkpt><trkpt lat="45.197706" lon="12.2767165"><ele>1.2000000000000002</ele><time>2026-04-26T09:19:46.892Z</time></trkpt><trkpt lat="45.1976112" lon="12.2767082"><ele>1.0</ele><time>2026-04-26T09:19:48.894Z</time></trkpt><trkpt lat="45.1975318" lon="12.2767016"><ele>0.9999999999999999</ele><time>2026-04-26T09:19:50.894Z</time></trkpt><trkpt lat="45.1974567" lon="12.2766954"><ele>1.0</ele><time>2026-04-26T09:19:52.892Z</time></trkpt><trkpt lat="45.1973866" lon="12.2767447"><ele>1.0</ele><time>2026-04-26T09:19:54.896Z</time></trkpt><trkpt lat="45.1973506" lon="12.2768501"><ele>1.0</ele><time>2026-04-26T09:19:56.894Z</time></trkpt><trkpt lat="45.1973471" lon="12.2769864"><ele>0.9999999999999999</ele><time>2026-04-26T09:19:58.894Z</time></trkpt><trkpt lat="45.1973434" lon="12.2771435"><ele>1.0</ele><time>2026-04-26T09:20:00.895Z</time></trkpt><trkpt lat="45.1973321" lon="12.2772807"><ele>1.0</ele><time>2026-04-26T09:20:02.896Z</time></trkpt><trkpt lat="45.1973193" lon="12.2774089"><ele>1.0</ele><time>2026-04-26T09:20:04.896Z</time></trkpt><trkpt lat="45.1972931" lon="12.2775394"><ele>1.0</ele><time>2026-04-26T09:20:06.896Z</time></trkpt><trkpt lat="45.1972598" lon="12.2776516"><ele>1.0</ele><time>2026-04-26T09:20:08.894Z</time></trkpt><trkpt lat="45.197232" lon="12.2777776"><ele>1.0</ele><time>2026-04-26T09:20:10.892Z</time></trkpt><trkpt lat="45.1972176" lon="12.2779023"><ele>1.0</ele><time>2026-04-26T09:20:12.892Z</time></trkpt><trkpt lat="45.1971948" lon="12.2780274"><ele>1.0</ele><time>2026-04-26T09:20:14.893Z</time></trkpt><trkpt lat="45.1971672" lon="12.2781791"><ele>1.0</ele><time>2026-04-26T09:20:16.895Z</time></trkpt><trkpt lat="45.1971287" lon="12.2783394"><ele>1.0</ele><time>2026-04-26T09:20:18.895Z</time></trkpt><trkpt lat="45.1970934" lon="12.2784784"><ele>1.0</ele><time>2026-04-26T09:20:20.892Z</time></trkpt><trkpt lat="45.1970587" lon="12.2786125"><ele>0.8333333333333333</ele><time>2026-04-26T09:20:22.892Z</time></trkpt><trkpt lat="45.1970253" lon="12.2787505"><ele>0.6666666666666666</ele><time>2026-04-26T09:20:24.895Z</time></trkpt><trkpt lat="45.1969949" lon="12.278883"><ele>0.5</ele><time>2026-04-26T09:20:26.896Z</time></trkpt><trkpt lat="45.1969744" lon="12.2790101"><ele>0.3333333333333333</ele><time>2026-04-26T09:20:28.895Z</time></trkpt><trkpt lat="45.1969497" lon="12.2791186"><ele>0.16666666666666666</ele><time>2026-04-26T09:20:30.896Z</time></trkpt><trkpt lat="45.1969195" lon="12.2791996"><ele>0.0</ele><time>2026-04-26T09:20:32.901Z</time></trkpt><trkpt lat="45.196886" lon="12.2792821"><ele>-0.14285714285714285</ele><time>2026-04-26T09:20:34.898Z</time></trkpt><trkpt lat="45.1968417" lon="12.2793709"><ele>-0.2857142857142857</ele><time>2026-04-26T09:20:36.901Z</time></trkpt><trkpt lat="45.1967975" lon="12.2794585"><ele>-0.42857142857142855</ele><time>2026-04-26T09:20:38.896Z</time></trkpt><trkpt lat="45.1967573" lon="12.2795406"><ele>-0.5714285714285714</ele><time>2026-04-26T09:20:40.893Z</time></trkpt><trkpt lat="45.196716" lon="12.2796219"><ele>-0.7142857142857142</ele><time>2026-04-26T09:20:42.902Z</time></trkpt><trkpt lat="45.1966842" lon="12.2797061"><ele>-0.8571428571428571</ele><time>2026-04-26T09:20:44.895Z</time></trkpt><trkpt lat="45.196651" lon="12.2797915"><ele>-1.0</ele><time>2026-04-26T09:20:46.897Z</time></trkpt><trkpt lat="45.1966106" lon="12.2798867"><ele>-0.9999999999999999</ele><time>2026-04-26T09:20:48.897Z</time></trkpt><trkpt lat="45.1965697" lon="12.2799928"><ele>-1.0</ele><time>2026-04-26T09:20:50.893Z</time></trkpt><trkpt lat="45.1965254" lon="12.2800983"><ele>-1.0</ele><time>2026-04-26T09:20:52.901Z</time></trkpt><trkpt lat="45.1964863" lon="12.2801817"><ele>-1.0</ele><time>2026-04-26T09:20:54.895Z</time></trkpt><trkpt lat="45.1964621" lon="12.2802679"><ele>-0.9999999999999999</ele><time>2026-04-26T09:20:56.893Z</time></trkpt><trkpt lat="45.1964351" lon="12.2803944"><ele>-1.0</ele><time>2026-04-26T09:20:58.904Z</time></trkpt><trkpt lat="45.196402" lon="12.2805278"><ele>-0.6000000000000001</ele><time>2026-04-26T09:21:00.896Z</time></trkpt><trkpt lat="45.1963628" lon="12.2806577"><ele>-0.20000000000000007</ele><time>2026-04-26T09:21:02.902Z</time></trkpt><trkpt lat="45.1963146" lon="12.2807909"><ele>0.20000000000000007</ele><time>2026-04-26T09:21:04.898Z</time></trkpt><trkpt lat="45.1962721" lon="12.2809308"><ele>0.6000000000000001</ele><time>2026-04-26T09:21:06.897Z</time></trkpt><trkpt lat="45.1962382" lon="12.2810676"><ele>1.0</ele><time>2026-04-26T09:21:08.899Z</time></trkpt><trkpt lat="45.1962002" lon="12.2812033"><ele>1.0</ele><time>2026-04-26T09:21:10.895Z</time></trkpt><trkpt lat="45.1961704" lon="12.2813279"><ele>1.0</ele><time>2026-04-26T09:21:12.897Z</time></trkpt><trkpt lat="45.1961404" lon="12.2814491"><ele>1.0</ele><time>2026-04-26T09:21:14.9Z</time></trkpt><trkpt lat="45.1961026" lon="12.2815696"><ele>1.0</ele><time>2026-04-26T09:21:16.894Z</time></trkpt><trkpt lat="45.1960663" lon="12.2816908"><ele>1.0</ele><time>2026-04-26T09:21:18.895Z</time></trkpt><trkpt lat="45.1960334" lon="12.2818062"><ele>0.8571428571428571</ele><time>2026-04-26T09:21:20.896Z</time></trkpt><trkpt lat="45.1960018" lon="12.2819111"><ele>0.7142857142857142</ele><time>2026-04-26T09:21:22.897Z</time></trkpt><trkpt lat="45.1959736" lon="12.2819985"><ele>0.5714285714285714</ele><time>2026-04-26T09:21:24.895Z</time></trkpt><trkpt lat="45.195928" lon="12.2820725"><ele>0.42857142857142855</ele><time>2026-04-26T09:21:26.894Z</time></trkpt><trkpt lat="45.1958795" lon="12.2821378"><ele>0.2857142857142857</ele><time>2026-04-26T09:21:28.893Z</time></trkpt><trkpt lat="45.1958205" lon="12.2822145"><ele>0.14285714285714285</ele><time>2026-04-26T09:21:31.903Z</time></trkpt><trkpt lat="45.19577" lon="12.2822704"><ele>0.0</ele><time>2026-04-26T09:21:33.894Z</time></trkpt><trkpt lat="45.1957028" lon="12.2823256"><ele>0.2</ele><time>2026-04-26T09:21:35.897Z</time></trkpt><trkpt lat="45.1956168" lon="12.2823451"><ele>0.4</ele><time>2026-04-26T09:21:37.896Z</time></trkpt><trkpt lat="45.1955304" lon="12.2823292"><ele>0.6000000000000001</ele><time>2026-04-26T09:21:39.896Z</time></trkpt><trkpt lat="45.1954417" lon="12.282302"><ele>0.8</ele><time>2026-04-26T09:21:41.894Z</time></trkpt><trkpt lat="45.1953534" lon="12.282262"><ele>1.0</ele><time>2026-04-26T09:21:43.896Z</time></trkpt><trkpt lat="45.1952664" lon="12.2822098"><ele>1.0</ele><time>2026-04-26T09:21:45.899Z</time></trkpt><trkpt lat="45.1951804" lon="12.2821691"><ele>1.0</ele><time>2026-04-26T09:21:47.895Z</time></trkpt><trkpt lat="45.1950867" lon="12.2821425"><ele>1.0</ele><time>2026-04-26T09:21:49.893Z</time></trkpt><trkpt lat="45.1949822" lon="12.2821189"><ele>1.0</ele><time>2026-04-26T09:21:51.896Z</time></trkpt><trkpt lat="45.1948817" lon="12.2820848"><ele>1.0</ele><time>2026-04-26T09:21:53.895Z</time></trkpt><trkpt lat="45.1947865" lon="12.2820511"><ele>1.4</ele><time>2026-04-26T09:21:55.893Z</time></trkpt><trkpt lat="45.1946859" lon="12.2820199"><ele>1.8</ele><time>2026-04-26T09:21:57.896Z</time></trkpt><trkpt lat="45.1945819" lon="12.2819957"><ele>2.1999999999999997</ele><time>2026-04-26T09:21:59.897Z</time></trkpt><trkpt lat="45.1944804" lon="12.2819619"><ele>2.6</ele><time>2026-04-26T09:22:01.894Z</time></trkpt><trkpt lat="45.194382" lon="12.281928"><ele>3.0</ele><time>2026-04-26T09:22:03.895Z</time></trkpt><trkpt lat="45.1942894" lon="12.2818922"><ele>3.0</ele><time>2026-04-26T09:22:05.899Z</time></trkpt><trkpt lat="45.1941967" lon="12.2818591"><ele>3.0</ele><time>2026-04-26T09:22:07.893Z</time></trkpt><trkpt lat="45.1941069" lon="12.2818278"><ele>3.0</ele><time>2026-04-26T09:22:09.896Z</time></trkpt><trkpt lat="45.1940125" lon="12.2817991"><ele>3.0</ele><time>2026-04-26T09:22:11.897Z</time></trkpt><trkpt lat="45.1939154" lon="12.2817765"><ele>3.0</ele><time>2026-04-26T09:22:13.892Z</time></trkpt><trkpt lat="45.1938237" lon="12.28175"><ele>2.6</ele><time>2026-04-26T09:22:15.891Z</time></trkpt><trkpt lat="45.1937281" lon="12.2817188"><ele>2.1999999999999997</ele><time>2026-04-26T09:22:17.895Z</time></trkpt><trkpt lat="45.1936321" lon="12.2816839"><ele>1.8</ele><time>2026-04-26T09:22:19.895Z</time></trkpt><trkpt lat="45.1935339" lon="12.2816469"><ele>1.4</ele><time>2026-04-26T09:22:21.897Z</time></trkpt><trkpt lat="45.1934364" lon="12.28162"><ele>1.0</ele><time>2026-04-26T09:22:23.893Z</time></trkpt><trkpt lat="45.1933367" lon="12.2815932"><ele>1.0</ele><time>2026-04-26T09:22:25.894Z</time></trkpt><trkpt lat="45.193243" lon="12.2815612"><ele>1.0</ele><time>2026-04-26T09:22:27.893Z</time></trkpt><trkpt lat="45.1931496" lon="12.2815283"><ele>1.0</ele><time>2026-04-26T09:22:29.895Z</time></trkpt><trkpt lat="45.1930583" lon="12.2814952"><ele>1.0</ele><time>2026-04-26T09:22:31.894Z</time></trkpt><trkpt lat="45.1929605" lon="12.2814585"><ele>1.0</ele><time>2026-04-26T09:22:33.899Z</time></trkpt><trkpt lat="45.1928587" lon="12.2814277"><ele>1.0</ele><time>2026-04-26T09:22:35.896Z</time></trkpt><trkpt lat="45.1927616" lon="12.2813881"><ele>1.0</ele><time>2026-04-26T09:22:37.896Z</time></trkpt><trkpt lat="45.1926611" lon="12.2813416"><ele>1.0</ele><time>2026-04-26T09:22:39.9Z</time></trkpt><trkpt lat="45.1925589" lon="12.2812965"><ele>1.0</ele><time>2026-04-26T09:22:41.895Z</time></trkpt><trkpt lat="45.1924605" lon="12.2812471"><ele>1.0</ele><time>2026-04-26T09:22:43.895Z</time></trkpt><trkpt lat="45.1923658" lon="12.2811937"><ele>1.2000000000000002</ele><time>2026-04-26T09:22:45.896Z</time></trkpt><trkpt lat="45.1922734" lon="12.2811397"><ele>1.4000000000000001</ele><time>2026-04-26T09:22:47.897Z</time></trkpt><trkpt lat="45.1921793" lon="12.2810879"><ele>1.6</ele><time>2026-04-26T09:22:49.896Z</time></trkpt><trkpt lat="45.1920875" lon="12.2810421"><ele>1.8</ele><time>2026-04-26T09:22:51.897Z</time></trkpt><trkpt lat="45.1919932" lon="12.2809955"><ele>2.0</ele><time>2026-04-26T09:22:53.899Z</time></trkpt><trkpt lat="45.1918992" lon="12.2809424"><ele>2.0</ele><time>2026-04-26T09:22:55.894Z</time></trkpt><trkpt lat="45.1918035" lon="12.2808903"><ele>2.0</ele><time>2026-04-26T09:22:57.894Z</time></trkpt><trkpt lat="45.1917019" lon="12.2808494"><ele>2.0</ele><time>2026-04-26T09:22:59.891Z</time></trkpt><trkpt lat="45.1916036" lon="12.2808017"><ele>2.0</ele><time>2026-04-26T09:23:01.898Z</time></trkpt><trkpt lat="45.191505" lon="12.2807564"><ele>2.0</ele><time>2026-04-26T09:23:03.896Z</time></trkpt><trkpt lat="45.1914039" lon="12.2807124"><ele>2.0</ele><time>2026-04-26T09:23:05.895Z</time></trkpt><trkpt lat="45.1913048" lon="12.2806623"><ele>2.0</ele><time>2026-04-26T09:23:07.895Z</time></trkpt><trkpt lat="45.1912041" lon="12.280615"><ele>2.0</ele><time>2026-04-26T09:23:09.893Z</time></trkpt><trkpt lat="45.1911071" lon="12.2805699"><ele>2.0</ele><time>2026-04-26T09:23:11.899Z</time></trkpt><trkpt lat="45.1910089" lon="12.2805208"><ele>2.0</ele><time>2026-04-26T09:23:13.894Z</time></trkpt><trkpt lat="45.1909063" lon="12.2804725"><ele>2.0</ele><time>2026-04-26T09:23:15.897Z</time></trkpt><trkpt lat="45.1908053" lon="12.2804321"><ele>2.0</ele><time>2026-04-26T09:23:17.896Z</time></trkpt><trkpt lat="45.1907055" lon="12.2803918"><ele>2.0</ele><time>2026-04-26T09:23:19.897Z</time></trkpt><trkpt lat="45.1906057" lon="12.280366"><ele>2.0</ele><time>2026-04-26T09:23:21.895Z</time></trkpt><trkpt lat="45.1905057" lon="12.2803439"><ele>2.0</ele><time>2026-04-26T09:23:23.896Z</time></trkpt><trkpt lat="45.1904139" lon="12.2803264"><ele>1.6666666666666665</ele><time>2026-04-26T09:23:25.898Z</time></trkpt><trkpt lat="45.1903239" lon="12.2803039"><ele>1.3333333333333333</ele><time>2026-04-26T09:23:27.893Z</time></trkpt><trkpt lat="45.1902328" lon="12.2802849"><ele>1.0</ele><time>2026-04-26T09:23:29.895Z</time></trkpt><trkpt lat="45.1901484" lon="12.2802694"><ele>0.6666666666666666</ele><time>2026-04-26T09:23:31.893Z</time></trkpt><trkpt lat="45.1900652" lon="12.2802551"><ele>0.3333333333333333</ele><time>2026-04-26T09:23:33.903Z</time></trkpt><trkpt lat="45.1899842" lon="12.2802462"><ele>0.0</ele><time>2026-04-26T09:23:35.893Z</time></trkpt><trkpt lat="45.1899059" lon="12.2802342"><ele>0.0</ele><time>2026-04-26T09:23:37.895Z</time></trkpt><trkpt lat="45.1898316" lon="12.2802227"><ele>0.0</ele><time>2026-04-26T09:23:39.897Z</time></trkpt><trkpt lat="45.1897599" lon="12.2802083"><ele>0.0</ele><time>2026-04-26T09:23:41.892Z</time></trkpt><trkpt lat="45.1896941" lon="12.2801889"><ele>0.0</ele><time>2026-04-26T09:23:43.9Z</time></trkpt><trkpt lat="45.1896276" lon="12.2801664"><ele>0.0</ele><time>2026-04-26T09:23:45.898Z</time></trkpt><trkpt lat="45.1895596" lon="12.2801478"><ele>0.0</ele><time>2026-04-26T09:23:47.896Z</time></trkpt><trkpt lat="45.1894906" lon="12.2801399"><ele>0.0</ele><time>2026-04-26T09:23:49.901Z</time></trkpt><trkpt lat="45.1894182" lon="12.2801313"><ele>0.0</ele><time>2026-04-26T09:23:51.897Z</time></trkpt><trkpt lat="45.1893511" lon="12.2801287"><ele>0.0</ele><time>2026-04-26T09:23:53.896Z</time></trkpt><trkpt lat="45.1892777" lon="12.2801241"><ele>0.0</ele><time>2026-04-26T09:24:46.9Z</time></trkpt><trkpt lat="45.1892027" lon="12.2801352"><ele>0.0</ele><time>2026-04-26T09:24:49.892Z</time></trkpt><trkpt lat="45.1891365" lon="12.2801244"><ele>0.0</ele><time>2026-04-26T09:24:51.893Z</time></trkpt><trkpt lat="45.189065" lon="12.2801141"><ele>0.0</ele><time>2026-04-26T09:24:53.893Z</time></trkpt><trkpt lat="45.1889845" lon="12.280111"><ele>0.0</ele><time>2026-04-26T09:24:55.898Z</time></trkpt><trkpt lat="45.1889025" lon="12.2800993"><ele>0.16666666666666666</ele><time>2026-04-26T09:24:57.897Z</time></trkpt><trkpt lat="45.1888269" lon="12.2800814"><ele>0.3333333333333333</ele><time>2026-04-26T09:24:59.896Z</time></trkpt><trkpt lat="45.1887489" lon="12.2800757"><ele>0.5</ele><time>2026-04-26T09:25:01.895Z</time></trkpt><trkpt lat="45.188664" lon="12.2800679"><ele>0.6666666666666666</ele><time>2026-04-26T09:25:03.899Z</time></trkpt><trkpt lat="45.1885707" lon="12.2800615"><ele>0.8333333333333333</ele><time>2026-04-26T09:25:05.894Z</time></trkpt><trkpt lat="45.1884704" lon="12.2800559"><ele>1.0</ele><time>2026-04-26T09:25:07.892Z</time></trkpt><trkpt lat="45.1883703" lon="12.28005"><ele>1.0</ele><time>2026-04-26T09:25:09.897Z</time></trkpt><trkpt lat="45.1882702" lon="12.2800334"><ele>1.0</ele><time>2026-04-26T09:25:11.891Z</time></trkpt><trkpt lat="45.1881749" lon="12.2800044"><ele>1.0</ele><time>2026-04-26T09:25:13.892Z</time></trkpt><trkpt lat="45.1880834" lon="12.2799672"><ele>1.0</ele><time>2026-04-26T09:25:15.897Z</time></trkpt><trkpt lat="45.1879937" lon="12.2799132"><ele>1.0</ele><time>2026-04-26T09:25:17.894Z</time></trkpt><trkpt lat="45.1878976" lon="12.2798612"><ele>1.0</ele><time>2026-04-26T09:25:19.897Z</time></trkpt><trkpt lat="45.1878036" lon="12.2798102"><ele>1.0</ele><time>2026-04-26T09:25:21.897Z</time></trkpt><trkpt lat="45.1877074" lon="12.2797598"><ele>1.0</ele><time>2026-04-26T09:25:23.895Z</time></trkpt><trkpt lat="45.1876048" lon="12.2797121"><ele>1.0</ele><time>2026-04-26T09:25:25.894Z</time></trkpt><trkpt lat="45.1875004" lon="12.2796622"><ele>1.0</ele><time>2026-04-26T09:25:27.9Z</time></trkpt><trkpt lat="45.1873988" lon="12.2796236"><ele>1.2000000000000002</ele><time>2026-04-26T09:25:29.895Z</time></trkpt><trkpt lat="45.1872991" lon="12.2795815"><ele>1.4000000000000001</ele><time>2026-04-26T09:25:31.904Z</time></trkpt><trkpt lat="45.1872006" lon="12.2795316"><ele>1.6</ele><time>2026-04-26T09:25:33.902Z</time></trkpt><trkpt lat="45.1870974" lon="12.2794844"><ele>1.8</ele><time>2026-04-26T09:25:35.901Z</time></trkpt><trkpt lat="45.186997" lon="12.2794442"><ele>2.0</ele><time>2026-04-26T09:25:37.9Z</time></trkpt><trkpt lat="45.1868948" lon="12.2794031"><ele>2.0</ele><time>2026-04-26T09:25:39.903Z</time></trkpt><trkpt lat="45.1867919" lon="12.2793617"><ele>2.0</ele><time>2026-04-26T09:25:41.895Z</time></trkpt><trkpt lat="45.186689" lon="12.2793244"><ele>2.0</ele><time>2026-04-26T09:25:43.901Z</time></trkpt><trkpt lat="45.1865944" lon="12.279281"><ele>2.0</ele><time>2026-04-26T09:25:45.899Z</time></trkpt><trkpt lat="45.1864991" lon="12.2792359"><ele>2.0</ele><time>2026-04-26T09:25:47.898Z</time></trkpt><trkpt lat="45.1863979" lon="12.2791932"><ele>1.6</ele><time>2026-04-26T09:25:49.899Z</time></trkpt><trkpt lat="45.186293" lon="12.2791568"><ele>1.2000000000000002</ele><time>2026-04-26T09:25:51.897Z</time></trkpt><trkpt lat="45.1861892" lon="12.2791102"><ele>0.8</ele><time>2026-04-26T09:25:53.898Z</time></trkpt><trkpt lat="45.1860826" lon="12.2790632"><ele>0.4</ele><time>2026-04-26T09:25:55.896Z</time></trkpt><trkpt lat="45.1859746" lon="12.2790174"><ele>0.0</ele><time>2026-04-26T09:25:57.894Z</time></trkpt><trkpt lat="45.1858733" lon="12.2789714"><ele>0.2</ele><time>2026-04-26T09:25:59.898Z</time></trkpt><trkpt lat="45.1857719" lon="12.2789267"><ele>0.4</ele><time>2026-04-26T09:26:01.903Z</time></trkpt><trkpt lat="45.1856701" lon="12.2788803"><ele>0.6000000000000001</ele><time>2026-04-26T09:26:03.901Z</time></trkpt><trkpt lat="45.1855683" lon="12.2788426"><ele>0.8</ele><time>2026-04-26T09:26:05.904Z</time></trkpt><trkpt lat="45.1854732" lon="12.2788021"><ele>1.0</ele><time>2026-04-26T09:26:07.897Z</time></trkpt><trkpt lat="45.1853845" lon="12.2787706"><ele>1.0</ele><time>2026-04-26T09:26:09.898Z</time></trkpt><trkpt lat="45.1852998" lon="12.2787351"><ele>1.0</ele><time>2026-04-26T09:26:11.897Z</time></trkpt><trkpt lat="45.1852136" lon="12.2787025"><ele>1.0</ele><time>2026-04-26T09:26:13.901Z</time></trkpt><trkpt lat="45.1851216" lon="12.2786769"><ele>1.0</ele><time>2026-04-26T09:26:15.899Z</time></trkpt><trkpt lat="45.1850317" lon="12.2786474"><ele>1.0</ele><time>2026-04-26T09:26:17.896Z</time></trkpt><trkpt lat="45.1849395" lon="12.2786178"><ele>0.9999999999999999</ele><time>2026-04-26T09:26:19.897Z</time></trkpt><trkpt lat="45.1848596" lon="12.2785959"><ele>1.0</ele><time>2026-04-26T09:26:21.897Z</time></trkpt><trkpt lat="45.1847979" lon="12.2785778"><ele>1.0</ele><time>2026-04-26T09:26:23.895Z</time></trkpt><trkpt lat="45.1847421" lon="12.2784829"><ele>1.0</ele><time>2026-04-26T09:26:26.895Z</time></trkpt><trkpt lat="45.1847256" lon="12.2783846"><ele>0.9999999999999999</ele><time>2026-04-26T09:26:28.897Z</time></trkpt><trkpt lat="45.1847062" lon="12.278297"><ele>1.0</ele><time>2026-04-26T09:26:30.897Z</time></trkpt><trkpt lat="45.1846357" lon="12.2782183"><ele>0.9999999999999999</ele><time>2026-04-26T09:26:33.897Z</time></trkpt><trkpt lat="45.1845552" lon="12.2781897"><ele>1.0</ele><time>2026-04-26T09:26:36.901Z</time></trkpt><trkpt lat="45.1844758" lon="12.2781519"><ele>1.0</ele><time>2026-04-26T09:26:39.901Z</time></trkpt><trkpt lat="45.1844051" lon="12.2781169"><ele>1.0</ele><time>2026-04-26T09:26:41.893Z</time></trkpt><trkpt lat="45.1843346" lon="12.2780588"><ele>0.9999999999999999</ele><time>2026-04-26T09:26:44.895Z</time></trkpt><trkpt lat="45.1843024" lon="12.2779688"><ele>1.0</ele><time>2026-04-26T09:26:47.897Z</time></trkpt><trkpt lat="45.1843362" lon="12.277857"><ele>0.6666666666666666</ele><time>2026-04-26T09:26:50.895Z</time></trkpt><trkpt lat="45.1844155" lon="12.2778432"><ele>0.3333333333333333</ele><time>2026-04-26T09:26:53.893Z</time></trkpt><trkpt lat="45.1845042" lon="12.2778724"><ele>0.0</ele><time>2026-04-26T09:26:56.899Z</time></trkpt><trkpt lat="45.1845659" lon="12.2778947"><ele>-0.3333333333333333</ele><time>2026-04-26T09:26:58.896Z</time></trkpt><trkpt lat="45.1846524" lon="12.2779155"><ele>-0.6666666666666666</ele><time>2026-04-26T09:27:01.9Z</time></trkpt><trkpt lat="45.1847144" lon="12.2778912"><ele>-1.0</ele><time>2026-04-26T09:27:04.894Z</time></trkpt><trkpt lat="45.1847274" lon="12.2777961"><ele>-0.9999999999999999</ele><time>2026-04-26T09:27:06.894Z</time></trkpt><trkpt lat="45.1847439" lon="12.2776855"><ele>-1.0</ele><time>2026-04-26T09:27:08.9Z</time></trkpt><trkpt lat="45.1847642" lon="12.2775822"><ele>-1.0</ele><time>2026-04-26T09:27:10.899Z</time></trkpt><trkpt lat="45.1847886" lon="12.2774789"><ele>-1.0</ele><time>2026-04-26T09:27:12.904Z</time></trkpt><trkpt lat="45.1848115" lon="12.2773702"><ele>-0.9999999999999999</ele><time>2026-04-26T09:27:14.897Z</time></trkpt><trkpt lat="45.1848262" lon="12.2772712"><ele>-1.0</ele><time>2026-04-26T09:27:16.894Z</time></trkpt><trkpt lat="45.184912" lon="12.2772077"><ele>-1.0</ele><time>2026-04-26T09:27:19.901Z</time></trkpt><trkpt lat="45.1849995" lon="12.2772123"><ele>-1.0</ele><time>2026-04-26T09:27:21.896Z</time></trkpt><trkpt lat="45.1850949" lon="12.2772165"><ele>-1.0</ele><time>2026-04-26T09:27:23.9Z</time></trkpt><trkpt lat="45.1851922" lon="12.2772204"><ele>-1.0</ele><time>2026-04-26T09:27:25.897Z</time></trkpt><trkpt lat="45.1852951" lon="12.2772147"><ele>-1.0</ele><time>2026-04-26T09:27:27.898Z</time></trkpt><trkpt lat="45.1854" lon="12.2772109"><ele>-1.0</ele><time>2026-04-26T09:27:29.895Z</time></trkpt><trkpt lat="45.1855056" lon="12.2772093"><ele>-1.0</ele><time>2026-04-26T09:27:31.897Z</time></trkpt><trkpt lat="45.1856091" lon="12.2772098"><ele>-1.0</ele><time>2026-04-26T09:27:33.9Z</time></trkpt><trkpt lat="45.1857122" lon="12.2772013"><ele>-1.0</ele><time>2026-04-26T09:27:35.9Z</time></trkpt><trkpt lat="45.1858165" lon="12.2771943"><ele>-1.0</ele><time>2026-04-26T09:27:37.897Z</time></trkpt><trkpt lat="45.1859204" lon="12.2771887"><ele>-0.8333333333333333</ele><time>2026-04-26T09:27:39.902Z</time></trkpt><trkpt lat="45.1860201" lon="12.2771845"><ele>-0.6666666666666666</ele><time>2026-04-26T09:27:41.896Z</time></trkpt><trkpt lat="45.186114" lon="12.2771817"><ele>-0.5</ele><time>2026-04-26T09:27:43.896Z</time></trkpt><trkpt lat="45.1862005" lon="12.2771806"><ele>-0.3333333333333333</ele><time>2026-04-26T09:27:45.899Z</time></trkpt><trkpt lat="45.1862771" lon="12.2771927"><ele>-0.16666666666666666</ele><time>2026-04-26T09:27:47.896Z</time></trkpt><trkpt lat="45.1863314" lon="12.27727"><ele>0.0</ele><time>2026-04-26T09:27:49.897Z</time></trkpt><trkpt lat="45.18638" lon="12.2773469"><ele>0.0</ele><time>2026-04-26T09:27:51.896Z</time></trkpt><trkpt lat="45.1864086" lon="12.2774478"><ele>0.0</ele><time>2026-04-26T09:27:53.899Z</time></trkpt><trkpt lat="45.1864346" lon="12.2775444"><ele>0.0</ele><time>2026-04-26T09:27:55.9Z</time></trkpt><trkpt lat="45.1864635" lon="12.277639"><ele>0.0</ele><time>2026-04-26T09:27:57.892Z</time></trkpt><trkpt lat="45.1864944" lon="12.277726"><ele>0.0</ele><time>2026-04-26T09:27:59.898Z</time></trkpt><trkpt lat="45.1865259" lon="12.2778298"><ele>0.0</ele><time>2026-04-26T09:28:02.901Z</time></trkpt><trkpt lat="45.186606" lon="12.2778641"><ele>-0.3333333333333333</ele><time>2026-04-26T09:28:06.9Z</time></trkpt><trkpt lat="45.1866831" lon="12.277773"><ele>-0.6666666666666666</ele><time>2026-04-26T09:28:09.903Z</time></trkpt><trkpt lat="45.1867443" lon="12.2776961"><ele>-1.0</ele><time>2026-04-26T09:28:11.892Z</time></trkpt><trkpt lat="45.186809" lon="12.2776187"><ele>-1.3333333333333333</ele><time>2026-04-26T09:28:13.895Z</time></trkpt><trkpt lat="45.1868748" lon="12.2775497"><ele>-1.6666666666666665</ele><time>2026-04-26T09:28:15.896Z</time></trkpt><trkpt lat="45.1869432" lon="12.2774989"><ele>-2.0</ele><time>2026-04-26T09:28:17.893Z</time></trkpt><trkpt lat="45.18701" lon="12.2774606"><ele>-2.0</ele><time>2026-04-26T09:28:19.892Z</time></trkpt><trkpt lat="45.1870984" lon="12.2774399"><ele>-2.0</ele><time>2026-04-26T09:28:22.905Z</time></trkpt><trkpt lat="45.187192" lon="12.2773868"><ele>-2.0</ele><time>2026-04-26T09:28:25.897Z</time></trkpt><trkpt lat="45.1872793" lon="12.2773148"><ele>-2.0</ele><time>2026-04-26T09:28:27.899Z</time></trkpt><trkpt lat="45.1873695" lon="12.2772284"><ele>-2.0</ele><time>2026-04-26T09:28:29.896Z</time></trkpt><trkpt lat="45.1874413" lon="12.2771224"><ele>-2.0</ele><time>2026-04-26T09:28:31.899Z</time></trkpt><trkpt lat="45.187504" lon="12.2770113"><ele>-2.0</ele><time>2026-04-26T09:28:33.896Z</time></trkpt><trkpt lat="45.1875422" lon="12.2768895"><ele>-2.0</ele><time>2026-04-26T09:28:35.9Z</time></trkpt><trkpt lat="45.1875568" lon="12.2767397"><ele>-2.0</ele><time>2026-04-26T09:28:37.898Z</time></trkpt><trkpt lat="45.1875407" lon="12.276599"><ele>-2.0</ele><time>2026-04-26T09:28:39.898Z</time></trkpt><trkpt lat="45.1875068" lon="12.2764596"><ele>-2.0</ele><time>2026-04-26T09:28:41.894Z</time></trkpt><trkpt lat="45.1874605" lon="12.2763351"><ele>-2.0</ele><time>2026-04-26T09:28:43.901Z</time></trkpt><trkpt lat="45.1873995" lon="12.2762197"><ele>-2.0</ele><time>2026-04-26T09:28:45.894Z</time></trkpt><trkpt lat="45.1873109" lon="12.2761404"><ele>-2.0</ele><time>2026-04-26T09:28:47.897Z</time></trkpt><trkpt lat="45.1872246" lon="12.2760688"><ele>-2.0</ele><time>2026-04-26T09:28:49.895Z</time></trkpt><trkpt lat="45.1871422" lon="12.2759801"><ele>-1.8</ele><time>2026-04-26T09:28:51.891Z</time></trkpt><trkpt lat="45.1870956" lon="12.2758574"><ele>-1.6</ele><time>2026-04-26T09:28:53.897Z</time></trkpt><trkpt lat="45.187071" lon="12.2757234"><ele>-1.4000000000000001</ele><time>2026-04-26T09:28:55.896Z</time></trkpt><trkpt lat="45.1870657" lon="12.275585"><ele>-1.2000000000000002</ele><time>2026-04-26T09:28:57.901Z</time></trkpt><trkpt lat="45.1870794" lon="12.275453"><ele>-1.0</ele><time>2026-04-26T09:28:59.901Z</time></trkpt><trkpt lat="45.1871003" lon="12.2753208"><ele>-0.6000000000000001</ele><time>2026-04-26T09:29:01.905Z</time></trkpt><trkpt lat="45.1870808" lon="12.275188"><ele>-0.20000000000000007</ele><time>2026-04-26T09:29:03.898Z</time></trkpt><trkpt lat="45.1870161" lon="12.2750852"><ele>0.20000000000000007</ele><time>2026-04-26T09:29:05.897Z</time></trkpt><trkpt lat="45.186929" lon="12.2750098"><ele>0.6000000000000001</ele><time>2026-04-26T09:29:07.9Z</time></trkpt><trkpt lat="45.1868489" lon="12.2749416"><ele>1.0</ele><time>2026-04-26T09:29:09.902Z</time></trkpt><trkpt lat="45.1867733" lon="12.274864"><ele>1.0</ele><time>2026-04-26T09:29:11.898Z</time></trkpt><trkpt lat="45.1867023" lon="12.2747908"><ele>1.0</ele><time>2026-04-26T09:29:13.895Z</time></trkpt><trkpt lat="45.1866226" lon="12.2747293"><ele>1.0</ele><time>2026-04-26T09:29:15.893Z</time></trkpt><trkpt lat="45.1865353" lon="12.2746857"><ele>1.0</ele><time>2026-04-26T09:29:17.892Z</time></trkpt><trkpt lat="45.1864479" lon="12.2746572"><ele>1.0</ele><time>2026-04-26T09:29:19.894Z</time></trkpt><trkpt lat="45.1863556" lon="12.2746426"><ele>0.6000000000000001</ele><time>2026-04-26T09:29:21.899Z</time></trkpt><trkpt lat="45.1862577" lon="12.2746391"><ele>0.20000000000000007</ele><time>2026-04-26T09:29:23.894Z</time></trkpt><trkpt lat="45.1861591" lon="12.2746366"><ele>-0.20000000000000007</ele><time>2026-04-26T09:29:25.896Z</time></trkpt><trkpt lat="45.1860565" lon="12.2746268"><ele>-0.6000000000000001</ele><time>2026-04-26T09:29:27.899Z</time></trkpt><trkpt lat="45.1859538" lon="12.2746185"><ele>-1.0</ele><time>2026-04-26T09:29:29.897Z</time></trkpt><trkpt lat="45.1858501" lon="12.2746135"><ele>-1.0</ele><time>2026-04-26T09:29:31.902Z</time></trkpt><trkpt lat="45.1857519" lon="12.2746126"><ele>-1.0</ele><time>2026-04-26T09:29:33.895Z</time></trkpt><trkpt lat="45.1856593" lon="12.2746158"><ele>-1.0</ele><time>2026-04-26T09:29:35.902Z</time></trkpt><trkpt lat="45.1855693" lon="12.2746185"><ele>-1.0</ele><time>2026-04-26T09:29:37.901Z</time></trkpt><trkpt lat="45.1854797" lon="12.274587"><ele>-1.0</ele><time>2026-04-26T09:29:39.9Z</time></trkpt><trkpt lat="45.1854002" lon="12.2745038"><ele>-0.8</ele><time>2026-04-26T09:29:41.894Z</time></trkpt><trkpt lat="45.1853462" lon="12.2743775"><ele>-0.6000000000000001</ele><time>2026-04-26T09:29:43.896Z</time></trkpt><trkpt lat="45.1853121" lon="12.2742405"><ele>-0.4</ele><time>2026-04-26T09:29:45.897Z</time></trkpt><trkpt lat="45.1852886" lon="12.2741106"><ele>-0.2</ele><time>2026-04-26T09:29:47.891Z</time></trkpt><trkpt lat="45.1852659" lon="12.2739739"><ele>0.0</ele><time>2026-04-26T09:29:49.899Z</time></trkpt><trkpt lat="45.1852345" lon="12.2738381"><ele>0.0</ele><time>2026-04-26T09:29:51.899Z</time></trkpt><trkpt lat="45.18521" lon="12.2736884"><ele>0.0</ele><time>2026-04-26T09:29:53.898Z</time></trkpt><trkpt lat="45.1851741" lon="12.2735339"><ele>0.0</ele><time>2026-04-26T09:29:55.897Z</time></trkpt><trkpt lat="45.1851305" lon="12.2733828"><ele>0.0</ele><time>2026-04-26T09:29:57.899Z</time></trkpt><trkpt lat="45.1850883" lon="12.2732327"><ele>0.2</ele><time>2026-04-26T09:29:59.897Z</time></trkpt><trkpt lat="45.1850492" lon="12.2730803"><ele>0.4</ele><time>2026-04-26T09:30:01.894Z</time></trkpt><trkpt lat="45.1850085" lon="12.2729287"><ele>0.6000000000000001</ele><time>2026-04-26T09:30:03.898Z</time></trkpt><trkpt lat="45.1849722" lon="12.2727849"><ele>0.8</ele><time>2026-04-26T09:30:05.898Z</time></trkpt><trkpt lat="45.1849391" lon="12.2726485"><ele>1.0</ele><time>2026-04-26T09:30:07.895Z</time></trkpt><trkpt lat="45.1849124" lon="12.2725176"><ele>1.0</ele><time>2026-04-26T09:30:09.893Z</time></trkpt><trkpt lat="45.1848804" lon="12.2723892"><ele>1.0</ele><time>2026-04-26T09:30:11.896Z</time></trkpt><trkpt lat="45.1848443" lon="12.2722614"><ele>1.0</ele><time>2026-04-26T09:30:13.897Z</time></trkpt><trkpt lat="45.1848107" lon="12.2721393"><ele>1.0</ele><time>2026-04-26T09:30:15.895Z</time></trkpt><trkpt lat="45.1847797" lon="12.2720175"><ele>1.0</ele><time>2026-04-26T09:30:17.895Z</time></trkpt><trkpt lat="45.1847528" lon="12.2719027"><ele>0.6666666666666666</ele><time>2026-04-26T09:30:19.894Z</time></trkpt><trkpt lat="45.1847267" lon="12.271787"><ele>0.3333333333333333</ele><time>2026-04-26T09:30:21.892Z</time></trkpt><trkpt lat="45.1846974" lon="12.2716706"><ele>0.0</ele><time>2026-04-26T09:30:23.9Z</time></trkpt><trkpt lat="45.1846686" lon="12.2715546"><ele>-0.3333333333333333</ele><time>2026-04-26T09:30:25.898Z</time></trkpt><trkpt lat="45.1846391" lon="12.2714314"><ele>-0.6666666666666666</ele><time>2026-04-26T09:30:27.9Z</time></trkpt><trkpt lat="45.1846046" lon="12.2713077"><ele>-1.0</ele><time>2026-04-26T09:30:29.897Z</time></trkpt><trkpt lat="45.1845758" lon="12.2711834"><ele>-1.0</ele><time>2026-04-26T09:30:31.897Z</time></trkpt><trkpt lat="45.1845454" lon="12.2710619"><ele>-1.0</ele><time>2026-04-26T09:30:33.897Z</time></trkpt><trkpt lat="45.184513" lon="12.2709412"><ele>-1.0</ele><time>2026-04-26T09:30:35.897Z</time></trkpt><trkpt lat="45.1844778" lon="12.2708215"><ele>-1.0</ele><time>2026-04-26T09:30:37.897Z</time></trkpt><trkpt lat="45.1844413" lon="12.2706891"><ele>-1.0</ele><time>2026-04-26T09:30:39.894Z</time></trkpt><trkpt lat="45.1844008" lon="12.2705529"><ele>-0.6000000000000001</ele><time>2026-04-26T09:30:41.894Z</time></trkpt><trkpt lat="45.1843678" lon="12.2704067"><ele>-0.20000000000000007</ele><time>2026-04-26T09:30:43.895Z</time></trkpt><trkpt lat="45.1843302" lon="12.2702476"><ele>0.20000000000000007</ele><time>2026-04-26T09:30:45.9Z</time></trkpt><trkpt lat="45.1842924" lon="12.2700766"><ele>0.6000000000000001</ele><time>2026-04-26T09:30:47.897Z</time></trkpt><trkpt lat="45.1842725" lon="12.2699895"><ele>1.0</ele><time>2026-04-26T09:30:48.899Z</time></trkpt><trkpt lat="45.1842502" lon="12.2699007"><ele>1.0</ele><time>2026-04-26T09:30:49.897Z</time></trkpt><trkpt lat="45.1842239" lon="12.2698104"><ele>0.9999999999999999</ele><time>2026-04-26T09:30:50.891Z</time></trkpt><trkpt lat="45.1841994" lon="12.2697141"><ele>1.0</ele><time>2026-04-26T09:30:51.898Z</time></trkpt><trkpt lat="45.184179" lon="12.2696127"><ele>1.0</ele><time>2026-04-26T09:30:52.897Z</time></trkpt><trkpt lat="45.1841546" lon="12.26951"><ele>0.9999999999999999</ele><time>2026-04-26T09:30:53.893Z</time></trkpt><trkpt lat="45.184129" lon="12.2694065"><ele>1.0</ele><time>2026-04-26T09:30:54.895Z</time></trkpt><trkpt lat="45.1841024" lon="12.2693008"><ele>1.0</ele><time>2026-04-26T09:30:55.894Z</time></trkpt><trkpt lat="45.1840738" lon="12.2691928"><ele>0.8333333333333333</ele><time>2026-04-26T09:30:56.896Z</time></trkpt><trkpt lat="45.1840447" lon="12.2690806"><ele>0.6666666666666666</ele><time>2026-04-26T09:30:57.898Z</time></trkpt><trkpt lat="45.184012" lon="12.2689663"><ele>0.5</ele><time>2026-04-26T09:30:58.894Z</time></trkpt><trkpt lat="45.183978" lon="12.2688512"><ele>0.3333333333333333</ele><time>2026-04-26T09:30:59.896Z</time></trkpt><trkpt lat="45.1839458" lon="12.2687337"><ele>0.16666666666666666</ele><time>2026-04-26T09:31:00.896Z</time></trkpt><trkpt lat="45.1839131" lon="12.2686157"><ele>0.0</ele><time>2026-04-26T09:31:01.9Z</time></trkpt><trkpt lat="45.1838809" lon="12.2684971"><ele>-0.2</ele><time>2026-04-26T09:31:02.899Z</time></trkpt><trkpt lat="45.1838477" lon="12.2683776"><ele>-0.4</ele><time>2026-04-26T09:31:03.896Z</time></trkpt><trkpt lat="45.1838155" lon="12.2682561"><ele>-0.6000000000000001</ele><time>2026-04-26T09:31:04.895Z</time></trkpt><trkpt lat="45.1837797" lon="12.2681336"><ele>-0.8</ele><time>2026-04-26T09:31:05.897Z</time></trkpt><trkpt lat="45.1837463" lon="12.2680082"><ele>-1.0</ele><time>2026-04-26T09:31:06.896Z</time></trkpt><trkpt lat="45.183712" lon="12.2678822"><ele>-1.0</ele><time>2026-04-26T09:31:07.893Z</time></trkpt><trkpt lat="45.1836755" lon="12.2677533"><ele>-1.0</ele><time>2026-04-26T09:31:08.898Z</time></trkpt><trkpt lat="45.1836377" lon="12.2676257"><ele>-1.0</ele><time>2026-04-26T09:31:09.893Z</time></trkpt><trkpt lat="45.1836015" lon="12.2674976"><ele>-1.0</ele><time>2026-04-26T09:31:10.894Z</time></trkpt><trkpt lat="45.1835656" lon="12.267371"><ele>-1.0</ele><time>2026-04-26T09:31:11.894Z</time></trkpt><trkpt lat="45.1835321" lon="12.2672465"><ele>-1.4</ele><time>2026-04-26T09:31:12.9Z</time></trkpt><trkpt lat="45.1835004" lon="12.2671217"><ele>-1.8</ele><time>2026-04-26T09:31:13.896Z</time></trkpt><trkpt lat="45.183472" lon="12.2669973"><ele>-2.1999999999999997</ele><time>2026-04-26T09:31:14.894Z</time></trkpt><trkpt lat="45.1834445" lon="12.2668743"><ele>-2.6</ele><time>2026-04-26T09:31:15.899Z</time></trkpt><trkpt lat="45.1834191" lon="12.2667526"><ele>-3.0</ele><time>2026-04-26T09:31:16.896Z</time></trkpt><trkpt lat="45.1833963" lon="12.2666317"><ele>-3.0</ele><time>2026-04-26T09:31:17.895Z</time></trkpt><trkpt lat="45.183377" lon="12.2665124"><ele>-3.0</ele><time>2026-04-26T09:31:18.9Z</time></trkpt><trkpt lat="45.1833609" lon="12.2663945"><ele>-3.0</ele><time>2026-04-26T09:31:19.894Z</time></trkpt><trkpt lat="45.1833516" lon="12.2662754"><ele>-3.0</ele><time>2026-04-26T09:31:20.897Z</time></trkpt><trkpt lat="45.1833497" lon="12.2661554"><ele>-3.0</ele><time>2026-04-26T09:31:21.898Z</time></trkpt><trkpt lat="45.1833525" lon="12.2660336"><ele>-3.0</ele><time>2026-04-26T09:31:22.896Z</time></trkpt><trkpt lat="45.1833556" lon="12.2659137"><ele>-3.1666666666666665</ele><time>2026-04-26T09:31:23.894Z</time></trkpt><trkpt lat="45.1833582" lon="12.2657947"><ele>-3.333333333333333</ele><time>2026-04-26T09:31:24.895Z</time></trkpt><trkpt lat="45.183362" lon="12.2656759"><ele>-3.5</ele><time>2026-04-26T09:31:25.897Z</time></trkpt><trkpt lat="45.1833675" lon="12.2655604"><ele>-3.6666666666666665</ele><time>2026-04-26T09:31:26.897Z</time></trkpt><trkpt lat="45.1833715" lon="12.265444"><ele>-3.833333333333333</ele><time>2026-04-26T09:31:27.898Z</time></trkpt><trkpt lat="45.1833771" lon="12.2653282"><ele>-4.0</ele><time>2026-04-26T09:31:28.897Z</time></trkpt><trkpt lat="45.1833825" lon="12.2652135"><ele>-3.6666666666666665</ele><time>2026-04-26T09:31:29.898Z</time></trkpt><trkpt lat="45.1833868" lon="12.2651006"><ele>-3.333333333333333</ele><time>2026-04-26T09:31:30.897Z</time></trkpt><trkpt lat="45.1833905" lon="12.2649855"><ele>-3.0</ele><time>2026-04-26T09:31:31.898Z</time></trkpt><trkpt lat="45.1833941" lon="12.2648694"><ele>-2.6666666666666665</ele><time>2026-04-26T09:31:32.904Z</time></trkpt><trkpt lat="45.1833974" lon="12.2647548"><ele>-2.333333333333333</ele><time>2026-04-26T09:31:33.898Z</time></trkpt><trkpt lat="45.1833989" lon="12.2646421"><ele>-2.0</ele><time>2026-04-26T09:31:34.897Z</time></trkpt><trkpt lat="45.1834016" lon="12.2645289"><ele>-1.9999999999999998</ele><time>2026-04-26T09:31:35.895Z</time></trkpt><trkpt lat="45.183404" lon="12.2644146"><ele>-2.0</ele><time>2026-04-26T09:31:36.897Z</time></trkpt><trkpt lat="45.1834075" lon="12.2642995"><ele>-2.0</ele><time>2026-04-26T09:31:37.897Z</time></trkpt><trkpt lat="45.1834115" lon="12.2641854"><ele>-2.0</ele><time>2026-04-26T09:31:38.895Z</time></trkpt><trkpt lat="45.1834145" lon="12.2640723"><ele>-1.9999999999999998</ele><time>2026-04-26T09:31:39.901Z</time></trkpt><trkpt lat="45.1834153" lon="12.2639591"><ele>-2.0</ele><time>2026-04-26T09:31:40.893Z</time></trkpt><trkpt lat="45.1834146" lon="12.2638469"><ele>-1.9999999999999998</ele><time>2026-04-26T09:31:41.897Z</time></trkpt><trkpt lat="45.1834151" lon="12.2637354"><ele>-2.0</ele><time>2026-04-26T09:31:42.897Z</time></trkpt><trkpt lat="45.1834154" lon="12.2636223"><ele>-2.0</ele><time>2026-04-26T09:31:43.893Z</time></trkpt><trkpt lat="45.1834161" lon="12.2635069"><ele>-2.0</ele><time>2026-04-26T09:31:44.897Z</time></trkpt><trkpt lat="45.1834174" lon="12.2633928"><ele>-1.9999999999999998</ele><time>2026-04-26T09:31:45.899Z</time></trkpt><trkpt lat="45.1834197" lon="12.2632803"><ele>-2.0</ele><time>2026-04-26T09:31:46.896Z</time></trkpt><trkpt lat="45.1834212" lon="12.2631691"><ele>-1.9999999999999998</ele><time>2026-04-26T09:31:47.899Z</time></trkpt><trkpt lat="45.1834247" lon="12.2630612"><ele>-2.0</ele><time>2026-04-26T09:31:48.896Z</time></trkpt><trkpt lat="45.1834268" lon="12.2629542"><ele>-2.0</ele><time>2026-04-26T09:31:49.897Z</time></trkpt><trkpt lat="45.1834294" lon="12.2628472"><ele>-2.0</ele><time>2026-04-26T09:31:50.896Z</time></trkpt><trkpt lat="45.1834311" lon="12.2627395"><ele>-1.9999999999999998</ele><time>2026-04-26T09:31:51.894Z</time></trkpt><trkpt lat="45.1834322" lon="12.2626311"><ele>-2.0</ele><time>2026-04-26T09:31:52.9Z</time></trkpt><trkpt lat="45.1834338" lon="12.2625226"><ele>-1.9999999999999998</ele><time>2026-04-26T09:31:53.899Z</time></trkpt><trkpt lat="45.1834355" lon="12.2624116"><ele>-2.0</ele><time>2026-04-26T09:31:54.898Z</time></trkpt><trkpt lat="45.1834346" lon="12.2623027"><ele>-2.0</ele><time>2026-04-26T09:31:55.899Z</time></trkpt><trkpt lat="45.1834355" lon="12.2621948"><ele>-2.0</ele><time>2026-04-26T09:31:56.895Z</time></trkpt><trkpt lat="45.1834387" lon="12.2620865"><ele>-1.9999999999999998</ele><time>2026-04-26T09:31:57.896Z</time></trkpt><trkpt lat="45.1834426" lon="12.2619778"><ele>-2.0</ele><time>2026-04-26T09:31:58.897Z</time></trkpt><trkpt lat="45.1834474" lon="12.2618692"><ele>-1.9999999999999998</ele><time>2026-04-26T09:31:59.898Z</time></trkpt><trkpt lat="45.1834518" lon="12.2617594"><ele>-2.0</ele><time>2026-04-26T09:32:00.903Z</time></trkpt><trkpt lat="45.1834546" lon="12.2616488"><ele>-2.0</ele><time>2026-04-26T09:32:01.901Z</time></trkpt><trkpt lat="45.1834578" lon="12.2615362"><ele>-2.0</ele><time>2026-04-26T09:32:02.906Z</time></trkpt><trkpt lat="45.1834611" lon="12.2614238"><ele>-1.9999999999999998</ele><time>2026-04-26T09:32:03.903Z</time></trkpt><trkpt lat="45.1834655" lon="12.2613131"><ele>-2.0</ele><time>2026-04-26T09:32:04.902Z</time></trkpt><trkpt lat="45.1834688" lon="12.261204"><ele>-2.142857142857143</ele><time>2026-04-26T09:32:05.902Z</time></trkpt><trkpt lat="45.1834702" lon="12.2610956"><ele>-2.2857142857142856</ele><time>2026-04-26T09:32:06.898Z</time></trkpt><trkpt lat="45.1834719" lon="12.2609886"><ele>-2.4285714285714284</ele><time>2026-04-26T09:32:07.903Z</time></trkpt><trkpt lat="45.1834737" lon="12.260883"><ele>-2.571428571428571</ele><time>2026-04-26T09:32:08.893Z</time></trkpt><trkpt lat="45.1834757" lon="12.260778"><ele>-2.7142857142857144</ele><time>2026-04-26T09:32:09.897Z</time></trkpt><trkpt lat="45.1834759" lon="12.2606729"><ele>-2.8571428571428568</ele><time>2026-04-26T09:32:10.896Z</time></trkpt><trkpt lat="45.1834795" lon="12.2605675"><ele>-3.0</ele><time>2026-04-26T09:32:11.896Z</time></trkpt><trkpt lat="45.1834838" lon="12.2604613"><ele>-2.6666666666666665</ele><time>2026-04-26T09:32:12.9Z</time></trkpt><trkpt lat="45.1834856" lon="12.2603528"><ele>-2.3333333333333335</ele><time>2026-04-26T09:32:13.896Z</time></trkpt><trkpt lat="45.1834872" lon="12.2602441"><ele>-2.0</ele><time>2026-04-26T09:32:14.896Z</time></trkpt><trkpt lat="45.1834881" lon="12.2601358"><ele>-1.6666666666666665</ele><time>2026-04-26T09:32:15.898Z</time></trkpt><trkpt lat="45.1834872" lon="12.2600275"><ele>-1.3333333333333333</ele><time>2026-04-26T09:32:16.889Z</time></trkpt><trkpt lat="45.1834844" lon="12.2599195"><ele>-1.0</ele><time>2026-04-26T09:32:17.891Z</time></trkpt><trkpt lat="45.1834801" lon="12.2598128"><ele>-0.8571428571428571</ele><time>2026-04-26T09:32:18.898Z</time></trkpt><trkpt lat="45.1834798" lon="12.2597074"><ele>-0.7142857142857142</ele><time>2026-04-26T09:32:19.896Z</time></trkpt><trkpt lat="45.1834847" lon="12.2596036"><ele>-0.5714285714285714</ele><time>2026-04-26T09:32:20.892Z</time></trkpt><trkpt lat="45.1834923" lon="12.2594999"><ele>-0.42857142857142855</ele><time>2026-04-26T09:32:21.894Z</time></trkpt><trkpt lat="45.183502" lon="12.2593955"><ele>-0.2857142857142857</ele><time>2026-04-26T09:32:22.896Z</time></trkpt><trkpt lat="45.1835134" lon="12.2592931"><ele>-0.14285714285714285</ele><time>2026-04-26T09:32:23.898Z</time></trkpt><trkpt lat="45.18352" lon="12.2591927"><ele>0.0</ele><time>2026-04-26T09:32:24.892Z</time></trkpt><trkpt lat="45.1835222" lon="12.2590952"><ele>0.0</ele><time>2026-04-26T09:32:25.901Z</time></trkpt><trkpt lat="45.1835215" lon="12.2589974"><ele>0.0</ele><time>2026-04-26T09:32:26.891Z</time></trkpt><trkpt lat="45.1835212" lon="12.2588999"><ele>0.0</ele><time>2026-04-26T09:32:27.895Z</time></trkpt><trkpt lat="45.1835232" lon="12.2588006"><ele>0.0</ele><time>2026-04-26T09:32:28.894Z</time></trkpt><trkpt lat="45.1835289" lon="12.2587018"><ele>0.0</ele><time>2026-04-26T09:32:29.897Z</time></trkpt><trkpt lat="45.183534" lon="12.2586039"><ele>0.0</ele><time>2026-04-26T09:32:30.901Z</time></trkpt><trkpt lat="45.183538" lon="12.2585059"><ele>0.0</ele><time>2026-04-26T09:32:31.896Z</time></trkpt><trkpt lat="45.1835415" lon="12.2584053"><ele>0.0</ele><time>2026-04-26T09:32:32.899Z</time></trkpt><trkpt lat="45.1835472" lon="12.2583038"><ele>0.0</ele><time>2026-04-26T09:32:33.893Z</time></trkpt><trkpt lat="45.1835536" lon="12.2582006"><ele>0.0</ele><time>2026-04-26T09:32:34.898Z</time></trkpt><trkpt lat="45.1835583" lon="12.2580975"><ele>0.0</ele><time>2026-04-26T09:32:35.897Z</time></trkpt><trkpt lat="45.1835618" lon="12.2579938"><ele>0.0</ele><time>2026-04-26T09:32:36.899Z</time></trkpt><trkpt lat="45.1835662" lon="12.2578916"><ele>0.0</ele><time>2026-04-26T09:32:37.899Z</time></trkpt><trkpt lat="45.1835707" lon="12.2577905"><ele>0.0</ele><time>2026-04-26T09:32:38.899Z</time></trkpt><trkpt lat="45.1835749" lon="12.2576892"><ele>-0.14285714285714285</ele><time>2026-04-26T09:32:39.897Z</time></trkpt><trkpt lat="45.1835784" lon="12.2575882"><ele>-0.2857142857142857</ele><time>2026-04-26T09:32:40.896Z</time></trkpt><trkpt lat="45.1835828" lon="12.2574875"><ele>-0.42857142857142855</ele><time>2026-04-26T09:32:41.898Z</time></trkpt><trkpt lat="45.1835865" lon="12.2573864"><ele>-0.5714285714285714</ele><time>2026-04-26T09:32:42.904Z</time></trkpt><trkpt lat="45.1835918" lon="12.2572883"><ele>-0.7142857142857142</ele><time>2026-04-26T09:32:43.897Z</time></trkpt><trkpt lat="45.1835961" lon="12.2571901"><ele>-0.8571428571428571</ele><time>2026-04-26T09:32:44.897Z</time></trkpt><trkpt lat="45.1835987" lon="12.2570932"><ele>-1.0</ele><time>2026-04-26T09:32:45.898Z</time></trkpt><trkpt lat="45.1836016" lon="12.2569943"><ele>-1.0</ele><time>2026-04-26T09:32:46.904Z</time></trkpt><trkpt lat="45.1836072" lon="12.2568948"><ele>-0.9999999999999999</ele><time>2026-04-26T09:32:47.896Z</time></trkpt><trkpt lat="45.1836133" lon="12.2567942"><ele>-1.0</ele><time>2026-04-26T09:32:48.897Z</time></trkpt><trkpt lat="45.183619" lon="12.2566938"><ele>-1.0</ele><time>2026-04-26T09:32:49.896Z</time></trkpt><trkpt lat="45.1836257" lon="12.2565957"><ele>-0.9999999999999999</ele><time>2026-04-26T09:32:50.898Z</time></trkpt><trkpt lat="45.1836324" lon="12.2564968"><ele>-1.0</ele><time>2026-04-26T09:32:51.895Z</time></trkpt><trkpt lat="45.1836376" lon="12.256398"><ele>-1.0</ele><time>2026-04-26T09:32:52.898Z</time></trkpt><trkpt lat="45.1836417" lon="12.2562994"><ele>-1.0</ele><time>2026-04-26T09:32:53.896Z</time></trkpt><trkpt lat="45.1836447" lon="12.2562006"><ele>-0.9999999999999999</ele><time>2026-04-26T09:32:54.897Z</time></trkpt><trkpt lat="45.1836476" lon="12.2561014"><ele>-1.0</ele><time>2026-04-26T09:32:55.898Z</time></trkpt><trkpt lat="45.1836521" lon="12.2560012"><ele>-1.0</ele><time>2026-04-26T09:32:56.896Z</time></trkpt><trkpt lat="45.1836569" lon="12.2558999"><ele>-0.9999999999999999</ele><time>2026-04-26T09:32:57.897Z</time></trkpt><trkpt lat="45.1836611" lon="12.2557988"><ele>-1.0</ele><time>2026-04-26T09:32:58.9Z</time></trkpt><trkpt lat="45.1836661" lon="12.2556984"><ele>-1.0</ele><time>2026-04-26T09:32:59.9Z</time></trkpt><trkpt lat="45.1836722" lon="12.2555978"><ele>-0.8571428571428571</ele><time>2026-04-26T09:33:00.901Z</time></trkpt><trkpt lat="45.1836787" lon="12.255497"><ele>-0.7142857142857142</ele><time>2026-04-26T09:33:01.903Z</time></trkpt><trkpt lat="45.1836863" lon="12.2553965"><ele>-0.5714285714285714</ele><time>2026-04-26T09:33:02.9Z</time></trkpt><trkpt lat="45.183693" lon="12.2552956"><ele>-0.42857142857142855</ele><time>2026-04-26T09:33:03.896Z</time></trkpt><trkpt lat="45.1836978" lon="12.2551974"><ele>-0.2857142857142857</ele><time>2026-04-26T09:33:04.902Z</time></trkpt><trkpt lat="45.1837024" lon="12.2550992"><ele>-0.14285714285714285</ele><time>2026-04-26T09:33:05.9Z</time></trkpt><trkpt lat="45.1837078" lon="12.2550008"><ele>0.0</ele><time>2026-04-26T09:33:06.899Z</time></trkpt><trkpt lat="45.183713" lon="12.2549027"><ele>0.0</ele><time>2026-04-26T09:33:07.901Z</time></trkpt><trkpt lat="45.1837181" lon="12.2548043"><ele>0.0</ele><time>2026-04-26T09:33:08.904Z</time></trkpt><trkpt lat="45.1837229" lon="12.2547057"><ele>0.0</ele><time>2026-04-26T09:33:09.9Z</time></trkpt><trkpt lat="45.1837301" lon="12.254608"><ele>0.0</ele><time>2026-04-26T09:33:10.897Z</time></trkpt><trkpt lat="45.1837395" lon="12.2545117"><ele>0.0</ele><time>2026-04-26T09:33:11.894Z</time></trkpt><trkpt lat="45.1837478" lon="12.2544157"><ele>0.0</ele><time>2026-04-26T09:33:12.9Z</time></trkpt><trkpt lat="45.1837555" lon="12.25432"><ele>0.0</ele><time>2026-04-26T09:33:13.896Z</time></trkpt><trkpt lat="45.1837613" lon="12.2542247"><ele>0.0</ele><time>2026-04-26T09:33:14.899Z</time></trkpt><trkpt lat="45.1837664" lon="12.2541292"><ele>0.0</ele><time>2026-04-26T09:33:15.901Z</time></trkpt><trkpt lat="45.1837715" lon="12.2540349"><ele>0.0</ele><time>2026-04-26T09:33:16.892Z</time></trkpt><trkpt lat="45.1837759" lon="12.2539421"><ele>0.0</ele><time>2026-04-26T09:33:17.898Z</time></trkpt><trkpt lat="45.1837805" lon="12.2538499"><ele>0.0</ele><time>2026-04-26T09:33:18.898Z</time></trkpt><trkpt lat="45.1837868" lon="12.2537578"><ele>0.0</ele><time>2026-04-26T09:33:19.891Z</time></trkpt><trkpt lat="45.1837922" lon="12.2536649"><ele>0.0</ele><time>2026-04-26T09:33:20.898Z</time></trkpt><trkpt lat="45.1837971" lon="12.2535709"><ele>0.0</ele><time>2026-04-26T09:33:21.893Z</time></trkpt><trkpt lat="45.183802" lon="12.2534787"><ele>0.0</ele><time>2026-04-26T09:33:22.901Z</time></trkpt><trkpt lat="45.1838073" lon="12.2533864"><ele>0.0</ele><time>2026-04-26T09:33:23.895Z</time></trkpt><trkpt lat="45.1838116" lon="12.2532953"><ele>0.0</ele><time>2026-04-26T09:33:24.897Z</time></trkpt><trkpt lat="45.1838159" lon="12.2532029"><ele>0.0</ele><time>2026-04-26T09:33:25.899Z</time></trkpt><trkpt lat="45.1838218" lon="12.2531096"><ele>0.0</ele><time>2026-04-26T09:33:26.896Z</time></trkpt><trkpt lat="45.1838278" lon="12.2530157"><ele>0.0</ele><time>2026-04-26T09:33:27.895Z</time></trkpt><trkpt lat="45.1838335" lon="12.2529213"><ele>0.14285714285714285</ele><time>2026-04-26T09:33:28.896Z</time></trkpt><trkpt lat="45.1838389" lon="12.2528266"><ele>0.2857142857142857</ele><time>2026-04-26T09:33:29.895Z</time></trkpt><trkpt lat="45.1838445" lon="12.2527317"><ele>0.42857142857142855</ele><time>2026-04-26T09:33:30.902Z</time></trkpt><trkpt lat="45.1838495" lon="12.2526379"><ele>0.5714285714285714</ele><time>2026-04-26T09:33:31.905Z</time></trkpt><trkpt lat="45.1838528" lon="12.2525454"><ele>0.7142857142857142</ele><time>2026-04-26T09:33:32.896Z</time></trkpt><trkpt lat="45.1838576" lon="12.2524533"><ele>0.8571428571428571</ele><time>2026-04-26T09:33:33.9Z</time></trkpt><trkpt lat="45.1838654" lon="12.2523603"><ele>1.0</ele><time>2026-04-26T09:33:34.9Z</time></trkpt><trkpt lat="45.1838721" lon="12.2522671"><ele>1.125</ele><time>2026-04-26T09:33:35.904Z</time></trkpt><trkpt lat="45.1838772" lon="12.2521758"><ele>1.25</ele><time>2026-04-26T09:33:36.9Z</time></trkpt><trkpt lat="45.1838804" lon="12.2520852"><ele>1.375</ele><time>2026-04-26T09:33:37.901Z</time></trkpt><trkpt lat="45.1838825" lon="12.2519951"><ele>1.5</ele><time>2026-04-26T09:33:38.904Z</time></trkpt><trkpt lat="45.1838864" lon="12.2519047"><ele>1.625</ele><time>2026-04-26T09:33:39.899Z</time></trkpt><trkpt lat="45.1838913" lon="12.2518146"><ele>1.75</ele><time>2026-04-26T09:33:40.896Z</time></trkpt><trkpt lat="45.1838975" lon="12.2517233"><ele>1.875</ele><time>2026-04-26T09:33:41.897Z</time></trkpt><trkpt lat="45.1839034" lon="12.2516332"><ele>2.0</ele><time>2026-04-26T09:33:42.9Z</time></trkpt><trkpt lat="45.1839082" lon="12.2515436"><ele>1.6666666666666665</ele><time>2026-04-26T09:33:43.9Z</time></trkpt><trkpt lat="45.1839167" lon="12.2513656"><ele>1.3333333333333333</ele><time>2026-04-26T09:33:45.895Z</time></trkpt><trkpt lat="45.1839196" lon="12.2512763"><ele>1.0</ele><time>2026-04-26T09:33:46.899Z</time></trkpt><trkpt lat="45.1839281" lon="12.2510973"><ele>0.6666666666666666</ele><time>2026-04-26T09:33:48.896Z</time></trkpt><trkpt lat="45.1839338" lon="12.2510064"><ele>0.3333333333333333</ele><time>2026-04-26T09:33:49.899Z</time></trkpt><trkpt lat="45.1839381" lon="12.2509151"><ele>0.0</ele><time>2026-04-26T09:33:50.898Z</time></trkpt><trkpt lat="45.1839429" lon="12.2508241"><ele>0.0</ele><time>2026-04-26T09:33:51.9Z</time></trkpt><trkpt lat="45.1839481" lon="12.2507342"><ele>0.0</ele><time>2026-04-26T09:33:52.898Z</time></trkpt><trkpt lat="45.1839573" lon="12.2505582"><ele>0.0</ele><time>2026-04-26T09:33:54.898Z</time></trkpt><trkpt lat="45.1839644" lon="12.2503801"><ele>0.0</ele><time>2026-04-26T09:33:56.9Z</time></trkpt><trkpt lat="45.18397" lon="12.2502911"><ele>0.0</ele><time>2026-04-26T09:33:57.895Z</time></trkpt><trkpt lat="45.1839765" lon="12.2501134"><ele>0.0</ele><time>2026-04-26T09:33:59.899Z</time></trkpt><trkpt lat="45.1839821" lon="12.2499348"><ele>0.0</ele><time>2026-04-26T09:34:01.9Z</time></trkpt><trkpt lat="45.1839853" lon="12.2498449"><ele>0.0</ele><time>2026-04-26T09:34:02.903Z</time></trkpt><trkpt lat="45.1839902" lon="12.2497548"><ele>0.0</ele><time>2026-04-26T09:34:03.897Z</time></trkpt><trkpt lat="45.1840026" lon="12.2495795"><ele>0.0</ele><time>2026-04-26T09:34:05.901Z</time></trkpt><trkpt lat="45.1840141" lon="12.2494035"><ele>0.0</ele><time>2026-04-26T09:34:07.9Z</time></trkpt><trkpt lat="45.1840209" lon="12.2493134"><ele>0.0</ele><time>2026-04-26T09:34:08.902Z</time></trkpt><trkpt lat="45.1840279" lon="12.2492232"><ele>0.0</ele><time>2026-04-26T09:34:09.899Z</time></trkpt><trkpt lat="45.1840369" lon="12.2491315"><ele>0.0</ele><time>2026-04-26T09:34:10.891Z</time></trkpt><trkpt lat="45.1840442" lon="12.249039"><ele>0.0</ele><time>2026-04-26T09:34:11.897Z</time></trkpt><trkpt lat="45.1840513" lon="12.2489427"><ele>0.0</ele><time>2026-04-26T09:34:12.9Z</time></trkpt><trkpt lat="45.1840607" lon="12.248847"><ele>0.0</ele><time>2026-04-26T09:34:13.899Z</time></trkpt><trkpt lat="45.1840766" lon="12.2487537"><ele>0.0</ele><time>2026-04-26T09:34:14.898Z</time></trkpt><trkpt lat="45.1840962" lon="12.2486644"><ele>0.0</ele><time>2026-04-26T09:34:15.898Z</time></trkpt><trkpt lat="45.1841198" lon="12.2485783"><ele>0.0</ele><time>2026-04-26T09:34:16.902Z</time></trkpt><trkpt lat="45.1841444" lon="12.2484922"><ele>0.0</ele><time>2026-04-26T09:34:17.903Z</time></trkpt><trkpt lat="45.1841689" lon="12.2484079"><ele>0.0</ele><time>2026-04-26T09:34:18.897Z</time></trkpt><trkpt lat="45.1842165" lon="12.2482461"><ele>0.0</ele><time>2026-04-26T09:34:20.895Z</time></trkpt><trkpt lat="45.1842643" lon="12.2480825"><ele>0.0</ele><time>2026-04-26T09:34:22.906Z</time></trkpt><trkpt lat="45.1842891" lon="12.2480001"><ele>0.0</ele><time>2026-04-26T09:34:23.896Z</time></trkpt><trkpt lat="45.1843142" lon="12.2479173"><ele>0.0</ele><time>2026-04-26T09:34:24.901Z</time></trkpt><trkpt lat="45.1843398" lon="12.2478346"><ele>0.0</ele><time>2026-04-26T09:34:25.906Z</time></trkpt><trkpt lat="45.1843901" lon="12.2476747"><ele>0.0</ele><time>2026-04-26T09:34:27.899Z</time></trkpt><trkpt lat="45.1844371" lon="12.2475148"><ele>0.0</ele><time>2026-04-26T09:34:29.9Z</time></trkpt><trkpt lat="45.1844871" lon="12.2473559"><ele>0.0</ele><time>2026-04-26T09:34:31.898Z</time></trkpt><trkpt lat="45.1845338" lon="12.2472003"><ele>0.0</ele><time>2026-04-26T09:34:33.901Z</time></trkpt><trkpt lat="45.1845781" lon="12.2470418"><ele>0.0</ele><time>2026-04-26T09:34:35.897Z</time></trkpt><trkpt lat="45.1846213" lon="12.2468845"><ele>0.0</ele><time>2026-04-26T09:34:37.899Z</time></trkpt><trkpt lat="45.1846671" lon="12.246728"><ele>0.0</ele><time>2026-04-26T09:34:39.904Z</time></trkpt><trkpt lat="45.1847121" lon="12.2465678"><ele>0.0</ele><time>2026-04-26T09:34:41.898Z</time></trkpt><trkpt lat="45.1847577" lon="12.2464052"><ele>0.0</ele><time>2026-04-26T09:34:43.898Z</time></trkpt><trkpt lat="45.1848027" lon="12.2462418"><ele>0.0</ele><time>2026-04-26T09:34:45.893Z</time></trkpt><trkpt lat="45.1848268" lon="12.2461591"><ele>0.0</ele><time>2026-04-26T09:34:46.9Z</time></trkpt><trkpt lat="45.1848541" lon="12.2460769"><ele>0.0</ele><time>2026-04-26T09:34:47.899Z</time></trkpt><trkpt lat="45.1848814" lon="12.2459957"><ele>0.0</ele><time>2026-04-26T09:34:48.9Z</time></trkpt><trkpt lat="45.1849074" lon="12.2459129"><ele>0.0</ele><time>2026-04-26T09:34:49.899Z</time></trkpt><trkpt lat="45.1849322" lon="12.2458299"><ele>0.0</ele><time>2026-04-26T09:34:50.897Z</time></trkpt><trkpt lat="45.1849558" lon="12.2457467"><ele>0.0</ele><time>2026-04-26T09:34:51.901Z</time></trkpt><trkpt lat="45.1850018" lon="12.2455899"><ele>0.0</ele><time>2026-04-26T09:34:53.901Z</time></trkpt><trkpt lat="45.1850513" lon="12.2454359"><ele>0.0</ele><time>2026-04-26T09:34:55.896Z</time></trkpt><trkpt lat="45.1850977" lon="12.2452792"><ele>0.0</ele><time>2026-04-26T09:34:57.9Z</time></trkpt><trkpt lat="45.1851425" lon="12.2451195"><ele>0.0</ele><time>2026-04-26T09:34:59.896Z</time></trkpt><trkpt lat="45.1851748" lon="12.244961"><ele>0.0</ele><time>2026-04-26T09:35:01.895Z</time></trkpt><trkpt lat="45.1852057" lon="12.2448054"><ele>0.0</ele><time>2026-04-26T09:35:03.892Z</time></trkpt><trkpt lat="45.1852324" lon="12.2446583"><ele>0.0</ele><time>2026-04-26T09:35:05.898Z</time></trkpt><trkpt lat="45.1852558" lon="12.2445213"><ele>0.0</ele><time>2026-04-26T09:35:07.899Z</time></trkpt><trkpt lat="45.1852792" lon="12.2443883"><ele>0.0</ele><time>2026-04-26T09:35:09.897Z</time></trkpt><trkpt lat="45.1853027" lon="12.2442637"><ele>0.0</ele><time>2026-04-26T09:35:11.897Z</time></trkpt><trkpt lat="45.1853253" lon="12.244143"><ele>0.0</ele><time>2026-04-26T09:35:13.897Z</time></trkpt><trkpt lat="45.1853457" lon="12.2440248"><ele>0.0</ele><time>2026-04-26T09:35:15.899Z</time></trkpt><trkpt lat="45.1853643" lon="12.2439103"><ele>0.0</ele><time>2026-04-26T09:35:17.9Z</time></trkpt><trkpt lat="45.1853892" lon="12.2438061"><ele>0.0</ele><time>2026-04-26T09:35:19.898Z</time></trkpt><trkpt lat="45.1854339" lon="12.2437229"><ele>0.0</ele><time>2026-04-26T09:35:21.894Z</time></trkpt><trkpt lat="45.185477" lon="12.2436431"><ele>0.0</ele><time>2026-04-26T09:35:23.896Z</time></trkpt><trkpt lat="45.1854986" lon="12.243541"><ele>0.16666666666666666</ele><time>2026-04-26T09:35:25.903Z</time></trkpt><trkpt lat="45.1854853" lon="12.2434318"><ele>0.3333333333333333</ele><time>2026-04-26T09:35:27.9Z</time></trkpt><trkpt lat="45.1854278" lon="12.2433475"><ele>0.5</ele><time>2026-04-26T09:35:29.894Z</time></trkpt><trkpt lat="45.1853519" lon="12.2432935"><ele>0.6666666666666666</ele><time>2026-04-26T09:35:31.899Z</time></trkpt><trkpt lat="45.1852864" lon="12.2432465"><ele>0.8333333333333333</ele><time>2026-04-26T09:35:33.898Z</time></trkpt><trkpt lat="45.1852355" lon="12.24318"><ele>1.0</ele><time>2026-04-26T09:35:35.897Z</time></trkpt><trkpt lat="45.1851859" lon="12.2430982"><ele>0.9999999999999999</ele><time>2026-04-26T09:35:37.899Z</time></trkpt><trkpt lat="45.1851333" lon="12.2430128"><ele>1.0</ele><time>2026-04-26T09:35:39.899Z</time></trkpt><trkpt lat="45.1850741" lon="12.2429301"><ele>1.0</ele><time>2026-04-26T09:35:41.904Z</time></trkpt><trkpt lat="45.185018" lon="12.2428423"><ele>1.0</ele><time>2026-04-26T09:35:43.894Z</time></trkpt><trkpt lat="45.1849615" lon="12.2427535"><ele>0.9999999999999999</ele><time>2026-04-26T09:35:45.897Z</time></trkpt><trkpt lat="45.1849024" lon="12.2426672"><ele>1.0</ele><time>2026-04-26T09:35:47.898Z</time></trkpt><trkpt lat="45.1848432" lon="12.2425764"><ele>0.9999999999999999</ele><time>2026-04-26T09:35:49.895Z</time></trkpt><trkpt lat="45.184779" lon="12.242488"><ele>1.0</ele><time>2026-04-26T09:35:51.897Z</time></trkpt><trkpt lat="45.1847195" lon="12.2423965"><ele>1.0</ele><time>2026-04-26T09:35:53.9Z</time></trkpt><trkpt lat="45.1846627" lon="12.242304"><ele>1.0</ele><time>2026-04-26T09:35:55.894Z</time></trkpt><trkpt lat="45.1846076" lon="12.2422156"><ele>0.9999999999999999</ele><time>2026-04-26T09:35:57.905Z</time></trkpt><trkpt lat="45.1845561" lon="12.2421339"><ele>1.0</ele><time>2026-04-26T09:35:59.899Z</time></trkpt><trkpt lat="45.184521" lon="12.2420488"><ele>0.6000000000000001</ele><time>2026-04-26T09:36:01.9Z</time></trkpt><trkpt lat="45.1845411" lon="12.2419388"><ele>0.20000000000000007</ele><time>2026-04-26T09:36:03.898Z</time></trkpt><trkpt lat="45.1845768" lon="12.2418148"><ele>-0.20000000000000007</ele><time>2026-04-26T09:36:05.893Z</time></trkpt><trkpt lat="45.1846059" lon="12.2416712"><ele>-0.6000000000000001</ele><time>2026-04-26T09:36:07.898Z</time></trkpt><trkpt lat="45.1846288" lon="12.2415111"><ele>-1.0</ele><time>2026-04-26T09:36:09.9Z</time></trkpt><trkpt lat="45.1846498" lon="12.2413317"><ele>-1.1666666666666665</ele><time>2026-04-26T09:36:11.893Z</time></trkpt><trkpt lat="45.1846615" lon="12.2412368"><ele>-1.3333333333333333</ele><time>2026-04-26T09:36:12.906Z</time></trkpt><trkpt lat="45.1846762" lon="12.2411411"><ele>-1.5</ele><time>2026-04-26T09:36:13.895Z</time></trkpt><trkpt lat="45.1846932" lon="12.2410472"><ele>-1.6666666666666665</ele><time>2026-04-26T09:36:14.9Z</time></trkpt><trkpt lat="45.184709" lon="12.2409563"><ele>-1.8333333333333333</ele><time>2026-04-26T09:36:15.894Z</time></trkpt><trkpt lat="45.1847367" lon="12.2407916"><ele>-2.0</ele><time>2026-04-26T09:36:17.9Z</time></trkpt><trkpt lat="45.1847595" lon="12.2406394"><ele>-2.1666666666666665</ele><time>2026-04-26T09:36:19.899Z</time></trkpt><trkpt lat="45.1847818" lon="12.2405018"><ele>-2.333333333333333</ele><time>2026-04-26T09:36:21.9Z</time></trkpt><trkpt lat="45.1848028" lon="12.2403719"><ele>-2.5</ele><time>2026-04-26T09:36:23.896Z</time></trkpt><trkpt lat="45.1848252" lon="12.2402518"><ele>-2.6666666666666665</ele><time>2026-04-26T09:36:25.897Z</time></trkpt><trkpt lat="45.1848404" lon="12.2401418"><ele>-2.8333333333333335</ele><time>2026-04-26T09:36:27.902Z</time></trkpt><trkpt lat="45.1848611" lon="12.2400287"><ele>-3.0</ele><time>2026-04-26T09:36:29.896Z</time></trkpt><trkpt lat="45.1848837" lon="12.2399104"><ele>-2.6</ele><time>2026-04-26T09:36:31.897Z</time></trkpt><trkpt lat="45.1849025" lon="12.2397771"><ele>-2.1999999999999997</ele><time>2026-04-26T09:36:33.896Z</time></trkpt><trkpt lat="45.1849174" lon="12.2396371"><ele>-1.8</ele><time>2026-04-26T09:36:35.901Z</time></trkpt><trkpt lat="45.1849307" lon="12.2394944"><ele>-1.4</ele><time>2026-04-26T09:36:37.903Z</time></trkpt><trkpt lat="45.1849418" lon="12.2393546"><ele>-1.0</ele><time>2026-04-26T09:36:39.903Z</time></trkpt><trkpt lat="45.1849535" lon="12.2392139"><ele>-1.0</ele><time>2026-04-26T09:36:41.896Z</time></trkpt><trkpt lat="45.1849648" lon="12.2390763"><ele>-1.0</ele><time>2026-04-26T09:36:43.897Z</time></trkpt><trkpt lat="45.1849812" lon="12.2389432"><ele>-1.0</ele><time>2026-04-26T09:36:45.903Z</time></trkpt><trkpt lat="45.184996" lon="12.2388066"><ele>-1.0</ele><time>2026-04-26T09:36:47.899Z</time></trkpt><trkpt lat="45.185004" lon="12.2386656"><ele>-1.0</ele><time>2026-04-26T09:36:49.901Z</time></trkpt><trkpt lat="45.1850175" lon="12.2385252"><ele>-0.6000000000000001</ele><time>2026-04-26T09:36:51.897Z</time></trkpt><trkpt lat="45.1850381" lon="12.2383882"><ele>-0.20000000000000007</ele><time>2026-04-26T09:36:53.901Z</time></trkpt><trkpt lat="45.1850556" lon="12.238249"><ele>0.20000000000000007</ele><time>2026-04-26T09:36:55.902Z</time></trkpt><trkpt lat="45.1850639" lon="12.2381035"><ele>0.6000000000000001</ele><time>2026-04-26T09:36:57.899Z</time></trkpt><trkpt lat="45.1850774" lon="12.2379645"><ele>1.0</ele><time>2026-04-26T09:36:59.905Z</time></trkpt><trkpt lat="45.1850888" lon="12.2378184"><ele>1.0</ele><time>2026-04-26T09:37:01.893Z</time></trkpt><trkpt lat="45.1851064" lon="12.2376747"><ele>1.0</ele><time>2026-04-26T09:37:03.899Z</time></trkpt><trkpt lat="45.1851244" lon="12.237531"><ele>1.0</ele><time>2026-04-26T09:37:05.897Z</time></trkpt><trkpt lat="45.1851381" lon="12.2373935"><ele>1.0</ele><time>2026-04-26T09:37:07.896Z</time></trkpt><trkpt lat="45.1851471" lon="12.2372566"><ele>1.0</ele><time>2026-04-26T09:37:09.89Z</time></trkpt><trkpt lat="45.1851636" lon="12.2371221"><ele>0.8</ele><time>2026-04-26T09:37:11.895Z</time></trkpt><trkpt lat="45.1851799" lon="12.2369889"><ele>0.6000000000000001</ele><time>2026-04-26T09:37:13.899Z</time></trkpt><trkpt lat="45.1851986" lon="12.2368541"><ele>0.4</ele><time>2026-04-26T09:37:15.901Z</time></trkpt><trkpt lat="45.1852214" lon="12.2367165"><ele>0.2</ele><time>2026-04-26T09:37:17.9Z</time></trkpt><trkpt lat="45.1852423" lon="12.2365737"><ele>0.0</ele><time>2026-04-26T09:37:19.9Z</time></trkpt><trkpt lat="45.1852629" lon="12.2364268"><ele>0.0</ele><time>2026-04-26T09:37:21.898Z</time></trkpt><trkpt lat="45.1852848" lon="12.2362805"><ele>0.0</ele><time>2026-04-26T09:37:23.897Z</time></trkpt><trkpt lat="45.1853083" lon="12.2361356"><ele>0.0</ele><time>2026-04-26T09:37:25.899Z</time></trkpt><trkpt lat="45.1853327" lon="12.2359944"><ele>0.0</ele><time>2026-04-26T09:37:27.9Z</time></trkpt><trkpt lat="45.1853585" lon="12.2358558"><ele>0.0</ele><time>2026-04-26T09:37:29.895Z</time></trkpt><trkpt lat="45.1853846" lon="12.2357191"><ele>-0.2</ele><time>2026-04-26T09:37:31.896Z</time></trkpt><trkpt lat="45.1854098" lon="12.2355806"><ele>-0.4</ele><time>2026-04-26T09:37:33.897Z</time></trkpt><trkpt lat="45.1854388" lon="12.2354404"><ele>-0.6000000000000001</ele><time>2026-04-26T09:37:35.901Z</time></trkpt><trkpt lat="45.1854634" lon="12.2352966"><ele>-0.8</ele><time>2026-04-26T09:37:37.901Z</time></trkpt><trkpt lat="45.18549" lon="12.235153"><ele>-1.0</ele><time>2026-04-26T09:37:39.904Z</time></trkpt><trkpt lat="45.1855188" lon="12.2350107"><ele>-1.0</ele><time>2026-04-26T09:37:41.898Z</time></trkpt><trkpt lat="45.1855477" lon="12.2348664"><ele>-1.0</ele><time>2026-04-26T09:37:43.896Z</time></trkpt><trkpt lat="45.1855762" lon="12.234719"><ele>-1.0</ele><time>2026-04-26T09:37:45.905Z</time></trkpt><trkpt lat="45.1856035" lon="12.2345736"><ele>-1.0</ele><time>2026-04-26T09:37:47.899Z</time></trkpt><trkpt lat="45.1856383" lon="12.2344319"><ele>-1.0</ele><time>2026-04-26T09:37:49.892Z</time></trkpt><trkpt lat="45.1856719" lon="12.2342865"><ele>-1.0</ele><time>2026-04-26T09:37:51.902Z</time></trkpt><trkpt lat="45.1857045" lon="12.2341364"><ele>-1.0</ele><time>2026-04-26T09:37:53.899Z</time></trkpt><trkpt lat="45.1857325" lon="12.2339829"><ele>-1.0</ele><time>2026-04-26T09:37:55.903Z</time></trkpt><trkpt lat="45.1857656" lon="12.2338242"><ele>-1.0</ele><time>2026-04-26T09:37:57.898Z</time></trkpt><trkpt lat="45.1858011" lon="12.2336736"><ele>-1.0</ele><time>2026-04-26T09:37:59.9Z</time></trkpt><trkpt lat="45.1858381" lon="12.2335247"><ele>-1.0</ele><time>2026-04-26T09:38:01.904Z</time></trkpt><trkpt lat="45.1858771" lon="12.233381"><ele>-1.0</ele><time>2026-04-26T09:38:03.901Z</time></trkpt><trkpt lat="45.1859077" lon="12.2332376"><ele>-1.0</ele><time>2026-04-26T09:38:05.897Z</time></trkpt><trkpt lat="45.1859389" lon="12.2330925"><ele>-1.0</ele><time>2026-04-26T09:38:07.896Z</time></trkpt><trkpt lat="45.1859698" lon="12.2329522"><ele>-1.25</ele><time>2026-04-26T09:38:09.902Z</time></trkpt><trkpt lat="45.1860029" lon="12.2328092"><ele>-1.5</ele><time>2026-04-26T09:38:11.898Z</time></trkpt><trkpt lat="45.1860364" lon="12.2326556"><ele>-1.75</ele><time>2026-04-26T09:38:13.903Z</time></trkpt><trkpt lat="45.1860751" lon="12.2324982"><ele>-2.0</ele><time>2026-04-26T09:38:15.904Z</time></trkpt><trkpt lat="45.186112" lon="12.2323418"><ele>-1.75</ele><time>2026-04-26T09:38:17.902Z</time></trkpt><trkpt lat="45.1861492" lon="12.2321867"><ele>-1.5</ele><time>2026-04-26T09:38:19.894Z</time></trkpt><trkpt lat="45.1861825" lon="12.2320285"><ele>-1.25</ele><time>2026-04-26T09:38:21.897Z</time></trkpt><trkpt lat="45.1862202" lon="12.2318733"><ele>-1.0</ele><time>2026-04-26T09:38:23.9Z</time></trkpt><trkpt lat="45.1862561" lon="12.2317201"><ele>-1.0</ele><time>2026-04-26T09:38:25.901Z</time></trkpt><trkpt lat="45.1862938" lon="12.2315697"><ele>-1.0</ele><time>2026-04-26T09:38:27.899Z</time></trkpt><trkpt lat="45.1863303" lon="12.2314212"><ele>-1.0</ele><time>2026-04-26T09:38:29.898Z</time></trkpt><trkpt lat="45.186367" lon="12.231279"><ele>-1.0</ele><time>2026-04-26T09:38:31.9Z</time></trkpt><trkpt lat="45.1864019" lon="12.2311326"><ele>-1.0</ele><time>2026-04-26T09:38:33.894Z</time></trkpt><trkpt lat="45.1864356" lon="12.2309838"><ele>-1.0</ele><time>2026-04-26T09:38:35.903Z</time></trkpt><trkpt lat="45.1864735" lon="12.2308355"><ele>-1.0</ele><time>2026-04-26T09:38:37.901Z</time></trkpt><trkpt lat="45.1865063" lon="12.2306844"><ele>-1.0</ele><time>2026-04-26T09:38:39.9Z</time></trkpt><trkpt lat="45.1865363" lon="12.2305353"><ele>-1.0</ele><time>2026-04-26T09:38:41.896Z</time></trkpt><trkpt lat="45.1865672" lon="12.2303839"><ele>-1.0</ele><time>2026-04-26T09:38:43.894Z</time></trkpt><trkpt lat="45.1866017" lon="12.2302273"><ele>-0.75</ele><time>2026-04-26T09:38:45.898Z</time></trkpt><trkpt lat="45.1866343" lon="12.2300705"><ele>-0.5</ele><time>2026-04-26T09:38:47.895Z</time></trkpt><trkpt lat="45.1866698" lon="12.2299166"><ele>-0.25</ele><time>2026-04-26T09:38:49.903Z</time></trkpt><trkpt lat="45.1867053" lon="12.2297647"><ele>0.0</ele><time>2026-04-26T09:38:51.9Z</time></trkpt><trkpt lat="45.18674" lon="12.2296122"><ele>0.25</ele><time>2026-04-26T09:38:53.904Z</time></trkpt><trkpt lat="45.1867737" lon="12.2294607"><ele>0.5</ele><time>2026-04-26T09:38:55.897Z</time></trkpt><trkpt lat="45.1868064" lon="12.2293084"><ele>0.75</ele><time>2026-04-26T09:38:57.896Z</time></trkpt><trkpt lat="45.1868403" lon="12.2291531"><ele>1.0</ele><time>2026-04-26T09:38:59.895Z</time></trkpt><trkpt lat="45.1868734" lon="12.2289934"><ele>0.8</ele><time>2026-04-26T09:39:01.899Z</time></trkpt><trkpt lat="45.1869067" lon="12.2288405"><ele>0.6000000000000001</ele><time>2026-04-26T09:39:03.898Z</time></trkpt><trkpt lat="45.1869427" lon="12.2286941"><ele>0.4</ele><time>2026-04-26T09:39:05.901Z</time></trkpt><trkpt lat="45.1869757" lon="12.228543"><ele>0.2</ele><time>2026-04-26T09:39:07.895Z</time></trkpt><trkpt lat="45.1870115" lon="12.2283914"><ele>0.0</ele><time>2026-04-26T09:39:09.899Z</time></trkpt><trkpt lat="45.1870474" lon="12.2282405"><ele>-0.25</ele><time>2026-04-26T09:39:11.899Z</time></trkpt><trkpt lat="45.1870844" lon="12.2280827"><ele>-0.5</ele><time>2026-04-26T09:39:13.898Z</time></trkpt><trkpt lat="45.1871257" lon="12.2279243"><ele>-0.75</ele><time>2026-04-26T09:39:15.898Z</time></trkpt><trkpt lat="45.1871591" lon="12.2277754"><ele>-1.0</ele><time>2026-04-26T09:39:17.9Z</time></trkpt><trkpt lat="45.1871945" lon="12.2276318"><ele>-1.0</ele><time>2026-04-26T09:39:19.897Z</time></trkpt><trkpt lat="45.1872241" lon="12.2274838"><ele>-1.0</ele><time>2026-04-26T09:39:21.896Z</time></trkpt><trkpt lat="45.18726" lon="12.2273346"><ele>-1.0</ele><time>2026-04-26T09:39:23.899Z</time></trkpt><trkpt lat="45.1872922" lon="12.2271871"><ele>-1.0</ele><time>2026-04-26T09:39:25.894Z</time></trkpt><trkpt lat="45.1873274" lon="12.227037"><ele>-1.0</ele><time>2026-04-26T09:39:27.899Z</time></trkpt><trkpt lat="45.187363" lon="12.2268896"><ele>-1.0</ele><time>2026-04-26T09:39:29.895Z</time></trkpt><trkpt lat="45.1873982" lon="12.226746"><ele>-1.0</ele><time>2026-04-26T09:39:31.899Z</time></trkpt><trkpt lat="45.1874321" lon="12.2266035"><ele>-1.0</ele><time>2026-04-26T09:39:33.902Z</time></trkpt><trkpt lat="45.187465" lon="12.2264569"><ele>-1.0</ele><time>2026-04-26T09:39:35.903Z</time></trkpt><trkpt lat="45.1874953" lon="12.2263077"><ele>-1.0</ele><time>2026-04-26T09:39:37.897Z</time></trkpt><trkpt lat="45.1875278" lon="12.2261576"><ele>-1.0</ele><time>2026-04-26T09:39:39.897Z</time></trkpt><trkpt lat="45.1875613" lon="12.2260129"><ele>-1.0</ele><time>2026-04-26T09:39:41.892Z</time></trkpt><trkpt lat="45.1875925" lon="12.2258669"><ele>-1.0</ele><time>2026-04-26T09:39:43.895Z</time></trkpt><trkpt lat="45.1876227" lon="12.2257158"><ele>-1.0</ele><time>2026-04-26T09:39:45.899Z</time></trkpt><trkpt lat="45.1876543" lon="12.225568"><ele>-1.0</ele><time>2026-04-26T09:39:47.892Z</time></trkpt><trkpt lat="45.187685" lon="12.2254185"><ele>-1.25</ele><time>2026-04-26T09:39:49.896Z</time></trkpt><trkpt lat="45.1877154" lon="12.2252663"><ele>-1.5</ele><time>2026-04-26T09:39:51.9Z</time></trkpt><trkpt lat="45.1877504" lon="12.2251122"><ele>-1.75</ele><time>2026-04-26T09:39:53.899Z</time></trkpt><trkpt lat="45.1877909" lon="12.2249624"><ele>-2.0</ele><time>2026-04-26T09:39:55.894Z</time></trkpt><trkpt lat="45.1878272" lon="12.2248122"><ele>-2.0</ele><time>2026-04-26T09:39:57.9Z</time></trkpt><trkpt lat="45.1878676" lon="12.2246579"><ele>-2.0</ele><time>2026-04-26T09:39:59.897Z</time></trkpt><trkpt lat="45.1879041" lon="12.224509"><ele>-2.0</ele><time>2026-04-26T09:40:01.894Z</time></trkpt><trkpt lat="45.1879352" lon="12.2243504"><ele>-2.0</ele><time>2026-04-26T09:40:03.897Z</time></trkpt><trkpt lat="45.1879711" lon="12.2241919"><ele>-2.0</ele><time>2026-04-26T09:40:05.899Z</time></trkpt><trkpt lat="45.1880072" lon="12.2240346"><ele>-2.0</ele><time>2026-04-26T09:40:07.896Z</time></trkpt><trkpt lat="45.1880412" lon="12.2238764"><ele>-2.0</ele><time>2026-04-26T09:40:09.898Z</time></trkpt><trkpt lat="45.1880793" lon="12.2237195"><ele>-2.0</ele><time>2026-04-26T09:40:11.896Z</time></trkpt><trkpt lat="45.1881168" lon="12.223562"><ele>-2.0</ele><time>2026-04-26T09:40:13.897Z</time></trkpt><trkpt lat="45.1881541" lon="12.2234028"><ele>-2.0</ele><time>2026-04-26T09:40:15.899Z</time></trkpt><trkpt lat="45.1881884" lon="12.2232411"><ele>-2.0</ele><time>2026-04-26T09:40:17.894Z</time></trkpt><trkpt lat="45.1882241" lon="12.223078"><ele>-2.0</ele><time>2026-04-26T09:40:19.899Z</time></trkpt><trkpt lat="45.1882582" lon="12.2229158"><ele>-2.0</ele><time>2026-04-26T09:40:21.9Z</time></trkpt><trkpt lat="45.188302" lon="12.2227533"><ele>-2.0</ele><time>2026-04-26T09:40:23.898Z</time></trkpt><trkpt lat="45.188339" lon="12.2225946"><ele>-2.0</ele><time>2026-04-26T09:40:25.893Z</time></trkpt><trkpt lat="45.1883732" lon="12.2224379"><ele>-2.0</ele><time>2026-04-26T09:40:27.899Z</time></trkpt><trkpt lat="45.1884089" lon="12.2222784"><ele>-2.0</ele><time>2026-04-26T09:40:29.896Z</time></trkpt><trkpt lat="45.1884459" lon="12.2221217"><ele>-2.0</ele><time>2026-04-26T09:40:31.901Z</time></trkpt><trkpt lat="45.1884781" lon="12.2219673"><ele>-2.0</ele><time>2026-04-26T09:40:33.902Z</time></trkpt><trkpt lat="45.1885081" lon="12.221815"><ele>-2.0</ele><time>2026-04-26T09:40:35.897Z</time></trkpt><trkpt lat="45.1885371" lon="12.2216581"><ele>-2.0</ele><time>2026-04-26T09:40:37.901Z</time></trkpt><trkpt lat="45.1885746" lon="12.2215077"><ele>-2.0</ele><time>2026-04-26T09:40:39.897Z</time></trkpt><trkpt lat="45.1886108" lon="12.2213585"><ele>-2.0</ele><time>2026-04-26T09:40:41.899Z</time></trkpt><trkpt lat="45.1886478" lon="12.2212071"><ele>-2.0</ele><time>2026-04-26T09:40:43.897Z</time></trkpt><trkpt lat="45.188681" lon="12.2210495"><ele>-2.0</ele><time>2026-04-26T09:40:45.895Z</time></trkpt><trkpt lat="45.1887151" lon="12.220897"><ele>-2.0</ele><time>2026-04-26T09:40:47.897Z</time></trkpt><trkpt lat="45.1887516" lon="12.2207471"><ele>-2.0</ele><time>2026-04-26T09:40:49.899Z</time></trkpt><trkpt lat="45.1887845" lon="12.2205964"><ele>-2.0</ele><time>2026-04-26T09:40:51.895Z</time></trkpt><trkpt lat="45.188822" lon="12.2204477"><ele>-2.0</ele><time>2026-04-26T09:40:53.902Z</time></trkpt><trkpt lat="45.1888639" lon="12.2203027"><ele>-2.0</ele><time>2026-04-26T09:40:55.893Z</time></trkpt><trkpt lat="45.188898" lon="12.2201575"><ele>-2.0</ele><time>2026-04-26T09:40:57.896Z</time></trkpt><trkpt lat="45.1889394" lon="12.2200125"><ele>-2.0</ele><time>2026-04-26T09:40:59.903Z</time></trkpt><trkpt lat="45.1889833" lon="12.2198635"><ele>-2.0</ele><time>2026-04-26T09:41:01.901Z</time></trkpt><trkpt lat="45.1890189" lon="12.219715"><ele>-2.0</ele><time>2026-04-26T09:41:03.897Z</time></trkpt><trkpt lat="45.1890529" lon="12.2195648"><ele>-2.0</ele><time>2026-04-26T09:41:05.902Z</time></trkpt><trkpt lat="45.1890914" lon="12.2194143"><ele>-2.0</ele><time>2026-04-26T09:41:07.901Z</time></trkpt><trkpt lat="45.1891313" lon="12.2192613"><ele>-2.0</ele><time>2026-04-26T09:41:09.898Z</time></trkpt><trkpt lat="45.1891749" lon="12.2191113"><ele>-2.0</ele><time>2026-04-26T09:41:11.894Z</time></trkpt><trkpt lat="45.1892166" lon="12.2189567"><ele>-2.0</ele><time>2026-04-26T09:41:13.897Z</time></trkpt><trkpt lat="45.1892578" lon="12.2187991"><ele>-2.0</ele><time>2026-04-26T09:41:15.899Z</time></trkpt><trkpt lat="45.1893027" lon="12.2186464"><ele>-2.0</ele><time>2026-04-26T09:41:17.897Z</time></trkpt><trkpt lat="45.1893414" lon="12.2184968"><ele>-2.0</ele><time>2026-04-26T09:41:19.896Z</time></trkpt><trkpt lat="45.1893782" lon="12.2183433"><ele>-2.0</ele><time>2026-04-26T09:41:21.901Z</time></trkpt><trkpt lat="45.1894135" lon="12.2181894"><ele>-2.0</ele><time>2026-04-26T09:41:23.9Z</time></trkpt><trkpt lat="45.1894543" lon="12.2180343"><ele>-2.0</ele><time>2026-04-26T09:41:25.897Z</time></trkpt><trkpt lat="45.1894957" lon="12.2178818"><ele>-2.0</ele><time>2026-04-26T09:41:27.894Z</time></trkpt><trkpt lat="45.1895334" lon="12.2177313"><ele>-2.0</ele><time>2026-04-26T09:41:29.898Z</time></trkpt><trkpt lat="45.1895733" lon="12.2175815"><ele>-2.0</ele><time>2026-04-26T09:41:31.902Z</time></trkpt><trkpt lat="45.1896101" lon="12.2174345"><ele>-2.0</ele><time>2026-04-26T09:41:33.898Z</time></trkpt><trkpt lat="45.1896492" lon="12.2172857"><ele>-2.0</ele><time>2026-04-26T09:41:35.896Z</time></trkpt><trkpt lat="45.1896949" lon="12.2171425"><ele>-2.0</ele><time>2026-04-26T09:41:37.903Z</time></trkpt><trkpt lat="45.1897333" lon="12.2170012"><ele>-2.0</ele><time>2026-04-26T09:41:39.9Z</time></trkpt><trkpt lat="45.1897733" lon="12.2168519"><ele>-2.0</ele><time>2026-04-26T09:41:41.898Z</time></trkpt><trkpt lat="45.1898167" lon="12.2167053"><ele>-2.0</ele><time>2026-04-26T09:41:43.896Z</time></trkpt><trkpt lat="45.1898577" lon="12.2165659"><ele>-2.0</ele><time>2026-04-26T09:41:45.898Z</time></trkpt><trkpt lat="45.1898963" lon="12.2164368"><ele>-2.0</ele><time>2026-04-26T09:41:47.897Z</time></trkpt><trkpt lat="45.1899312" lon="12.2163189"><ele>-1.9999999999999998</ele><time>2026-04-26T09:41:49.899Z</time></trkpt><trkpt lat="45.1899627" lon="12.2162146"><ele>-2.0</ele><time>2026-04-26T09:41:51.894Z</time></trkpt><trkpt lat="45.1899901" lon="12.2161098"><ele>-2.0</ele><time>2026-04-26T09:41:53.898Z</time></trkpt><trkpt lat="45.1900172" lon="12.2159928"><ele>-2.0</ele><time>2026-04-26T09:41:55.895Z</time></trkpt><trkpt lat="45.1900514" lon="12.2158692"><ele>-1.9999999999999998</ele><time>2026-04-26T09:41:57.897Z</time></trkpt><trkpt lat="45.19009" lon="12.2157398"><ele>-2.0</ele><time>2026-04-26T09:41:59.9Z</time></trkpt><trkpt lat="45.1901334" lon="12.2156071"><ele>-2.0</ele><time>2026-04-26T09:42:01.898Z</time></trkpt><trkpt lat="45.1901765" lon="12.2154704"><ele>-2.0</ele><time>2026-04-26T09:42:03.902Z</time></trkpt><trkpt lat="45.1902196" lon="12.2153283"><ele>-2.0</ele><time>2026-04-26T09:42:05.9Z</time></trkpt><trkpt lat="45.1902622" lon="12.2151829"><ele>-2.0</ele><time>2026-04-26T09:42:07.896Z</time></trkpt><trkpt lat="45.1903008" lon="12.2150423"><ele>-2.0</ele><time>2026-04-26T09:42:09.896Z</time></trkpt><trkpt lat="45.1903388" lon="12.2149006"><ele>-2.0</ele><time>2026-04-26T09:42:11.893Z</time></trkpt><trkpt lat="45.1903806" lon="12.2147616"><ele>-2.0</ele><time>2026-04-26T09:42:13.897Z</time></trkpt><trkpt lat="45.1904208" lon="12.2146202"><ele>-2.0</ele><time>2026-04-26T09:42:15.898Z</time></trkpt><trkpt lat="45.1904631" lon="12.214479"><ele>-2.0</ele><time>2026-04-26T09:42:17.898Z</time></trkpt><trkpt lat="45.1905076" lon="12.2143364"><ele>-2.0</ele><time>2026-04-26T09:42:19.9Z</time></trkpt><trkpt lat="45.1905472" lon="12.214195"><ele>-2.0</ele><time>2026-04-26T09:42:21.896Z</time></trkpt><trkpt lat="45.1905903" lon="12.2140533"><ele>-2.0</ele><time>2026-04-26T09:42:23.901Z</time></trkpt><trkpt lat="45.1906351" lon="12.2139101"><ele>-2.0</ele><time>2026-04-26T09:42:25.898Z</time></trkpt><trkpt lat="45.1906775" lon="12.2137685"><ele>-2.0</ele><time>2026-04-26T09:42:27.899Z</time></trkpt><trkpt lat="45.1907231" lon="12.2136287"><ele>-2.0</ele><time>2026-04-26T09:42:29.905Z</time></trkpt><trkpt lat="45.1907674" lon="12.2134884"><ele>-2.0</ele><time>2026-04-26T09:42:31.895Z</time></trkpt><trkpt lat="45.1908097" lon="12.2133463"><ele>-2.0</ele><time>2026-04-26T09:42:33.896Z</time></trkpt><trkpt lat="45.1908558" lon="12.2132021"><ele>-2.0</ele><time>2026-04-26T09:42:35.895Z</time></trkpt><trkpt lat="45.1908971" lon="12.2130556"><ele>-2.0</ele><time>2026-04-26T09:42:37.896Z</time></trkpt><trkpt lat="45.1909438" lon="12.21291"><ele>-2.0</ele><time>2026-04-26T09:42:39.899Z</time></trkpt><trkpt lat="45.1909976" lon="12.2127696"><ele>-2.0</ele><time>2026-04-26T09:42:41.899Z</time></trkpt><trkpt lat="45.1910459" lon="12.2126251"><ele>-2.0</ele><time>2026-04-26T09:42:43.898Z</time></trkpt><trkpt lat="45.1910936" lon="12.2124802"><ele>-2.0</ele><time>2026-04-26T09:42:45.899Z</time></trkpt><trkpt lat="45.1911419" lon="12.2123345"><ele>-2.0</ele><time>2026-04-26T09:42:47.9Z</time></trkpt><trkpt lat="45.191191" lon="12.2121898"><ele>-2.0</ele><time>2026-04-26T09:42:49.899Z</time></trkpt><trkpt lat="45.1912374" lon="12.2120432"><ele>-2.0</ele><time>2026-04-26T09:42:51.898Z</time></trkpt><trkpt lat="45.1912839" lon="12.2118946"><ele>-2.0</ele><time>2026-04-26T09:42:53.892Z</time></trkpt><trkpt lat="45.191333" lon="12.2117473"><ele>-2.0</ele><time>2026-04-26T09:42:55.903Z</time></trkpt><trkpt lat="45.1913846" lon="12.211599"><ele>-2.0</ele><time>2026-04-26T09:42:57.897Z</time></trkpt><trkpt lat="45.1914373" lon="12.2114525"><ele>-2.0</ele><time>2026-04-26T09:42:59.895Z</time></trkpt><trkpt lat="45.191487" lon="12.2113046"><ele>-2.0</ele><time>2026-04-26T09:43:01.9Z</time></trkpt><trkpt lat="45.1915355" lon="12.2111572"><ele>-2.0</ele><time>2026-04-26T09:43:03.896Z</time></trkpt><trkpt lat="45.1915871" lon="12.2110078"><ele>-2.0</ele><time>2026-04-26T09:43:05.897Z</time></trkpt><trkpt lat="45.1916399" lon="12.2108636"><ele>-2.0</ele><time>2026-04-26T09:43:07.9Z</time></trkpt><trkpt lat="45.1916925" lon="12.2107196"><ele>-2.0</ele><time>2026-04-26T09:43:09.896Z</time></trkpt><trkpt lat="45.1917418" lon="12.2105798"><ele>-2.0</ele><time>2026-04-26T09:43:11.901Z</time></trkpt><trkpt lat="45.1917905" lon="12.2104389"><ele>-2.0</ele><time>2026-04-26T09:43:13.9Z</time></trkpt><trkpt lat="45.191835" lon="12.2103067"><ele>-2.0</ele><time>2026-04-26T09:43:15.896Z</time></trkpt><trkpt lat="45.1918802" lon="12.210179"><ele>-2.0</ele><time>2026-04-26T09:43:17.902Z</time></trkpt><trkpt lat="45.1919245" lon="12.210058"><ele>-2.0</ele><time>2026-04-26T09:43:19.897Z</time></trkpt><trkpt lat="45.1919746" lon="12.2099349"><ele>-2.0</ele><time>2026-04-26T09:43:21.896Z</time></trkpt><trkpt lat="45.192024" lon="12.2098044"><ele>-2.0</ele><time>2026-04-26T09:43:23.897Z</time></trkpt><trkpt lat="45.192073" lon="12.2096644"><ele>-2.0</ele><time>2026-04-26T09:43:25.901Z</time></trkpt><trkpt lat="45.1921227" lon="12.2095262"><ele>-2.0</ele><time>2026-04-26T09:43:27.898Z</time></trkpt><trkpt lat="45.1921765" lon="12.2093881"><ele>-2.0</ele><time>2026-04-26T09:43:29.901Z</time></trkpt><trkpt lat="45.1922269" lon="12.2092466"><ele>-2.0</ele><time>2026-04-26T09:43:31.895Z</time></trkpt><trkpt lat="45.1922764" lon="12.2091023"><ele>-2.0</ele><time>2026-04-26T09:43:33.899Z</time></trkpt><trkpt lat="45.1923277" lon="12.2089566"><ele>-2.0</ele><time>2026-04-26T09:43:35.902Z</time></trkpt><trkpt lat="45.1923853" lon="12.2088203"><ele>-2.0</ele><time>2026-04-26T09:43:37.9Z</time></trkpt><trkpt lat="45.192439" lon="12.2086838"><ele>-2.0</ele><time>2026-04-26T09:43:39.897Z</time></trkpt><trkpt lat="45.1924926" lon="12.2085443"><ele>-2.0</ele><time>2026-04-26T09:43:41.895Z</time></trkpt><trkpt lat="45.1925431" lon="12.2083997"><ele>-1.75</ele><time>2026-04-26T09:43:43.9Z</time></trkpt><trkpt lat="45.1925984" lon="12.2082565"><ele>-1.5</ele><time>2026-04-26T09:43:45.896Z</time></trkpt><trkpt lat="45.1926547" lon="12.2081169"><ele>-1.25</ele><time>2026-04-26T09:43:47.896Z</time></trkpt><trkpt lat="45.1927049" lon="12.2079726"><ele>-1.0</ele><time>2026-04-26T09:43:49.897Z</time></trkpt><trkpt lat="45.1927551" lon="12.2078287"><ele>-1.0</ele><time>2026-04-26T09:43:51.894Z</time></trkpt><trkpt lat="45.1928069" lon="12.2076873"><ele>-1.0</ele><time>2026-04-26T09:43:53.9Z</time></trkpt><trkpt lat="45.192859" lon="12.20754"><ele>-1.0</ele><time>2026-04-26T09:43:55.898Z</time></trkpt><trkpt lat="45.19291" lon="12.2073979"><ele>-1.0</ele><time>2026-04-26T09:43:57.894Z</time></trkpt><trkpt lat="45.1929649" lon="12.2072598"><ele>-0.75</ele><time>2026-04-26T09:43:59.898Z</time></trkpt><trkpt lat="45.1930224" lon="12.2071214"><ele>-0.5</ele><time>2026-04-26T09:44:01.9Z</time></trkpt><trkpt lat="45.1930768" lon="12.2069759"><ele>-0.25</ele><time>2026-04-26T09:44:03.898Z</time></trkpt><trkpt lat="45.1931323" lon="12.2068322"><ele>0.0</ele><time>2026-04-26T09:44:05.897Z</time></trkpt><trkpt lat="45.1931866" lon="12.206693"><ele>0.0</ele><time>2026-04-26T09:44:07.897Z</time></trkpt><trkpt lat="45.1932404" lon="12.2065564"><ele>0.0</ele><time>2026-04-26T09:44:09.896Z</time></trkpt><trkpt lat="45.1932909" lon="12.2064177"><ele>0.0</ele><time>2026-04-26T09:44:11.898Z</time></trkpt><trkpt lat="45.1933449" lon="12.2062797"><ele>0.0</ele><time>2026-04-26T09:44:13.901Z</time></trkpt><trkpt lat="45.1933996" lon="12.206137"><ele>0.0</ele><time>2026-04-26T09:44:15.897Z</time></trkpt><trkpt lat="45.1934565" lon="12.2059954"><ele>0.0</ele><time>2026-04-26T09:44:17.9Z</time></trkpt><trkpt lat="45.1935132" lon="12.2058506"><ele>0.0</ele><time>2026-04-26T09:44:19.9Z</time></trkpt><trkpt lat="45.1935685" lon="12.2057047"><ele>0.0</ele><time>2026-04-26T09:44:21.898Z</time></trkpt><trkpt lat="45.1936272" lon="12.2055589"><ele>0.0</ele><time>2026-04-26T09:44:23.899Z</time></trkpt><trkpt lat="45.193682" lon="12.2054149"><ele>0.0</ele><time>2026-04-26T09:44:25.893Z</time></trkpt><trkpt lat="45.1937341" lon="12.205273"><ele>0.0</ele><time>2026-04-26T09:44:27.896Z</time></trkpt><trkpt lat="45.1937874" lon="12.2051289"><ele>0.0</ele><time>2026-04-26T09:44:29.899Z</time></trkpt><trkpt lat="45.1938424" lon="12.2049877"><ele>0.0</ele><time>2026-04-26T09:44:31.896Z</time></trkpt><trkpt lat="45.1938951" lon="12.2048586"><ele>0.0</ele><time>2026-04-26T09:44:33.9Z</time></trkpt><trkpt lat="45.1939391" lon="12.2047378"><ele>0.0</ele><time>2026-04-26T09:44:35.9Z</time></trkpt><trkpt lat="45.1939817" lon="12.2046026"><ele>0.0</ele><time>2026-04-26T09:44:37.901Z</time></trkpt><trkpt lat="45.194034" lon="12.2044608"><ele>0.0</ele><time>2026-04-26T09:44:39.896Z</time></trkpt><trkpt lat="45.1940885" lon="12.204314"><ele>0.0</ele><time>2026-04-26T09:44:41.899Z</time></trkpt><trkpt lat="45.1941491" lon="12.20418"><ele>0.0</ele><time>2026-04-26T09:44:43.894Z</time></trkpt><trkpt lat="45.1942084" lon="12.2040465"><ele>0.2</ele><time>2026-04-26T09:44:45.897Z</time></trkpt><trkpt lat="45.1942586" lon="12.2039095"><ele>0.4</ele><time>2026-04-26T09:44:47.898Z</time></trkpt><trkpt lat="45.194307" lon="12.2037748"><ele>0.6000000000000001</ele><time>2026-04-26T09:44:49.897Z</time></trkpt><trkpt lat="45.1943583" lon="12.2036398"><ele>0.8</ele><time>2026-04-26T09:44:51.897Z</time></trkpt><trkpt lat="45.1944104" lon="12.2035033"><ele>1.0</ele><time>2026-04-26T09:44:53.898Z</time></trkpt><trkpt lat="45.1944655" lon="12.203365"><ele>1.0</ele><time>2026-04-26T09:44:55.902Z</time></trkpt><trkpt lat="45.1945168" lon="12.2032226"><ele>1.0</ele><time>2026-04-26T09:44:57.894Z</time></trkpt><trkpt lat="45.1945727" lon="12.2030821"><ele>1.0</ele><time>2026-04-26T09:44:59.897Z</time></trkpt><trkpt lat="45.194627" lon="12.2029409"><ele>1.0</ele><time>2026-04-26T09:45:01.894Z</time></trkpt><trkpt lat="45.1946784" lon="12.2028004"><ele>1.0</ele><time>2026-04-26T09:45:03.892Z</time></trkpt><trkpt lat="45.1947294" lon="12.2026561"><ele>1.0</ele><time>2026-04-26T09:45:05.892Z</time></trkpt><trkpt lat="45.1947832" lon="12.2025155"><ele>1.0</ele><time>2026-04-26T09:45:07.895Z</time></trkpt><trkpt lat="45.1948394" lon="12.2023801"><ele>1.0</ele><time>2026-04-26T09:45:09.902Z</time></trkpt><trkpt lat="45.1948919" lon="12.2022499"><ele>1.0</ele><time>2026-04-26T09:45:11.897Z</time></trkpt><trkpt lat="45.1949442" lon="12.2021114"><ele>1.0</ele><time>2026-04-26T09:45:13.896Z</time></trkpt><trkpt lat="45.1949953" lon="12.2019689"><ele>1.0</ele><time>2026-04-26T09:45:15.901Z</time></trkpt><trkpt lat="45.1950492" lon="12.2018242"><ele>1.0</ele><time>2026-04-26T09:45:17.898Z</time></trkpt><trkpt lat="45.1951017" lon="12.2016866"><ele>1.0</ele><time>2026-04-26T09:45:19.899Z</time></trkpt><trkpt lat="45.1951517" lon="12.2015538"><ele>1.0</ele><time>2026-04-26T09:45:21.895Z</time></trkpt><trkpt lat="45.195205" lon="12.2014224"><ele>1.2000000000000002</ele><time>2026-04-26T09:45:23.894Z</time></trkpt><trkpt lat="45.1952541" lon="12.2012912"><ele>1.4000000000000001</ele><time>2026-04-26T09:45:25.893Z</time></trkpt><trkpt lat="45.1953061" lon="12.2011611"><ele>1.6</ele><time>2026-04-26T09:45:27.899Z</time></trkpt><trkpt lat="45.195357" lon="12.2010291"><ele>1.8</ele><time>2026-04-26T09:45:29.899Z</time></trkpt><trkpt lat="45.1954088" lon="12.2008896"><ele>2.0</ele><time>2026-04-26T09:45:31.896Z</time></trkpt><trkpt lat="45.195461" lon="12.2007472"><ele>2.0</ele><time>2026-04-26T09:45:33.891Z</time></trkpt><trkpt lat="45.1955124" lon="12.2006029"><ele>2.0</ele><time>2026-04-26T09:45:35.895Z</time></trkpt><trkpt lat="45.1955651" lon="12.20046"><ele>2.0</ele><time>2026-04-26T09:45:37.895Z</time></trkpt><trkpt lat="45.1956211" lon="12.2003178"><ele>2.0</ele><time>2026-04-26T09:45:39.893Z</time></trkpt><trkpt lat="45.1956792" lon="12.2001796"><ele>1.75</ele><time>2026-04-26T09:45:41.898Z</time></trkpt><trkpt lat="45.195735" lon="12.2000434"><ele>1.5</ele><time>2026-04-26T09:45:43.901Z</time></trkpt><trkpt lat="45.1957888" lon="12.1999053"><ele>1.25</ele><time>2026-04-26T09:45:45.899Z</time></trkpt><trkpt lat="45.1958451" lon="12.1997641"><ele>1.0</ele><time>2026-04-26T09:45:47.892Z</time></trkpt><trkpt lat="45.1959039" lon="12.1996245"><ele>0.75</ele><time>2026-04-26T09:45:49.902Z</time></trkpt><trkpt lat="45.1959588" lon="12.1994848"><ele>0.5</ele><time>2026-04-26T09:45:51.899Z</time></trkpt><trkpt lat="45.1960149" lon="12.1993493"><ele>0.25</ele><time>2026-04-26T09:45:53.902Z</time></trkpt><trkpt lat="45.1960701" lon="12.1992087"><ele>0.0</ele><time>2026-04-26T09:45:55.901Z</time></trkpt><trkpt lat="45.1961245" lon="12.1990648"><ele>0.25</ele><time>2026-04-26T09:45:57.9Z</time></trkpt><trkpt lat="45.196182" lon="12.19892"><ele>0.5</ele><time>2026-04-26T09:45:59.9Z</time></trkpt><trkpt lat="45.1962396" lon="12.1987726"><ele>0.75</ele><time>2026-04-26T09:46:01.9Z</time></trkpt><trkpt lat="45.1962924" lon="12.1986226"><ele>1.0</ele><time>2026-04-26T09:46:03.897Z</time></trkpt><trkpt lat="45.1963463" lon="12.1984758"><ele>1.0</ele><time>2026-04-26T09:46:05.895Z</time></trkpt><trkpt lat="45.1963985" lon="12.1983342"><ele>1.0</ele><time>2026-04-26T09:46:07.901Z</time></trkpt><trkpt lat="45.1964578" lon="12.1981923"><ele>1.0</ele><time>2026-04-26T09:46:09.901Z</time></trkpt><trkpt lat="45.1965148" lon="12.19805"><ele>1.0</ele><time>2026-04-26T09:46:11.899Z</time></trkpt><trkpt lat="45.1965671" lon="12.1979084"><ele>0.5</ele><time>2026-04-26T09:46:13.9Z</time></trkpt><trkpt lat="45.196619" lon="12.1977633"><ele>0.0</ele><time>2026-04-26T09:46:15.901Z</time></trkpt><trkpt lat="45.1966743" lon="12.1976205"><ele>-0.5</ele><time>2026-04-26T09:46:17.902Z</time></trkpt><trkpt lat="45.196726" lon="12.1974758"><ele>-1.0</ele><time>2026-04-26T09:46:19.897Z</time></trkpt><trkpt lat="45.1967793" lon="12.1973242"><ele>-1.0</ele><time>2026-04-26T09:46:21.902Z</time></trkpt><trkpt lat="45.1968316" lon="12.197172"><ele>-1.0</ele><time>2026-04-26T09:46:23.897Z</time></trkpt><trkpt lat="45.1968829" lon="12.197021"><ele>-1.0</ele><time>2026-04-26T09:46:25.897Z</time></trkpt><trkpt lat="45.1969373" lon="12.1968677"><ele>-1.0</ele><time>2026-04-26T09:46:27.894Z</time></trkpt><trkpt lat="45.1969937" lon="12.1967135"><ele>-1.0</ele><time>2026-04-26T09:46:29.895Z</time></trkpt><trkpt lat="45.1970543" lon="12.1965611"><ele>-1.0</ele><time>2026-04-26T09:46:31.901Z</time></trkpt><trkpt lat="45.1971096" lon="12.1964119"><ele>-1.0</ele><time>2026-04-26T09:46:33.899Z</time></trkpt><trkpt lat="45.1971652" lon="12.1962675"><ele>-1.0</ele><time>2026-04-26T09:46:35.901Z</time></trkpt><trkpt lat="45.1972229" lon="12.1961222"><ele>-1.25</ele><time>2026-04-26T09:46:37.898Z</time></trkpt><trkpt lat="45.1972814" lon="12.1959777"><ele>-1.5</ele><time>2026-04-26T09:46:39.897Z</time></trkpt><trkpt lat="45.1973429" lon="12.1958326"><ele>-1.75</ele><time>2026-04-26T09:46:41.897Z</time></trkpt><trkpt lat="45.1974014" lon="12.1956865"><ele>-2.0</ele><time>2026-04-26T09:46:43.901Z</time></trkpt><trkpt lat="45.1974586" lon="12.1955404"><ele>-1.5</ele><time>2026-04-26T09:46:45.901Z</time></trkpt><trkpt lat="45.1975124" lon="12.1953931"><ele>-1.0</ele><time>2026-04-26T09:46:47.901Z</time></trkpt><trkpt lat="45.1975646" lon="12.1952465"><ele>-0.5</ele><time>2026-04-26T09:46:49.894Z</time></trkpt><trkpt lat="45.1976207" lon="12.1951021"><ele>0.0</ele><time>2026-04-26T09:46:51.895Z</time></trkpt><trkpt lat="45.1976788" lon="12.1949566"><ele>0.25</ele><time>2026-04-26T09:46:53.898Z</time></trkpt><trkpt lat="45.1977364" lon="12.1948092"><ele>0.5</ele><time>2026-04-26T09:46:55.897Z</time></trkpt><trkpt lat="45.1977947" lon="12.1946585"><ele>0.75</ele><time>2026-04-26T09:46:57.903Z</time></trkpt><trkpt lat="45.1978512" lon="12.1945132"><ele>1.0</ele><time>2026-04-26T09:46:59.9Z</time></trkpt><trkpt lat="45.197907" lon="12.1943724"><ele>1.0</ele><time>2026-04-26T09:47:01.9Z</time></trkpt><trkpt lat="45.1979612" lon="12.194236"><ele>1.0</ele><time>2026-04-26T09:47:03.896Z</time></trkpt><trkpt lat="45.1980172" lon="12.1941022"><ele>1.0</ele><time>2026-04-26T09:47:05.903Z</time></trkpt><trkpt lat="45.1980736" lon="12.1939671"><ele>1.0</ele><time>2026-04-26T09:47:07.897Z</time></trkpt><trkpt lat="45.1981303" lon="12.1938285"><ele>1.0</ele><time>2026-04-26T09:47:09.896Z</time></trkpt><trkpt lat="45.1981885" lon="12.193688"><ele>0.75</ele><time>2026-04-26T09:47:11.895Z</time></trkpt><trkpt lat="45.1982508" lon="12.1935509"><ele>0.5</ele><time>2026-04-26T09:47:13.897Z</time></trkpt><trkpt lat="45.1983131" lon="12.1934145"><ele>0.25</ele><time>2026-04-26T09:47:15.896Z</time></trkpt><trkpt lat="45.1983734" lon="12.1932779"><ele>0.0</ele><time>2026-04-26T09:47:17.897Z</time></trkpt><trkpt lat="45.1984357" lon="12.1931453"><ele>-0.25</ele><time>2026-04-26T09:47:19.9Z</time></trkpt><trkpt lat="45.1984997" lon="12.1930136"><ele>-0.5</ele><time>2026-04-26T09:47:21.896Z</time></trkpt><trkpt lat="45.1985643" lon="12.1928817"><ele>-0.75</ele><time>2026-04-26T09:47:23.9Z</time></trkpt><trkpt lat="45.1986334" lon="12.1927471"><ele>-1.0</ele><time>2026-04-26T09:47:25.9Z</time></trkpt><trkpt lat="45.1986993" lon="12.1926134"><ele>-1.0</ele><time>2026-04-26T09:47:27.898Z</time></trkpt><trkpt lat="45.1987599" lon="12.1924728"><ele>-1.0</ele><time>2026-04-26T09:47:29.903Z</time></trkpt><trkpt lat="45.1988244" lon="12.192338"><ele>-1.0</ele><time>2026-04-26T09:47:31.895Z</time></trkpt><trkpt lat="45.1988896" lon="12.1922078"><ele>-1.0</ele><time>2026-04-26T09:47:33.898Z</time></trkpt><trkpt lat="45.1989509" lon="12.1920776"><ele>-1.2000000000000002</ele><time>2026-04-26T09:47:35.897Z</time></trkpt><trkpt lat="45.1990134" lon="12.1919527"><ele>-1.4000000000000001</ele><time>2026-04-26T09:47:37.896Z</time></trkpt><trkpt lat="45.1990758" lon="12.1918272"><ele>-1.6</ele><time>2026-04-26T09:47:39.898Z</time></trkpt><trkpt lat="45.1991438" lon="12.191703"><ele>-1.8</ele><time>2026-04-26T09:47:41.901Z</time></trkpt><trkpt lat="45.1992087" lon="12.1915762"><ele>-2.0</ele><time>2026-04-26T09:47:43.903Z</time></trkpt><trkpt lat="45.1992702" lon="12.1914504"><ele>-2.0</ele><time>2026-04-26T09:47:45.899Z</time></trkpt><trkpt lat="45.1993344" lon="12.1913255"><ele>-2.0</ele><time>2026-04-26T09:47:47.9Z</time></trkpt><trkpt lat="45.1993959" lon="12.1911979"><ele>-2.0</ele><time>2026-04-26T09:47:49.899Z</time></trkpt><trkpt lat="45.1994606" lon="12.1910704"><ele>-2.0</ele><time>2026-04-26T09:47:51.896Z</time></trkpt><trkpt lat="45.1995293" lon="12.190942"><ele>-2.0</ele><time>2026-04-26T09:47:53.902Z</time></trkpt><trkpt lat="45.1995971" lon="12.1908147"><ele>-2.0</ele><time>2026-04-26T09:47:55.895Z</time></trkpt><trkpt lat="45.1996656" lon="12.1906909"><ele>-2.0</ele><time>2026-04-26T09:47:57.898Z</time></trkpt><trkpt lat="45.1997378" lon="12.1905682"><ele>-2.0</ele><time>2026-04-26T09:47:59.901Z</time></trkpt><trkpt lat="45.1998119" lon="12.1904466"><ele>-2.0</ele><time>2026-04-26T09:48:01.899Z</time></trkpt><trkpt lat="45.1998819" lon="12.1903238"><ele>-2.0</ele><time>2026-04-26T09:48:03.895Z</time></trkpt><trkpt lat="45.1999474" lon="12.1902036"><ele>-2.0</ele><time>2026-04-26T09:48:05.896Z</time></trkpt><trkpt lat="45.200015" lon="12.1900811"><ele>-2.0</ele><time>2026-04-26T09:48:07.9Z</time></trkpt><trkpt lat="45.2000848" lon="12.1899572"><ele>-2.0</ele><time>2026-04-26T09:48:09.896Z</time></trkpt><trkpt lat="45.2001548" lon="12.1898349"><ele>-2.0</ele><time>2026-04-26T09:48:11.894Z</time></trkpt><trkpt lat="45.2002278" lon="12.1897113"><ele>-2.0</ele><time>2026-04-26T09:48:13.896Z</time></trkpt><trkpt lat="45.2002987" lon="12.189591"><ele>-2.0</ele><time>2026-04-26T09:48:15.892Z</time></trkpt><trkpt lat="45.2003667" lon="12.1894758"><ele>-2.0</ele><time>2026-04-26T09:48:17.894Z</time></trkpt><trkpt lat="45.2004361" lon="12.1893581"><ele>-2.0</ele><time>2026-04-26T09:48:19.895Z</time></trkpt><trkpt lat="45.2005065" lon="12.1892385"><ele>-2.0</ele><time>2026-04-26T09:48:21.902Z</time></trkpt><trkpt lat="45.2005754" lon="12.18912"><ele>-2.0</ele><time>2026-04-26T09:48:23.893Z</time></trkpt><trkpt lat="45.200649" lon="12.1890025"><ele>-1.6</ele><time>2026-04-26T09:48:25.895Z</time></trkpt><trkpt lat="45.2007209" lon="12.1888827"><ele>-1.2000000000000002</ele><time>2026-04-26T09:48:27.892Z</time></trkpt><trkpt lat="45.2007904" lon="12.1887611"><ele>-0.8</ele><time>2026-04-26T09:48:29.894Z</time></trkpt><trkpt lat="45.2008629" lon="12.188644"><ele>-0.4</ele><time>2026-04-26T09:48:31.894Z</time></trkpt><trkpt lat="45.2009399" lon="12.1885309"><ele>0.0</ele><time>2026-04-26T09:48:33.896Z</time></trkpt><trkpt lat="45.2010159" lon="12.1884124"><ele>0.0</ele><time>2026-04-26T09:48:35.896Z</time></trkpt><trkpt lat="45.2010915" lon="12.188294"><ele>0.0</ele><time>2026-04-26T09:48:37.894Z</time></trkpt><trkpt lat="45.2011672" lon="12.1881745"><ele>0.0</ele><time>2026-04-26T09:48:39.896Z</time></trkpt><trkpt lat="45.2012458" lon="12.1880544"><ele>0.0</ele><time>2026-04-26T09:48:41.899Z</time></trkpt><trkpt lat="45.2013223" lon="12.1879349"><ele>-0.25</ele><time>2026-04-26T09:48:43.894Z</time></trkpt><trkpt lat="45.2013998" lon="12.1878173"><ele>-0.5</ele><time>2026-04-26T09:48:45.892Z</time></trkpt><trkpt lat="45.2014766" lon="12.187699"><ele>-0.75</ele><time>2026-04-26T09:48:47.895Z</time></trkpt><trkpt lat="45.2015538" lon="12.1875792"><ele>-1.0</ele><time>2026-04-26T09:48:49.894Z</time></trkpt><trkpt lat="45.2016295" lon="12.1874574"><ele>-1.0</ele><time>2026-04-26T09:48:51.897Z</time></trkpt><trkpt lat="45.2017065" lon="12.1873387"><ele>-1.0</ele><time>2026-04-26T09:48:53.897Z</time></trkpt><trkpt lat="45.2017858" lon="12.1872173"><ele>-1.0</ele><time>2026-04-26T09:48:55.893Z</time></trkpt><trkpt lat="45.2018675" lon="12.1870986"><ele>-1.0</ele><time>2026-04-26T09:48:57.896Z</time></trkpt><trkpt lat="45.201948" lon="12.1869793"><ele>-1.0</ele><time>2026-04-26T09:48:59.899Z</time></trkpt><trkpt lat="45.2020295" lon="12.1868601"><ele>-1.0</ele><time>2026-04-26T09:49:01.9Z</time></trkpt><trkpt lat="45.2021137" lon="12.186742"><ele>-1.0</ele><time>2026-04-26T09:49:03.892Z</time></trkpt><trkpt lat="45.2021976" lon="12.1866229"><ele>-1.0</ele><time>2026-04-26T09:49:05.894Z</time></trkpt><trkpt lat="45.2022861" lon="12.1865102"><ele>-1.0</ele><time>2026-04-26T09:49:07.896Z</time></trkpt><trkpt lat="45.2023686" lon="12.1863981"><ele>-1.0</ele><time>2026-04-26T09:49:09.897Z</time></trkpt><trkpt lat="45.2024511" lon="12.1862852"><ele>-1.0</ele><time>2026-04-26T09:49:11.897Z</time></trkpt><trkpt lat="45.2025312" lon="12.1861685"><ele>-1.0</ele><time>2026-04-26T09:49:13.9Z</time></trkpt><trkpt lat="45.2026109" lon="12.1860535"><ele>-1.0</ele><time>2026-04-26T09:49:15.901Z</time></trkpt><trkpt lat="45.2026962" lon="12.1859368"><ele>-1.0</ele><time>2026-04-26T09:49:17.9Z</time></trkpt><trkpt lat="45.2027813" lon="12.1858254"><ele>-1.0</ele><time>2026-04-26T09:49:19.9Z</time></trkpt><trkpt lat="45.2028621" lon="12.1857091"><ele>-1.0</ele><time>2026-04-26T09:49:21.899Z</time></trkpt><trkpt lat="45.2029476" lon="12.1855934"><ele>-1.0</ele><time>2026-04-26T09:49:23.896Z</time></trkpt><trkpt lat="45.2030294" lon="12.1854794"><ele>-1.0</ele><time>2026-04-26T09:49:25.897Z</time></trkpt><trkpt lat="45.2031117" lon="12.1853673"><ele>-1.0</ele><time>2026-04-26T09:49:27.899Z</time></trkpt><trkpt lat="45.2031936" lon="12.185251"><ele>-1.0</ele><time>2026-04-26T09:49:29.897Z</time></trkpt><trkpt lat="45.203276" lon="12.1851386"><ele>-1.0</ele><time>2026-04-26T09:49:31.897Z</time></trkpt><trkpt lat="45.2033558" lon="12.1850214"><ele>-1.0</ele><time>2026-04-26T09:49:33.894Z</time></trkpt><trkpt lat="45.2034361" lon="12.1849059"><ele>-1.0</ele><time>2026-04-26T09:49:35.897Z</time></trkpt><trkpt lat="45.2035157" lon="12.1847879"><ele>-1.0</ele><time>2026-04-26T09:49:37.897Z</time></trkpt><trkpt lat="45.2035916" lon="12.1846746"><ele>-1.0</ele><time>2026-04-26T09:49:39.902Z</time></trkpt><trkpt lat="45.2036667" lon="12.1845628"><ele>-1.0</ele><time>2026-04-26T09:49:41.901Z</time></trkpt><trkpt lat="45.203739" lon="12.1844637"><ele>-1.0</ele><time>2026-04-26T09:49:43.901Z</time></trkpt><trkpt lat="45.2038076" lon="12.1843618"><ele>-1.0</ele><time>2026-04-26T09:49:45.899Z</time></trkpt><trkpt lat="45.2038775" lon="12.18426"><ele>-1.0</ele><time>2026-04-26T09:49:47.899Z</time></trkpt><trkpt lat="45.2039442" lon="12.1841498"><ele>-0.75</ele><time>2026-04-26T09:49:49.901Z</time></trkpt><trkpt lat="45.2040113" lon="12.184034"><ele>-0.5</ele><time>2026-04-26T09:49:51.899Z</time></trkpt><trkpt lat="45.2040828" lon="12.1839151"><ele>-0.25</ele><time>2026-04-26T09:49:53.909Z</time></trkpt><trkpt lat="45.2041555" lon="12.1837853"><ele>0.0</ele><time>2026-04-26T09:49:55.896Z</time></trkpt><trkpt lat="45.2042318" lon="12.1836508"><ele>0.0</ele><time>2026-04-26T09:49:57.899Z</time></trkpt><trkpt lat="45.2043099" lon="12.1835237"><ele>0.0</ele><time>2026-04-26T09:49:59.905Z</time></trkpt><trkpt lat="45.2043875" lon="12.1834013"><ele>0.0</ele><time>2026-04-26T09:50:01.899Z</time></trkpt><trkpt lat="45.2044638" lon="12.1832818"><ele>0.0</ele><time>2026-04-26T09:50:03.897Z</time></trkpt><trkpt lat="45.2045316" lon="12.1831757"><ele>0.0</ele><time>2026-04-26T09:50:05.899Z</time></trkpt><trkpt lat="45.2045925" lon="12.1830778"><ele>0.0</ele><time>2026-04-26T09:50:07.898Z</time></trkpt><trkpt lat="45.2046603" lon="12.1829773"><ele>0.0</ele><time>2026-04-26T09:50:09.901Z</time></trkpt><trkpt lat="45.2047275" lon="12.1828689"><ele>0.0</ele><time>2026-04-26T09:50:11.9Z</time></trkpt><trkpt lat="45.2047938" lon="12.1827684"><ele>0.0</ele><time>2026-04-26T09:50:13.906Z</time></trkpt><trkpt lat="45.2048574" lon="12.1826767"><ele>0.0</ele><time>2026-04-26T09:50:15.903Z</time></trkpt><trkpt lat="45.2049151" lon="12.1825909"><ele>0.0</ele><time>2026-04-26T09:50:17.904Z</time></trkpt><trkpt lat="45.2049714" lon="12.1825114"><ele>0.0</ele><time>2026-04-26T09:50:19.899Z</time></trkpt><trkpt lat="45.2050304" lon="12.1824203"><ele>0.0</ele><time>2026-04-26T09:50:21.898Z</time></trkpt><trkpt lat="45.205098" lon="12.182323"><ele>0.0</ele><time>2026-04-26T09:50:23.906Z</time></trkpt><trkpt lat="45.2051673" lon="12.1822245"><ele>0.0</ele><time>2026-04-26T09:50:25.897Z</time></trkpt><trkpt lat="45.2052353" lon="12.1821156"><ele>0.0</ele><time>2026-04-26T09:50:27.9Z</time></trkpt><trkpt lat="45.2053057" lon="12.182003"><ele>0.0</ele><time>2026-04-26T09:50:29.894Z</time></trkpt><trkpt lat="45.2053763" lon="12.1818911"><ele>0.0</ele><time>2026-04-26T09:50:31.902Z</time></trkpt><trkpt lat="45.205445" lon="12.1817754"><ele>0.0</ele><time>2026-04-26T09:50:33.9Z</time></trkpt><trkpt lat="45.205513" lon="12.1816628"><ele>0.0</ele><time>2026-04-26T09:50:35.898Z</time></trkpt><trkpt lat="45.2055836" lon="12.1815539"><ele>0.0</ele><time>2026-04-26T09:50:37.902Z</time></trkpt><trkpt lat="45.2056546" lon="12.1814458"><ele>0.0</ele><time>2026-04-26T09:50:39.901Z</time></trkpt><trkpt lat="45.2057244" lon="12.181337"><ele>0.0</ele><time>2026-04-26T09:50:41.904Z</time></trkpt><trkpt lat="45.2057953" lon="12.1812231"><ele>0.0</ele><time>2026-04-26T09:50:43.901Z</time></trkpt><trkpt lat="45.2058665" lon="12.1811119"><ele>0.0</ele><time>2026-04-26T09:50:45.906Z</time></trkpt><trkpt lat="45.2059379" lon="12.1809998"><ele>0.0</ele><time>2026-04-26T09:50:47.902Z</time></trkpt><trkpt lat="45.2060093" lon="12.1808831"><ele>0.0</ele><time>2026-04-26T09:50:49.899Z</time></trkpt><trkpt lat="45.2060806" lon="12.1807695"><ele>0.0</ele><time>2026-04-26T09:50:51.895Z</time></trkpt><trkpt lat="45.2061538" lon="12.1806529"><ele>0.0</ele><time>2026-04-26T09:50:53.903Z</time></trkpt><trkpt lat="45.2062271" lon="12.180542"><ele>0.0</ele><time>2026-04-26T09:50:55.898Z</time></trkpt><trkpt lat="45.2062967" lon="12.1804317"><ele>0.0</ele><time>2026-04-26T09:50:57.903Z</time></trkpt><trkpt lat="45.2063666" lon="12.1803184"><ele>0.0</ele><time>2026-04-26T09:50:59.898Z</time></trkpt><trkpt lat="45.2064434" lon="12.1802037"><ele>0.0</ele><time>2026-04-26T09:51:01.896Z</time></trkpt><trkpt lat="45.2065171" lon="12.1800881"><ele>0.0</ele><time>2026-04-26T09:51:03.901Z</time></trkpt><trkpt lat="45.2065916" lon="12.1799739"><ele>0.0</ele><time>2026-04-26T09:51:05.905Z</time></trkpt><trkpt lat="45.2066678" lon="12.1798602"><ele>0.2</ele><time>2026-04-26T09:51:07.896Z</time></trkpt><trkpt lat="45.2067404" lon="12.1797462"><ele>0.4</ele><time>2026-04-26T09:51:09.899Z</time></trkpt><trkpt lat="45.206812" lon="12.179635"><ele>0.6000000000000001</ele><time>2026-04-26T09:51:11.9Z</time></trkpt><trkpt lat="45.2068869" lon="12.1795194"><ele>0.8</ele><time>2026-04-26T09:51:13.903Z</time></trkpt><trkpt lat="45.206964" lon="12.1794058"><ele>1.0</ele><time>2026-04-26T09:51:15.905Z</time></trkpt><trkpt lat="45.2070374" lon="12.1792927"><ele>1.0</ele><time>2026-04-26T09:51:17.898Z</time></trkpt><trkpt lat="45.2071139" lon="12.1791791"><ele>1.0</ele><time>2026-04-26T09:51:19.901Z</time></trkpt><trkpt lat="45.2071902" lon="12.1790663"><ele>1.0</ele><time>2026-04-26T09:51:21.901Z</time></trkpt><trkpt lat="45.2072646" lon="12.1789563"><ele>1.0</ele><time>2026-04-26T09:51:23.899Z</time></trkpt><trkpt lat="45.2073389" lon="12.1788383"><ele>1.0</ele><time>2026-04-26T09:51:25.902Z</time></trkpt><trkpt lat="45.2074161" lon="12.1787284"><ele>1.0</ele><time>2026-04-26T09:51:27.904Z</time></trkpt><trkpt lat="45.2074968" lon="12.1786204"><ele>1.0</ele><time>2026-04-26T09:51:29.9Z</time></trkpt><trkpt lat="45.2075813" lon="12.1785204"><ele>1.0</ele><time>2026-04-26T09:51:31.901Z</time></trkpt><trkpt lat="45.2076647" lon="12.1784173"><ele>1.0</ele><time>2026-04-26T09:51:33.899Z</time></trkpt><trkpt lat="45.2077456" lon="12.1783122"><ele>1.0</ele><time>2026-04-26T09:51:35.898Z</time></trkpt><trkpt lat="45.2078269" lon="12.1782046"><ele>1.0</ele><time>2026-04-26T09:51:37.902Z</time></trkpt><trkpt lat="45.2079088" lon="12.1780925"><ele>1.0</ele><time>2026-04-26T09:51:39.898Z</time></trkpt><trkpt lat="45.2079894" lon="12.1779812"><ele>1.0</ele><time>2026-04-26T09:51:41.898Z</time></trkpt><trkpt lat="45.2080678" lon="12.1778701"><ele>1.0</ele><time>2026-04-26T09:51:43.897Z</time></trkpt><trkpt lat="45.2081442" lon="12.1777597"><ele>1.0</ele><time>2026-04-26T09:51:45.901Z</time></trkpt><trkpt lat="45.2082225" lon="12.1776484"><ele>0.8</ele><time>2026-04-26T09:51:47.902Z</time></trkpt><trkpt lat="45.2083002" lon="12.1775361"><ele>0.6000000000000001</ele><time>2026-04-26T09:51:49.902Z</time></trkpt><trkpt lat="45.2083763" lon="12.177422"><ele>0.4</ele><time>2026-04-26T09:51:51.902Z</time></trkpt><trkpt lat="45.2084531" lon="12.1773058"><ele>0.2</ele><time>2026-04-26T09:51:53.9Z</time></trkpt><trkpt lat="45.2085326" lon="12.1771935"><ele>0.0</ele><time>2026-04-26T09:51:55.902Z</time></trkpt><trkpt lat="45.2086123" lon="12.1770788"><ele>0.0</ele><time>2026-04-26T09:51:57.902Z</time></trkpt><trkpt lat="45.2086903" lon="12.1769684"><ele>0.0</ele><time>2026-04-26T09:51:59.899Z</time></trkpt><trkpt lat="45.2087672" lon="12.1768559"><ele>0.0</ele><time>2026-04-26T09:52:01.894Z</time></trkpt><trkpt lat="45.2088457" lon="12.1767488"><ele>0.0</ele><time>2026-04-26T09:52:03.9Z</time></trkpt><trkpt lat="45.2089263" lon="12.1766387"><ele>0.0</ele><time>2026-04-26T09:52:05.899Z</time></trkpt><trkpt lat="45.2090008" lon="12.1765283"><ele>0.0</ele><time>2026-04-26T09:52:07.899Z</time></trkpt><trkpt lat="45.2090784" lon="12.1764175"><ele>0.0</ele><time>2026-04-26T09:52:09.895Z</time></trkpt><trkpt lat="45.2091586" lon="12.1763086"><ele>0.0</ele><time>2026-04-26T09:52:11.896Z</time></trkpt><trkpt lat="45.209236" lon="12.1762022"><ele>0.0</ele><time>2026-04-26T09:52:13.902Z</time></trkpt><trkpt lat="45.2093163" lon="12.1760932"><ele>0.0</ele><time>2026-04-26T09:52:15.901Z</time></trkpt><trkpt lat="45.2093937" lon="12.1759812"><ele>0.0</ele><time>2026-04-26T09:52:17.899Z</time></trkpt><trkpt lat="45.2094711" lon="12.1758711"><ele>0.0</ele><time>2026-04-26T09:52:19.901Z</time></trkpt><trkpt lat="45.2095471" lon="12.1757614"><ele>0.0</ele><time>2026-04-26T09:52:21.9Z</time></trkpt><trkpt lat="45.2096279" lon="12.17565"><ele>0.0</ele><time>2026-04-26T09:52:23.899Z</time></trkpt><trkpt lat="45.2097066" lon="12.1755407"><ele>0.0</ele><time>2026-04-26T09:52:25.901Z</time></trkpt><trkpt lat="45.2097859" lon="12.1754308"><ele>0.0</ele><time>2026-04-26T09:52:27.904Z</time></trkpt><trkpt lat="45.2098649" lon="12.175317"><ele>0.0</ele><time>2026-04-26T09:52:29.904Z</time></trkpt><trkpt lat="45.2099409" lon="12.1752053"><ele>0.0</ele><time>2026-04-26T09:52:31.901Z</time></trkpt><trkpt lat="45.2100156" lon="12.175089"><ele>0.0</ele><time>2026-04-26T09:52:33.9Z</time></trkpt><trkpt lat="45.210089" lon="12.1749708"><ele>0.0</ele><time>2026-04-26T09:52:35.901Z</time></trkpt><trkpt lat="45.2101693" lon="12.1748512"><ele>0.0</ele><time>2026-04-26T09:52:37.904Z</time></trkpt><trkpt lat="45.210244" lon="12.1747335"><ele>0.0</ele><time>2026-04-26T09:52:39.899Z</time></trkpt><trkpt lat="45.2103132" lon="12.1746236"><ele>0.0</ele><time>2026-04-26T09:52:41.904Z</time></trkpt><trkpt lat="45.2103848" lon="12.1745126"><ele>0.0</ele><time>2026-04-26T09:52:43.899Z</time></trkpt><trkpt lat="45.2104587" lon="12.1744013"><ele>0.0</ele><time>2026-04-26T09:52:45.901Z</time></trkpt><trkpt lat="45.2105357" lon="12.1742901"><ele>0.0</ele><time>2026-04-26T09:52:47.902Z</time></trkpt><trkpt lat="45.2106139" lon="12.1741813"><ele>0.0</ele><time>2026-04-26T09:52:49.901Z</time></trkpt><trkpt lat="45.210691" lon="12.174074"><ele>0.0</ele><time>2026-04-26T09:52:51.897Z</time></trkpt><trkpt lat="45.2107625" lon="12.1739693"><ele>0.0</ele><time>2026-04-26T09:52:53.897Z</time></trkpt><trkpt lat="45.2108356" lon="12.1738643"><ele>0.0</ele><time>2026-04-26T09:52:55.902Z</time></trkpt><trkpt lat="45.2109085" lon="12.1737673"><ele>-0.2</ele><time>2026-04-26T09:52:57.901Z</time></trkpt><trkpt lat="45.2109831" lon="12.1736723"><ele>-0.4</ele><time>2026-04-26T09:52:59.903Z</time></trkpt><trkpt lat="45.2110522" lon="12.1735765"><ele>-0.6000000000000001</ele><time>2026-04-26T09:53:01.895Z</time></trkpt><trkpt lat="45.2111206" lon="12.1734811"><ele>-0.8</ele><time>2026-04-26T09:53:03.893Z</time></trkpt><trkpt lat="45.2111782" lon="12.1733883"><ele>-1.0</ele><time>2026-04-26T09:53:05.895Z</time></trkpt><trkpt lat="45.2112363" lon="12.1732947"><ele>-1.0</ele><time>2026-04-26T09:53:07.899Z</time></trkpt><trkpt lat="45.211308" lon="12.1732092"><ele>-1.0</ele><time>2026-04-26T09:53:09.9Z</time></trkpt><trkpt lat="45.2113874" lon="12.1731127"><ele>-1.0</ele><time>2026-04-26T09:53:11.901Z</time></trkpt><trkpt lat="45.2114649" lon="12.1730168"><ele>-1.0</ele><time>2026-04-26T09:53:13.897Z</time></trkpt><trkpt lat="45.2115395" lon="12.1729159"><ele>-1.0</ele><time>2026-04-26T09:53:15.906Z</time></trkpt><trkpt lat="45.2116191" lon="12.1728162"><ele>-0.8</ele><time>2026-04-26T09:53:17.896Z</time></trkpt><trkpt lat="45.2116954" lon="12.1727162"><ele>-0.6000000000000001</ele><time>2026-04-26T09:53:19.897Z</time></trkpt><trkpt lat="45.2117704" lon="12.1726159"><ele>-0.4</ele><time>2026-04-26T09:53:21.901Z</time></trkpt><trkpt lat="45.2118482" lon="12.1725142"><ele>-0.2</ele><time>2026-04-26T09:53:23.899Z</time></trkpt><trkpt lat="45.2119228" lon="12.1724132"><ele>0.0</ele><time>2026-04-26T09:53:25.901Z</time></trkpt><trkpt lat="45.2119965" lon="12.1723175"><ele>0.0</ele><time>2026-04-26T09:53:27.901Z</time></trkpt><trkpt lat="45.2120634" lon="12.1722263"><ele>0.0</ele><time>2026-04-26T09:53:29.902Z</time></trkpt><trkpt lat="45.2121239" lon="12.1721393"><ele>0.0</ele><time>2026-04-26T09:53:31.895Z</time></trkpt><trkpt lat="45.212187" lon="12.1720488"><ele>0.0</ele><time>2026-04-26T09:53:33.902Z</time></trkpt><trkpt lat="45.21225" lon="12.1719501"><ele>0.0</ele><time>2026-04-26T09:53:35.894Z</time></trkpt><trkpt lat="45.2123191" lon="12.1718451"><ele>0.0</ele><time>2026-04-26T09:53:37.898Z</time></trkpt><trkpt lat="45.2123912" lon="12.1717344"><ele>0.0</ele><time>2026-04-26T09:53:39.894Z</time></trkpt><trkpt lat="45.2124638" lon="12.1716298"><ele>0.0</ele><time>2026-04-26T09:53:41.897Z</time></trkpt><trkpt lat="45.2125385" lon="12.1715211"><ele>0.0</ele><time>2026-04-26T09:53:43.9Z</time></trkpt><trkpt lat="45.2126106" lon="12.1714126"><ele>0.0</ele><time>2026-04-26T09:53:45.904Z</time></trkpt><trkpt lat="45.2126816" lon="12.1713055"><ele>0.0</ele><time>2026-04-26T09:53:47.895Z</time></trkpt><trkpt lat="45.2127549" lon="12.1712026"><ele>0.0</ele><time>2026-04-26T09:53:49.902Z</time></trkpt><trkpt lat="45.2128243" lon="12.1710976"><ele>0.0</ele><time>2026-04-26T09:53:51.901Z</time></trkpt><trkpt lat="45.2128948" lon="12.1709946"><ele>0.0</ele><time>2026-04-26T09:53:53.902Z</time></trkpt><trkpt lat="45.2129691" lon="12.1708863"><ele>0.0</ele><time>2026-04-26T09:53:55.901Z</time></trkpt><trkpt lat="45.2130433" lon="12.1707739"><ele>0.0</ele><time>2026-04-26T09:53:57.904Z</time></trkpt><trkpt lat="45.2131154" lon="12.170665"><ele>0.0</ele><time>2026-04-26T09:53:59.906Z</time></trkpt><trkpt lat="45.2131885" lon="12.1705567"><ele>0.0</ele><time>2026-04-26T09:54:01.899Z</time></trkpt><trkpt lat="45.2132601" lon="12.1704475"><ele>0.0</ele><time>2026-04-26T09:54:03.9Z</time></trkpt><trkpt lat="45.2133344" lon="12.1703322"><ele>0.0</ele><time>2026-04-26T09:54:05.894Z</time></trkpt><trkpt lat="45.2134117" lon="12.1702146"><ele>0.2</ele><time>2026-04-26T09:54:07.897Z</time></trkpt><trkpt lat="45.2134894" lon="12.1700964"><ele>0.4</ele><time>2026-04-26T09:54:09.894Z</time></trkpt><trkpt lat="45.2135626" lon="12.1699779"><ele>0.6000000000000001</ele><time>2026-04-26T09:54:11.899Z</time></trkpt><trkpt lat="45.2136352" lon="12.1698617"><ele>0.8</ele><time>2026-04-26T09:54:13.899Z</time></trkpt><trkpt lat="45.2137125" lon="12.1697544"><ele>1.0</ele><time>2026-04-26T09:54:15.901Z</time></trkpt><trkpt lat="45.2137897" lon="12.1696467"><ele>1.2000000000000002</ele><time>2026-04-26T09:54:17.902Z</time></trkpt><trkpt lat="45.213865" lon="12.1695296"><ele>1.4000000000000001</ele><time>2026-04-26T09:54:19.904Z</time></trkpt><trkpt lat="45.2139416" lon="12.1694159"><ele>1.6</ele><time>2026-04-26T09:54:21.902Z</time></trkpt><trkpt lat="45.2140191" lon="12.1693028"><ele>1.8</ele><time>2026-04-26T09:54:23.9Z</time></trkpt><trkpt lat="45.2140945" lon="12.1691866"><ele>2.0</ele><time>2026-04-26T09:54:25.901Z</time></trkpt><trkpt lat="45.214169" lon="12.1690709"><ele>1.6</ele><time>2026-04-26T09:54:27.894Z</time></trkpt><trkpt lat="45.2142422" lon="12.1689569"><ele>1.2000000000000002</ele><time>2026-04-26T09:54:29.898Z</time></trkpt><trkpt lat="45.2143104" lon="12.1688481"><ele>0.8</ele><time>2026-04-26T09:54:31.903Z</time></trkpt><trkpt lat="45.2143829" lon="12.1687388"><ele>0.4</ele><time>2026-04-26T09:54:33.902Z</time></trkpt><trkpt lat="45.2144602" lon="12.1686337"><ele>0.0</ele><time>2026-04-26T09:54:35.9Z</time></trkpt><trkpt lat="45.2145326" lon="12.1685175"><ele>0.0</ele><time>2026-04-26T09:54:37.896Z</time></trkpt><trkpt lat="45.214606" lon="12.1683876"><ele>0.0</ele><time>2026-04-26T09:54:39.896Z</time></trkpt><trkpt lat="45.2146777" lon="12.1682693"><ele>0.0</ele><time>2026-04-26T09:54:41.894Z</time></trkpt><trkpt lat="45.2147524" lon="12.1681598"><ele>0.0</ele><time>2026-04-26T09:54:43.898Z</time></trkpt><trkpt lat="45.2148248" lon="12.1680463"><ele>0.0</ele><time>2026-04-26T09:54:45.902Z</time></trkpt><trkpt lat="45.2148982" lon="12.167935"><ele>0.0</ele><time>2026-04-26T09:54:47.894Z</time></trkpt><trkpt lat="45.214972" lon="12.1678261"><ele>0.0</ele><time>2026-04-26T09:54:49.904Z</time></trkpt><trkpt lat="45.2150451" lon="12.1677102"><ele>0.0</ele><time>2026-04-26T09:54:51.901Z</time></trkpt><trkpt lat="45.2151243" lon="12.1675961"><ele>0.0</ele><time>2026-04-26T09:54:53.906Z</time></trkpt><trkpt lat="45.2151993" lon="12.1674818"><ele>0.0</ele><time>2026-04-26T09:54:55.903Z</time></trkpt><trkpt lat="45.2152758" lon="12.1673653"><ele>0.0</ele><time>2026-04-26T09:54:57.901Z</time></trkpt><trkpt lat="45.2153559" lon="12.1672511"><ele>0.0</ele><time>2026-04-26T09:54:59.899Z</time></trkpt><trkpt lat="45.2154379" lon="12.1671449"><ele>0.0</ele><time>2026-04-26T09:55:01.896Z</time></trkpt><trkpt lat="45.2155214" lon="12.1670415"><ele>0.0</ele><time>2026-04-26T09:55:03.893Z</time></trkpt><trkpt lat="45.215604" lon="12.1669283"><ele>0.0</ele><time>2026-04-26T09:55:05.897Z</time></trkpt><trkpt lat="45.2156842" lon="12.1668052"><ele>0.0</ele><time>2026-04-26T09:55:07.9Z</time></trkpt><trkpt lat="45.2157617" lon="12.1666831"><ele>0.0</ele><time>2026-04-26T09:55:09.901Z</time></trkpt><trkpt lat="45.2158422" lon="12.1665605"><ele>0.0</ele><time>2026-04-26T09:55:11.901Z</time></trkpt><trkpt lat="45.2159243" lon="12.1664397"><ele>0.0</ele><time>2026-04-26T09:55:13.904Z</time></trkpt><trkpt lat="45.2160019" lon="12.1663188"><ele>0.0</ele><time>2026-04-26T09:55:15.903Z</time></trkpt><trkpt lat="45.2160813" lon="12.1661959"><ele>0.0</ele><time>2026-04-26T09:55:17.9Z</time></trkpt><trkpt lat="45.21616" lon="12.1660776"><ele>0.0</ele><time>2026-04-26T09:55:19.902Z</time></trkpt><trkpt lat="45.2162422" lon="12.165964"><ele>0.0</ele><time>2026-04-26T09:55:21.902Z</time></trkpt><trkpt lat="45.2163241" lon="12.1658565"><ele>0.0</ele><time>2026-04-26T09:55:23.902Z</time></trkpt><trkpt lat="45.2164109" lon="12.1657522"><ele>0.0</ele><time>2026-04-26T09:55:25.907Z</time></trkpt><trkpt lat="45.2165022" lon="12.1656457"><ele>0.0</ele><time>2026-04-26T09:55:27.901Z</time></trkpt><trkpt lat="45.2165971" lon="12.1655393"><ele>0.0</ele><time>2026-04-26T09:55:29.898Z</time></trkpt><trkpt lat="45.2166881" lon="12.1654376"><ele>0.0</ele><time>2026-04-26T09:55:31.905Z</time></trkpt><trkpt lat="45.2167753" lon="12.165339"><ele>0.0</ele><time>2026-04-26T09:55:33.893Z</time></trkpt><trkpt lat="45.2168593" lon="12.1652493"><ele>0.0</ele><time>2026-04-26T09:55:35.902Z</time></trkpt><trkpt lat="45.2169453" lon="12.1651592"><ele>0.0</ele><time>2026-04-26T09:55:37.902Z</time></trkpt><trkpt lat="45.2170337" lon="12.1650624"><ele>0.0</ele><time>2026-04-26T09:55:39.898Z</time></trkpt><trkpt lat="45.2171199" lon="12.1649623"><ele>0.0</ele><time>2026-04-26T09:55:41.899Z</time></trkpt><trkpt lat="45.2172092" lon="12.1648711"><ele>0.0</ele><time>2026-04-26T09:55:43.906Z</time></trkpt><trkpt lat="45.2173021" lon="12.1647918"><ele>0.0</ele><time>2026-04-26T09:55:45.904Z</time></trkpt><trkpt lat="45.2173952" lon="12.1647126"><ele>0.0</ele><time>2026-04-26T09:55:47.901Z</time></trkpt><trkpt lat="45.2174988" lon="12.1646312"><ele>0.25</ele><time>2026-04-26T09:55:49.899Z</time></trkpt><trkpt lat="45.2176012" lon="12.1645466"><ele>0.5</ele><time>2026-04-26T09:55:51.901Z</time></trkpt><trkpt lat="45.2177017" lon="12.1644697"><ele>0.75</ele><time>2026-04-26T09:55:53.901Z</time></trkpt><trkpt lat="45.2178018" lon="12.1643883"><ele>1.0</ele><time>2026-04-26T09:55:55.9Z</time></trkpt><trkpt lat="45.2178972" lon="12.1643028"><ele>1.0</ele><time>2026-04-26T09:55:57.901Z</time></trkpt><trkpt lat="45.2179897" lon="12.1642194"><ele>1.0</ele><time>2026-04-26T09:55:59.902Z</time></trkpt><trkpt lat="45.2180847" lon="12.1641431"><ele>1.0</ele><time>2026-04-26T09:56:01.899Z</time></trkpt><trkpt lat="45.2181779" lon="12.1640611"><ele>1.0</ele><time>2026-04-26T09:56:03.9Z</time></trkpt><trkpt lat="45.2182718" lon="12.1639816"><ele>1.0</ele><time>2026-04-26T09:56:05.896Z</time></trkpt><trkpt lat="45.21837" lon="12.1639002"><ele>1.0</ele><time>2026-04-26T09:56:07.901Z</time></trkpt><trkpt lat="45.2184649" lon="12.1638147"><ele>1.0</ele><time>2026-04-26T09:56:09.9Z</time></trkpt><trkpt lat="45.2185597" lon="12.1637351"><ele>1.0</ele><time>2026-04-26T09:56:11.895Z</time></trkpt><trkpt lat="45.2186541" lon="12.1636574"><ele>1.0</ele><time>2026-04-26T09:56:13.905Z</time></trkpt><trkpt lat="45.2187475" lon="12.1635812"><ele>1.0</ele><time>2026-04-26T09:56:15.898Z</time></trkpt><trkpt lat="45.2188414" lon="12.1634931"><ele>1.0</ele><time>2026-04-26T09:56:17.902Z</time></trkpt><trkpt lat="45.2189356" lon="12.1634167"><ele>1.0</ele><time>2026-04-26T09:56:19.9Z</time></trkpt><trkpt lat="45.2190284" lon="12.163344"><ele>1.0</ele><time>2026-04-26T09:56:21.895Z</time></trkpt><trkpt lat="45.2191214" lon="12.1632703"><ele>1.0</ele><time>2026-04-26T09:56:23.903Z</time></trkpt><trkpt lat="45.2192133" lon="12.1631906"><ele>1.0</ele><time>2026-04-26T09:56:25.903Z</time></trkpt><trkpt lat="45.2193012" lon="12.1631139"><ele>1.0</ele><time>2026-04-26T09:56:27.897Z</time></trkpt><trkpt lat="45.2193844" lon="12.1630422"><ele>1.0</ele><time>2026-04-26T09:56:29.906Z</time></trkpt><trkpt lat="45.2194644" lon="12.1629824"><ele>1.0</ele><time>2026-04-26T09:56:31.897Z</time></trkpt><trkpt lat="45.2195442" lon="12.1629199"><ele>1.0</ele><time>2026-04-26T09:56:33.901Z</time></trkpt><trkpt lat="45.2196282" lon="12.1628515"><ele>1.0</ele><time>2026-04-26T09:56:35.893Z</time></trkpt><trkpt lat="45.2197121" lon="12.1627779"><ele>1.0</ele><time>2026-04-26T09:56:37.894Z</time></trkpt><trkpt lat="45.2197955" lon="12.1627"><ele>1.0</ele><time>2026-04-26T09:56:39.9Z</time></trkpt><trkpt lat="45.219882" lon="12.1626266"><ele>1.0</ele><time>2026-04-26T09:56:41.902Z</time></trkpt><trkpt lat="45.2199731" lon="12.1625527"><ele>1.0</ele><time>2026-04-26T09:56:43.906Z</time></trkpt><trkpt lat="45.2200617" lon="12.1624785"><ele>1.0</ele><time>2026-04-26T09:56:45.897Z</time></trkpt><trkpt lat="45.2201519" lon="12.1624026"><ele>1.0</ele><time>2026-04-26T09:56:47.898Z</time></trkpt><trkpt lat="45.2202452" lon="12.1623327"><ele>1.0</ele><time>2026-04-26T09:56:49.899Z</time></trkpt><trkpt lat="45.2203414" lon="12.162261"><ele>1.0</ele><time>2026-04-26T09:56:51.898Z</time></trkpt><trkpt lat="45.2204376" lon="12.1621886"><ele>1.0</ele><time>2026-04-26T09:56:53.896Z</time></trkpt><trkpt lat="45.2205318" lon="12.1621242"><ele>1.0</ele><time>2026-04-26T09:56:55.899Z</time></trkpt><trkpt lat="45.220631" lon="12.1620703"><ele>1.2000000000000002</ele><time>2026-04-26T09:56:57.901Z</time></trkpt><trkpt lat="45.2207298" lon="12.1620195"><ele>1.4000000000000001</ele><time>2026-04-26T09:56:59.9Z</time></trkpt><trkpt lat="45.2208258" lon="12.1619657"><ele>1.6</ele><time>2026-04-26T09:57:01.898Z</time></trkpt><trkpt lat="45.2209186" lon="12.161908"><ele>1.8</ele><time>2026-04-26T09:57:03.899Z</time></trkpt><trkpt lat="45.2210119" lon="12.1618419"><ele>2.0</ele><time>2026-04-26T09:57:05.905Z</time></trkpt><trkpt lat="45.2211023" lon="12.1617607"><ele>2.0</ele><time>2026-04-26T09:57:07.895Z</time></trkpt><trkpt lat="45.2211863" lon="12.1616652"><ele>2.0</ele><time>2026-04-26T09:57:09.901Z</time></trkpt><trkpt lat="45.2212708" lon="12.1615619"><ele>2.0</ele><time>2026-04-26T09:57:11.896Z</time></trkpt><trkpt lat="45.2213531" lon="12.1614633"><ele>2.0</ele><time>2026-04-26T09:57:13.906Z</time></trkpt><trkpt lat="45.2214457" lon="12.1613756"><ele>2.0</ele><time>2026-04-26T09:57:15.906Z</time></trkpt><trkpt lat="45.2215406" lon="12.1613105"><ele>1.6</ele><time>2026-04-26T09:57:17.905Z</time></trkpt><trkpt lat="45.2216362" lon="12.1612523"><ele>1.2000000000000002</ele><time>2026-04-26T09:57:19.905Z</time></trkpt><trkpt lat="45.2217353" lon="12.1611947"><ele>0.8</ele><time>2026-04-26T09:57:21.899Z</time></trkpt><trkpt lat="45.2218368" lon="12.1611338"><ele>0.4</ele><time>2026-04-26T09:57:23.906Z</time></trkpt><trkpt lat="45.2219337" lon="12.161072"><ele>0.0</ele><time>2026-04-26T09:57:25.904Z</time></trkpt><trkpt lat="45.2220298" lon="12.1610096"><ele>0.0</ele><time>2026-04-26T09:57:27.901Z</time></trkpt><trkpt lat="45.2221239" lon="12.1609506"><ele>0.0</ele><time>2026-04-26T09:57:29.907Z</time></trkpt><trkpt lat="45.2222158" lon="12.1608795"><ele>0.0</ele><time>2026-04-26T09:57:31.9Z</time></trkpt><trkpt lat="45.222296" lon="12.1607825"><ele>0.0</ele><time>2026-04-26T09:57:33.898Z</time></trkpt><trkpt lat="45.2223706" lon="12.16067"><ele>0.0</ele><time>2026-04-26T09:57:35.902Z</time></trkpt><trkpt lat="45.2224384" lon="12.1605487"><ele>0.0</ele><time>2026-04-26T09:57:37.901Z</time></trkpt><trkpt lat="45.2225071" lon="12.1604301"><ele>0.0</ele><time>2026-04-26T09:57:39.898Z</time></trkpt><trkpt lat="45.2225875" lon="12.1603303"><ele>0.0</ele><time>2026-04-26T09:57:41.905Z</time></trkpt><trkpt lat="45.2226717" lon="12.1602415"><ele>0.0</ele><time>2026-04-26T09:57:43.902Z</time></trkpt><trkpt lat="45.2227528" lon="12.1601618"><ele>0.0</ele><time>2026-04-26T09:57:45.905Z</time></trkpt><trkpt lat="45.2228324" lon="12.160081"><ele>0.0</ele><time>2026-04-26T09:57:47.907Z</time></trkpt><trkpt lat="45.2229013" lon="12.1600021"><ele>0.0</ele><time>2026-04-26T09:57:49.902Z</time></trkpt><trkpt lat="45.2229651" lon="12.1599264"><ele>0.0</ele><time>2026-04-26T09:57:51.905Z</time></trkpt><trkpt lat="45.2230332" lon="12.1598462"><ele>0.0</ele><time>2026-04-26T09:57:53.906Z</time></trkpt><trkpt lat="45.2231029" lon="12.1597643"><ele>0.0</ele><time>2026-04-26T09:57:55.905Z</time></trkpt><trkpt lat="45.2231818" lon="12.1596803"><ele>0.0</ele><time>2026-04-26T09:57:57.906Z</time></trkpt><trkpt lat="45.2232636" lon="12.1595926"><ele>0.2</ele><time>2026-04-26T09:57:59.903Z</time></trkpt><trkpt lat="45.2233444" lon="12.1595005"><ele>0.4</ele><time>2026-04-26T09:58:01.899Z</time></trkpt><trkpt lat="45.2234316" lon="12.1594133"><ele>0.6000000000000001</ele><time>2026-04-26T09:58:03.903Z</time></trkpt><trkpt lat="45.223522" lon="12.1593274"><ele>0.8</ele><time>2026-04-26T09:58:05.902Z</time></trkpt><trkpt lat="45.2236089" lon="12.1592421"><ele>1.0</ele><time>2026-04-26T09:58:07.902Z</time></trkpt><trkpt lat="45.2236946" lon="12.1591546"><ele>1.0</ele><time>2026-04-26T09:58:09.901Z</time></trkpt><trkpt lat="45.2237782" lon="12.159069"><ele>1.0</ele><time>2026-04-26T09:58:11.899Z</time></trkpt><trkpt lat="45.2238598" lon="12.1589803"><ele>1.0</ele><time>2026-04-26T09:58:13.907Z</time></trkpt><trkpt lat="45.223942" lon="12.1588956"><ele>1.0</ele><time>2026-04-26T09:58:15.903Z</time></trkpt><trkpt lat="45.2240215" lon="12.1588038"><ele>1.0</ele><time>2026-04-26T09:58:17.903Z</time></trkpt><trkpt lat="45.2240977" lon="12.1587103"><ele>0.6000000000000001</ele><time>2026-04-26T09:58:19.903Z</time></trkpt><trkpt lat="45.2241741" lon="12.1586249"><ele>0.20000000000000007</ele><time>2026-04-26T09:58:21.905Z</time></trkpt><trkpt lat="45.224255" lon="12.1585467"><ele>-0.20000000000000007</ele><time>2026-04-26T09:58:23.904Z</time></trkpt><trkpt lat="45.2243437" lon="12.158464"><ele>-0.6000000000000001</ele><time>2026-04-26T09:58:25.898Z</time></trkpt><trkpt lat="45.2244295" lon="12.1583748"><ele>-1.0</ele><time>2026-04-26T09:58:27.903Z</time></trkpt><trkpt lat="45.2245149" lon="12.158286"><ele>-0.8</ele><time>2026-04-26T09:58:29.904Z</time></trkpt><trkpt lat="45.2246023" lon="12.1581935"><ele>-0.6000000000000001</ele><time>2026-04-26T09:58:31.901Z</time></trkpt><trkpt lat="45.2246897" lon="12.1581072"><ele>-0.4</ele><time>2026-04-26T09:58:33.899Z</time></trkpt><trkpt lat="45.2247777" lon="12.1580236"><ele>-0.2</ele><time>2026-04-26T09:58:35.903Z</time></trkpt><trkpt lat="45.2248654" lon="12.157938"><ele>0.0</ele><time>2026-04-26T09:58:37.897Z</time></trkpt><trkpt lat="45.224952" lon="12.1578523"><ele>0.0</ele><time>2026-04-26T09:58:39.906Z</time></trkpt><trkpt lat="45.2250379" lon="12.1577614"><ele>0.0</ele><time>2026-04-26T09:58:41.898Z</time></trkpt><trkpt lat="45.2251232" lon="12.1576673"><ele>0.0</ele><time>2026-04-26T09:58:43.899Z</time></trkpt><trkpt lat="45.225209" lon="12.1575742"><ele>0.0</ele><time>2026-04-26T09:58:45.9Z</time></trkpt><trkpt lat="45.2252965" lon="12.1574864"><ele>0.0</ele><time>2026-04-26T09:58:47.902Z</time></trkpt><trkpt lat="45.2253885" lon="12.1573956"><ele>0.0</ele><time>2026-04-26T09:58:49.899Z</time></trkpt><trkpt lat="45.2254806" lon="12.1573047"><ele>0.0</ele><time>2026-04-26T09:58:51.904Z</time></trkpt><trkpt lat="45.2255648" lon="12.1572158"><ele>0.0</ele><time>2026-04-26T09:58:53.9Z</time></trkpt><trkpt lat="45.225661" lon="12.1571297"><ele>0.0</ele><time>2026-04-26T09:58:55.907Z</time></trkpt><trkpt lat="45.2257591" lon="12.1570479"><ele>0.0</ele><time>2026-04-26T09:58:57.904Z</time></trkpt><trkpt lat="45.2258586" lon="12.1569722"><ele>0.2</ele><time>2026-04-26T09:58:59.904Z</time></trkpt><trkpt lat="45.2259564" lon="12.1569009"><ele>0.4</ele><time>2026-04-26T09:59:01.9Z</time></trkpt><trkpt lat="45.226055" lon="12.1568381"><ele>0.6000000000000001</ele><time>2026-04-26T09:59:03.898Z</time></trkpt><trkpt lat="45.2261527" lon="12.156781"><ele>0.8</ele><time>2026-04-26T09:59:05.901Z</time></trkpt><trkpt lat="45.2262277" lon="12.1566942"><ele>1.0</ele><time>2026-04-26T09:59:07.904Z</time></trkpt><trkpt lat="45.226256" lon="12.1565537"><ele>0.8</ele><time>2026-04-26T09:59:09.903Z</time></trkpt><trkpt lat="45.2262517" lon="12.156393"><ele>0.6000000000000001</ele><time>2026-04-26T09:59:11.901Z</time></trkpt><trkpt lat="45.2262412" lon="12.1562361"><ele>0.4</ele><time>2026-04-26T09:59:13.899Z</time></trkpt><trkpt lat="45.2262351" lon="12.1560823"><ele>0.2</ele><time>2026-04-26T09:59:15.895Z</time></trkpt><trkpt lat="45.2262325" lon="12.1559357"><ele>0.0</ele><time>2026-04-26T09:59:17.905Z</time></trkpt><trkpt lat="45.2262366" lon="12.1558038"><ele>0.2</ele><time>2026-04-26T09:59:19.899Z</time></trkpt><trkpt lat="45.2262588" lon="12.1556906"><ele>0.4</ele><time>2026-04-26T09:59:21.906Z</time></trkpt><trkpt lat="45.226301" lon="12.1555881"><ele>0.6000000000000001</ele><time>2026-04-26T09:59:23.903Z</time></trkpt><trkpt lat="45.2263584" lon="12.1554937"><ele>0.8</ele><time>2026-04-26T09:59:25.893Z</time></trkpt><trkpt lat="45.2264293" lon="12.1553942"><ele>1.0</ele><time>2026-04-26T09:59:27.901Z</time></trkpt><trkpt lat="45.2265029" lon="12.1552849"><ele>1.0</ele><time>2026-04-26T09:59:29.897Z</time></trkpt><trkpt lat="45.2265723" lon="12.1551644"><ele>1.0</ele><time>2026-04-26T09:59:31.904Z</time></trkpt><trkpt lat="45.226641" lon="12.1550388"><ele>1.0</ele><time>2026-04-26T09:59:33.901Z</time></trkpt><trkpt lat="45.2267114" lon="12.1549074"><ele>1.0</ele><time>2026-04-26T09:59:35.904Z</time></trkpt><trkpt lat="45.2267785" lon="12.154779"><ele>0.75</ele><time>2026-04-26T09:59:37.909Z</time></trkpt><trkpt lat="45.2268485" lon="12.1546434"><ele>0.5</ele><time>2026-04-26T09:59:39.903Z</time></trkpt><trkpt lat="45.2269176" lon="12.154504"><ele>0.25</ele><time>2026-04-26T09:59:41.902Z</time></trkpt><trkpt lat="45.2269855" lon="12.1543654"><ele>0.0</ele><time>2026-04-26T09:59:43.904Z</time></trkpt><trkpt lat="45.2270518" lon="12.1542306"><ele>0.0</ele><time>2026-04-26T09:59:45.904Z</time></trkpt><trkpt lat="45.2271173" lon="12.1540925"><ele>0.0</ele><time>2026-04-26T09:59:47.9Z</time></trkpt><trkpt lat="45.2271817" lon="12.1539556"><ele>0.0</ele><time>2026-04-26T09:59:49.897Z</time></trkpt><trkpt lat="45.2272463" lon="12.1538211"><ele>0.0</ele><time>2026-04-26T09:59:51.897Z</time></trkpt><trkpt lat="45.2273104" lon="12.1536812"><ele>-0.25</ele><time>2026-04-26T09:59:53.905Z</time></trkpt><trkpt lat="45.2273785" lon="12.1535363"><ele>-0.5</ele><time>2026-04-26T09:59:55.9Z</time></trkpt><trkpt lat="45.2274454" lon="12.1533909"><ele>-0.75</ele><time>2026-04-26T09:59:57.9Z</time></trkpt><trkpt lat="45.227511" lon="12.1532452"><ele>-1.0</ele><time>2026-04-26T09:59:59.897Z</time></trkpt><trkpt lat="45.2275813" lon="12.1530943"><ele>-1.0</ele><time>2026-04-26T10:00:01.891Z</time></trkpt><trkpt lat="45.227615" lon="12.1530165"><ele>-0.9999999999999999</ele><time>2026-04-26T10:00:02.896Z</time></trkpt><trkpt lat="45.2276509" lon="12.1529412"><ele>-1.0</ele><time>2026-04-26T10:00:03.896Z</time></trkpt><trkpt lat="45.2276865" lon="12.1528669"><ele>-1.0</ele><time>2026-04-26T10:00:04.893Z</time></trkpt><trkpt lat="45.2277625" lon="12.1527249"><ele>-0.9999999999999999</ele><time>2026-04-26T10:00:06.901Z</time></trkpt><trkpt lat="45.2278059" lon="12.1526589"><ele>-1.0</ele><time>2026-04-26T10:00:07.899Z</time></trkpt><trkpt lat="45.2278539" lon="12.1525982"><ele>-1.0</ele><time>2026-04-26T10:00:08.898Z</time></trkpt><trkpt lat="45.2279057" lon="12.1525417"><ele>-1.0</ele><time>2026-04-26T10:00:09.9Z</time></trkpt><trkpt lat="45.2279604" lon="12.1524866"><ele>-0.9999999999999999</ele><time>2026-04-26T10:00:10.899Z</time></trkpt><trkpt lat="45.228013" lon="12.1524357"><ele>-1.0</ele><time>2026-04-26T10:00:11.902Z</time></trkpt><trkpt lat="45.2280695" lon="12.1523943"><ele>-1.0</ele><time>2026-04-26T10:00:12.907Z</time></trkpt><trkpt lat="45.2281308" lon="12.1523647"><ele>-0.9999999999999999</ele><time>2026-04-26T10:00:13.898Z</time></trkpt><trkpt lat="45.2281947" lon="12.1523394"><ele>-1.0</ele><time>2026-04-26T10:00:14.906Z</time></trkpt><trkpt lat="45.2282572" lon="12.1523203"><ele>-1.0</ele><time>2026-04-26T10:00:15.899Z</time></trkpt><trkpt lat="45.2283803" lon="12.1522814"><ele>-0.6666666666666666</ele><time>2026-04-26T10:00:17.901Z</time></trkpt><trkpt lat="45.2284878" lon="12.152203"><ele>-0.3333333333333333</ele><time>2026-04-26T10:00:19.902Z</time></trkpt><trkpt lat="45.2285566" lon="12.1520548"><ele>0.0</ele><time>2026-04-26T10:00:21.899Z</time></trkpt><trkpt lat="45.2285757" lon="12.151968"><ele>0.3333333333333333</ele><time>2026-04-26T10:00:22.897Z</time></trkpt><trkpt lat="45.2285899" lon="12.1518786"><ele>0.6666666666666666</ele><time>2026-04-26T10:00:23.895Z</time></trkpt><trkpt lat="45.2285962" lon="12.1517874"><ele>1.0</ele><time>2026-04-26T10:00:24.896Z</time></trkpt><trkpt lat="45.2286008" lon="12.1516968"><ele>1.0</ele><time>2026-04-26T10:00:25.896Z</time></trkpt><trkpt lat="45.2286084" lon="12.1516077"><ele>0.9999999999999999</ele><time>2026-04-26T10:00:26.904Z</time></trkpt><trkpt lat="45.2286313" lon="12.1514333"><ele>1.0</ele><time>2026-04-26T10:00:28.902Z</time></trkpt><trkpt lat="45.2286408" lon="12.1513443"><ele>1.0</ele><time>2026-04-26T10:00:29.897Z</time></trkpt><trkpt lat="45.22865" lon="12.1512538"><ele>0.9999999999999999</ele><time>2026-04-26T10:00:30.9Z</time></trkpt><trkpt lat="45.2286598" lon="12.1511626"><ele>1.0</ele><time>2026-04-26T10:00:31.902Z</time></trkpt><trkpt lat="45.2286687" lon="12.1510723"><ele>1.0</ele><time>2026-04-26T10:00:32.904Z</time></trkpt><trkpt lat="45.2286761" lon="12.1509835"><ele>0.7142857142857142</ele><time>2026-04-26T10:00:33.897Z</time></trkpt><trkpt lat="45.2286937" lon="12.1508085"><ele>0.4285714285714285</ele><time>2026-04-26T10:00:35.898Z</time></trkpt><trkpt lat="45.2287029" lon="12.1507187"><ele>0.14285714285714285</ele><time>2026-04-26T10:00:36.899Z</time></trkpt><trkpt lat="45.2287131" lon="12.1506284"><ele>-0.14285714285714285</ele><time>2026-04-26T10:00:37.899Z</time></trkpt><trkpt lat="45.2287234" lon="12.1505361"><ele>-0.4285714285714285</ele><time>2026-04-26T10:00:38.904Z</time></trkpt><trkpt lat="45.2287351" lon="12.1504474"><ele>-0.7142857142857142</ele><time>2026-04-26T10:00:39.9Z</time></trkpt><trkpt lat="45.2287456" lon="12.1503586"><ele>-1.0</ele><time>2026-04-26T10:00:40.9Z</time></trkpt><trkpt lat="45.2287561" lon="12.1502702"><ele>-1.0</ele><time>2026-04-26T10:00:41.899Z</time></trkpt><trkpt lat="45.2287741" lon="12.1500967"><ele>-1.0</ele><time>2026-04-26T10:00:43.904Z</time></trkpt><trkpt lat="45.2287958" lon="12.1499205"><ele>-1.0</ele><time>2026-04-26T10:00:45.902Z</time></trkpt><trkpt lat="45.2288216" lon="12.1497469"><ele>-1.0</ele><time>2026-04-26T10:00:47.909Z</time></trkpt><trkpt lat="45.2288329" lon="12.149658"><ele>-1.0</ele><time>2026-04-26T10:00:48.898Z</time></trkpt><trkpt lat="45.2288434" lon="12.1495698"><ele>-1.0</ele><time>2026-04-26T10:00:49.897Z</time></trkpt><trkpt lat="45.2288642" lon="12.1493974"><ele>-1.0</ele><time>2026-04-26T10:00:51.901Z</time></trkpt><trkpt lat="45.2288867" lon="12.1492269"><ele>-1.0</ele><time>2026-04-26T10:00:53.895Z</time></trkpt><trkpt lat="45.2289155" lon="12.1490629"><ele>-1.0</ele><time>2026-04-26T10:00:55.904Z</time></trkpt><trkpt lat="45.2289339" lon="12.1488879"><ele>-1.0</ele><time>2026-04-26T10:00:57.905Z</time></trkpt><trkpt lat="45.2289519" lon="12.1487089"><ele>-1.0</ele><time>2026-04-26T10:00:59.9Z</time></trkpt><trkpt lat="45.2289664" lon="12.1485342"><ele>-1.0</ele><time>2026-04-26T10:01:01.907Z</time></trkpt><trkpt lat="45.2289832" lon="12.1483629"><ele>-1.0</ele><time>2026-04-26T10:01:03.903Z</time></trkpt><trkpt lat="45.2290029" lon="12.1481952"><ele>-1.0</ele><time>2026-04-26T10:01:05.902Z</time></trkpt><trkpt lat="45.229026" lon="12.1480288"><ele>-1.0</ele><time>2026-04-26T10:01:07.903Z</time></trkpt><trkpt lat="45.2290482" lon="12.1478631"><ele>-1.0</ele><time>2026-04-26T10:01:09.91Z</time></trkpt><trkpt lat="45.229071" lon="12.1476955"><ele>-1.0</ele><time>2026-04-26T10:01:11.901Z</time></trkpt><trkpt lat="45.2290903" lon="12.14752"><ele>-0.6666666666666666</ele><time>2026-04-26T10:01:13.904Z</time></trkpt><trkpt lat="45.229108" lon="12.1473473"><ele>-0.3333333333333333</ele><time>2026-04-26T10:01:15.902Z</time></trkpt><trkpt lat="45.2291162" lon="12.1472571"><ele>0.0</ele><time>2026-04-26T10:01:16.903Z</time></trkpt><trkpt lat="45.229126" lon="12.1471669"><ele>0.3333333333333333</ele><time>2026-04-26T10:01:17.903Z</time></trkpt><trkpt lat="45.2291356" lon="12.1470758"><ele>0.6666666666666666</ele><time>2026-04-26T10:01:18.899Z</time></trkpt><trkpt lat="45.229146" lon="12.1469862"><ele>1.0</ele><time>2026-04-26T10:01:19.9Z</time></trkpt><trkpt lat="45.2291636" lon="12.14681"><ele>1.0</ele><time>2026-04-26T10:01:21.903Z</time></trkpt><trkpt lat="45.2291843" lon="12.146634"><ele>1.0</ele><time>2026-04-26T10:01:23.899Z</time></trkpt><trkpt lat="45.2291957" lon="12.1465458"><ele>1.0</ele><time>2026-04-26T10:01:24.902Z</time></trkpt><trkpt lat="45.2292177" lon="12.1463712"><ele>1.0</ele><time>2026-04-26T10:01:26.906Z</time></trkpt><trkpt lat="45.2292294" lon="12.146283"><ele>1.0</ele><time>2026-04-26T10:01:27.901Z</time></trkpt><trkpt lat="45.2292506" lon="12.1461078"><ele>1.0</ele><time>2026-04-26T10:01:29.9Z</time></trkpt><trkpt lat="45.2292676" lon="12.1459335"><ele>1.0</ele><time>2026-04-26T10:01:31.905Z</time></trkpt><trkpt lat="45.2292847" lon="12.1457654"><ele>1.0</ele><time>2026-04-26T10:01:33.907Z</time></trkpt><trkpt lat="45.2293022" lon="12.1455924"><ele>1.0</ele><time>2026-04-26T10:01:35.906Z</time></trkpt><trkpt lat="45.2293232" lon="12.1454166"><ele>0.9999999999999999</ele><time>2026-04-26T10:01:37.907Z</time></trkpt><trkpt lat="45.2293435" lon="12.1452409"><ele>1.0</ele><time>2026-04-26T10:01:39.9Z</time></trkpt><trkpt lat="45.2293536" lon="12.1451526"><ele>1.0</ele><time>2026-04-26T10:01:40.904Z</time></trkpt><trkpt lat="45.2293622" lon="12.1450632"><ele>1.0</ele><time>2026-04-26T10:01:41.899Z</time></trkpt><trkpt lat="45.2293779" lon="12.1448867"><ele>0.9999999999999999</ele><time>2026-04-26T10:01:43.904Z</time></trkpt><trkpt lat="45.2293851" lon="12.144796"><ele>1.0</ele><time>2026-04-26T10:01:44.896Z</time></trkpt><trkpt lat="45.2293939" lon="12.1447055"><ele>0.9999999999999999</ele><time>2026-04-26T10:01:45.904Z</time></trkpt><trkpt lat="45.2294016" lon="12.1446109"><ele>1.0</ele><time>2026-04-26T10:01:46.905Z</time></trkpt><trkpt lat="45.2294111" lon="12.1445188"><ele>1.0</ele><time>2026-04-26T10:01:47.903Z</time></trkpt><trkpt lat="45.2294221" lon="12.1444303"><ele>1.0</ele><time>2026-04-26T10:01:48.904Z</time></trkpt><trkpt lat="45.2294316" lon="12.1443419"><ele>0.9999999999999999</ele><time>2026-04-26T10:01:49.899Z</time></trkpt><trkpt lat="45.2294478" lon="12.1441657"><ele>1.0</ele><time>2026-04-26T10:01:51.903Z</time></trkpt><trkpt lat="45.2294689" lon="12.143991"><ele>1.4</ele><time>2026-04-26T10:01:53.905Z</time></trkpt><trkpt lat="45.2294876" lon="12.143814"><ele>1.8</ele><time>2026-04-26T10:01:55.902Z</time></trkpt><trkpt lat="45.229504" lon="12.1436363"><ele>2.1999999999999997</ele><time>2026-04-26T10:01:57.903Z</time></trkpt><trkpt lat="45.2295226" lon="12.1434599"><ele>2.6</ele><time>2026-04-26T10:01:59.903Z</time></trkpt><trkpt lat="45.2295325" lon="12.1433711"><ele>3.0</ele><time>2026-04-26T10:02:00.904Z</time></trkpt><trkpt lat="45.2295428" lon="12.1432823"><ele>2.75</ele><time>2026-04-26T10:02:01.905Z</time></trkpt><trkpt lat="45.2295631" lon="12.1431086"><ele>2.5</ele><time>2026-04-26T10:02:03.903Z</time></trkpt><trkpt lat="45.229586" lon="12.1429365"><ele>2.25</ele><time>2026-04-26T10:02:05.908Z</time></trkpt><trkpt lat="45.2296058" lon="12.1427658"><ele>2.0</ele><time>2026-04-26T10:02:07.903Z</time></trkpt><trkpt lat="45.2296268" lon="12.1425962"><ele>2.0</ele><time>2026-04-26T10:02:09.904Z</time></trkpt><trkpt lat="45.2296476" lon="12.1424297"><ele>2.0</ele><time>2026-04-26T10:02:11.906Z</time></trkpt><trkpt lat="45.229668" lon="12.1422617"><ele>2.0</ele><time>2026-04-26T10:02:13.898Z</time></trkpt><trkpt lat="45.2296898" lon="12.142092"><ele>2.0</ele><time>2026-04-26T10:02:15.897Z</time></trkpt><trkpt lat="45.2297103" lon="12.1419205"><ele>1.8</ele><time>2026-04-26T10:02:17.901Z</time></trkpt><trkpt lat="45.2297341" lon="12.1417446"><ele>1.6</ele><time>2026-04-26T10:02:19.903Z</time></trkpt><trkpt lat="45.2297471" lon="12.1416555"><ele>1.4000000000000001</ele><time>2026-04-26T10:02:20.895Z</time></trkpt><trkpt lat="45.2297592" lon="12.1415674"><ele>1.2000000000000002</ele><time>2026-04-26T10:02:21.899Z</time></trkpt><trkpt lat="45.2297829" lon="12.1413955"><ele>1.0</ele><time>2026-04-26T10:02:23.904Z</time></trkpt><trkpt lat="45.2298057" lon="12.1412224"><ele>0.75</ele><time>2026-04-26T10:02:25.905Z</time></trkpt><trkpt lat="45.2298271" lon="12.1410491"><ele>0.5</ele><time>2026-04-26T10:02:27.902Z</time></trkpt><trkpt lat="45.2298501" lon="12.1408786"><ele>0.25</ele><time>2026-04-26T10:02:29.901Z</time></trkpt><trkpt lat="45.2298735" lon="12.1407107"><ele>0.0</ele><time>2026-04-26T10:02:31.903Z</time></trkpt><trkpt lat="45.2298947" lon="12.140544"><ele>0.0</ele><time>2026-04-26T10:02:33.904Z</time></trkpt><trkpt lat="45.2299174" lon="12.1403784"><ele>0.0</ele><time>2026-04-26T10:02:35.906Z</time></trkpt><trkpt lat="45.2299411" lon="12.1402132"><ele>0.0</ele><time>2026-04-26T10:02:37.901Z</time></trkpt><trkpt lat="45.2299667" lon="12.140049"><ele>0.0</ele><time>2026-04-26T10:02:39.905Z</time></trkpt><trkpt lat="45.2299894" lon="12.1398846"><ele>-0.3333333333333333</ele><time>2026-04-26T10:02:41.903Z</time></trkpt><trkpt lat="45.2300099" lon="12.139713"><ele>-0.6666666666666666</ele><time>2026-04-26T10:02:43.905Z</time></trkpt><trkpt lat="45.230033" lon="12.1395369"><ele>-1.0</ele><time>2026-04-26T10:02:45.903Z</time></trkpt><trkpt lat="45.2300462" lon="12.1394478"><ele>-1.3333333333333333</ele><time>2026-04-26T10:02:46.903Z</time></trkpt><trkpt lat="45.2300588" lon="12.1393597"><ele>-1.6666666666666665</ele><time>2026-04-26T10:02:47.895Z</time></trkpt><trkpt lat="45.2300712" lon="12.1392699"><ele>-2.0</ele><time>2026-04-26T10:02:48.904Z</time></trkpt><trkpt lat="45.2300839" lon="12.1391809"><ele>-2.0</ele><time>2026-04-26T10:02:49.903Z</time></trkpt><trkpt lat="45.2301086" lon="12.1390125"><ele>-2.0</ele><time>2026-04-26T10:02:51.904Z</time></trkpt><trkpt lat="45.230131" lon="12.1388372"><ele>-2.0</ele><time>2026-04-26T10:02:53.903Z</time></trkpt><trkpt lat="45.2301424" lon="12.138747"><ele>-2.0</ele><time>2026-04-26T10:02:54.904Z</time></trkpt><trkpt lat="45.2301655" lon="12.1385727"><ele>-2.0</ele><time>2026-04-26T10:02:56.9Z</time></trkpt><trkpt lat="45.2301922" lon="12.1383988"><ele>-1.9999999999999998</ele><time>2026-04-26T10:02:58.907Z</time></trkpt><trkpt lat="45.2302048" lon="12.1383086"><ele>-2.0</ele><time>2026-04-26T10:02:59.902Z</time></trkpt><trkpt lat="45.2302208" lon="12.1382216"><ele>-2.0</ele><time>2026-04-26T10:03:00.905Z</time></trkpt><trkpt lat="45.2302342" lon="12.138132"><ele>-2.0</ele><time>2026-04-26T10:03:01.907Z</time></trkpt><trkpt lat="45.2302465" lon="12.1380436"><ele>-1.9999999999999998</ele><time>2026-04-26T10:03:02.908Z</time></trkpt><trkpt lat="45.2302707" lon="12.1378681"><ele>-2.0</ele><time>2026-04-26T10:03:04.901Z</time></trkpt><trkpt lat="45.2302941" lon="12.1376944"><ele>-1.8333333333333333</ele><time>2026-04-26T10:03:06.905Z</time></trkpt><trkpt lat="45.2303053" lon="12.137606"><ele>-1.6666666666666665</ele><time>2026-04-26T10:03:07.9Z</time></trkpt><trkpt lat="45.2303271" lon="12.1374319"><ele>-1.5</ele><time>2026-04-26T10:03:09.902Z</time></trkpt><trkpt lat="45.2303387" lon="12.1373421"><ele>-1.3333333333333333</ele><time>2026-04-26T10:03:10.898Z</time></trkpt><trkpt lat="45.2303501" lon="12.1372528"><ele>-1.1666666666666665</ele><time>2026-04-26T10:03:11.905Z</time></trkpt><trkpt lat="45.2303744" lon="12.1370783"><ele>-1.0</ele><time>2026-04-26T10:03:13.904Z</time></trkpt><trkpt lat="45.230398" lon="12.1369066"><ele>-0.8333333333333333</ele><time>2026-04-26T10:03:15.899Z</time></trkpt><trkpt lat="45.2304208" lon="12.1367353"><ele>-0.6666666666666666</ele><time>2026-04-26T10:03:17.906Z</time></trkpt><trkpt lat="45.2304484" lon="12.1365604"><ele>-0.5</ele><time>2026-04-26T10:03:19.905Z</time></trkpt><trkpt lat="45.2304622" lon="12.1364723"><ele>-0.3333333333333333</ele><time>2026-04-26T10:03:20.904Z</time></trkpt><trkpt lat="45.2304723" lon="12.136382"><ele>-0.16666666666666666</ele><time>2026-04-26T10:03:21.903Z</time></trkpt><trkpt lat="45.2304805" lon="12.1362911"><ele>0.0</ele><time>2026-04-26T10:03:22.91Z</time></trkpt><trkpt lat="45.2304904" lon="12.1361986"><ele>0.0</ele><time>2026-04-26T10:03:23.902Z</time></trkpt><trkpt lat="45.2305024" lon="12.1361086"><ele>0.0</ele><time>2026-04-26T10:03:24.899Z</time></trkpt><trkpt lat="45.230515" lon="12.1360201"><ele>0.0</ele><time>2026-04-26T10:03:25.905Z</time></trkpt><trkpt lat="45.2305418" lon="12.1358461"><ele>0.0</ele><time>2026-04-26T10:03:27.905Z</time></trkpt><trkpt lat="45.2305533" lon="12.1357575"><ele>0.0</ele><time>2026-04-26T10:03:28.905Z</time></trkpt><trkpt lat="45.2305755" lon="12.1355827"><ele>0.0</ele><time>2026-04-26T10:03:30.908Z</time></trkpt><trkpt lat="45.2305935" lon="12.1354092"><ele>0.0</ele><time>2026-04-26T10:03:32.908Z</time></trkpt><trkpt lat="45.2306113" lon="12.1352363"><ele>0.0</ele><time>2026-04-26T10:03:34.9Z</time></trkpt><trkpt lat="45.2306287" lon="12.1350616"><ele>0.0</ele><time>2026-04-26T10:03:36.905Z</time></trkpt><trkpt lat="45.2306449" lon="12.1348877"><ele>0.0</ele><time>2026-04-26T10:03:38.906Z</time></trkpt><trkpt lat="45.2306653" lon="12.1347193"><ele>-0.25</ele><time>2026-04-26T10:03:40.896Z</time></trkpt><trkpt lat="45.2306839" lon="12.1345519"><ele>-0.5</ele><time>2026-04-26T10:03:42.908Z</time></trkpt><trkpt lat="45.2306997" lon="12.1343906"><ele>-0.75</ele><time>2026-04-26T10:03:44.904Z</time></trkpt><trkpt lat="45.2307177" lon="12.1342279"><ele>-1.0</ele><time>2026-04-26T10:03:46.903Z</time></trkpt><trkpt lat="45.2307342" lon="12.1340582"><ele>-1.25</ele><time>2026-04-26T10:03:48.904Z</time></trkpt><trkpt lat="45.2307483" lon="12.1338863"><ele>-1.5</ele><time>2026-04-26T10:03:50.906Z</time></trkpt><trkpt lat="45.2307645" lon="12.1337162"><ele>-1.75</ele><time>2026-04-26T10:03:52.896Z</time></trkpt><trkpt lat="45.2307867" lon="12.1335449"><ele>-2.0</ele><time>2026-04-26T10:03:54.902Z</time></trkpt><trkpt lat="45.2308078" lon="12.1333723"><ele>-2.25</ele><time>2026-04-26T10:03:56.896Z</time></trkpt><trkpt lat="45.2308308" lon="12.1332011"><ele>-2.5</ele><time>2026-04-26T10:03:58.904Z</time></trkpt><trkpt lat="45.2308515" lon="12.1330327"><ele>-2.75</ele><time>2026-04-26T10:04:00.901Z</time></trkpt><trkpt lat="45.2308704" lon="12.1328657"><ele>-3.0</ele><time>2026-04-26T10:04:02.905Z</time></trkpt><trkpt lat="45.2308923" lon="12.1326965"><ele>-3.0</ele><time>2026-04-26T10:04:04.906Z</time></trkpt><trkpt lat="45.2309108" lon="12.1325269"><ele>-3.0</ele><time>2026-04-26T10:04:06.905Z</time></trkpt><trkpt lat="45.2309331" lon="12.1323582"><ele>-3.0</ele><time>2026-04-26T10:04:08.902Z</time></trkpt><trkpt lat="45.2309514" lon="12.1321862"><ele>-3.0</ele><time>2026-04-26T10:04:10.902Z</time></trkpt><trkpt lat="45.2309688" lon="12.1320167"><ele>-2.25</ele><time>2026-04-26T10:04:12.905Z</time></trkpt><trkpt lat="45.2309869" lon="12.1318505"><ele>-1.5</ele><time>2026-04-26T10:04:14.899Z</time></trkpt><trkpt lat="45.2310052" lon="12.1316839"><ele>-0.75</ele><time>2026-04-26T10:04:16.903Z</time></trkpt><trkpt lat="45.2310277" lon="12.1315188"><ele>0.0</ele><time>2026-04-26T10:04:18.901Z</time></trkpt><trkpt lat="45.2310502" lon="12.131355"><ele>0.25</ele><time>2026-04-26T10:04:20.904Z</time></trkpt><trkpt lat="45.231074" lon="12.1311904"><ele>0.5</ele><time>2026-04-26T10:04:22.911Z</time></trkpt><trkpt lat="45.2310913" lon="12.1310223"><ele>0.75</ele><time>2026-04-26T10:04:24.904Z</time></trkpt><trkpt lat="45.231109" lon="12.1308541"><ele>1.0</ele><time>2026-04-26T10:04:26.9Z</time></trkpt><trkpt lat="45.231128" lon="12.1306818"><ele>1.0</ele><time>2026-04-26T10:04:28.903Z</time></trkpt><trkpt lat="45.2311473" lon="12.130511"><ele>1.0</ele><time>2026-04-26T10:04:30.906Z</time></trkpt><trkpt lat="45.2311568" lon="12.1304221"><ele>1.0</ele><time>2026-04-26T10:04:31.902Z</time></trkpt><trkpt lat="45.2311735" lon="12.1302485"><ele>1.0</ele><time>2026-04-26T10:04:33.906Z</time></trkpt><trkpt lat="45.2311964" lon="12.1300783"><ele>1.0</ele><time>2026-04-26T10:04:35.906Z</time></trkpt><trkpt lat="45.2312166" lon="12.1299064"><ele>1.25</ele><time>2026-04-26T10:04:37.905Z</time></trkpt><trkpt lat="45.2312313" lon="12.129734"><ele>1.5</ele><time>2026-04-26T10:04:39.899Z</time></trkpt><trkpt lat="45.2312508" lon="12.1295667"><ele>1.75</ele><time>2026-04-26T10:04:41.903Z</time></trkpt><trkpt lat="45.2312754" lon="12.1294"><ele>2.0</ele><time>2026-04-26T10:04:43.899Z</time></trkpt><trkpt lat="45.2312977" lon="12.1292253"><ele>1.5</ele><time>2026-04-26T10:04:45.897Z</time></trkpt><trkpt lat="45.2313174" lon="12.1290528"><ele>1.0</ele><time>2026-04-26T10:04:47.903Z</time></trkpt><trkpt lat="45.2313357" lon="12.1288798"><ele>0.5</ele><time>2026-04-26T10:04:49.901Z</time></trkpt><trkpt lat="45.2313574" lon="12.1287106"><ele>0.0</ele><time>2026-04-26T10:04:51.904Z</time></trkpt><trkpt lat="45.231376" lon="12.128542"><ele>0.0</ele><time>2026-04-26T10:04:53.906Z</time></trkpt><trkpt lat="45.2313968" lon="12.128372"><ele>0.0</ele><time>2026-04-26T10:04:55.9Z</time></trkpt><trkpt lat="45.2314186" lon="12.1282006"><ele>0.0</ele><time>2026-04-26T10:04:57.905Z</time></trkpt><trkpt lat="45.2314324" lon="12.1281124"><ele>0.0</ele><time>2026-04-26T10:04:58.911Z</time></trkpt><trkpt lat="45.2314564" lon="12.127937"><ele>0.0</ele><time>2026-04-26T10:05:00.904Z</time></trkpt><trkpt lat="45.2314787" lon="12.1277676"><ele>0.0</ele><time>2026-04-26T10:05:02.903Z</time></trkpt><trkpt lat="45.231499" lon="12.1275958"><ele>0.0</ele><time>2026-04-26T10:05:04.907Z</time></trkpt><trkpt lat="45.2315204" lon="12.1274251"><ele>0.0</ele><time>2026-04-26T10:05:06.903Z</time></trkpt><trkpt lat="45.2315432" lon="12.1272549"><ele>0.0</ele><time>2026-04-26T10:05:08.905Z</time></trkpt><trkpt lat="45.2315676" lon="12.127082"><ele>0.14285714285714285</ele><time>2026-04-26T10:05:10.905Z</time></trkpt><trkpt lat="45.2315805" lon="12.1269939"><ele>0.2857142857142857</ele><time>2026-04-26T10:05:11.904Z</time></trkpt><trkpt lat="45.2315928" lon="12.1269048"><ele>0.42857142857142855</ele><time>2026-04-26T10:05:12.907Z</time></trkpt><trkpt lat="45.2316031" lon="12.1268166"><ele>0.5714285714285714</ele><time>2026-04-26T10:05:13.902Z</time></trkpt><trkpt lat="45.231613" lon="12.1267279"><ele>0.7142857142857142</ele><time>2026-04-26T10:05:14.905Z</time></trkpt><trkpt lat="45.2316366" lon="12.1265525"><ele>0.8571428571428571</ele><time>2026-04-26T10:05:16.9Z</time></trkpt><trkpt lat="45.2316477" lon="12.1264629"><ele>1.0</ele><time>2026-04-26T10:05:17.904Z</time></trkpt><trkpt lat="45.2316566" lon="12.1263726"><ele>1.0</ele><time>2026-04-26T10:05:18.898Z</time></trkpt><trkpt lat="45.2316685" lon="12.126284"><ele>1.0</ele><time>2026-04-26T10:05:19.903Z</time></trkpt><trkpt lat="45.2316823" lon="12.1261953"><ele>1.0</ele><time>2026-04-26T10:05:20.899Z</time></trkpt><trkpt lat="45.231706" lon="12.1260243"><ele>1.0</ele><time>2026-04-26T10:05:22.908Z</time></trkpt><trkpt lat="45.2317235" lon="12.1258524"><ele>1.0</ele><time>2026-04-26T10:05:24.907Z</time></trkpt><trkpt lat="45.231742" lon="12.1256831"><ele>1.0</ele><time>2026-04-26T10:05:26.908Z</time></trkpt><trkpt lat="45.2317615" lon="12.1255078"><ele>0.9999999999999999</ele><time>2026-04-26T10:05:28.906Z</time></trkpt><trkpt lat="45.2317722" lon="12.1254184"><ele>1.0</ele><time>2026-04-26T10:05:29.903Z</time></trkpt><trkpt lat="45.2317822" lon="12.1253274"><ele>1.0</ele><time>2026-04-26T10:05:30.905Z</time></trkpt><trkpt lat="45.2317916" lon="12.1252358"><ele>0.9999999999999999</ele><time>2026-04-26T10:05:31.907Z</time></trkpt><trkpt lat="45.2318022" lon="12.1251456"><ele>1.0</ele><time>2026-04-26T10:05:32.906Z</time></trkpt><trkpt lat="45.2318136" lon="12.1250555"><ele>1.0</ele><time>2026-04-26T10:05:33.904Z</time></trkpt><trkpt lat="45.2318349" lon="12.1248783"><ele>1.0</ele><time>2026-04-26T10:05:35.897Z</time></trkpt><trkpt lat="45.2318563" lon="12.1247051"><ele>1.0</ele><time>2026-04-26T10:05:37.904Z</time></trkpt><trkpt lat="45.2318793" lon="12.1245316"><ele>1.0</ele><time>2026-04-26T10:05:39.903Z</time></trkpt><trkpt lat="45.2319015" lon="12.1243595"><ele>1.0</ele><time>2026-04-26T10:05:41.905Z</time></trkpt><trkpt lat="45.2319231" lon="12.1241861"><ele>0.8</ele><time>2026-04-26T10:05:43.904Z</time></trkpt><trkpt lat="45.2319423" lon="12.1240152"><ele>0.6000000000000001</ele><time>2026-04-26T10:05:45.898Z</time></trkpt><trkpt lat="45.231963" lon="12.1238483"><ele>0.4</ele><time>2026-04-26T10:05:47.905Z</time></trkpt><trkpt lat="45.2319846" lon="12.1236782"><ele>0.2</ele><time>2026-04-26T10:05:49.905Z</time></trkpt><trkpt lat="45.2319949" lon="12.1235899"><ele>0.0</ele><time>2026-04-26T10:05:50.899Z</time></trkpt><trkpt lat="45.2320167" lon="12.123418"><ele>0.0</ele><time>2026-04-26T10:05:52.908Z</time></trkpt><trkpt lat="45.2320384" lon="12.1232485"><ele>0.0</ele><time>2026-04-26T10:05:54.904Z</time></trkpt><trkpt lat="45.2320584" lon="12.1230814"><ele>0.0</ele><time>2026-04-26T10:05:56.898Z</time></trkpt><trkpt lat="45.2320763" lon="12.1229135"><ele>0.0</ele><time>2026-04-26T10:05:58.901Z</time></trkpt><trkpt lat="45.2320922" lon="12.1227452"><ele>0.0</ele><time>2026-04-26T10:06:00.909Z</time></trkpt><trkpt lat="45.2321063" lon="12.1225712"><ele>0.0</ele><time>2026-04-26T10:06:02.912Z</time></trkpt><trkpt lat="45.2321166" lon="12.1224822"><ele>0.0</ele><time>2026-04-26T10:06:03.904Z</time></trkpt><trkpt lat="45.2321422" lon="12.1223102"><ele>0.0</ele><time>2026-04-26T10:06:05.903Z</time></trkpt><trkpt lat="45.2321743" lon="12.1221428"><ele>0.0</ele><time>2026-04-26T10:06:07.904Z</time></trkpt><trkpt lat="45.2322017" lon="12.1219766"><ele>0.0</ele><time>2026-04-26T10:06:09.904Z</time></trkpt><trkpt lat="45.2322192" lon="12.1218098"><ele>0.0</ele><time>2026-04-26T10:06:11.899Z</time></trkpt><trkpt lat="45.2322379" lon="12.1216476"><ele>0.0</ele><time>2026-04-26T10:06:13.907Z</time></trkpt><trkpt lat="45.2322579" lon="12.1214864"><ele>0.0</ele><time>2026-04-26T10:06:15.906Z</time></trkpt><trkpt lat="45.2322787" lon="12.1213277"><ele>0.0</ele><time>2026-04-26T10:06:17.905Z</time></trkpt><trkpt lat="45.2322993" lon="12.1211623"><ele>0.0</ele><time>2026-04-26T10:06:19.903Z</time></trkpt><trkpt lat="45.2323247" lon="12.1209976"><ele>0.0</ele><time>2026-04-26T10:06:21.896Z</time></trkpt><trkpt lat="45.2323503" lon="12.1208327"><ele>0.0</ele><time>2026-04-26T10:06:23.905Z</time></trkpt><trkpt lat="45.2323739" lon="12.1206675"><ele>0.0</ele><time>2026-04-26T10:06:25.905Z</time></trkpt><trkpt lat="45.2323993" lon="12.1204969"><ele>0.0</ele><time>2026-04-26T10:06:27.9Z</time></trkpt><trkpt lat="45.2324236" lon="12.1203312"><ele>0.0</ele><time>2026-04-26T10:06:29.903Z</time></trkpt><trkpt lat="45.2324484" lon="12.1201865"><ele>0.0</ele><time>2026-04-26T10:06:31.901Z</time></trkpt><trkpt lat="45.2324715" lon="12.1200683"><ele>0.0</ele><time>2026-04-26T10:06:33.906Z</time></trkpt><trkpt lat="45.2324965" lon="12.1199687"><ele>-0.16666666666666666</ele><time>2026-04-26T10:06:35.907Z</time></trkpt><trkpt lat="45.23252" lon="12.1198723"><ele>-0.3333333333333333</ele><time>2026-04-26T10:06:37.905Z</time></trkpt><trkpt lat="45.2325412" lon="12.1197818"><ele>-0.5</ele><time>2026-04-26T10:06:39.898Z</time></trkpt><trkpt lat="45.2325697" lon="12.1196683"><ele>-0.6666666666666666</ele><time>2026-04-26T10:06:42.909Z</time></trkpt><trkpt lat="45.2326007" lon="12.119579"><ele>-0.8333333333333333</ele><time>2026-04-26T10:06:45.902Z</time></trkpt><trkpt lat="45.2326326" lon="12.119489"><ele>-1.0</ele><time>2026-04-26T10:07:06.899Z</time></trkpt><trkpt lat="45.2326541" lon="12.1193711"><ele>-0.9999999999999999</ele><time>2026-04-26T10:07:09.902Z</time></trkpt><trkpt lat="45.2326471" lon="12.1192643"><ele>-1.0</ele><time>2026-04-26T10:07:11.9Z</time></trkpt><trkpt lat="45.2326358" lon="12.1191576"><ele>-1.0</ele><time>2026-04-26T10:07:13.9Z</time></trkpt><trkpt lat="45.2326388" lon="12.1190429"><ele>-1.0</ele><time>2026-04-26T10:07:15.905Z</time></trkpt><trkpt lat="45.2326496" lon="12.1189234"><ele>-0.9999999999999999</ele><time>2026-04-26T10:07:17.897Z</time></trkpt><trkpt lat="45.2326559" lon="12.1187981"><ele>-1.0</ele><time>2026-04-26T10:07:19.903Z</time></trkpt><trkpt lat="45.2326627" lon="12.1186707"><ele>-1.0</ele><time>2026-04-26T10:07:21.9Z</time></trkpt><trkpt lat="45.2326774" lon="12.1185409"><ele>-1.0</ele><time>2026-04-26T10:07:23.902Z</time></trkpt><trkpt lat="45.232688" lon="12.1184115"><ele>-1.0</ele><time>2026-04-26T10:07:25.907Z</time></trkpt><trkpt lat="45.2327038" lon="12.1182727"><ele>-1.0</ele><time>2026-04-26T10:07:27.898Z</time></trkpt><trkpt lat="45.2327265" lon="12.1181234"><ele>-1.0</ele><time>2026-04-26T10:07:29.906Z</time></trkpt><trkpt lat="45.2327429" lon="12.1179757"><ele>-0.8</ele><time>2026-04-26T10:07:31.903Z</time></trkpt><trkpt lat="45.2327571" lon="12.117836"><ele>-0.6000000000000001</ele><time>2026-04-26T10:07:33.905Z</time></trkpt><trkpt lat="45.232773" lon="12.1176949"><ele>-0.4</ele><time>2026-04-26T10:07:35.901Z</time></trkpt><trkpt lat="45.2327922" lon="12.117555"><ele>-0.2</ele><time>2026-04-26T10:07:37.904Z</time></trkpt><trkpt lat="45.2328065" lon="12.1174124"><ele>0.0</ele><time>2026-04-26T10:07:39.9Z</time></trkpt><trkpt lat="45.2328203" lon="12.1172633"><ele>0.0</ele><time>2026-04-26T10:07:41.904Z</time></trkpt><trkpt lat="45.2328438" lon="12.117115"><ele>0.0</ele><time>2026-04-26T10:07:43.903Z</time></trkpt><trkpt lat="45.2328631" lon="12.1169685"><ele>0.0</ele><time>2026-04-26T10:07:45.904Z</time></trkpt><trkpt lat="45.2328838" lon="12.1168226"><ele>0.0</ele><time>2026-04-26T10:07:47.902Z</time></trkpt><trkpt lat="45.2329059" lon="12.1166744"><ele>0.0</ele><time>2026-04-26T10:07:49.899Z</time></trkpt><trkpt lat="45.2329245" lon="12.1165282"><ele>0.4</ele><time>2026-04-26T10:07:51.901Z</time></trkpt><trkpt lat="45.2329404" lon="12.1163868"><ele>0.8</ele><time>2026-04-26T10:07:53.903Z</time></trkpt><trkpt lat="45.2329623" lon="12.1162366"><ele>1.2000000000000002</ele><time>2026-04-26T10:07:55.899Z</time></trkpt><trkpt lat="45.2329798" lon="12.1160957"><ele>1.6</ele><time>2026-04-26T10:07:57.904Z</time></trkpt><trkpt lat="45.2329963" lon="12.1159555"><ele>2.0</ele><time>2026-04-26T10:07:59.907Z</time></trkpt><trkpt lat="45.2330192" lon="12.1158122"><ele>1.8</ele><time>2026-04-26T10:08:01.904Z</time></trkpt><trkpt lat="45.2330368" lon="12.1156702"><ele>1.6</ele><time>2026-04-26T10:08:03.903Z</time></trkpt><trkpt lat="45.2330552" lon="12.1155267"><ele>1.4000000000000001</ele><time>2026-04-26T10:08:05.904Z</time></trkpt><trkpt lat="45.2330727" lon="12.1153838"><ele>1.2000000000000002</ele><time>2026-04-26T10:08:07.903Z</time></trkpt><trkpt lat="45.2330903" lon="12.115238"><ele>1.0</ele><time>2026-04-26T10:08:09.904Z</time></trkpt><trkpt lat="45.2331029" lon="12.1150897"><ele>1.0</ele><time>2026-04-26T10:08:11.903Z</time></trkpt><trkpt lat="45.2331126" lon="12.1149448"><ele>1.0</ele><time>2026-04-26T10:08:13.901Z</time></trkpt><trkpt lat="45.2331229" lon="12.1147977"><ele>1.0</ele><time>2026-04-26T10:08:15.898Z</time></trkpt><trkpt lat="45.233133" lon="12.1146489"><ele>1.0</ele><time>2026-04-26T10:08:17.899Z</time></trkpt><trkpt lat="45.2331374" lon="12.1144996"><ele>1.0</ele><time>2026-04-26T10:08:19.896Z</time></trkpt><trkpt lat="45.2331436" lon="12.1143536"><ele>1.2000000000000002</ele><time>2026-04-26T10:08:21.9Z</time></trkpt><trkpt lat="45.2331473" lon="12.1142143"><ele>1.4000000000000001</ele><time>2026-04-26T10:08:23.901Z</time></trkpt><trkpt lat="45.2331527" lon="12.1140706"><ele>1.6</ele><time>2026-04-26T10:08:25.9Z</time></trkpt><trkpt lat="45.2331557" lon="12.1139212"><ele>1.8</ele><time>2026-04-26T10:08:27.903Z</time></trkpt><trkpt lat="45.2331548" lon="12.1137736"><ele>2.0</ele><time>2026-04-26T10:08:29.902Z</time></trkpt><trkpt lat="45.2331609" lon="12.1136249"><ele>1.8</ele><time>2026-04-26T10:08:31.906Z</time></trkpt><trkpt lat="45.2331669" lon="12.1134755"><ele>1.6</ele><time>2026-04-26T10:08:33.9Z</time></trkpt><trkpt lat="45.2331632" lon="12.1133211"><ele>1.4000000000000001</ele><time>2026-04-26T10:08:35.908Z</time></trkpt><trkpt lat="45.2331671" lon="12.1131604"><ele>1.2000000000000002</ele><time>2026-04-26T10:08:37.906Z</time></trkpt><trkpt lat="45.2331739" lon="12.1130016"><ele>1.0</ele><time>2026-04-26T10:08:39.906Z</time></trkpt><trkpt lat="45.2331786" lon="12.1128435"><ele>1.0</ele><time>2026-04-26T10:08:41.907Z</time></trkpt><trkpt lat="45.233184" lon="12.1126846"><ele>1.0</ele><time>2026-04-26T10:08:43.903Z</time></trkpt><trkpt lat="45.2331934" lon="12.1125266"><ele>1.0</ele><time>2026-04-26T10:08:45.902Z</time></trkpt><trkpt lat="45.23321" lon="12.1123705"><ele>1.0</ele><time>2026-04-26T10:08:47.902Z</time></trkpt><trkpt lat="45.2332285" lon="12.1122189"><ele>1.0</ele><time>2026-04-26T10:08:49.901Z</time></trkpt><trkpt lat="45.2332551" lon="12.1120682"><ele>1.0</ele><time>2026-04-26T10:08:51.905Z</time></trkpt><trkpt lat="45.2332909" lon="12.1119182"><ele>1.0</ele><time>2026-04-26T10:08:53.903Z</time></trkpt><trkpt lat="45.2333246" lon="12.1117658"><ele>1.0</ele><time>2026-04-26T10:08:55.901Z</time></trkpt><trkpt lat="45.2333627" lon="12.1116144"><ele>1.0</ele><time>2026-04-26T10:08:57.905Z</time></trkpt><trkpt lat="45.2334081" lon="12.1114716"><ele>1.0</ele><time>2026-04-26T10:08:59.909Z</time></trkpt><trkpt lat="45.2334569" lon="12.1113376"><ele>0.9999999999999999</ele><time>2026-04-26T10:09:01.907Z</time></trkpt><trkpt lat="45.233507" lon="12.1112122"><ele>1.0</ele><time>2026-04-26T10:09:03.907Z</time></trkpt><trkpt lat="45.2335627" lon="12.1111109"><ele>1.0</ele><time>2026-04-26T10:09:05.907Z</time></trkpt><trkpt lat="45.2336122" lon="12.1110332"><ele>1.0</ele><time>2026-04-26T10:09:07.902Z</time></trkpt><trkpt lat="45.2335944" lon="12.1109175"><ele>0.9999999999999999</ele><time>2026-04-26T10:09:10.896Z</time></trkpt><trkpt lat="45.2335232" lon="12.1108528"><ele>1.0</ele><time>2026-04-26T10:09:12.903Z</time></trkpt><trkpt lat="45.2334486" lon="12.1107897"><ele>0.9999999999999999</ele><time>2026-04-26T10:09:14.898Z</time></trkpt><trkpt lat="45.233375" lon="12.1107211"><ele>1.0</ele><time>2026-04-26T10:09:16.901Z</time></trkpt><trkpt lat="45.2333017" lon="12.110652"><ele>1.0</ele><time>2026-04-26T10:09:18.909Z</time></trkpt><trkpt lat="45.2332291" lon="12.1105774"><ele>1.0</ele><time>2026-04-26T10:09:20.898Z</time></trkpt><trkpt lat="45.2331542" lon="12.1104993"><ele>0.9999999999999999</ele><time>2026-04-26T10:09:22.902Z</time></trkpt><trkpt lat="45.2330833" lon="12.1104199"><ele>1.0</ele><time>2026-04-26T10:09:24.907Z</time></trkpt><trkpt lat="45.233008" lon="12.1103679"><ele>1.0</ele><time>2026-04-26T10:09:26.901Z</time></trkpt><trkpt lat="45.2329291" lon="12.1104136"><ele>1.0</ele><time>2026-04-26T10:09:28.905Z</time></trkpt><trkpt lat="45.2328788" lon="12.1105438"><ele>1.0</ele><time>2026-04-26T10:09:30.899Z</time></trkpt><trkpt lat="45.2328305" lon="12.1106609"><ele>1.0</ele><time>2026-04-26T10:09:32.908Z</time></trkpt><trkpt lat="45.2327823" lon="12.1107733"><ele>1.0</ele><time>2026-04-26T10:09:34.906Z</time></trkpt><trkpt lat="45.2327314" lon="12.1108744"><ele>0.9999999999999999</ele><time>2026-04-26T10:09:36.9Z</time></trkpt><trkpt lat="45.23269" lon="12.1109782"><ele>1.0</ele><time>2026-04-26T10:09:38.907Z</time></trkpt><trkpt lat="45.232654" lon="12.1110779"><ele>1.0</ele><time>2026-04-26T10:09:40.901Z</time></trkpt><trkpt lat="45.2326197" lon="12.1111726"><ele>1.0</ele><time>2026-04-26T10:09:42.904Z</time></trkpt><trkpt lat="45.2325873" lon="12.1112631"><ele>0.9999999999999999</ele><time>2026-04-26T10:09:44.902Z</time></trkpt><trkpt lat="45.2325531" lon="12.1113556"><ele>1.0</ele><time>2026-04-26T10:09:46.905Z</time></trkpt><trkpt lat="45.2325245" lon="12.1114532"><ele>0.9999999999999999</ele><time>2026-04-26T10:09:48.899Z</time></trkpt><trkpt lat="45.2324983" lon="12.1115584"><ele>1.0</ele><time>2026-04-26T10:09:50.904Z</time></trkpt><trkpt lat="45.232469" lon="12.1116725"><ele>1.0</ele><time>2026-04-26T10:09:52.905Z</time></trkpt><trkpt lat="45.2324413" lon="12.111791"><ele>1.0</ele><time>2026-04-26T10:09:54.901Z</time></trkpt><trkpt lat="45.2324157" lon="12.1119162"><ele>0.9999999999999999</ele><time>2026-04-26T10:09:56.901Z</time></trkpt><trkpt lat="45.2323934" lon="12.1120396"><ele>1.0</ele><time>2026-04-26T10:09:58.906Z</time></trkpt><trkpt lat="45.2323715" lon="12.1121601"><ele>0.8</ele><time>2026-04-26T10:10:00.899Z</time></trkpt><trkpt lat="45.2323547" lon="12.1122807"><ele>0.6000000000000001</ele><time>2026-04-26T10:10:02.904Z</time></trkpt><trkpt lat="45.2323466" lon="12.112409"><ele>0.4</ele><time>2026-04-26T10:10:04.901Z</time></trkpt><trkpt lat="45.2323398" lon="12.1125437"><ele>0.2</ele><time>2026-04-26T10:10:06.899Z</time></trkpt><trkpt lat="45.232337" lon="12.1126819"><ele>0.0</ele><time>2026-04-26T10:10:08.903Z</time></trkpt><trkpt lat="45.2323417" lon="12.1128242"><ele>0.0</ele><time>2026-04-26T10:10:10.902Z</time></trkpt><trkpt lat="45.2323483" lon="12.112967"><ele>0.0</ele><time>2026-04-26T10:10:12.905Z</time></trkpt><trkpt lat="45.2323482" lon="12.1131064"><ele>0.0</ele><time>2026-04-26T10:10:14.903Z</time></trkpt><trkpt lat="45.2323353" lon="12.1132363"><ele>0.0</ele><time>2026-04-26T10:10:16.908Z</time></trkpt><trkpt lat="45.2323083" lon="12.1133582"><ele>0.0</ele><time>2026-04-26T10:10:18.906Z</time></trkpt><trkpt lat="45.2322887" lon="12.1134884"><ele>0.0</ele><time>2026-04-26T10:10:20.9Z</time></trkpt><trkpt lat="45.2322984" lon="12.1136189"><ele>0.0</ele><time>2026-04-26T10:10:22.907Z</time></trkpt><trkpt lat="45.2323096" lon="12.1137564"><ele>0.0</ele><time>2026-04-26T10:10:24.896Z</time></trkpt><trkpt lat="45.2323129" lon="12.1138953"><ele>0.0</ele><time>2026-04-26T10:10:26.901Z</time></trkpt><trkpt lat="45.2323138" lon="12.1140317"><ele>0.0</ele><time>2026-04-26T10:10:28.908Z</time></trkpt><trkpt lat="45.2323163" lon="12.1141569"><ele>0.16666666666666666</ele><time>2026-04-26T10:10:30.906Z</time></trkpt><trkpt lat="45.2323184" lon="12.1142776"><ele>0.3333333333333333</ele><time>2026-04-26T10:10:32.901Z</time></trkpt><trkpt lat="45.2323196" lon="12.1143931"><ele>0.5</ele><time>2026-04-26T10:10:34.91Z</time></trkpt><trkpt lat="45.232319" lon="12.1145058"><ele>0.6666666666666666</ele><time>2026-04-26T10:10:36.906Z</time></trkpt><trkpt lat="45.2323167" lon="12.1146233"><ele>0.8333333333333333</ele><time>2026-04-26T10:10:38.901Z</time></trkpt><trkpt lat="45.2323144" lon="12.1147383"><ele>1.0</ele><time>2026-04-26T10:10:40.903Z</time></trkpt><trkpt lat="45.2323109" lon="12.1148497"><ele>0.9999999999999999</ele><time>2026-04-26T10:10:42.895Z</time></trkpt><trkpt lat="45.2323016" lon="12.114953"><ele>1.0</ele><time>2026-04-26T10:10:44.909Z</time></trkpt><trkpt lat="45.2322753" lon="12.1150508"><ele>1.0</ele><time>2026-04-26T10:10:47.905Z</time></trkpt><trkpt lat="45.2322766" lon="12.1151412"><ele>1.0</ele><time>2026-04-26T10:10:50.907Z</time></trkpt><trkpt lat="45.2322564" lon="12.1152647"><ele>0.9999999999999999</ele><time>2026-04-26T10:10:53.904Z</time></trkpt><trkpt lat="45.2321806" lon="12.1153218"><ele>1.0</ele><time>2026-04-26T10:10:56.902Z</time></trkpt><trkpt lat="45.232118" lon="12.1152951"><ele>0.9999999999999999</ele><time>2026-04-26T10:10:58.905Z</time></trkpt><trkpt lat="45.2320405" lon="12.1152768"><ele>1.0</ele><time>2026-04-26T10:11:01.899Z</time></trkpt><trkpt lat="45.2320391" lon="12.1153704"><ele>1.0</ele><time>2026-04-26T10:11:05.909Z</time></trkpt><trkpt lat="45.2321057" lon="12.1153384"><ele>1.0</ele><time>2026-04-26T10:11:18.899Z</time></trkpt><trkpt lat="45.2321925" lon="12.115335"><ele>0.9999999999999999</ele><time>2026-04-26T10:11:22.907Z</time></trkpt><trkpt lat="45.2322565" lon="12.115418"><ele>1.0</ele><time>2026-04-26T10:11:25.9Z</time></trkpt><trkpt lat="45.2322492" lon="12.1155317"><ele>0.9999999999999999</ele><time>2026-04-26T10:11:27.903Z</time></trkpt><trkpt lat="45.2322206" lon="12.1156451"><ele>1.0</ele><time>2026-04-26T10:11:29.9Z</time></trkpt><trkpt lat="45.2321923" lon="12.1157574"><ele>1.0</ele><time>2026-04-26T10:11:31.907Z</time></trkpt><trkpt lat="45.2321714" lon="12.1158645"><ele>1.0</ele><time>2026-04-26T10:11:33.904Z</time></trkpt><trkpt lat="45.2321452" lon="12.1159698"><ele>0.9999999999999999</ele><time>2026-04-26T10:11:35.906Z</time></trkpt><trkpt lat="45.2321218" lon="12.1160807"><ele>1.0</ele><time>2026-04-26T10:11:37.905Z</time></trkpt><trkpt lat="45.2320885" lon="12.1161985"><ele>1.0</ele><time>2026-04-26T10:11:39.906Z</time></trkpt><trkpt lat="45.2320519" lon="12.1163214"><ele>1.0</ele><time>2026-04-26T10:11:41.898Z</time></trkpt><trkpt lat="45.2320184" lon="12.116448"><ele>1.0</ele><time>2026-04-26T10:11:43.9Z</time></trkpt><trkpt lat="45.2319828" lon="12.1165793"><ele>1.0</ele><time>2026-04-26T10:11:45.902Z</time></trkpt><trkpt lat="45.2319443" lon="12.1167132"><ele>1.0</ele><time>2026-04-26T10:11:47.9Z</time></trkpt><trkpt lat="45.231907" lon="12.1168433"><ele>1.0</ele><time>2026-04-26T10:11:49.9Z</time></trkpt><trkpt lat="45.2318739" lon="12.1169691"><ele>1.0</ele><time>2026-04-26T10:11:51.897Z</time></trkpt><trkpt lat="45.2318377" lon="12.1170921"><ele>1.0</ele><time>2026-04-26T10:11:53.899Z</time></trkpt><trkpt lat="45.2318045" lon="12.1172245"><ele>1.0</ele><time>2026-04-26T10:11:55.904Z</time></trkpt><trkpt lat="45.2317744" lon="12.1173634"><ele>1.0</ele><time>2026-04-26T10:11:57.904Z</time></trkpt><trkpt lat="45.23175" lon="12.1175051"><ele>1.0</ele><time>2026-04-26T10:11:59.903Z</time></trkpt><trkpt lat="45.2317259" lon="12.1176518"><ele>1.0</ele><time>2026-04-26T10:12:01.903Z</time></trkpt><trkpt lat="45.2317072" lon="12.1178014"><ele>1.0</ele><time>2026-04-26T10:12:03.907Z</time></trkpt><trkpt lat="45.2316895" lon="12.1179558"><ele>1.0</ele><time>2026-04-26T10:12:05.906Z</time></trkpt><trkpt lat="45.2316783" lon="12.1181115"><ele>1.0</ele><time>2026-04-26T10:12:07.901Z</time></trkpt><trkpt lat="45.2316751" lon="12.1182531"><ele>1.2000000000000002</ele><time>2026-04-26T10:12:09.901Z</time></trkpt><trkpt lat="45.2316696" lon="12.1183944"><ele>1.4000000000000001</ele><time>2026-04-26T10:12:11.902Z</time></trkpt><trkpt lat="45.2316642" lon="12.1185485"><ele>1.6</ele><time>2026-04-26T10:12:13.899Z</time></trkpt><trkpt lat="45.2316599" lon="12.1187088"><ele>1.8</ele><time>2026-04-26T10:12:15.897Z</time></trkpt><trkpt lat="45.2316556" lon="12.1188785"><ele>2.0</ele><time>2026-04-26T10:12:17.9Z</time></trkpt><trkpt lat="45.2316493" lon="12.1190444"><ele>1.8</ele><time>2026-04-26T10:12:19.9Z</time></trkpt><trkpt lat="45.2316384" lon="12.119191"><ele>1.6</ele><time>2026-04-26T10:12:21.898Z</time></trkpt><trkpt lat="45.2316346" lon="12.1193475"><ele>1.4000000000000001</ele><time>2026-04-26T10:12:23.895Z</time></trkpt><trkpt lat="45.231652" lon="12.1194863"><ele>1.2000000000000002</ele><time>2026-04-26T10:12:25.897Z</time></trkpt><trkpt lat="45.2316275" lon="12.1196328"><ele>1.0</ele><time>2026-04-26T10:12:27.897Z</time></trkpt><trkpt lat="45.2316121" lon="12.1197317"><ele>1.0</ele><time>2026-04-26T10:12:28.908Z</time></trkpt><trkpt lat="45.2316035" lon="12.1198995"><ele>1.0</ele><time>2026-04-26T10:12:30.91Z</time></trkpt><trkpt lat="45.2315916" lon="12.1200581"><ele>1.0</ele><time>2026-04-26T10:12:32.907Z</time></trkpt><trkpt lat="45.2315759" lon="12.1202169"><ele>1.0</ele><time>2026-04-26T10:12:34.911Z</time></trkpt><trkpt lat="45.2315649" lon="12.1203702"><ele>1.0</ele><time>2026-04-26T10:12:36.904Z</time></trkpt><trkpt lat="45.231559" lon="12.1205233"><ele>1.0</ele><time>2026-04-26T10:12:38.906Z</time></trkpt><trkpt lat="45.2315439" lon="12.1206626"><ele>1.0</ele><time>2026-04-26T10:12:40.901Z</time></trkpt><trkpt lat="45.2315248" lon="12.1208024"><ele>1.0</ele><time>2026-04-26T10:12:42.907Z</time></trkpt><trkpt lat="45.2315014" lon="12.1209511"><ele>1.0</ele><time>2026-04-26T10:12:44.904Z</time></trkpt><trkpt lat="45.2314745" lon="12.1211106"><ele>0.5</ele><time>2026-04-26T10:12:46.902Z</time></trkpt><trkpt lat="45.2314485" lon="12.1212755"><ele>0.0</ele><time>2026-04-26T10:12:48.9Z</time></trkpt><trkpt lat="45.2314238" lon="12.1214434"><ele>-0.5</ele><time>2026-04-26T10:12:50.901Z</time></trkpt><trkpt lat="45.2313985" lon="12.1216095"><ele>-1.0</ele><time>2026-04-26T10:12:52.902Z</time></trkpt><trkpt lat="45.2313759" lon="12.1217709"><ele>-1.0</ele><time>2026-04-26T10:12:54.906Z</time></trkpt><trkpt lat="45.2313522" lon="12.121931"><ele>-1.0</ele><time>2026-04-26T10:12:56.904Z</time></trkpt><trkpt lat="45.231329" lon="12.1220928"><ele>-1.0</ele><time>2026-04-26T10:12:58.902Z</time></trkpt><trkpt lat="45.2313036" lon="12.1222529"><ele>-1.0</ele><time>2026-04-26T10:13:00.901Z</time></trkpt><trkpt lat="45.2312814" lon="12.1224106"><ele>-1.0</ele><time>2026-04-26T10:13:02.908Z</time></trkpt><trkpt lat="45.2312615" lon="12.1225694"><ele>-1.0</ele><time>2026-04-26T10:13:04.901Z</time></trkpt><trkpt lat="45.231239" lon="12.1227251"><ele>-1.0</ele><time>2026-04-26T10:13:06.904Z</time></trkpt><trkpt lat="45.2312169" lon="12.1228815"><ele>-1.0</ele><time>2026-04-26T10:13:08.905Z</time></trkpt><trkpt lat="45.2311979" lon="12.1230379"><ele>-1.0</ele><time>2026-04-26T10:13:10.898Z</time></trkpt><trkpt lat="45.2311789" lon="12.1231925"><ele>-1.0</ele><time>2026-04-26T10:13:12.901Z</time></trkpt><trkpt lat="45.2311609" lon="12.1233398"><ele>-1.0</ele><time>2026-04-26T10:13:14.901Z</time></trkpt><trkpt lat="45.2311449" lon="12.1234898"><ele>-1.0</ele><time>2026-04-26T10:13:16.903Z</time></trkpt><trkpt lat="45.2311251" lon="12.1236434"><ele>-1.0</ele><time>2026-04-26T10:13:18.901Z</time></trkpt><trkpt lat="45.2311047" lon="12.1237941"><ele>-1.0</ele><time>2026-04-26T10:13:20.899Z</time></trkpt><trkpt lat="45.2310919" lon="12.1239493"><ele>-1.0</ele><time>2026-04-26T10:13:22.909Z</time></trkpt><trkpt lat="45.2310719" lon="12.1241039"><ele>-1.0</ele><time>2026-04-26T10:13:24.901Z</time></trkpt><trkpt lat="45.231046" lon="12.1242555"><ele>-1.0</ele><time>2026-04-26T10:13:26.9Z</time></trkpt><trkpt lat="45.2310251" lon="12.1244072"><ele>-1.0</ele><time>2026-04-26T10:13:28.901Z</time></trkpt><trkpt lat="45.2310072" lon="12.1245594"><ele>-0.8</ele><time>2026-04-26T10:13:30.899Z</time></trkpt><trkpt lat="45.2309864" lon="12.1247113"><ele>-0.6000000000000001</ele><time>2026-04-26T10:13:32.905Z</time></trkpt><trkpt lat="45.2309659" lon="12.124861"><ele>-0.4</ele><time>2026-04-26T10:13:34.905Z</time></trkpt><trkpt lat="45.2309479" lon="12.1250132"><ele>-0.2</ele><time>2026-04-26T10:13:36.898Z</time></trkpt><trkpt lat="45.2309277" lon="12.1251678"><ele>0.0</ele><time>2026-04-26T10:13:38.903Z</time></trkpt><trkpt lat="45.230909" lon="12.1253222"><ele>0.0</ele><time>2026-04-26T10:13:40.905Z</time></trkpt><trkpt lat="45.2308922" lon="12.125473"><ele>0.0</ele><time>2026-04-26T10:13:42.898Z</time></trkpt><trkpt lat="45.2308754" lon="12.1256197"><ele>0.0</ele><time>2026-04-26T10:13:44.898Z</time></trkpt><trkpt lat="45.2308575" lon="12.1257685"><ele>0.0</ele><time>2026-04-26T10:13:46.901Z</time></trkpt><trkpt lat="45.2308376" lon="12.125914"><ele>0.0</ele><time>2026-04-26T10:13:48.906Z</time></trkpt><trkpt lat="45.2308177" lon="12.1260601"><ele>0.0</ele><time>2026-04-26T10:13:50.904Z</time></trkpt><trkpt lat="45.2307967" lon="12.1262081"><ele>0.0</ele><time>2026-04-26T10:13:52.9Z</time></trkpt><trkpt lat="45.2307759" lon="12.1263577"><ele>0.0</ele><time>2026-04-26T10:13:54.903Z</time></trkpt><trkpt lat="45.2307571" lon="12.1265136"><ele>0.0</ele><time>2026-04-26T10:13:56.902Z</time></trkpt><trkpt lat="45.2307374" lon="12.1266692"><ele>0.0</ele><time>2026-04-26T10:13:58.899Z</time></trkpt><trkpt lat="45.2307169" lon="12.1268238"><ele>0.4</ele><time>2026-04-26T10:14:00.903Z</time></trkpt><trkpt lat="45.2306951" lon="12.1269754"><ele>0.8</ele><time>2026-04-26T10:14:02.902Z</time></trkpt><trkpt lat="45.230675" lon="12.1271294"><ele>1.2000000000000002</ele><time>2026-04-26T10:14:04.901Z</time></trkpt><trkpt lat="45.2306545" lon="12.1272847"><ele>1.6</ele><time>2026-04-26T10:14:06.907Z</time></trkpt><trkpt lat="45.230635" lon="12.1274397"><ele>2.0</ele><time>2026-04-26T10:14:08.903Z</time></trkpt><trkpt lat="45.2306163" lon="12.1275942"><ele>1.4000000000000001</ele><time>2026-04-26T10:14:10.897Z</time></trkpt><trkpt lat="45.2305971" lon="12.1277517"><ele>0.8000000000000002</ele><time>2026-04-26T10:14:12.906Z</time></trkpt><trkpt lat="45.2305791" lon="12.1279086"><ele>0.19999999999999996</ele><time>2026-04-26T10:14:14.897Z</time></trkpt><trkpt lat="45.2305651" lon="12.1280627"><ele>-0.4</ele><time>2026-04-26T10:14:16.898Z</time></trkpt><trkpt lat="45.2305567" lon="12.1282149"><ele>-1.0</ele><time>2026-04-26T10:14:18.902Z</time></trkpt><trkpt lat="45.230541" lon="12.1283673"><ele>-1.0</ele><time>2026-04-26T10:14:20.895Z</time></trkpt><trkpt lat="45.2305197" lon="12.1285229"><ele>-1.0</ele><time>2026-04-26T10:14:22.909Z</time></trkpt><trkpt lat="45.2305022" lon="12.1286751"><ele>-1.0</ele><time>2026-04-26T10:14:24.9Z</time></trkpt><trkpt lat="45.2304864" lon="12.1288216"><ele>-1.0</ele><time>2026-04-26T10:14:26.9Z</time></trkpt><trkpt lat="45.2304692" lon="12.1289751"><ele>-1.0</ele><time>2026-04-26T10:14:28.903Z</time></trkpt><trkpt lat="45.2304509" lon="12.1291304"><ele>-1.0</ele><time>2026-04-26T10:14:30.903Z</time></trkpt><trkpt lat="45.230435" lon="12.1292854"><ele>-1.0</ele><time>2026-04-26T10:14:32.905Z</time></trkpt><trkpt lat="45.2304184" lon="12.1294434"><ele>-1.0</ele><time>2026-04-26T10:14:34.902Z</time></trkpt><trkpt lat="45.2304019" lon="12.1296033"><ele>-1.0</ele><time>2026-04-26T10:14:36.901Z</time></trkpt><trkpt lat="45.2303845" lon="12.1297598"><ele>-1.0</ele><time>2026-04-26T10:14:38.901Z</time></trkpt><trkpt lat="45.2303681" lon="12.1299198"><ele>-1.2000000000000002</ele><time>2026-04-26T10:14:40.903Z</time></trkpt><trkpt lat="45.2303523" lon="12.1300765"><ele>-1.4000000000000001</ele><time>2026-04-26T10:14:42.904Z</time></trkpt><trkpt lat="45.230333" lon="12.1302305"><ele>-1.6</ele><time>2026-04-26T10:14:44.898Z</time></trkpt><trkpt lat="45.2303126" lon="12.1303842"><ele>-1.8</ele><time>2026-04-26T10:14:46.901Z</time></trkpt><trkpt lat="45.2302948" lon="12.1305336"><ele>-2.0</ele><time>2026-04-26T10:14:48.904Z</time></trkpt><trkpt lat="45.2302761" lon="12.1306828"><ele>-1.8</ele><time>2026-04-26T10:14:50.9Z</time></trkpt><trkpt lat="45.2302575" lon="12.1308291"><ele>-1.6</ele><time>2026-04-26T10:14:52.9Z</time></trkpt><trkpt lat="45.2302406" lon="12.1309742"><ele>-1.4000000000000001</ele><time>2026-04-26T10:14:54.899Z</time></trkpt><trkpt lat="45.2302234" lon="12.1311194"><ele>-1.2000000000000002</ele><time>2026-04-26T10:14:56.898Z</time></trkpt><trkpt lat="45.2302038" lon="12.1312684"><ele>-1.0</ele><time>2026-04-26T10:14:58.903Z</time></trkpt><trkpt lat="45.2301949" lon="12.1314214"><ele>-1.2000000000000002</ele><time>2026-04-26T10:15:00.897Z</time></trkpt><trkpt lat="45.2301845" lon="12.1315812"><ele>-1.4000000000000001</ele><time>2026-04-26T10:15:02.894Z</time></trkpt><trkpt lat="45.2301657" lon="12.1317366"><ele>-1.6</ele><time>2026-04-26T10:15:04.895Z</time></trkpt><trkpt lat="45.2301458" lon="12.1318889"><ele>-1.8</ele><time>2026-04-26T10:15:06.897Z</time></trkpt><trkpt lat="45.2301317" lon="12.13204"><ele>-2.0</ele><time>2026-04-26T10:15:08.897Z</time></trkpt><trkpt lat="45.2301168" lon="12.1321896"><ele>-2.0</ele><time>2026-04-26T10:15:10.897Z</time></trkpt><trkpt lat="45.2301089" lon="12.1323371"><ele>-2.0</ele><time>2026-04-26T10:15:12.899Z</time></trkpt><trkpt lat="45.2301118" lon="12.1324835"><ele>-2.0</ele><time>2026-04-26T10:15:14.899Z</time></trkpt><trkpt lat="45.2301185" lon="12.1326199"><ele>-2.0</ele><time>2026-04-26T10:15:16.898Z</time></trkpt><trkpt lat="45.230125" lon="12.132735"><ele>-2.0</ele><time>2026-04-26T10:15:18.898Z</time></trkpt><trkpt lat="45.2301361" lon="12.1328269"><ele>-1.6666666666666665</ele><time>2026-04-26T10:15:20.898Z</time></trkpt><trkpt lat="45.230147" lon="12.1329474"><ele>-1.3333333333333333</ele><time>2026-04-26T10:15:23.899Z</time></trkpt><trkpt lat="45.2301469" lon="12.133074"><ele>-1.0</ele><time>2026-04-26T10:15:26.903Z</time></trkpt><trkpt lat="45.2301467" lon="12.1331691"><ele>-0.6666666666666666</ele><time>2026-04-26T10:15:28.9Z</time></trkpt><trkpt lat="45.2301519" lon="12.1332591"><ele>-0.3333333333333333</ele><time>2026-04-26T10:15:30.898Z</time></trkpt><trkpt lat="45.2301639" lon="12.133382"><ele>0.0</ele><time>2026-04-26T10:15:33.9Z</time></trkpt><trkpt lat="45.2301713" lon="12.1335063"><ele>0.0</ele><time>2026-04-26T10:15:36.9Z</time></trkpt><trkpt lat="45.230164" lon="12.1335967"><ele>0.0</ele><time>2026-04-26T10:15:38.905Z</time></trkpt><trkpt lat="45.2301464" lon="12.1336987"><ele>0.0</ele><time>2026-04-26T10:15:40.904Z</time></trkpt><trkpt lat="45.2301337" lon="12.1338125"><ele>0.0</ele><time>2026-04-26T10:15:42.903Z</time></trkpt><trkpt lat="45.2301186" lon="12.133935"><ele>0.0</ele><time>2026-04-26T10:15:44.902Z</time></trkpt><trkpt lat="45.230099" lon="12.1340568"><ele>0.0</ele><time>2026-04-26T10:15:46.904Z</time></trkpt><trkpt lat="45.2300853" lon="12.1341816"><ele>0.0</ele><time>2026-04-26T10:15:48.904Z</time></trkpt><trkpt lat="45.2300686" lon="12.1343145"><ele>0.0</ele><time>2026-04-26T10:15:50.9Z</time></trkpt><trkpt lat="45.2300527" lon="12.1344469"><ele>0.0</ele><time>2026-04-26T10:15:52.901Z</time></trkpt><trkpt lat="45.2300403" lon="12.1345721"><ele>0.0</ele><time>2026-04-26T10:15:54.905Z</time></trkpt><trkpt lat="45.2300286" lon="12.1346883"><ele>0.0</ele><time>2026-04-26T10:15:56.902Z</time></trkpt><trkpt lat="45.2300124" lon="12.1348174"><ele>0.0</ele><time>2026-04-26T10:15:58.904Z</time></trkpt><trkpt lat="45.2299944" lon="12.1349521"><ele>0.0</ele><time>2026-04-26T10:16:00.905Z</time></trkpt><trkpt lat="45.2299772" lon="12.1350885"><ele>0.0</ele><time>2026-04-26T10:16:02.904Z</time></trkpt><trkpt lat="45.2299639" lon="12.1352238"><ele>0.0</ele><time>2026-04-26T10:16:04.905Z</time></trkpt><trkpt lat="45.2299515" lon="12.1353622"><ele>0.0</ele><time>2026-04-26T10:16:06.908Z</time></trkpt><trkpt lat="45.2299352" lon="12.1355003"><ele>0.0</ele><time>2026-04-26T10:16:08.908Z</time></trkpt><trkpt lat="45.2299206" lon="12.1356362"><ele>0.0</ele><time>2026-04-26T10:16:10.897Z</time></trkpt><trkpt lat="45.2299044" lon="12.1357675"><ele>0.0</ele><time>2026-04-26T10:16:12.908Z</time></trkpt><trkpt lat="45.2298878" lon="12.1359024"><ele>0.0</ele><time>2026-04-26T10:16:14.907Z</time></trkpt><trkpt lat="45.2298722" lon="12.1360339"><ele>0.0</ele><time>2026-04-26T10:16:16.908Z</time></trkpt><trkpt lat="45.2298562" lon="12.1361646"><ele>0.0</ele><time>2026-04-26T10:16:18.907Z</time></trkpt><trkpt lat="45.2298413" lon="12.1362959"><ele>0.0</ele><time>2026-04-26T10:16:20.904Z</time></trkpt><trkpt lat="45.2298264" lon="12.1364258"><ele>0.0</ele><time>2026-04-26T10:16:22.906Z</time></trkpt><trkpt lat="45.2298106" lon="12.1365577"><ele>0.0</ele><time>2026-04-26T10:16:24.909Z</time></trkpt><trkpt lat="45.229794" lon="12.1366856"><ele>0.0</ele><time>2026-04-26T10:16:26.906Z</time></trkpt><trkpt lat="45.2297789" lon="12.1368148"><ele>-0.2</ele><time>2026-04-26T10:16:28.906Z</time></trkpt><trkpt lat="45.2297653" lon="12.1369478"><ele>-0.4</ele><time>2026-04-26T10:16:30.898Z</time></trkpt><trkpt lat="45.2297504" lon="12.1370812"><ele>-0.6000000000000001</ele><time>2026-04-26T10:16:32.899Z</time></trkpt><trkpt lat="45.2297331" lon="12.1372129"><ele>-0.8</ele><time>2026-04-26T10:16:34.897Z</time></trkpt><trkpt lat="45.2297187" lon="12.137345"><ele>-1.0</ele><time>2026-04-26T10:16:36.909Z</time></trkpt><trkpt lat="45.2297044" lon="12.1374748"><ele>-1.2000000000000002</ele><time>2026-04-26T10:16:38.898Z</time></trkpt><trkpt lat="45.229688" lon="12.1376054"><ele>-1.4000000000000001</ele><time>2026-04-26T10:16:40.904Z</time></trkpt><trkpt lat="45.2296723" lon="12.1377369"><ele>-1.6</ele><time>2026-04-26T10:16:42.905Z</time></trkpt><trkpt lat="45.2296566" lon="12.1378654"><ele>-1.8</ele><time>2026-04-26T10:16:44.899Z</time></trkpt><trkpt lat="45.2296382" lon="12.1379969"><ele>-2.0</ele><time>2026-04-26T10:16:46.905Z</time></trkpt><trkpt lat="45.2296195" lon="12.1381316"><ele>-1.8</ele><time>2026-04-26T10:16:48.905Z</time></trkpt><trkpt lat="45.2296018" lon="12.1382668"><ele>-1.6</ele><time>2026-04-26T10:16:50.905Z</time></trkpt><trkpt lat="45.2295837" lon="12.138405"><ele>-1.4000000000000001</ele><time>2026-04-26T10:16:52.904Z</time></trkpt><trkpt lat="45.2295664" lon="12.1385454"><ele>-1.2000000000000002</ele><time>2026-04-26T10:16:54.904Z</time></trkpt><trkpt lat="45.2295492" lon="12.1386826"><ele>-1.0</ele><time>2026-04-26T10:16:56.902Z</time></trkpt><trkpt lat="45.2295311" lon="12.1388162"><ele>-1.0</ele><time>2026-04-26T10:16:58.903Z</time></trkpt><trkpt lat="45.2295157" lon="12.1389423"><ele>-1.0</ele><time>2026-04-26T10:17:00.898Z</time></trkpt><trkpt lat="45.2295022" lon="12.1390649"><ele>-1.0</ele><time>2026-04-26T10:17:02.905Z</time></trkpt><trkpt lat="45.2294854" lon="12.139194"><ele>-1.0</ele><time>2026-04-26T10:17:04.9Z</time></trkpt><trkpt lat="45.2294677" lon="12.1393268"><ele>-1.0</ele><time>2026-04-26T10:17:06.903Z</time></trkpt><trkpt lat="45.2294503" lon="12.139466"><ele>-0.6000000000000001</ele><time>2026-04-26T10:17:08.902Z</time></trkpt><trkpt lat="45.2294337" lon="12.1396044"><ele>-0.20000000000000007</ele><time>2026-04-26T10:17:10.901Z</time></trkpt><trkpt lat="45.229416" lon="12.1397435"><ele>0.20000000000000007</ele><time>2026-04-26T10:17:12.908Z</time></trkpt><trkpt lat="45.2293965" lon="12.139885"><ele>0.6000000000000001</ele><time>2026-04-26T10:17:14.897Z</time></trkpt><trkpt lat="45.2293784" lon="12.1400253"><ele>1.0</ele><time>2026-04-26T10:17:16.903Z</time></trkpt><trkpt lat="45.2293603" lon="12.1401624"><ele>1.0</ele><time>2026-04-26T10:17:18.898Z</time></trkpt><trkpt lat="45.2293424" lon="12.1403047"><ele>1.0</ele><time>2026-04-26T10:17:20.9Z</time></trkpt><trkpt lat="45.229324" lon="12.1404467"><ele>1.0</ele><time>2026-04-26T10:17:22.901Z</time></trkpt><trkpt lat="45.2293026" lon="12.1405863"><ele>1.0</ele><time>2026-04-26T10:17:24.901Z</time></trkpt><trkpt lat="45.2292832" lon="12.1407267"><ele>1.0</ele><time>2026-04-26T10:17:26.897Z</time></trkpt><trkpt lat="45.2292617" lon="12.1408633"><ele>1.0</ele><time>2026-04-26T10:17:28.9Z</time></trkpt><trkpt lat="45.2292457" lon="12.1409977"><ele>1.0</ele><time>2026-04-26T10:17:30.898Z</time></trkpt><trkpt lat="45.2292285" lon="12.141132"><ele>1.0</ele><time>2026-04-26T10:17:32.903Z</time></trkpt><trkpt lat="45.229211" lon="12.141271"><ele>1.0</ele><time>2026-04-26T10:17:34.901Z</time></trkpt><trkpt lat="45.229191" lon="12.1414071"><ele>1.0</ele><time>2026-04-26T10:17:36.896Z</time></trkpt><trkpt lat="45.2291692" lon="12.1415239"><ele>0.8333333333333333</ele><time>2026-04-26T10:17:38.898Z</time></trkpt><trkpt lat="45.2291529" lon="12.1416363"><ele>0.6666666666666666</ele><time>2026-04-26T10:17:40.897Z</time></trkpt><trkpt lat="45.2291405" lon="12.141734"><ele>0.5</ele><time>2026-04-26T10:17:42.903Z</time></trkpt><trkpt lat="45.2291275" lon="12.1418425"><ele>0.3333333333333333</ele><time>2026-04-26T10:17:44.901Z</time></trkpt><trkpt lat="45.2291169" lon="12.141953"><ele>0.16666666666666666</ele><time>2026-04-26T10:17:46.894Z</time></trkpt><trkpt lat="45.2290983" lon="12.1420527"><ele>0.0</ele><time>2026-04-26T10:17:48.899Z</time></trkpt><trkpt lat="45.2290553" lon="12.1421329"><ele>0.0</ele><time>2026-04-26T10:17:50.906Z</time></trkpt><trkpt lat="45.2289884" lon="12.1422141"><ele>0.0</ele><time>2026-04-26T10:17:52.904Z</time></trkpt><trkpt lat="45.2289214" lon="12.1423226"><ele>0.0</ele><time>2026-04-26T10:17:54.897Z</time></trkpt><trkpt lat="45.2288511" lon="12.1424267"><ele>0.0</ele><time>2026-04-26T10:17:56.898Z</time></trkpt><trkpt lat="45.2287906" lon="12.1425286"><ele>0.0</ele><time>2026-04-26T10:17:58.905Z</time></trkpt><trkpt lat="45.2287325" lon="12.1426223"><ele>0.3333333333333333</ele><time>2026-04-26T10:18:00.903Z</time></trkpt><trkpt lat="45.2286669" lon="12.1427177"><ele>0.6666666666666666</ele><time>2026-04-26T10:18:02.896Z</time></trkpt><trkpt lat="45.2286079" lon="12.1428034"><ele>1.0</ele><time>2026-04-26T10:18:04.905Z</time></trkpt><trkpt lat="45.2285552" lon="12.1428859"><ele>1.3333333333333333</ele><time>2026-04-26T10:18:06.899Z</time></trkpt><trkpt lat="45.2285062" lon="12.1429659"><ele>1.6666666666666665</ele><time>2026-04-26T10:18:08.9Z</time></trkpt><trkpt lat="45.2284534" lon="12.1430451"><ele>2.0</ele><time>2026-04-26T10:18:10.897Z</time></trkpt><trkpt lat="45.2283972" lon="12.1431223"><ele>2.0</ele><time>2026-04-26T10:18:12.899Z</time></trkpt><trkpt lat="45.2283394" lon="12.1432024"><ele>2.0</ele><time>2026-04-26T10:18:14.897Z</time></trkpt><trkpt lat="45.2282724" lon="12.1432888"><ele>2.0</ele><time>2026-04-26T10:18:16.9Z</time></trkpt><trkpt lat="45.2282053" lon="12.1433874"><ele>2.0</ele><time>2026-04-26T10:18:18.903Z</time></trkpt><trkpt lat="45.2281402" lon="12.1434941"><ele>2.0</ele><time>2026-04-26T10:18:20.901Z</time></trkpt><trkpt lat="45.2280761" lon="12.1435986"><ele>1.6666666666666665</ele><time>2026-04-26T10:18:22.905Z</time></trkpt><trkpt lat="45.2280115" lon="12.1437003"><ele>1.3333333333333333</ele><time>2026-04-26T10:18:24.902Z</time></trkpt><trkpt lat="45.2279397" lon="12.1437938"><ele>1.0</ele><time>2026-04-26T10:18:26.898Z</time></trkpt><trkpt lat="45.2278721" lon="12.143887"><ele>0.6666666666666666</ele><time>2026-04-26T10:18:28.897Z</time></trkpt><trkpt lat="45.2278074" lon="12.1439624"><ele>0.3333333333333333</ele><time>2026-04-26T10:18:30.892Z</time></trkpt><trkpt lat="45.2277396" lon="12.1440157"><ele>0.0</ele><time>2026-04-26T10:18:32.897Z</time></trkpt><trkpt lat="45.2276657" lon="12.1440484"><ele>0.0</ele><time>2026-04-26T10:18:34.898Z</time></trkpt><trkpt lat="45.2275856" lon="12.1440632"><ele>0.0</ele><time>2026-04-26T10:18:36.901Z</time></trkpt><trkpt lat="45.2275027" lon="12.1440552"><ele>0.0</ele><time>2026-04-26T10:18:38.903Z</time></trkpt><trkpt lat="45.2274224" lon="12.14404"><ele>0.0</ele><time>2026-04-26T10:18:40.9Z</time></trkpt><trkpt lat="45.227351" lon="12.1440164"><ele>0.0</ele><time>2026-04-26T10:18:42.899Z</time></trkpt><trkpt lat="45.2272817" lon="12.1440032"><ele>0.0</ele><time>2026-04-26T10:18:44.901Z</time></trkpt><trkpt lat="45.2272019" lon="12.1440072"><ele>-0.4</ele><time>2026-04-26T10:18:46.898Z</time></trkpt><trkpt lat="45.2271196" lon="12.1440563"><ele>-0.8</ele><time>2026-04-26T10:18:48.895Z</time></trkpt><trkpt lat="45.2270407" lon="12.1441232"><ele>-1.2000000000000002</ele><time>2026-04-26T10:18:50.904Z</time></trkpt><trkpt lat="45.2269842" lon="12.1442279"><ele>-1.6</ele><time>2026-04-26T10:18:52.888Z</time></trkpt><trkpt lat="45.226948" lon="12.1443501"><ele>-2.0</ele><time>2026-04-26T10:18:54.899Z</time></trkpt><trkpt lat="45.2269254" lon="12.144476"><ele>-1.9999999999999998</ele><time>2026-04-26T10:18:56.894Z</time></trkpt><trkpt lat="45.2269092" lon="12.1445977"><ele>-2.0</ele><time>2026-04-26T10:18:58.895Z</time></trkpt><trkpt lat="45.2268949" lon="12.1447084"><ele>-2.0</ele><time>2026-04-26T10:19:00.894Z</time></trkpt><trkpt lat="45.2268779" lon="12.1448143"><ele>-2.0</ele><time>2026-04-26T10:19:02.899Z</time></trkpt><trkpt lat="45.2268558" lon="12.1449325"><ele>-1.9999999999999998</ele><time>2026-04-26T10:19:04.892Z</time></trkpt><trkpt lat="45.2268377" lon="12.1450736"><ele>-2.0</ele><time>2026-04-26T10:19:06.898Z</time></trkpt><trkpt lat="45.2268218" lon="12.1452151"><ele>-1.8</ele><time>2026-04-26T10:19:08.899Z</time></trkpt><trkpt lat="45.2268025" lon="12.1453463"><ele>-1.6</ele><time>2026-04-26T10:19:10.894Z</time></trkpt><trkpt lat="45.2267753" lon="12.1454664"><ele>-1.4000000000000001</ele><time>2026-04-26T10:19:12.897Z</time></trkpt><trkpt lat="45.2267351" lon="12.1455811"><ele>-1.2000000000000002</ele><time>2026-04-26T10:19:14.899Z</time></trkpt><trkpt lat="45.2266879" lon="12.1456891"><ele>-1.0</ele><time>2026-04-26T10:19:16.9Z</time></trkpt><trkpt lat="45.2266318" lon="12.1457879"><ele>-0.8</ele><time>2026-04-26T10:19:18.894Z</time></trkpt><trkpt lat="45.2265689" lon="12.1458817"><ele>-0.6000000000000001</ele><time>2026-04-26T10:19:20.892Z</time></trkpt><trkpt lat="45.2265059" lon="12.1459778"><ele>-0.4</ele><time>2026-04-26T10:19:22.895Z</time></trkpt><trkpt lat="45.2264423" lon="12.1460743"><ele>-0.2</ele><time>2026-04-26T10:19:24.903Z</time></trkpt><trkpt lat="45.2263813" lon="12.1461742"><ele>0.0</ele><time>2026-04-26T10:19:26.903Z</time></trkpt><trkpt lat="45.2263206" lon="12.1462735"><ele>0.0</ele><time>2026-04-26T10:19:28.901Z</time></trkpt><trkpt lat="45.2262557" lon="12.1463687"><ele>0.0</ele><time>2026-04-26T10:19:30.897Z</time></trkpt><trkpt lat="45.2261897" lon="12.1464664"><ele>0.0</ele><time>2026-04-26T10:19:32.901Z</time></trkpt><trkpt lat="45.2261216" lon="12.1465617"><ele>0.0</ele><time>2026-04-26T10:19:34.894Z</time></trkpt><trkpt lat="45.2260536" lon="12.1466652"><ele>0.0</ele><time>2026-04-26T10:19:36.897Z</time></trkpt><trkpt lat="45.2259878" lon="12.1467723"><ele>0.0</ele><time>2026-04-26T10:19:38.898Z</time></trkpt><trkpt lat="45.2259221" lon="12.1468791"><ele>0.0</ele><time>2026-04-26T10:19:40.895Z</time></trkpt><trkpt lat="45.2258556" lon="12.1469851"><ele>0.0</ele><time>2026-04-26T10:19:42.901Z</time></trkpt><trkpt lat="45.225785" lon="12.1470875"><ele>0.0</ele><time>2026-04-26T10:19:44.9Z</time></trkpt><trkpt lat="45.2257123" lon="12.1471892"><ele>0.0</ele><time>2026-04-26T10:19:46.901Z</time></trkpt><trkpt lat="45.2256384" lon="12.1472947"><ele>-0.2</ele><time>2026-04-26T10:19:48.897Z</time></trkpt><trkpt lat="45.2255632" lon="12.1473983"><ele>-0.4</ele><time>2026-04-26T10:19:50.893Z</time></trkpt><trkpt lat="45.2254928" lon="12.1475084"><ele>-0.6000000000000001</ele><time>2026-04-26T10:19:52.901Z</time></trkpt><trkpt lat="45.2254253" lon="12.1476179"><ele>-0.8</ele><time>2026-04-26T10:19:54.896Z</time></trkpt><trkpt lat="45.2253594" lon="12.1477237"><ele>-1.0</ele><time>2026-04-26T10:19:56.897Z</time></trkpt><trkpt lat="45.2252921" lon="12.1478246"><ele>-1.0</ele><time>2026-04-26T10:19:58.892Z</time></trkpt><trkpt lat="45.2252239" lon="12.147925"><ele>-1.0</ele><time>2026-04-26T10:20:00.897Z</time></trkpt><trkpt lat="45.2251571" lon="12.1480278"><ele>-1.0</ele><time>2026-04-26T10:20:02.895Z</time></trkpt><trkpt lat="45.2250913" lon="12.1481286"><ele>-1.0</ele><time>2026-04-26T10:20:04.895Z</time></trkpt><trkpt lat="45.2250252" lon="12.1482299"><ele>-1.0</ele><time>2026-04-26T10:20:06.895Z</time></trkpt><trkpt lat="45.2249587" lon="12.1483297"><ele>-1.0</ele><time>2026-04-26T10:20:08.897Z</time></trkpt><trkpt lat="45.2248882" lon="12.1484315"><ele>-1.0</ele><time>2026-04-26T10:20:10.894Z</time></trkpt><trkpt lat="45.2248196" lon="12.148535"><ele>-1.0</ele><time>2026-04-26T10:20:12.9Z</time></trkpt><trkpt lat="45.2247523" lon="12.1486396"><ele>-1.0</ele><time>2026-04-26T10:20:14.899Z</time></trkpt><trkpt lat="45.2246841" lon="12.1487427"><ele>-1.0</ele><time>2026-04-26T10:20:16.898Z</time></trkpt><trkpt lat="45.2246166" lon="12.1488444"><ele>-1.0</ele><time>2026-04-26T10:20:18.898Z</time></trkpt><trkpt lat="45.2245474" lon="12.1489469"><ele>-1.0</ele><time>2026-04-26T10:20:20.893Z</time></trkpt><trkpt lat="45.2244734" lon="12.1490527"><ele>-1.0</ele><time>2026-04-26T10:20:22.902Z</time></trkpt><trkpt lat="45.2244052" lon="12.1491555"><ele>-1.0</ele><time>2026-04-26T10:20:24.892Z</time></trkpt><trkpt lat="45.2243309" lon="12.1492567"><ele>-1.0</ele><time>2026-04-26T10:20:26.891Z</time></trkpt><trkpt lat="45.2242611" lon="12.1493626"><ele>-1.0</ele><time>2026-04-26T10:20:28.891Z</time></trkpt><trkpt lat="45.2241995" lon="12.1494654"><ele>-1.0</ele><time>2026-04-26T10:20:30.894Z</time></trkpt><trkpt lat="45.2241331" lon="12.149564"><ele>-1.0</ele><time>2026-04-26T10:20:32.892Z</time></trkpt><trkpt lat="45.22406" lon="12.1496687"><ele>-1.0</ele><time>2026-04-26T10:20:34.895Z</time></trkpt><trkpt lat="45.2239891" lon="12.1497774"><ele>-1.0</ele><time>2026-04-26T10:20:36.891Z</time></trkpt><trkpt lat="45.2239168" lon="12.149884"><ele>-1.0</ele><time>2026-04-26T10:20:38.9Z</time></trkpt><trkpt lat="45.2238503" lon="12.1499898"><ele>-1.0</ele><time>2026-04-26T10:20:40.898Z</time></trkpt><trkpt lat="45.2237813" lon="12.1500917"><ele>-1.0</ele><time>2026-04-26T10:20:42.9Z</time></trkpt><trkpt lat="45.2237157" lon="12.1502022"><ele>-1.0</ele><time>2026-04-26T10:20:44.901Z</time></trkpt><trkpt lat="45.2236528" lon="12.1503132"><ele>-1.0</ele><time>2026-04-26T10:20:46.896Z</time></trkpt><trkpt lat="45.2235829" lon="12.1504202"><ele>-1.0</ele><time>2026-04-26T10:20:48.896Z</time></trkpt><trkpt lat="45.2235109" lon="12.1505297"><ele>-1.0</ele><time>2026-04-26T10:20:50.901Z</time></trkpt><trkpt lat="45.2234376" lon="12.1506348"><ele>-1.0</ele><time>2026-04-26T10:20:52.905Z</time></trkpt><trkpt lat="45.2233617" lon="12.1507428"><ele>-1.0</ele><time>2026-04-26T10:20:54.9Z</time></trkpt><trkpt lat="45.2232896" lon="12.1508468"><ele>-1.0</ele><time>2026-04-26T10:20:56.895Z</time></trkpt><trkpt lat="45.2232217" lon="12.1509453"><ele>-1.0</ele><time>2026-04-26T10:20:58.895Z</time></trkpt><trkpt lat="45.2231558" lon="12.1510527"><ele>-1.0</ele><time>2026-04-26T10:21:00.897Z</time></trkpt><trkpt lat="45.2230866" lon="12.1511607"><ele>-1.0</ele><time>2026-04-26T10:21:02.901Z</time></trkpt><trkpt lat="45.2230124" lon="12.1512689"><ele>-1.0</ele><time>2026-04-26T10:21:04.898Z</time></trkpt><trkpt lat="45.2229411" lon="12.151377"><ele>-1.0</ele><time>2026-04-26T10:21:06.898Z</time></trkpt><trkpt lat="45.2228703" lon="12.1514814"><ele>-1.0</ele><time>2026-04-26T10:21:08.9Z</time></trkpt><trkpt lat="45.2228013" lon="12.1515875"><ele>-1.0</ele><time>2026-04-26T10:21:10.897Z</time></trkpt><trkpt lat="45.2227358" lon="12.1516929"><ele>-1.0</ele><time>2026-04-26T10:21:12.9Z</time></trkpt><trkpt lat="45.2226684" lon="12.1517975"><ele>-1.0</ele><time>2026-04-26T10:21:14.895Z</time></trkpt><trkpt lat="45.2225957" lon="12.1519026"><ele>-1.0</ele><time>2026-04-26T10:21:16.899Z</time></trkpt><trkpt lat="45.2225247" lon="12.152008"><ele>-1.0</ele><time>2026-04-26T10:21:18.9Z</time></trkpt><trkpt lat="45.2224533" lon="12.1521114"><ele>-1.0</ele><time>2026-04-26T10:21:20.899Z</time></trkpt><trkpt lat="45.2223817" lon="12.152214"><ele>-1.0</ele><time>2026-04-26T10:21:22.905Z</time></trkpt><trkpt lat="45.2223102" lon="12.1523171"><ele>-1.0</ele><time>2026-04-26T10:21:24.901Z</time></trkpt><trkpt lat="45.2222392" lon="12.1524194"><ele>-1.0</ele><time>2026-04-26T10:21:26.897Z</time></trkpt><trkpt lat="45.2221671" lon="12.1525263"><ele>-0.8</ele><time>2026-04-26T10:21:28.901Z</time></trkpt><trkpt lat="45.2220929" lon="12.152629"><ele>-0.6000000000000001</ele><time>2026-04-26T10:21:30.892Z</time></trkpt><trkpt lat="45.2220207" lon="12.152732"><ele>-0.4</ele><time>2026-04-26T10:21:32.903Z</time></trkpt><trkpt lat="45.2219441" lon="12.1528338"><ele>-0.2</ele><time>2026-04-26T10:21:34.9Z</time></trkpt><trkpt lat="45.2218668" lon="12.1529486"><ele>0.0</ele><time>2026-04-26T10:21:36.897Z</time></trkpt><trkpt lat="45.2217881" lon="12.153057"><ele>0.0</ele><time>2026-04-26T10:21:38.903Z</time></trkpt><trkpt lat="45.2217161" lon="12.1531735"><ele>0.0</ele><time>2026-04-26T10:21:40.9Z</time></trkpt><trkpt lat="45.221645" lon="12.1532874"><ele>0.0</ele><time>2026-04-26T10:21:42.9Z</time></trkpt><trkpt lat="45.2215692" lon="12.1533968"><ele>0.0</ele><time>2026-04-26T10:21:44.894Z</time></trkpt><trkpt lat="45.2214935" lon="12.1535057"><ele>0.0</ele><time>2026-04-26T10:21:46.9Z</time></trkpt><trkpt lat="45.2214196" lon="12.1536147"><ele>-0.2</ele><time>2026-04-26T10:21:48.898Z</time></trkpt><trkpt lat="45.2213464" lon="12.1537206"><ele>-0.4</ele><time>2026-04-26T10:21:50.9Z</time></trkpt><trkpt lat="45.2212769" lon="12.1538202"><ele>-0.6000000000000001</ele><time>2026-04-26T10:21:52.905Z</time></trkpt><trkpt lat="45.2212044" lon="12.1539196"><ele>-0.8</ele><time>2026-04-26T10:21:54.9Z</time></trkpt><trkpt lat="45.2211313" lon="12.1540207"><ele>-1.0</ele><time>2026-04-26T10:21:56.898Z</time></trkpt><trkpt lat="45.221059" lon="12.1541266"><ele>-1.0</ele><time>2026-04-26T10:21:58.897Z</time></trkpt><trkpt lat="45.2209882" lon="12.1542334"><ele>-1.0</ele><time>2026-04-26T10:22:00.89Z</time></trkpt><trkpt lat="45.2209121" lon="12.1543357"><ele>-1.0</ele><time>2026-04-26T10:22:02.905Z</time></trkpt><trkpt lat="45.2208382" lon="12.1544324"><ele>-1.0</ele><time>2026-04-26T10:22:04.899Z</time></trkpt><trkpt lat="45.2207695" lon="12.1545358"><ele>-1.0</ele><time>2026-04-26T10:22:06.899Z</time></trkpt><trkpt lat="45.2207013" lon="12.1546365"><ele>-1.0</ele><time>2026-04-26T10:22:08.901Z</time></trkpt><trkpt lat="45.2206215" lon="12.1547253"><ele>-1.0</ele><time>2026-04-26T10:22:10.896Z</time></trkpt><trkpt lat="45.2205223" lon="12.1547857"><ele>-1.0</ele><time>2026-04-26T10:22:12.899Z</time></trkpt><trkpt lat="45.2204173" lon="12.1548284"><ele>-1.0</ele><time>2026-04-26T10:22:14.895Z</time></trkpt><trkpt lat="45.2203143" lon="12.1548653"><ele>-1.0</ele><time>2026-04-26T10:22:16.9Z</time></trkpt><trkpt lat="45.2202234" lon="12.1549082"><ele>-0.9999999999999999</ele><time>2026-04-26T10:22:18.904Z</time></trkpt><trkpt lat="45.2201585" lon="12.1549828"><ele>-1.0</ele><time>2026-04-26T10:22:20.898Z</time></trkpt><trkpt lat="45.2201073" lon="12.155081"><ele>-1.0</ele><time>2026-04-26T10:22:22.898Z</time></trkpt><trkpt lat="45.220056" lon="12.1551853"><ele>-1.0</ele><time>2026-04-26T10:22:24.897Z</time></trkpt><trkpt lat="45.220002" lon="12.1552893"><ele>-0.9999999999999999</ele><time>2026-04-26T10:22:26.896Z</time></trkpt><trkpt lat="45.2199586" lon="12.1554069"><ele>-1.0</ele><time>2026-04-26T10:22:28.9Z</time></trkpt><trkpt lat="45.2199371" lon="12.1555481"><ele>-1.0</ele><time>2026-04-26T10:22:30.898Z</time></trkpt><trkpt lat="45.2199402" lon="12.1557001"><ele>-1.0</ele><time>2026-04-26T10:22:32.902Z</time></trkpt><trkpt lat="45.2199269" lon="12.1558374"><ele>-1.0</ele><time>2026-04-26T10:22:34.893Z</time></trkpt><trkpt lat="45.2198877" lon="12.1559685"><ele>-1.0</ele><time>2026-04-26T10:22:36.896Z</time></trkpt><trkpt lat="45.2198264" lon="12.1560803"><ele>-1.0</ele><time>2026-04-26T10:22:38.896Z</time></trkpt><trkpt lat="45.2197518" lon="12.1561696"><ele>-1.0</ele><time>2026-04-26T10:22:40.894Z</time></trkpt><trkpt lat="45.2196798" lon="12.1562493"><ele>-1.0</ele><time>2026-04-26T10:22:42.898Z</time></trkpt><trkpt lat="45.2196144" lon="12.1563426"><ele>-1.0</ele><time>2026-04-26T10:22:44.894Z</time></trkpt><trkpt lat="45.2195482" lon="12.1564403"><ele>-1.0</ele><time>2026-04-26T10:22:46.892Z</time></trkpt><trkpt lat="45.2194822" lon="12.1565387"><ele>-1.0</ele><time>2026-04-26T10:22:48.908Z</time></trkpt><trkpt lat="45.2194174" lon="12.1566351"><ele>-0.8</ele><time>2026-04-26T10:22:50.901Z</time></trkpt><trkpt lat="45.2193516" lon="12.1567294"><ele>-0.6000000000000001</ele><time>2026-04-26T10:22:52.902Z</time></trkpt><trkpt lat="45.2192862" lon="12.1568217"><ele>-0.4</ele><time>2026-04-26T10:22:54.892Z</time></trkpt><trkpt lat="45.2192216" lon="12.1569162"><ele>-0.2</ele><time>2026-04-26T10:22:56.903Z</time></trkpt><trkpt lat="45.219157" lon="12.1570047"><ele>0.0</ele><time>2026-04-26T10:22:58.897Z</time></trkpt><trkpt lat="45.2190915" lon="12.1570961"><ele>0.0</ele><time>2026-04-26T10:23:00.895Z</time></trkpt><trkpt lat="45.219026" lon="12.1571975"><ele>0.0</ele><time>2026-04-26T10:23:02.903Z</time></trkpt><trkpt lat="45.2189606" lon="12.1573071"><ele>0.0</ele><time>2026-04-26T10:23:04.897Z</time></trkpt><trkpt lat="45.2188952" lon="12.1574089"><ele>0.0</ele><time>2026-04-26T10:23:06.893Z</time></trkpt><trkpt lat="45.2188334" lon="12.1575089"><ele>0.0</ele><time>2026-04-26T10:23:08.897Z</time></trkpt><trkpt lat="45.2187703" lon="12.1576074"><ele>-0.2</ele><time>2026-04-26T10:23:10.903Z</time></trkpt><trkpt lat="45.2187071" lon="12.1577096"><ele>-0.4</ele><time>2026-04-26T10:23:12.904Z</time></trkpt><trkpt lat="45.2186422" lon="12.1578115"><ele>-0.6000000000000001</ele><time>2026-04-26T10:23:14.899Z</time></trkpt><trkpt lat="45.2185774" lon="12.1579104"><ele>-0.8</ele><time>2026-04-26T10:23:16.899Z</time></trkpt><trkpt lat="45.2185137" lon="12.1580082"><ele>-1.0</ele><time>2026-04-26T10:23:18.904Z</time></trkpt><trkpt lat="45.2184474" lon="12.1581059"><ele>-1.0</ele><time>2026-04-26T10:23:20.901Z</time></trkpt><trkpt lat="45.218381" lon="12.1582052"><ele>-1.0</ele><time>2026-04-26T10:23:22.904Z</time></trkpt><trkpt lat="45.2183131" lon="12.1583047"><ele>-1.0</ele><time>2026-04-26T10:23:24.899Z</time></trkpt><trkpt lat="45.2182442" lon="12.1584043"><ele>-1.0</ele><time>2026-04-26T10:23:26.901Z</time></trkpt><trkpt lat="45.2181753" lon="12.1585034"><ele>-1.0</ele><time>2026-04-26T10:23:28.901Z</time></trkpt><trkpt lat="45.2181075" lon="12.1586078"><ele>-1.4</ele><time>2026-04-26T10:23:30.898Z</time></trkpt><trkpt lat="45.2180421" lon="12.1587149"><ele>-1.8</ele><time>2026-04-26T10:23:32.904Z</time></trkpt><trkpt lat="45.217972" lon="12.1588212"><ele>-2.1999999999999997</ele><time>2026-04-26T10:23:34.894Z</time></trkpt><trkpt lat="45.2179014" lon="12.1589291"><ele>-2.6</ele><time>2026-04-26T10:23:36.897Z</time></trkpt><trkpt lat="45.2178302" lon="12.1590378"><ele>-3.0</ele><time>2026-04-26T10:23:38.9Z</time></trkpt><trkpt lat="45.2177598" lon="12.1591448"><ele>-3.0</ele><time>2026-04-26T10:23:40.896Z</time></trkpt><trkpt lat="45.2176902" lon="12.1592487"><ele>-3.0</ele><time>2026-04-26T10:23:42.9Z</time></trkpt><trkpt lat="45.2176208" lon="12.15935"><ele>-3.0</ele><time>2026-04-26T10:23:44.9Z</time></trkpt><trkpt lat="45.2175511" lon="12.1594518"><ele>-3.0</ele><time>2026-04-26T10:23:46.896Z</time></trkpt><trkpt lat="45.2174799" lon="12.1595567"><ele>-3.0</ele><time>2026-04-26T10:23:48.896Z</time></trkpt><trkpt lat="45.2174106" lon="12.1596597"><ele>-3.0</ele><time>2026-04-26T10:23:50.898Z</time></trkpt><trkpt lat="45.2173406" lon="12.1597611"><ele>-3.0</ele><time>2026-04-26T10:23:52.905Z</time></trkpt><trkpt lat="45.2172723" lon="12.1598645"><ele>-3.0</ele><time>2026-04-26T10:23:54.899Z</time></trkpt><trkpt lat="45.2172061" lon="12.1599727"><ele>-3.0</ele><time>2026-04-26T10:23:56.893Z</time></trkpt><trkpt lat="45.2171373" lon="12.1600827"><ele>-3.0</ele><time>2026-04-26T10:23:58.898Z</time></trkpt><trkpt lat="45.2170615" lon="12.1601788"><ele>-2.8</ele><time>2026-04-26T10:24:00.891Z</time></trkpt><trkpt lat="45.2169934" lon="12.1602834"><ele>-2.5999999999999996</ele><time>2026-04-26T10:24:02.905Z</time></trkpt><trkpt lat="45.2169208" lon="12.1603943"><ele>-2.4000000000000004</ele><time>2026-04-26T10:24:04.9Z</time></trkpt><trkpt lat="45.2168524" lon="12.1604898"><ele>-2.2</ele><time>2026-04-26T10:24:06.895Z</time></trkpt><trkpt lat="45.2167844" lon="12.1605926"><ele>-2.0</ele><time>2026-04-26T10:24:08.898Z</time></trkpt><trkpt lat="45.2167166" lon="12.1607022"><ele>-2.0</ele><time>2026-04-26T10:24:10.899Z</time></trkpt><trkpt lat="45.2166479" lon="12.1608094"><ele>-2.0</ele><time>2026-04-26T10:24:12.907Z</time></trkpt><trkpt lat="45.2165796" lon="12.1609177"><ele>-2.0</ele><time>2026-04-26T10:24:14.894Z</time></trkpt><trkpt lat="45.2165093" lon="12.1610264"><ele>-2.0</ele><time>2026-04-26T10:24:16.897Z</time></trkpt><trkpt lat="45.2164354" lon="12.1611343"><ele>-2.0</ele><time>2026-04-26T10:24:18.897Z</time></trkpt><trkpt lat="45.2163647" lon="12.1612393"><ele>-2.0</ele><time>2026-04-26T10:24:20.901Z</time></trkpt><trkpt lat="45.216294" lon="12.161343"><ele>-2.0</ele><time>2026-04-26T10:24:22.905Z</time></trkpt><trkpt lat="45.2162237" lon="12.1614445"><ele>-2.0</ele><time>2026-04-26T10:24:24.897Z</time></trkpt><trkpt lat="45.2161572" lon="12.1615434"><ele>-2.0</ele><time>2026-04-26T10:24:26.896Z</time></trkpt><trkpt lat="45.2160909" lon="12.161643"><ele>-2.0</ele><time>2026-04-26T10:24:28.897Z</time></trkpt><trkpt lat="45.2160245" lon="12.1617426"><ele>-1.8</ele><time>2026-04-26T10:24:30.9Z</time></trkpt><trkpt lat="45.2159565" lon="12.1618441"><ele>-1.6</ele><time>2026-04-26T10:24:32.901Z</time></trkpt><trkpt lat="45.2158887" lon="12.1619509"><ele>-1.4000000000000001</ele><time>2026-04-26T10:24:34.9Z</time></trkpt><trkpt lat="45.2158199" lon="12.1620545"><ele>-1.2000000000000002</ele><time>2026-04-26T10:24:36.896Z</time></trkpt><trkpt lat="45.215748" lon="12.1621622"><ele>-1.0</ele><time>2026-04-26T10:24:38.898Z</time></trkpt><trkpt lat="45.215675" lon="12.1622703"><ele>-1.2000000000000002</ele><time>2026-04-26T10:24:40.899Z</time></trkpt><trkpt lat="45.2156005" lon="12.1623843"><ele>-1.4000000000000001</ele><time>2026-04-26T10:24:42.902Z</time></trkpt><trkpt lat="45.2155269" lon="12.1625001"><ele>-1.6</ele><time>2026-04-26T10:24:44.899Z</time></trkpt><trkpt lat="45.2154549" lon="12.1626169"><ele>-1.8</ele><time>2026-04-26T10:24:46.898Z</time></trkpt><trkpt lat="45.2153849" lon="12.1627299"><ele>-2.0</ele><time>2026-04-26T10:24:48.904Z</time></trkpt><trkpt lat="45.2153115" lon="12.1628387"><ele>-2.0</ele><time>2026-04-26T10:24:50.902Z</time></trkpt><trkpt lat="45.2152369" lon="12.1629435"><ele>-2.0</ele><time>2026-04-26T10:24:52.905Z</time></trkpt><trkpt lat="45.2151648" lon="12.1630522"><ele>-2.0</ele><time>2026-04-26T10:24:54.896Z</time></trkpt><trkpt lat="45.2150938" lon="12.1631623"><ele>-2.0</ele><time>2026-04-26T10:24:56.895Z</time></trkpt><trkpt lat="45.2150224" lon="12.1632691"><ele>-2.0</ele><time>2026-04-26T10:24:58.897Z</time></trkpt><trkpt lat="45.2149467" lon="12.1633733"><ele>-2.0</ele><time>2026-04-26T10:25:00.899Z</time></trkpt><trkpt lat="45.2148689" lon="12.1634895"><ele>-2.0</ele><time>2026-04-26T10:25:02.9Z</time></trkpt><trkpt lat="45.2147903" lon="12.1636102"><ele>-2.0</ele><time>2026-04-26T10:25:04.898Z</time></trkpt><trkpt lat="45.2147136" lon="12.1637293"><ele>-2.0</ele><time>2026-04-26T10:25:06.898Z</time></trkpt><trkpt lat="45.2146394" lon="12.1638416"><ele>-2.0</ele><time>2026-04-26T10:25:08.895Z</time></trkpt><trkpt lat="45.2145623" lon="12.1639479"><ele>-2.0</ele><time>2026-04-26T10:25:10.9Z</time></trkpt><trkpt lat="45.214493" lon="12.1640595"><ele>-2.0</ele><time>2026-04-26T10:25:12.894Z</time></trkpt><trkpt lat="45.2144249" lon="12.1641704"><ele>-2.0</ele><time>2026-04-26T10:25:14.897Z</time></trkpt><trkpt lat="45.2143566" lon="12.1642767"><ele>-2.0</ele><time>2026-04-26T10:25:16.899Z</time></trkpt><trkpt lat="45.2142833" lon="12.1643825"><ele>-2.0</ele><time>2026-04-26T10:25:18.901Z</time></trkpt><trkpt lat="45.2142117" lon="12.1644896"><ele>-2.0</ele><time>2026-04-26T10:25:20.894Z</time></trkpt><trkpt lat="45.2141405" lon="12.1645958"><ele>-2.0</ele><time>2026-04-26T10:25:22.897Z</time></trkpt><trkpt lat="45.21407" lon="12.1647066"><ele>-2.0</ele><time>2026-04-26T10:25:24.893Z</time></trkpt><trkpt lat="45.2139989" lon="12.1648161"><ele>-2.0</ele><time>2026-04-26T10:25:26.905Z</time></trkpt><trkpt lat="45.2139314" lon="12.1649219"><ele>-2.0</ele><time>2026-04-26T10:25:28.893Z</time></trkpt><trkpt lat="45.2138629" lon="12.165021"><ele>-2.0</ele><time>2026-04-26T10:25:30.898Z</time></trkpt><trkpt lat="45.2137962" lon="12.1651166"><ele>-2.0</ele><time>2026-04-26T10:25:32.896Z</time></trkpt><trkpt lat="45.2137286" lon="12.1652087"><ele>-2.0</ele><time>2026-04-26T10:25:34.895Z</time></trkpt><trkpt lat="45.2136634" lon="12.1653035"><ele>-2.0</ele><time>2026-04-26T10:25:36.9Z</time></trkpt><trkpt lat="45.2135993" lon="12.1654005"><ele>-1.9999999999999998</ele><time>2026-04-26T10:25:38.897Z</time></trkpt><trkpt lat="45.213539" lon="12.1654952"><ele>-2.0</ele><time>2026-04-26T10:25:40.893Z</time></trkpt><trkpt lat="45.2134831" lon="12.1655837"><ele>-2.0</ele><time>2026-04-26T10:25:42.907Z</time></trkpt><trkpt lat="45.2134351" lon="12.1656698"><ele>-2.0</ele><time>2026-04-26T10:25:44.896Z</time></trkpt><trkpt lat="45.2133933" lon="12.1657474"><ele>-1.9999999999999998</ele><time>2026-04-26T10:25:46.895Z</time></trkpt><trkpt lat="45.2133474" lon="12.1658517"><ele>-2.0</ele><time>2026-04-26T10:25:49.895Z</time></trkpt><trkpt lat="45.2132975" lon="12.1659329"><ele>-1.8333333333333333</ele><time>2026-04-26T10:25:52.898Z</time></trkpt><trkpt lat="45.213219" lon="12.1660189"><ele>-1.6666666666666665</ele><time>2026-04-26T10:25:55.899Z</time></trkpt><trkpt lat="45.2131625" lon="12.1660996"><ele>-1.5</ele><time>2026-04-26T10:25:57.897Z</time></trkpt><trkpt lat="45.2131065" lon="12.1661819"><ele>-1.3333333333333333</ele><time>2026-04-26T10:25:59.901Z</time></trkpt><trkpt lat="45.2130525" lon="12.1662661"><ele>-1.1666666666666665</ele><time>2026-04-26T10:26:01.896Z</time></trkpt><trkpt lat="45.212995" lon="12.1663552"><ele>-1.0</ele><time>2026-04-26T10:26:03.896Z</time></trkpt><trkpt lat="45.2129315" lon="12.1664537"><ele>-1.4</ele><time>2026-04-26T10:26:05.896Z</time></trkpt><trkpt lat="45.2128625" lon="12.1665541"><ele>-1.8</ele><time>2026-04-26T10:26:07.899Z</time></trkpt><trkpt lat="45.2127967" lon="12.1666523"><ele>-2.1999999999999997</ele><time>2026-04-26T10:26:09.894Z</time></trkpt><trkpt lat="45.2127335" lon="12.1667476"><ele>-2.6</ele><time>2026-04-26T10:26:11.896Z</time></trkpt><trkpt lat="45.2126714" lon="12.1668387"><ele>-3.0</ele><time>2026-04-26T10:26:13.895Z</time></trkpt><trkpt lat="45.2126091" lon="12.1669338"><ele>-3.0</ele><time>2026-04-26T10:26:15.897Z</time></trkpt><trkpt lat="45.2125456" lon="12.167029"><ele>-3.0</ele><time>2026-04-26T10:26:17.899Z</time></trkpt><trkpt lat="45.2124799" lon="12.1671261"><ele>-3.0</ele><time>2026-04-26T10:26:19.9Z</time></trkpt><trkpt lat="45.2124133" lon="12.1672233"><ele>-3.0</ele><time>2026-04-26T10:26:21.893Z</time></trkpt><trkpt lat="45.2123477" lon="12.1673303"><ele>-3.0</ele><time>2026-04-26T10:26:23.897Z</time></trkpt><trkpt lat="45.2122857" lon="12.1674294"><ele>-2.8333333333333335</ele><time>2026-04-26T10:26:25.891Z</time></trkpt><trkpt lat="45.2122228" lon="12.1675195"><ele>-2.6666666666666665</ele><time>2026-04-26T10:26:27.891Z</time></trkpt><trkpt lat="45.2121597" lon="12.1676111"><ele>-2.5</ele><time>2026-04-26T10:26:29.897Z</time></trkpt><trkpt lat="45.2120962" lon="12.1677007"><ele>-2.333333333333333</ele><time>2026-04-26T10:26:31.896Z</time></trkpt><trkpt lat="45.2120347" lon="12.1677933"><ele>-2.1666666666666665</ele><time>2026-04-26T10:26:33.898Z</time></trkpt><trkpt lat="45.2119734" lon="12.1678848"><ele>-2.0</ele><time>2026-04-26T10:26:35.901Z</time></trkpt><trkpt lat="45.2119117" lon="12.1679805"><ele>-2.0</ele><time>2026-04-26T10:26:37.9Z</time></trkpt><trkpt lat="45.2118513" lon="12.1680766"><ele>-2.0</ele><time>2026-04-26T10:26:39.897Z</time></trkpt><trkpt lat="45.2117903" lon="12.1681709"><ele>-2.0</ele><time>2026-04-26T10:26:41.894Z</time></trkpt><trkpt lat="45.2117264" lon="12.1682601"><ele>-2.0</ele><time>2026-04-26T10:26:43.894Z</time></trkpt><trkpt lat="45.211664" lon="12.1683535"><ele>-2.0</ele><time>2026-04-26T10:26:45.894Z</time></trkpt><trkpt lat="45.2115986" lon="12.1684535"><ele>-1.8</ele><time>2026-04-26T10:26:47.901Z</time></trkpt><trkpt lat="45.2115299" lon="12.1685619"><ele>-1.6</ele><time>2026-04-26T10:26:49.895Z</time></trkpt><trkpt lat="45.2114611" lon="12.1686627"><ele>-1.4000000000000001</ele><time>2026-04-26T10:26:51.901Z</time></trkpt><trkpt lat="45.2113933" lon="12.1687612"><ele>-1.2000000000000002</ele><time>2026-04-26T10:26:53.898Z</time></trkpt><trkpt lat="45.2113267" lon="12.1688583"><ele>-1.0</ele><time>2026-04-26T10:26:55.899Z</time></trkpt><trkpt lat="45.2112617" lon="12.168955"><ele>-1.4</ele><time>2026-04-26T10:26:57.9Z</time></trkpt><trkpt lat="45.2111937" lon="12.1690505"><ele>-1.8</ele><time>2026-04-26T10:26:59.899Z</time></trkpt><trkpt lat="45.2111304" lon="12.1691495"><ele>-2.1999999999999997</ele><time>2026-04-26T10:27:01.897Z</time></trkpt><trkpt lat="45.2110681" lon="12.1692435"><ele>-2.6</ele><time>2026-04-26T10:27:03.896Z</time></trkpt><trkpt lat="45.211007" lon="12.1693345"><ele>-3.0</ele><time>2026-04-26T10:27:05.894Z</time></trkpt><trkpt lat="45.2109455" lon="12.1694228"><ele>-3.0</ele><time>2026-04-26T10:27:07.899Z</time></trkpt><trkpt lat="45.2108816" lon="12.1695163"><ele>-3.0</ele><time>2026-04-26T10:27:09.893Z</time></trkpt><trkpt lat="45.2108158" lon="12.169611"><ele>-3.0</ele><time>2026-04-26T10:27:11.894Z</time></trkpt><trkpt lat="45.2107486" lon="12.1697138"><ele>-3.0</ele><time>2026-04-26T10:27:13.893Z</time></trkpt><trkpt lat="45.210679" lon="12.1698191"><ele>-3.0</ele><time>2026-04-26T10:27:15.899Z</time></trkpt><trkpt lat="45.210607" lon="12.1699227"><ele>-3.0</ele><time>2026-04-26T10:27:17.892Z</time></trkpt><trkpt lat="45.2105355" lon="12.1700285"><ele>-3.0</ele><time>2026-04-26T10:27:19.894Z</time></trkpt><trkpt lat="45.2104651" lon="12.1701363"><ele>-3.0</ele><time>2026-04-26T10:27:21.896Z</time></trkpt><trkpt lat="45.2103928" lon="12.1702462"><ele>-3.0</ele><time>2026-04-26T10:27:23.896Z</time></trkpt><trkpt lat="45.2103199" lon="12.1703509"><ele>-3.0</ele><time>2026-04-26T10:27:25.895Z</time></trkpt><trkpt lat="45.2102527" lon="12.1704522"><ele>-3.0</ele><time>2026-04-26T10:27:27.899Z</time></trkpt><trkpt lat="45.2101859" lon="12.1705498"><ele>-3.0</ele><time>2026-04-26T10:27:29.897Z</time></trkpt><trkpt lat="45.2101197" lon="12.1706535"><ele>-3.0</ele><time>2026-04-26T10:27:31.89Z</time></trkpt><trkpt lat="45.2100522" lon="12.1707602"><ele>-3.0</ele><time>2026-04-26T10:27:33.89Z</time></trkpt><trkpt lat="45.2099868" lon="12.1708608"><ele>-3.0</ele><time>2026-04-26T10:27:35.892Z</time></trkpt><trkpt lat="45.209921" lon="12.170958"><ele>-3.2</ele><time>2026-04-26T10:27:37.899Z</time></trkpt><trkpt lat="45.2098566" lon="12.1710547"><ele>-3.4</ele><time>2026-04-26T10:27:39.898Z</time></trkpt><trkpt lat="45.2097893" lon="12.1711608"><ele>-3.6000000000000005</ele><time>2026-04-26T10:27:41.9Z</time></trkpt><trkpt lat="45.209718" lon="12.1712665"><ele>-3.8000000000000003</ele><time>2026-04-26T10:27:43.896Z</time></trkpt><trkpt lat="45.2096454" lon="12.1713694"><ele>-4.0</ele><time>2026-04-26T10:27:45.902Z</time></trkpt><trkpt lat="45.2095768" lon="12.1714765"><ele>-3.8000000000000003</ele><time>2026-04-26T10:27:47.9Z</time></trkpt><trkpt lat="45.2095081" lon="12.1715784"><ele>-3.6000000000000005</ele><time>2026-04-26T10:27:49.897Z</time></trkpt><trkpt lat="45.209442" lon="12.1716849"><ele>-3.4</ele><time>2026-04-26T10:27:51.893Z</time></trkpt><trkpt lat="45.2093728" lon="12.1717925"><ele>-3.2</ele><time>2026-04-26T10:27:53.892Z</time></trkpt><trkpt lat="45.2093033" lon="12.171891"><ele>-3.0</ele><time>2026-04-26T10:27:55.894Z</time></trkpt><trkpt lat="45.2092349" lon="12.1719888"><ele>-3.0</ele><time>2026-04-26T10:27:57.895Z</time></trkpt><trkpt lat="45.2091688" lon="12.1720867"><ele>-3.0</ele><time>2026-04-26T10:27:59.898Z</time></trkpt><trkpt lat="45.209107" lon="12.1721697"><ele>-3.0</ele><time>2026-04-26T10:28:01.894Z</time></trkpt><trkpt lat="45.2090518" lon="12.1722335"><ele>-3.0</ele><time>2026-04-26T10:28:03.898Z</time></trkpt><trkpt lat="45.2089991" lon="12.1722963"><ele>-3.0</ele><time>2026-04-26T10:28:05.888Z</time></trkpt><trkpt lat="45.2089559" lon="12.172372"><ele>-3.0</ele><time>2026-04-26T10:28:07.892Z</time></trkpt><trkpt lat="45.2089054" lon="12.1724604"><ele>-3.0</ele><time>2026-04-26T10:28:10.897Z</time></trkpt><trkpt lat="45.2088642" lon="12.1725391"><ele>-3.0</ele><time>2026-04-26T10:28:14.899Z</time></trkpt><trkpt lat="45.2088423" lon="12.1726313"><ele>-3.0</ele><time>2026-04-26T10:28:17.898Z</time></trkpt><trkpt lat="45.2088824" lon="12.1727544"><ele>-3.0</ele><time>2026-04-26T10:28:20.893Z</time></trkpt><trkpt lat="45.2089334" lon="12.1728218"><ele>-3.0</ele><time>2026-04-26T10:28:22.892Z</time></trkpt><trkpt lat="45.208992" lon="12.1729024"><ele>-3.0</ele><time>2026-04-26T10:28:25.888Z</time></trkpt><trkpt lat="45.2090456" lon="12.172965"><ele>-2.8571428571428568</ele><time>2026-04-26T10:28:28.892Z</time></trkpt><trkpt lat="45.2091212" lon="12.1729361"><ele>-2.7142857142857144</ele><time>2026-04-26T10:28:31.896Z</time></trkpt><trkpt lat="45.209169" lon="12.1728682"><ele>-2.571428571428571</ele><time>2026-04-26T10:28:33.895Z</time></trkpt><trkpt lat="45.2092138" lon="12.172789"><ele>-2.4285714285714284</ele><time>2026-04-26T10:28:35.897Z</time></trkpt><trkpt lat="45.2092633" lon="12.1727109"><ele>-2.2857142857142856</ele><time>2026-04-26T10:28:37.893Z</time></trkpt><trkpt lat="45.2093119" lon="12.1726339"><ele>-2.142857142857143</ele><time>2026-04-26T10:28:39.893Z</time></trkpt><trkpt lat="45.2093575" lon="12.1725594"><ele>-2.0</ele><time>2026-04-26T10:28:41.891Z</time></trkpt><trkpt lat="45.2094052" lon="12.1724945"><ele>-2.0</ele><time>2026-04-26T10:28:43.896Z</time></trkpt><trkpt lat="45.2094541" lon="12.1724285"><ele>-1.9999999999999998</ele><time>2026-04-26T10:28:45.894Z</time></trkpt><trkpt lat="45.2095029" lon="12.1723585"><ele>-2.0</ele><time>2026-04-26T10:28:47.898Z</time></trkpt><trkpt lat="45.2095509" lon="12.1722849"><ele>-2.0</ele><time>2026-04-26T10:28:49.895Z</time></trkpt><trkpt lat="45.2096007" lon="12.1722091"><ele>-1.9999999999999998</ele><time>2026-04-26T10:28:51.894Z</time></trkpt><trkpt lat="45.2096523" lon="12.1721359"><ele>-2.0</ele><time>2026-04-26T10:28:53.9Z</time></trkpt><trkpt lat="45.209702" lon="12.1720601"><ele>-2.0</ele><time>2026-04-26T10:28:55.902Z</time></trkpt><trkpt lat="45.2097524" lon="12.1719875"><ele>-2.142857142857143</ele><time>2026-04-26T10:28:57.894Z</time></trkpt><trkpt lat="45.2098042" lon="12.1719124"><ele>-2.2857142857142856</ele><time>2026-04-26T10:28:59.897Z</time></trkpt><trkpt lat="45.2098548" lon="12.1718338"><ele>-2.4285714285714284</ele><time>2026-04-26T10:29:01.899Z</time></trkpt><trkpt lat="45.2099071" lon="12.1717602"><ele>-2.571428571428571</ele><time>2026-04-26T10:29:03.894Z</time></trkpt><trkpt lat="45.2099632" lon="12.1716993"><ele>-2.7142857142857144</ele><time>2026-04-26T10:29:05.899Z</time></trkpt><trkpt lat="45.2100293" lon="12.1716705"><ele>-2.8571428571428568</ele><time>2026-04-26T10:29:07.895Z</time></trkpt><trkpt lat="45.2100957" lon="12.1716748"><ele>-3.0</ele><time>2026-04-26T10:29:09.896Z</time></trkpt><trkpt lat="45.2101571" lon="12.171699"><ele>-2.571428571428571</ele><time>2026-04-26T10:29:11.898Z</time></trkpt><trkpt lat="45.2102333" lon="12.1717447"><ele>-2.142857142857143</ele><time>2026-04-26T10:29:14.898Z</time></trkpt><trkpt lat="45.2103207" lon="12.1717885"><ele>-1.7142857142857142</ele><time>2026-04-26T10:29:17.899Z</time></trkpt><trkpt lat="45.2103832" lon="12.1718212"><ele>-1.2857142857142856</ele><time>2026-04-26T10:29:19.894Z</time></trkpt><trkpt lat="45.2104459" lon="12.1718635"><ele>-0.8571428571428571</ele><time>2026-04-26T10:29:21.902Z</time></trkpt><trkpt lat="45.2105061" lon="12.1718972"><ele>-0.42857142857142855</ele><time>2026-04-26T10:29:23.899Z</time></trkpt><trkpt lat="45.2105693" lon="12.1719336"><ele>0.0</ele><time>2026-04-26T10:29:25.897Z</time></trkpt><trkpt lat="45.2106297" lon="12.1719628"><ele>-0.16666666666666666</ele><time>2026-04-26T10:29:27.896Z</time></trkpt><trkpt lat="45.2107149" lon="12.1720046"><ele>-0.3333333333333333</ele><time>2026-04-26T10:29:30.895Z</time></trkpt><trkpt lat="45.2108054" lon="12.1720493"><ele>-0.5</ele><time>2026-04-26T10:29:33.902Z</time></trkpt><trkpt lat="45.2108625" lon="12.1720899"><ele>-0.6666666666666666</ele><time>2026-04-26T10:29:35.898Z</time></trkpt><trkpt lat="45.2109187" lon="12.1721422"><ele>-0.8333333333333333</ele><time>2026-04-26T10:29:37.899Z</time></trkpt><trkpt lat="45.2109282" lon="12.1722669"><ele>-1.0</ele><time>2026-04-26T10:29:40.894Z</time></trkpt><trkpt lat="45.210873" lon="12.172369"><ele>-0.9999999999999999</ele><time>2026-04-26T10:29:43.896Z</time></trkpt><trkpt lat="45.2108259" lon="12.1724505"><ele>-1.0</ele><time>2026-04-26T10:29:46.895Z</time></trkpt><trkpt lat="45.2107792" lon="12.1725687"><ele>-1.0</ele><time>2026-04-26T10:29:49.895Z</time></trkpt><trkpt lat="45.2107223" lon="12.1726483"><ele>-1.0</ele><time>2026-04-26T10:29:51.894Z</time></trkpt><trkpt lat="45.2106674" lon="12.1727333"><ele>-0.9999999999999999</ele><time>2026-04-26T10:29:53.893Z</time></trkpt><trkpt lat="45.2106085" lon="12.1728174"><ele>-1.0</ele><time>2026-04-26T10:29:55.897Z</time></trkpt><trkpt lat="45.2105463" lon="12.1729007"><ele>-0.9999999999999999</ele><time>2026-04-26T10:29:57.899Z</time></trkpt><trkpt lat="45.2104852" lon="12.1729826"><ele>-1.0</ele><time>2026-04-26T10:29:59.895Z</time></trkpt><trkpt lat="45.2104278" lon="12.1730647"><ele>-1.0</ele><time>2026-04-26T10:30:01.891Z</time></trkpt><trkpt lat="45.2103648" lon="12.173144"><ele>-1.0</ele><time>2026-04-26T10:30:03.891Z</time></trkpt><trkpt lat="45.2103034" lon="12.1732289"><ele>-0.9999999999999999</ele><time>2026-04-26T10:30:05.89Z</time></trkpt><trkpt lat="45.2102437" lon="12.1733162"><ele>-1.0</ele><time>2026-04-26T10:30:07.888Z</time></trkpt><trkpt lat="45.2101795" lon="12.173408"><ele>-0.8</ele><time>2026-04-26T10:30:09.889Z</time></trkpt><trkpt lat="45.2101126" lon="12.1735037"><ele>-0.6000000000000001</ele><time>2026-04-26T10:30:11.891Z</time></trkpt><trkpt lat="45.2100416" lon="12.1736013"><ele>-0.4</ele><time>2026-04-26T10:30:13.894Z</time></trkpt><trkpt lat="45.2099721" lon="12.1737011"><ele>-0.2</ele><time>2026-04-26T10:30:15.898Z</time></trkpt><trkpt lat="45.2099042" lon="12.1738033"><ele>0.0</ele><time>2026-04-26T10:30:17.897Z</time></trkpt><trkpt lat="45.209834" lon="12.173903"><ele>-0.2</ele><time>2026-04-26T10:30:19.895Z</time></trkpt><trkpt lat="45.2097612" lon="12.1740051"><ele>-0.4</ele><time>2026-04-26T10:30:21.899Z</time></trkpt><trkpt lat="45.209688" lon="12.1741103"><ele>-0.6000000000000001</ele><time>2026-04-26T10:30:23.898Z</time></trkpt><trkpt lat="45.2096192" lon="12.1742167"><ele>-0.8</ele><time>2026-04-26T10:30:25.896Z</time></trkpt><trkpt lat="45.2095504" lon="12.1743186"><ele>-1.0</ele><time>2026-04-26T10:30:27.891Z</time></trkpt><trkpt lat="45.2094784" lon="12.1744197"><ele>-1.0</ele><time>2026-04-26T10:30:29.894Z</time></trkpt><trkpt lat="45.2094128" lon="12.1745197"><ele>-1.0</ele><time>2026-04-26T10:30:31.894Z</time></trkpt><trkpt lat="45.2093436" lon="12.1746183"><ele>-1.0</ele><time>2026-04-26T10:30:33.89Z</time></trkpt><trkpt lat="45.20927" lon="12.1747168"><ele>-1.0</ele><time>2026-04-26T10:30:35.892Z</time></trkpt><trkpt lat="45.2091976" lon="12.1748135"><ele>-1.0</ele><time>2026-04-26T10:30:37.892Z</time></trkpt><trkpt lat="45.2091263" lon="12.174917"><ele>-1.0</ele><time>2026-04-26T10:30:39.893Z</time></trkpt><trkpt lat="45.2090549" lon="12.1750185"><ele>-1.0</ele><time>2026-04-26T10:30:41.898Z</time></trkpt><trkpt lat="45.2089814" lon="12.1751223"><ele>-1.0</ele><time>2026-04-26T10:30:43.897Z</time></trkpt><trkpt lat="45.208908" lon="12.1752271"><ele>-1.0</ele><time>2026-04-26T10:30:45.889Z</time></trkpt><trkpt lat="45.2088354" lon="12.1753335"><ele>-1.0</ele><time>2026-04-26T10:30:47.891Z</time></trkpt><trkpt lat="45.2087618" lon="12.1754357"><ele>-1.0</ele><time>2026-04-26T10:30:49.895Z</time></trkpt><trkpt lat="45.2086873" lon="12.1755403"><ele>-1.0</ele><time>2026-04-26T10:30:51.891Z</time></trkpt><trkpt lat="45.2086122" lon="12.175641"><ele>-1.0</ele><time>2026-04-26T10:30:53.897Z</time></trkpt><trkpt lat="45.2085375" lon="12.1757463"><ele>-1.0</ele><time>2026-04-26T10:30:55.895Z</time></trkpt><trkpt lat="45.2084643" lon="12.1758501"><ele>-1.0</ele><time>2026-04-26T10:30:57.889Z</time></trkpt><trkpt lat="45.2083914" lon="12.1759529"><ele>-1.0</ele><time>2026-04-26T10:30:59.893Z</time></trkpt><trkpt lat="45.2083191" lon="12.1760589"><ele>-1.0</ele><time>2026-04-26T10:31:01.893Z</time></trkpt><trkpt lat="45.2082466" lon="12.1761722"><ele>-1.0</ele><time>2026-04-26T10:31:03.895Z</time></trkpt><trkpt lat="45.2081747" lon="12.176278"><ele>-1.0</ele><time>2026-04-26T10:31:05.899Z</time></trkpt><trkpt lat="45.2081056" lon="12.1763832"><ele>-1.0</ele><time>2026-04-26T10:31:07.89Z</time></trkpt><trkpt lat="45.2080337" lon="12.1764883"><ele>-0.8</ele><time>2026-04-26T10:31:09.895Z</time></trkpt><trkpt lat="45.2079634" lon="12.176594"><ele>-0.6000000000000001</ele><time>2026-04-26T10:31:11.893Z</time></trkpt><trkpt lat="45.2078926" lon="12.176698"><ele>-0.4</ele><time>2026-04-26T10:31:13.897Z</time></trkpt><trkpt lat="45.2078246" lon="12.1767971"><ele>-0.2</ele><time>2026-04-26T10:31:15.893Z</time></trkpt><trkpt lat="45.2077565" lon="12.1768951"><ele>0.0</ele><time>2026-04-26T10:31:17.892Z</time></trkpt><trkpt lat="45.2076883" lon="12.176994"><ele>0.0</ele><time>2026-04-26T10:31:19.898Z</time></trkpt><trkpt lat="45.2076176" lon="12.1770966"><ele>0.0</ele><time>2026-04-26T10:31:21.893Z</time></trkpt><trkpt lat="45.2075463" lon="12.1772032"><ele>0.0</ele><time>2026-04-26T10:31:23.889Z</time></trkpt><trkpt lat="45.2074737" lon="12.1773061"><ele>0.0</ele><time>2026-04-26T10:31:25.892Z</time></trkpt><trkpt lat="45.2074008" lon="12.1774058"><ele>0.0</ele><time>2026-04-26T10:31:27.894Z</time></trkpt><trkpt lat="45.2073284" lon="12.177507"><ele>-0.2</ele><time>2026-04-26T10:31:29.897Z</time></trkpt><trkpt lat="45.2072574" lon="12.1776049"><ele>-0.4</ele><time>2026-04-26T10:31:31.9Z</time></trkpt><trkpt lat="45.2071878" lon="12.1777051"><ele>-0.6000000000000001</ele><time>2026-04-26T10:31:33.895Z</time></trkpt><trkpt lat="45.2071173" lon="12.177805"><ele>-0.8</ele><time>2026-04-26T10:31:35.893Z</time></trkpt><trkpt lat="45.2070473" lon="12.1779033"><ele>-1.0</ele><time>2026-04-26T10:31:37.891Z</time></trkpt><trkpt lat="45.206976" lon="12.1780012"><ele>-1.0</ele><time>2026-04-26T10:31:39.892Z</time></trkpt><trkpt lat="45.2069052" lon="12.1781001"><ele>-1.0</ele><time>2026-04-26T10:31:41.896Z</time></trkpt><trkpt lat="45.2068374" lon="12.1782007"><ele>-1.0</ele><time>2026-04-26T10:31:43.886Z</time></trkpt><trkpt lat="45.2067686" lon="12.1783012"><ele>-1.0</ele><time>2026-04-26T10:31:45.889Z</time></trkpt><trkpt lat="45.2067026" lon="12.178401"><ele>-1.0</ele><time>2026-04-26T10:31:47.895Z</time></trkpt><trkpt lat="45.2066363" lon="12.1785025"><ele>-1.0</ele><time>2026-04-26T10:31:49.897Z</time></trkpt><trkpt lat="45.2065661" lon="12.1785987"><ele>-1.0</ele><time>2026-04-26T10:31:51.896Z</time></trkpt><trkpt lat="45.2064982" lon="12.1786979"><ele>-1.0</ele><time>2026-04-26T10:31:53.894Z</time></trkpt><trkpt lat="45.2064268" lon="12.178799"><ele>-1.0</ele><time>2026-04-26T10:31:55.894Z</time></trkpt><trkpt lat="45.206354" lon="12.1788997"><ele>-1.0</ele><time>2026-04-26T10:31:57.896Z</time></trkpt><trkpt lat="45.2062857" lon="12.1790024"><ele>-1.0</ele><time>2026-04-26T10:31:59.897Z</time></trkpt><trkpt lat="45.2062186" lon="12.1791034"><ele>-1.0</ele><time>2026-04-26T10:32:01.893Z</time></trkpt><trkpt lat="45.2061503" lon="12.179203"><ele>-1.0</ele><time>2026-04-26T10:32:03.888Z</time></trkpt><trkpt lat="45.2060821" lon="12.1793079"><ele>-1.0</ele><time>2026-04-26T10:32:05.888Z</time></trkpt><trkpt lat="45.2060155" lon="12.1794131"><ele>-1.0</ele><time>2026-04-26T10:32:07.894Z</time></trkpt><trkpt lat="45.2059505" lon="12.1795142"><ele>-1.0</ele><time>2026-04-26T10:32:09.893Z</time></trkpt><trkpt lat="45.2058829" lon="12.1796156"><ele>-1.0</ele><time>2026-04-26T10:32:11.89Z</time></trkpt><trkpt lat="45.2058167" lon="12.179717"><ele>-1.0</ele><time>2026-04-26T10:32:13.895Z</time></trkpt><trkpt lat="45.2057507" lon="12.1798249"><ele>-1.0</ele><time>2026-04-26T10:32:15.898Z</time></trkpt><trkpt lat="45.205684" lon="12.1799349"><ele>-1.0</ele><time>2026-04-26T10:32:17.893Z</time></trkpt><trkpt lat="45.2056163" lon="12.1800434"><ele>-1.0</ele><time>2026-04-26T10:32:19.893Z</time></trkpt><trkpt lat="45.2055505" lon="12.1801466"><ele>-1.0</ele><time>2026-04-26T10:32:21.893Z</time></trkpt><trkpt lat="45.2054885" lon="12.1802512"><ele>-1.0</ele><time>2026-04-26T10:32:23.892Z</time></trkpt><trkpt lat="45.2054239" lon="12.1803539"><ele>-1.0</ele><time>2026-04-26T10:32:25.895Z</time></trkpt><trkpt lat="45.2053598" lon="12.1804615"><ele>-1.0</ele><time>2026-04-26T10:32:27.894Z</time></trkpt><trkpt lat="45.2052941" lon="12.1805678"><ele>-1.0</ele><time>2026-04-26T10:32:29.893Z</time></trkpt><trkpt lat="45.2052261" lon="12.1806726"><ele>-1.0</ele><time>2026-04-26T10:32:31.895Z</time></trkpt><trkpt lat="45.205159" lon="12.1807727"><ele>-1.0</ele><time>2026-04-26T10:32:33.894Z</time></trkpt><trkpt lat="45.2050931" lon="12.1808752"><ele>-1.0</ele><time>2026-04-26T10:32:35.892Z</time></trkpt><trkpt lat="45.205027" lon="12.1809779"><ele>-1.0</ele><time>2026-04-26T10:32:37.889Z</time></trkpt><trkpt lat="45.2049587" lon="12.1810831"><ele>-1.0</ele><time>2026-04-26T10:32:39.895Z</time></trkpt><trkpt lat="45.2048931" lon="12.1811929"><ele>-1.0</ele><time>2026-04-26T10:32:41.896Z</time></trkpt><trkpt lat="45.2048258" lon="12.1813033"><ele>-1.0</ele><time>2026-04-26T10:32:43.895Z</time></trkpt><trkpt lat="45.2047609" lon="12.181416"><ele>-1.0</ele><time>2026-04-26T10:32:45.897Z</time></trkpt><trkpt lat="45.2046947" lon="12.1815253"><ele>-1.0</ele><time>2026-04-26T10:32:47.894Z</time></trkpt><trkpt lat="45.2046331" lon="12.1816354"><ele>-1.0</ele><time>2026-04-26T10:32:49.898Z</time></trkpt><trkpt lat="45.2045671" lon="12.1817456"><ele>-1.0</ele><time>2026-04-26T10:32:51.896Z</time></trkpt><trkpt lat="45.2044975" lon="12.181852"><ele>-1.0</ele><time>2026-04-26T10:32:53.888Z</time></trkpt><trkpt lat="45.2044289" lon="12.1819668"><ele>-1.0</ele><time>2026-04-26T10:32:55.895Z</time></trkpt><trkpt lat="45.2043589" lon="12.1820796"><ele>-1.0</ele><time>2026-04-26T10:32:57.896Z</time></trkpt><trkpt lat="45.2042861" lon="12.1821895"><ele>-1.0</ele><time>2026-04-26T10:32:59.893Z</time></trkpt><trkpt lat="45.2042172" lon="12.1823019"><ele>-1.0</ele><time>2026-04-26T10:33:01.89Z</time></trkpt><trkpt lat="45.2041494" lon="12.1824158"><ele>-1.0</ele><time>2026-04-26T10:33:03.891Z</time></trkpt><trkpt lat="45.204082" lon="12.1825277"><ele>-1.0</ele><time>2026-04-26T10:33:05.888Z</time></trkpt><trkpt lat="45.2040154" lon="12.1826434"><ele>-1.0</ele><time>2026-04-26T10:33:07.892Z</time></trkpt><trkpt lat="45.2039479" lon="12.1827611"><ele>-0.8</ele><time>2026-04-26T10:33:09.89Z</time></trkpt><trkpt lat="45.2038775" lon="12.1828747"><ele>-0.6000000000000001</ele><time>2026-04-26T10:33:11.894Z</time></trkpt><trkpt lat="45.203806" lon="12.1829869"><ele>-0.4</ele><time>2026-04-26T10:33:13.893Z</time></trkpt><trkpt lat="45.203737" lon="12.1830974"><ele>-0.2</ele><time>2026-04-26T10:33:15.893Z</time></trkpt><trkpt lat="45.2036699" lon="12.183208"><ele>0.0</ele><time>2026-04-26T10:33:17.894Z</time></trkpt><trkpt lat="45.2036011" lon="12.1833196"><ele>0.0</ele><time>2026-04-26T10:33:19.891Z</time></trkpt><trkpt lat="45.2035307" lon="12.1834311"><ele>0.0</ele><time>2026-04-26T10:33:21.895Z</time></trkpt><trkpt lat="45.2034589" lon="12.1835435"><ele>0.0</ele><time>2026-04-26T10:33:23.896Z</time></trkpt><trkpt lat="45.2033846" lon="12.1836551"><ele>0.0</ele><time>2026-04-26T10:33:25.894Z</time></trkpt><trkpt lat="45.2033081" lon="12.1837697"><ele>0.0</ele><time>2026-04-26T10:33:27.893Z</time></trkpt><trkpt lat="45.203229" lon="12.1838841"><ele>0.0</ele><time>2026-04-26T10:33:29.889Z</time></trkpt><trkpt lat="45.2031532" lon="12.1839979"><ele>0.0</ele><time>2026-04-26T10:33:31.889Z</time></trkpt><trkpt lat="45.2030769" lon="12.1841081"><ele>0.0</ele><time>2026-04-26T10:33:33.891Z</time></trkpt><trkpt lat="45.2030035" lon="12.1842171"><ele>0.0</ele><time>2026-04-26T10:33:35.894Z</time></trkpt><trkpt lat="45.2029319" lon="12.1843225"><ele>0.0</ele><time>2026-04-26T10:33:37.895Z</time></trkpt><trkpt lat="45.202861" lon="12.1844295"><ele>-0.2</ele><time>2026-04-26T10:33:39.889Z</time></trkpt><trkpt lat="45.2027913" lon="12.1845363"><ele>-0.4</ele><time>2026-04-26T10:33:41.899Z</time></trkpt><trkpt lat="45.2027202" lon="12.1846412"><ele>-0.6000000000000001</ele><time>2026-04-26T10:33:43.894Z</time></trkpt><trkpt lat="45.2026481" lon="12.1847443"><ele>-0.8</ele><time>2026-04-26T10:33:45.892Z</time></trkpt><trkpt lat="45.2025753" lon="12.1848494"><ele>-1.0</ele><time>2026-04-26T10:33:47.896Z</time></trkpt><trkpt lat="45.2025027" lon="12.184954"><ele>-1.0</ele><time>2026-04-26T10:33:49.897Z</time></trkpt><trkpt lat="45.2024265" lon="12.1850607"><ele>-1.0</ele><time>2026-04-26T10:33:51.895Z</time></trkpt><trkpt lat="45.2023517" lon="12.1851691"><ele>-1.0</ele><time>2026-04-26T10:33:53.887Z</time></trkpt><trkpt lat="45.2022789" lon="12.1852747"><ele>-1.0</ele><time>2026-04-26T10:33:55.893Z</time></trkpt><trkpt lat="45.2022089" lon="12.1853765"><ele>-1.0</ele><time>2026-04-26T10:33:57.894Z</time></trkpt><trkpt lat="45.2021362" lon="12.1854779"><ele>-1.0</ele><time>2026-04-26T10:33:59.894Z</time></trkpt><trkpt lat="45.2020573" lon="12.1855785"><ele>-1.0</ele><time>2026-04-26T10:34:01.893Z</time></trkpt><trkpt lat="45.2019803" lon="12.1856856"><ele>-1.0</ele><time>2026-04-26T10:34:03.893Z</time></trkpt><trkpt lat="45.2019039" lon="12.1857886"><ele>-1.0</ele><time>2026-04-26T10:34:05.894Z</time></trkpt><trkpt lat="45.2018325" lon="12.185896"><ele>-1.0</ele><time>2026-04-26T10:34:07.89Z</time></trkpt><trkpt lat="45.2017603" lon="12.1859998"><ele>-1.0</ele><time>2026-04-26T10:34:09.894Z</time></trkpt><trkpt lat="45.2016856" lon="12.1861068"><ele>-1.0</ele><time>2026-04-26T10:34:11.89Z</time></trkpt><trkpt lat="45.2016087" lon="12.1862142"><ele>-1.0</ele><time>2026-04-26T10:34:13.896Z</time></trkpt><trkpt lat="45.2015347" lon="12.1863141"><ele>-1.0</ele><time>2026-04-26T10:34:15.894Z</time></trkpt><trkpt lat="45.2014642" lon="12.1864164"><ele>-1.0</ele><time>2026-04-26T10:34:17.894Z</time></trkpt><trkpt lat="45.2013924" lon="12.1865209"><ele>-0.8</ele><time>2026-04-26T10:34:19.891Z</time></trkpt><trkpt lat="45.2013187" lon="12.186639"><ele>-0.6000000000000001</ele><time>2026-04-26T10:34:21.897Z</time></trkpt><trkpt lat="45.2012445" lon="12.1867571"><ele>-0.4</ele><time>2026-04-26T10:34:23.896Z</time></trkpt><trkpt lat="45.2011709" lon="12.1868709"><ele>-0.2</ele><time>2026-04-26T10:34:25.896Z</time></trkpt><trkpt lat="45.2010972" lon="12.1869801"><ele>0.0</ele><time>2026-04-26T10:34:27.888Z</time></trkpt><trkpt lat="45.2010253" lon="12.1870908"><ele>0.0</ele><time>2026-04-26T10:34:29.89Z</time></trkpt><trkpt lat="45.2009522" lon="12.1871966"><ele>0.0</ele><time>2026-04-26T10:34:31.891Z</time></trkpt><trkpt lat="45.2008808" lon="12.1873075"><ele>0.0</ele><time>2026-04-26T10:34:33.893Z</time></trkpt><trkpt lat="45.200812" lon="12.1874279"><ele>0.0</ele><time>2026-04-26T10:34:35.891Z</time></trkpt><trkpt lat="45.2007456" lon="12.1875421"><ele>0.0</ele><time>2026-04-26T10:34:37.89Z</time></trkpt><trkpt lat="45.2006787" lon="12.1876553"><ele>0.0</ele><time>2026-04-26T10:34:39.888Z</time></trkpt><trkpt lat="45.2006085" lon="12.1877651"><ele>0.0</ele><time>2026-04-26T10:34:41.893Z</time></trkpt><trkpt lat="45.2005358" lon="12.1878743"><ele>0.0</ele><time>2026-04-26T10:34:43.896Z</time></trkpt><trkpt lat="45.2004628" lon="12.1879869"><ele>0.0</ele><time>2026-04-26T10:34:45.893Z</time></trkpt><trkpt lat="45.200391" lon="12.1881059"><ele>0.0</ele><time>2026-04-26T10:34:47.892Z</time></trkpt><trkpt lat="45.2003219" lon="12.1882276"><ele>0.0</ele><time>2026-04-26T10:34:49.889Z</time></trkpt><trkpt lat="45.2002545" lon="12.1883528"><ele>0.0</ele><time>2026-04-26T10:34:51.893Z</time></trkpt><trkpt lat="45.2001838" lon="12.1884747"><ele>0.0</ele><time>2026-04-26T10:34:53.894Z</time></trkpt><trkpt lat="45.2001146" lon="12.1885938"><ele>0.0</ele><time>2026-04-26T10:34:55.893Z</time></trkpt><trkpt lat="45.2000476" lon="12.1887104"><ele>0.0</ele><time>2026-04-26T10:34:57.896Z</time></trkpt><trkpt lat="45.199982" lon="12.1888228"><ele>0.0</ele><time>2026-04-26T10:34:59.894Z</time></trkpt><trkpt lat="45.1999171" lon="12.1889365"><ele>0.0</ele><time>2026-04-26T10:35:01.893Z</time></trkpt><trkpt lat="45.1998525" lon="12.1890535"><ele>0.0</ele><time>2026-04-26T10:35:03.889Z</time></trkpt><trkpt lat="45.1997869" lon="12.1891697"><ele>0.0</ele><time>2026-04-26T10:35:05.892Z</time></trkpt><trkpt lat="45.1997224" lon="12.1892838"><ele>0.0</ele><time>2026-04-26T10:35:07.888Z</time></trkpt><trkpt lat="45.1996572" lon="12.1893956"><ele>-0.2</ele><time>2026-04-26T10:35:09.894Z</time></trkpt><trkpt lat="45.1995927" lon="12.1895081"><ele>-0.4</ele><time>2026-04-26T10:35:11.894Z</time></trkpt><trkpt lat="45.1995257" lon="12.1896234"><ele>-0.6000000000000001</ele><time>2026-04-26T10:35:13.892Z</time></trkpt><trkpt lat="45.1994582" lon="12.1897426"><ele>-0.8</ele><time>2026-04-26T10:35:15.894Z</time></trkpt><trkpt lat="45.1993895" lon="12.1898631"><ele>-1.0</ele><time>2026-04-26T10:35:17.893Z</time></trkpt><trkpt lat="45.1993216" lon="12.1899805"><ele>-1.0</ele><time>2026-04-26T10:35:19.893Z</time></trkpt><trkpt lat="45.1992554" lon="12.1901009"><ele>-1.0</ele><time>2026-04-26T10:35:21.893Z</time></trkpt><trkpt lat="45.1991872" lon="12.1902205"><ele>-1.0</ele><time>2026-04-26T10:35:23.894Z</time></trkpt><trkpt lat="45.1991197" lon="12.1903403"><ele>-1.0</ele><time>2026-04-26T10:35:25.896Z</time></trkpt><trkpt lat="45.199055" lon="12.1904639"><ele>-1.0</ele><time>2026-04-26T10:35:27.891Z</time></trkpt><trkpt lat="45.1989914" lon="12.1905889"><ele>-1.0</ele><time>2026-04-26T10:35:29.894Z</time></trkpt><trkpt lat="45.1989236" lon="12.1907085"><ele>-1.0</ele><time>2026-04-26T10:35:31.892Z</time></trkpt><trkpt lat="45.1988574" lon="12.1908287"><ele>-1.0</ele><time>2026-04-26T10:35:33.892Z</time></trkpt><trkpt lat="45.1987929" lon="12.1909467"><ele>-1.0</ele><time>2026-04-26T10:35:35.89Z</time></trkpt><trkpt lat="45.1987296" lon="12.1910666"><ele>-1.0</ele><time>2026-04-26T10:35:37.894Z</time></trkpt><trkpt lat="45.1986678" lon="12.1911881"><ele>-1.0</ele><time>2026-04-26T10:35:39.893Z</time></trkpt><trkpt lat="45.1986065" lon="12.1913121"><ele>-1.0</ele><time>2026-04-26T10:35:41.891Z</time></trkpt><trkpt lat="45.198544" lon="12.1914388"><ele>-1.0</ele><time>2026-04-26T10:35:43.895Z</time></trkpt><trkpt lat="45.1984787" lon="12.1915642"><ele>-1.0</ele><time>2026-04-26T10:35:45.897Z</time></trkpt><trkpt lat="45.1984182" lon="12.1916893"><ele>-1.0</ele><time>2026-04-26T10:35:47.897Z</time></trkpt><trkpt lat="45.1983641" lon="12.1918139"><ele>-1.0</ele><time>2026-04-26T10:35:49.894Z</time></trkpt><trkpt lat="45.1983056" lon="12.1919366"><ele>-1.0</ele><time>2026-04-26T10:35:51.886Z</time></trkpt><trkpt lat="45.1982457" lon="12.192064"><ele>-1.0</ele><time>2026-04-26T10:35:53.893Z</time></trkpt><trkpt lat="45.1981843" lon="12.1921903"><ele>-1.0</ele><time>2026-04-26T10:35:55.891Z</time></trkpt><trkpt lat="45.1981265" lon="12.1923175"><ele>-1.0</ele><time>2026-04-26T10:35:57.893Z</time></trkpt><trkpt lat="45.1980703" lon="12.192449"><ele>-1.0</ele><time>2026-04-26T10:35:59.896Z</time></trkpt><trkpt lat="45.1980097" lon="12.1925803"><ele>-1.0</ele><time>2026-04-26T10:36:01.894Z</time></trkpt><trkpt lat="45.1979491" lon="12.19271"><ele>-1.0</ele><time>2026-04-26T10:36:03.893Z</time></trkpt><trkpt lat="45.197892" lon="12.1928363"><ele>-1.0</ele><time>2026-04-26T10:36:05.896Z</time></trkpt><trkpt lat="45.1978353" lon="12.1929638"><ele>-1.0</ele><time>2026-04-26T10:36:07.893Z</time></trkpt><trkpt lat="45.1977771" lon="12.193092"><ele>-0.8</ele><time>2026-04-26T10:36:09.892Z</time></trkpt><trkpt lat="45.1977186" lon="12.1932232"><ele>-0.6000000000000001</ele><time>2026-04-26T10:36:11.891Z</time></trkpt><trkpt lat="45.197662" lon="12.1933579"><ele>-0.4</ele><time>2026-04-26T10:36:13.89Z</time></trkpt><trkpt lat="45.1976051" lon="12.1934904"><ele>-0.2</ele><time>2026-04-26T10:36:15.894Z</time></trkpt><trkpt lat="45.1975515" lon="12.1936235"><ele>0.0</ele><time>2026-04-26T10:36:17.891Z</time></trkpt><trkpt lat="45.1974959" lon="12.1937589"><ele>0.0</ele><time>2026-04-26T10:36:19.897Z</time></trkpt><trkpt lat="45.1974413" lon="12.193895"><ele>0.0</ele><time>2026-04-26T10:36:21.887Z</time></trkpt><trkpt lat="45.1973875" lon="12.1940311"><ele>0.0</ele><time>2026-04-26T10:36:23.893Z</time></trkpt><trkpt lat="45.1973335" lon="12.1941684"><ele>0.0</ele><time>2026-04-26T10:36:25.893Z</time></trkpt><trkpt lat="45.1972776" lon="12.1943045"><ele>0.0</ele><time>2026-04-26T10:36:27.891Z</time></trkpt><trkpt lat="45.197225" lon="12.1944406"><ele>-0.4</ele><time>2026-04-26T10:36:29.892Z</time></trkpt><trkpt lat="45.197169" lon="12.194577"><ele>-0.8</ele><time>2026-04-26T10:36:31.895Z</time></trkpt><trkpt lat="45.1971172" lon="12.1947161"><ele>-1.2000000000000002</ele><time>2026-04-26T10:36:33.89Z</time></trkpt><trkpt lat="45.1970681" lon="12.1948586"><ele>-1.6</ele><time>2026-04-26T10:36:35.89Z</time></trkpt><trkpt lat="45.1970177" lon="12.1949967"><ele>-2.0</ele><time>2026-04-26T10:36:37.895Z</time></trkpt><trkpt lat="45.1969646" lon="12.1951304"><ele>-2.0</ele><time>2026-04-26T10:36:39.89Z</time></trkpt><trkpt lat="45.1969093" lon="12.1952649"><ele>-2.0</ele><time>2026-04-26T10:36:41.895Z</time></trkpt><trkpt lat="45.1968542" lon="12.1953991"><ele>-2.0</ele><time>2026-04-26T10:36:43.894Z</time></trkpt><trkpt lat="45.1968024" lon="12.1955339"><ele>-2.0</ele><time>2026-04-26T10:36:45.893Z</time></trkpt><trkpt lat="45.1967492" lon="12.1956668"><ele>-2.0</ele><time>2026-04-26T10:36:47.893Z</time></trkpt><trkpt lat="45.196698" lon="12.1958008"><ele>-2.0</ele><time>2026-04-26T10:36:49.893Z</time></trkpt><trkpt lat="45.1966488" lon="12.1959345"><ele>-2.0</ele><time>2026-04-26T10:36:51.891Z</time></trkpt><trkpt lat="45.1965998" lon="12.1960697"><ele>-2.0</ele><time>2026-04-26T10:36:53.892Z</time></trkpt><trkpt lat="45.1965503" lon="12.1962029"><ele>-2.0</ele><time>2026-04-26T10:36:55.894Z</time></trkpt><trkpt lat="45.1965004" lon="12.1963332"><ele>-2.0</ele><time>2026-04-26T10:36:57.896Z</time></trkpt><trkpt lat="45.1964514" lon="12.1964583"><ele>-1.6</ele><time>2026-04-26T10:36:59.891Z</time></trkpt><trkpt lat="45.1964001" lon="12.1965865"><ele>-1.2000000000000002</ele><time>2026-04-26T10:37:01.892Z</time></trkpt><trkpt lat="45.1963449" lon="12.1967198"><ele>-0.8</ele><time>2026-04-26T10:37:03.894Z</time></trkpt><trkpt lat="45.1962916" lon="12.196858"><ele>-0.4</ele><time>2026-04-26T10:37:05.892Z</time></trkpt><trkpt lat="45.1962388" lon="12.1969964"><ele>0.0</ele><time>2026-04-26T10:37:07.891Z</time></trkpt><trkpt lat="45.1961912" lon="12.1971332"><ele>0.0</ele><time>2026-04-26T10:37:09.89Z</time></trkpt><trkpt lat="45.1961372" lon="12.197267"><ele>0.0</ele><time>2026-04-26T10:37:11.893Z</time></trkpt><trkpt lat="45.1960832" lon="12.1974004"><ele>0.0</ele><time>2026-04-26T10:37:13.887Z</time></trkpt><trkpt lat="45.1960295" lon="12.1975369"><ele>0.0</ele><time>2026-04-26T10:37:15.894Z</time></trkpt><trkpt lat="45.1959783" lon="12.1976702"><ele>0.0</ele><time>2026-04-26T10:37:17.887Z</time></trkpt><trkpt lat="45.1959214" lon="12.197801"><ele>0.0</ele><time>2026-04-26T10:37:19.892Z</time></trkpt><trkpt lat="45.1958687" lon="12.1979338"><ele>0.0</ele><time>2026-04-26T10:37:21.894Z</time></trkpt><trkpt lat="45.1958154" lon="12.1980637"><ele>0.0</ele><time>2026-04-26T10:37:23.893Z</time></trkpt><trkpt lat="45.1957626" lon="12.1981941"><ele>0.0</ele><time>2026-04-26T10:37:25.897Z</time></trkpt><trkpt lat="45.1957124" lon="12.1983298"><ele>0.0</ele><time>2026-04-26T10:37:27.89Z</time></trkpt><trkpt lat="45.1956613" lon="12.198467"><ele>0.0</ele><time>2026-04-26T10:37:29.891Z</time></trkpt><trkpt lat="45.1956115" lon="12.1986063"><ele>0.0</ele><time>2026-04-26T10:37:31.889Z</time></trkpt><trkpt lat="45.195563" lon="12.1987437"><ele>0.0</ele><time>2026-04-26T10:37:33.89Z</time></trkpt><trkpt lat="45.1955111" lon="12.1988752"><ele>0.0</ele><time>2026-04-26T10:37:35.892Z</time></trkpt><trkpt lat="45.1954587" lon="12.1990026"><ele>0.0</ele><time>2026-04-26T10:37:37.893Z</time></trkpt><trkpt lat="45.1954063" lon="12.1991333"><ele>0.2</ele><time>2026-04-26T10:37:39.891Z</time></trkpt><trkpt lat="45.1953532" lon="12.1992628"><ele>0.4</ele><time>2026-04-26T10:37:41.886Z</time></trkpt><trkpt lat="45.1953019" lon="12.1993944"><ele>0.6000000000000001</ele><time>2026-04-26T10:37:43.89Z</time></trkpt><trkpt lat="45.1952524" lon="12.1995296"><ele>0.8</ele><time>2026-04-26T10:37:45.894Z</time></trkpt><trkpt lat="45.1952004" lon="12.1996676"><ele>1.0</ele><time>2026-04-26T10:37:47.891Z</time></trkpt><trkpt lat="45.1951482" lon="12.199803"><ele>1.2000000000000002</ele><time>2026-04-26T10:37:49.894Z</time></trkpt><trkpt lat="45.1950944" lon="12.1999389"><ele>1.4000000000000001</ele><time>2026-04-26T10:37:51.891Z</time></trkpt><trkpt lat="45.1950379" lon="12.2000745"><ele>1.6</ele><time>2026-04-26T10:37:53.894Z</time></trkpt><trkpt lat="45.1949826" lon="12.2002087"><ele>1.8</ele><time>2026-04-26T10:37:55.894Z</time></trkpt><trkpt lat="45.1949309" lon="12.2003399"><ele>2.0</ele><time>2026-04-26T10:37:57.895Z</time></trkpt><trkpt lat="45.1948783" lon="12.2004702"><ele>2.0</ele><time>2026-04-26T10:37:59.895Z</time></trkpt><trkpt lat="45.1948268" lon="12.2006021"><ele>2.0</ele><time>2026-04-26T10:38:01.894Z</time></trkpt><trkpt lat="45.1947755" lon="12.2007386"><ele>2.0</ele><time>2026-04-26T10:38:03.889Z</time></trkpt><trkpt lat="45.1947261" lon="12.2008757"><ele>2.0</ele><time>2026-04-26T10:38:05.888Z</time></trkpt><trkpt lat="45.194676" lon="12.2010075"><ele>2.0</ele><time>2026-04-26T10:38:07.893Z</time></trkpt><trkpt lat="45.1946243" lon="12.2011379"><ele>1.4000000000000001</ele><time>2026-04-26T10:38:09.895Z</time></trkpt><trkpt lat="45.1945747" lon="12.2012708"><ele>0.8000000000000002</ele><time>2026-04-26T10:38:11.892Z</time></trkpt><trkpt lat="45.1945292" lon="12.2014021"><ele>0.19999999999999996</ele><time>2026-04-26T10:38:13.891Z</time></trkpt><trkpt lat="45.1944802" lon="12.2015234"><ele>-0.4</ele><time>2026-04-26T10:38:15.892Z</time></trkpt><trkpt lat="45.1944324" lon="12.2016372"><ele>-1.0</ele><time>2026-04-26T10:38:17.895Z</time></trkpt><trkpt lat="45.1943881" lon="12.2017454"><ele>-0.9999999999999999</ele><time>2026-04-26T10:38:19.894Z</time></trkpt><trkpt lat="45.1943418" lon="12.2018485"><ele>-1.0</ele><time>2026-04-26T10:38:21.889Z</time></trkpt><trkpt lat="45.1942929" lon="12.2019382"><ele>-1.0</ele><time>2026-04-26T10:38:23.895Z</time></trkpt><trkpt lat="45.194245" lon="12.2020209"><ele>-1.0</ele><time>2026-04-26T10:38:25.89Z</time></trkpt><trkpt lat="45.1941873" lon="12.2020826"><ele>-0.9999999999999999</ele><time>2026-04-26T10:38:27.889Z</time></trkpt><trkpt lat="45.1941272" lon="12.2021386"><ele>-1.0</ele><time>2026-04-26T10:38:29.896Z</time></trkpt><trkpt lat="45.1940706" lon="12.2021891"><ele>-0.8333333333333333</ele><time>2026-04-26T10:38:31.895Z</time></trkpt><trkpt lat="45.194002" lon="12.2022651"><ele>-0.6666666666666666</ele><time>2026-04-26T10:38:34.893Z</time></trkpt><trkpt lat="45.1939678" lon="12.2023406"><ele>-0.5</ele><time>2026-04-26T10:38:36.887Z</time></trkpt><trkpt lat="45.1939613" lon="12.2024713"><ele>-0.3333333333333333</ele><time>2026-04-26T10:38:39.894Z</time></trkpt><trkpt lat="45.1939758" lon="12.2025601"><ele>-0.16666666666666666</ele><time>2026-04-26T10:38:41.891Z</time></trkpt><trkpt lat="45.1939969" lon="12.2026461"><ele>0.0</ele><time>2026-04-26T10:38:43.892Z</time></trkpt><trkpt lat="45.1939993" lon="12.2027682"><ele>0.16666666666666666</ele><time>2026-04-26T10:38:46.889Z</time></trkpt><trkpt lat="45.1939583" lon="12.2028754"><ele>0.3333333333333333</ele><time>2026-04-26T10:38:49.89Z</time></trkpt><trkpt lat="45.1939236" lon="12.2029663"><ele>0.5</ele><time>2026-04-26T10:38:51.886Z</time></trkpt><trkpt lat="45.1938854" lon="12.2030636"><ele>0.6666666666666666</ele><time>2026-04-26T10:38:53.884Z</time></trkpt><trkpt lat="45.1938474" lon="12.2031615"><ele>0.8333333333333333</ele><time>2026-04-26T10:38:55.895Z</time></trkpt><trkpt lat="45.1938048" lon="12.2032606"><ele>1.0</ele><time>2026-04-26T10:38:57.895Z</time></trkpt><trkpt lat="45.1937648" lon="12.2033636"><ele>0.9999999999999999</ele><time>2026-04-26T10:38:59.895Z</time></trkpt><trkpt lat="45.1937277" lon="12.203475"><ele>1.0</ele><time>2026-04-26T10:39:01.891Z</time></trkpt><trkpt lat="45.1936912" lon="12.203587"><ele>1.0</ele><time>2026-04-26T10:39:03.897Z</time></trkpt><trkpt lat="45.193648" lon="12.2036945"><ele>1.0</ele><time>2026-04-26T10:39:05.887Z</time></trkpt><trkpt lat="45.1935982" lon="12.2037962"><ele>0.9999999999999999</ele><time>2026-04-26T10:39:07.893Z</time></trkpt><trkpt lat="45.1935577" lon="12.2039053"><ele>1.0</ele><time>2026-04-26T10:39:09.895Z</time></trkpt><trkpt lat="45.1935234" lon="12.2040192"><ele>1.0</ele><time>2026-04-26T10:39:11.892Z</time></trkpt><trkpt lat="45.1934802" lon="12.2041273"><ele>0.9999999999999999</ele><time>2026-04-26T10:39:13.892Z</time></trkpt><trkpt lat="45.1934405" lon="12.2042217"><ele>1.0</ele><time>2026-04-26T10:39:15.884Z</time></trkpt><trkpt lat="45.1934084" lon="12.204307"><ele>1.0</ele><time>2026-04-26T10:39:17.894Z</time></trkpt><trkpt lat="45.1933786" lon="12.2043932"><ele>0.9999999999999999</ele><time>2026-04-26T10:39:20.89Z</time></trkpt><trkpt lat="45.1934237" lon="12.2044622"><ele>1.0</ele><time>2026-04-26T10:39:31.889Z</time></trkpt><trkpt lat="45.1934797" lon="12.2045071"><ele>1.0</ele><time>2026-04-26T10:39:36.897Z</time></trkpt><trkpt lat="45.1935481" lon="12.2045565"><ele>1.0</ele><time>2026-04-26T10:39:41.892Z</time></trkpt><trkpt lat="45.1936188" lon="12.2046144"><ele>0.9999999999999999</ele><time>2026-04-26T10:39:45.89Z</time></trkpt><trkpt lat="45.1936808" lon="12.2046587"><ele>1.0</ele><time>2026-04-26T10:39:48.894Z</time></trkpt><trkpt lat="45.1937406" lon="12.2047033"><ele>1.0</ele><time>2026-04-26T10:39:51.887Z</time></trkpt><trkpt lat="45.1938011" lon="12.2047399"><ele>0.9999999999999999</ele><time>2026-04-26T10:39:54.893Z</time></trkpt><trkpt lat="45.1938594" lon="12.2047821"><ele>1.0</ele><time>2026-04-26T10:39:57.89Z</time></trkpt><trkpt lat="45.1939164" lon="12.2048326"><ele>1.0</ele><time>2026-04-26T10:40:02.891Z</time></trkpt><trkpt lat="45.1938839" lon="12.2049161"><ele>0.8571428571428571</ele><time>2026-04-26T10:40:05.894Z</time></trkpt><trkpt lat="45.1938443" lon="12.2049952"><ele>0.7142857142857142</ele><time>2026-04-26T10:40:07.894Z</time></trkpt><trkpt lat="45.1938147" lon="12.2050873"><ele>0.5714285714285714</ele><time>2026-04-26T10:40:09.891Z</time></trkpt><trkpt lat="45.1937833" lon="12.2051751"><ele>0.42857142857142855</ele><time>2026-04-26T10:40:11.893Z</time></trkpt><trkpt lat="45.1937507" lon="12.2052721"><ele>0.2857142857142857</ele><time>2026-04-26T10:40:13.894Z</time></trkpt><trkpt lat="45.1937153" lon="12.2053734"><ele>0.14285714285714285</ele><time>2026-04-26T10:40:15.886Z</time></trkpt><trkpt lat="45.1936708" lon="12.2054732"><ele>0.0</ele><time>2026-04-26T10:40:17.892Z</time></trkpt><trkpt lat="45.1936287" lon="12.2055846"><ele>-0.2</ele><time>2026-04-26T10:40:19.887Z</time></trkpt><trkpt lat="45.1935822" lon="12.2057016"><ele>-0.4</ele><time>2026-04-26T10:40:21.891Z</time></trkpt><trkpt lat="45.193536" lon="12.2058235"><ele>-0.6000000000000001</ele><time>2026-04-26T10:40:23.894Z</time></trkpt><trkpt lat="45.1934872" lon="12.2059483"><ele>-0.8</ele><time>2026-04-26T10:40:25.894Z</time></trkpt><trkpt lat="45.1934368" lon="12.2060717"><ele>-1.0</ele><time>2026-04-26T10:40:27.894Z</time></trkpt><trkpt lat="45.1933879" lon="12.2061926"><ele>-1.0</ele><time>2026-04-26T10:40:29.891Z</time></trkpt><trkpt lat="45.1933409" lon="12.2063151"><ele>-1.0</ele><time>2026-04-26T10:40:31.892Z</time></trkpt><trkpt lat="45.1932918" lon="12.2064412"><ele>-1.0</ele><time>2026-04-26T10:40:33.885Z</time></trkpt><trkpt lat="45.1932425" lon="12.2065723"><ele>-1.0</ele><time>2026-04-26T10:40:35.891Z</time></trkpt><trkpt lat="45.1931901" lon="12.2067017"><ele>-1.0</ele><time>2026-04-26T10:40:37.886Z</time></trkpt><trkpt lat="45.1931386" lon="12.2068296"><ele>-1.0</ele><time>2026-04-26T10:40:39.893Z</time></trkpt><trkpt lat="45.1930861" lon="12.2069609"><ele>-1.0</ele><time>2026-04-26T10:40:41.888Z</time></trkpt><trkpt lat="45.1930342" lon="12.2070914"><ele>-1.0</ele><time>2026-04-26T10:40:43.891Z</time></trkpt><trkpt lat="45.1929843" lon="12.2072171"><ele>-1.0</ele><time>2026-04-26T10:40:45.891Z</time></trkpt><trkpt lat="45.1929342" lon="12.2073431"><ele>-1.0</ele><time>2026-04-26T10:40:47.895Z</time></trkpt><trkpt lat="45.192887" lon="12.2074728"><ele>-1.0</ele><time>2026-04-26T10:40:49.895Z</time></trkpt><trkpt lat="45.1928381" lon="12.2075982"><ele>-1.0</ele><time>2026-04-26T10:40:51.886Z</time></trkpt><trkpt lat="45.1927868" lon="12.2077273"><ele>-1.0</ele><time>2026-04-26T10:40:53.887Z</time></trkpt><trkpt lat="45.1927335" lon="12.2078602"><ele>-1.0</ele><time>2026-04-26T10:40:55.893Z</time></trkpt><trkpt lat="45.1926837" lon="12.2079959"><ele>-1.0</ele><time>2026-04-26T10:40:57.89Z</time></trkpt><trkpt lat="45.1926321" lon="12.2081336"><ele>-1.0</ele><time>2026-04-26T10:40:59.896Z</time></trkpt><trkpt lat="45.1925833" lon="12.2082695"><ele>-1.0</ele><time>2026-04-26T10:41:01.892Z</time></trkpt><trkpt lat="45.192535" lon="12.2084032"><ele>-1.0</ele><time>2026-04-26T10:41:03.894Z</time></trkpt><trkpt lat="45.1924865" lon="12.2085353"><ele>-1.0</ele><time>2026-04-26T10:41:05.89Z</time></trkpt><trkpt lat="45.1924325" lon="12.2086681"><ele>-1.0</ele><time>2026-04-26T10:41:07.891Z</time></trkpt><trkpt lat="45.1923795" lon="12.2088024"><ele>-1.2000000000000002</ele><time>2026-04-26T10:41:09.894Z</time></trkpt><trkpt lat="45.192329" lon="12.2089321"><ele>-1.4000000000000001</ele><time>2026-04-26T10:41:11.896Z</time></trkpt><trkpt lat="45.1922788" lon="12.2090609"><ele>-1.6</ele><time>2026-04-26T10:41:13.89Z</time></trkpt><trkpt lat="45.1922273" lon="12.2091946"><ele>-1.8</ele><time>2026-04-26T10:41:15.891Z</time></trkpt><trkpt lat="45.1921782" lon="12.2093313"><ele>-2.0</ele><time>2026-04-26T10:41:17.895Z</time></trkpt><trkpt lat="45.1921278" lon="12.2094678"><ele>-2.0</ele><time>2026-04-26T10:41:19.892Z</time></trkpt><trkpt lat="45.192082" lon="12.2096036"><ele>-2.0</ele><time>2026-04-26T10:41:21.893Z</time></trkpt><trkpt lat="45.1920307" lon="12.2097379"><ele>-2.0</ele><time>2026-04-26T10:41:23.889Z</time></trkpt><trkpt lat="45.191984" lon="12.2098727"><ele>-2.0</ele><time>2026-04-26T10:41:25.89Z</time></trkpt><trkpt lat="45.1919378" lon="12.2100105"><ele>-2.0</ele><time>2026-04-26T10:41:27.887Z</time></trkpt><trkpt lat="45.1918862" lon="12.2101464"><ele>-2.0</ele><time>2026-04-26T10:41:29.891Z</time></trkpt><trkpt lat="45.1918361" lon="12.2102772"><ele>-2.0</ele><time>2026-04-26T10:41:31.888Z</time></trkpt><trkpt lat="45.1917858" lon="12.2104119"><ele>-2.0</ele><time>2026-04-26T10:41:33.886Z</time></trkpt><trkpt lat="45.1917368" lon="12.2105494"><ele>-2.0</ele><time>2026-04-26T10:41:35.891Z</time></trkpt><trkpt lat="45.1916888" lon="12.2106869"><ele>-2.0</ele><time>2026-04-26T10:41:37.89Z</time></trkpt><trkpt lat="45.1916427" lon="12.2108251"><ele>-2.0</ele><time>2026-04-26T10:41:39.886Z</time></trkpt><trkpt lat="45.1915998" lon="12.2109641"><ele>-2.0</ele><time>2026-04-26T10:41:41.887Z</time></trkpt><trkpt lat="45.1915525" lon="12.2111005"><ele>-2.0</ele><time>2026-04-26T10:41:43.892Z</time></trkpt><trkpt lat="45.1915076" lon="12.2112359"><ele>-2.0</ele><time>2026-04-26T10:41:45.894Z</time></trkpt><trkpt lat="45.1914607" lon="12.2113695"><ele>-2.0</ele><time>2026-04-26T10:41:47.889Z</time></trkpt><trkpt lat="45.1914154" lon="12.2115065"><ele>-2.0</ele><time>2026-04-26T10:41:49.893Z</time></trkpt><trkpt lat="45.1913685" lon="12.2116419"><ele>-2.0</ele><time>2026-04-26T10:41:51.89Z</time></trkpt><trkpt lat="45.1913239" lon="12.2117759"><ele>-2.0</ele><time>2026-04-26T10:41:53.888Z</time></trkpt><trkpt lat="45.1912786" lon="12.2119086"><ele>-2.0</ele><time>2026-04-26T10:41:55.889Z</time></trkpt><trkpt lat="45.1912325" lon="12.2120401"><ele>-2.0</ele><time>2026-04-26T10:41:57.887Z</time></trkpt><trkpt lat="45.1911871" lon="12.2121772"><ele>-2.0</ele><time>2026-04-26T10:41:59.891Z</time></trkpt><trkpt lat="45.1911424" lon="12.2123126"><ele>-2.0</ele><time>2026-04-26T10:42:01.894Z</time></trkpt><trkpt lat="45.1910983" lon="12.2124486"><ele>-2.0</ele><time>2026-04-26T10:42:03.892Z</time></trkpt><trkpt lat="45.1910555" lon="12.2125826"><ele>-2.0</ele><time>2026-04-26T10:42:05.888Z</time></trkpt><trkpt lat="45.1910103" lon="12.2127181"><ele>-2.0</ele><time>2026-04-26T10:42:07.891Z</time></trkpt><trkpt lat="45.1909644" lon="12.2128565"><ele>-2.0</ele><time>2026-04-26T10:42:09.886Z</time></trkpt><trkpt lat="45.1909213" lon="12.2129949"><ele>-2.0</ele><time>2026-04-26T10:42:11.889Z</time></trkpt><trkpt lat="45.1908784" lon="12.2131375"><ele>-2.0</ele><time>2026-04-26T10:42:13.89Z</time></trkpt><trkpt lat="45.1908346" lon="12.2132772"><ele>-2.0</ele><time>2026-04-26T10:42:15.889Z</time></trkpt><trkpt lat="45.1907914" lon="12.2134165"><ele>-2.0</ele><time>2026-04-26T10:42:17.889Z</time></trkpt><trkpt lat="45.1907481" lon="12.2135523"><ele>-2.0</ele><time>2026-04-26T10:42:19.892Z</time></trkpt><trkpt lat="45.1907083" lon="12.2136912"><ele>-2.0</ele><time>2026-04-26T10:42:21.885Z</time></trkpt><trkpt lat="45.1906616" lon="12.2138301"><ele>-2.0</ele><time>2026-04-26T10:42:23.891Z</time></trkpt><trkpt lat="45.190615" lon="12.2139666"><ele>-2.0</ele><time>2026-04-26T10:42:25.889Z</time></trkpt><trkpt lat="45.1905768" lon="12.2141055"><ele>-2.0</ele><time>2026-04-26T10:42:27.89Z</time></trkpt><trkpt lat="45.1905344" lon="12.2142431"><ele>-2.0</ele><time>2026-04-26T10:42:29.89Z</time></trkpt><trkpt lat="45.1904918" lon="12.2143833"><ele>-2.0</ele><time>2026-04-26T10:42:31.889Z</time></trkpt><trkpt lat="45.190455" lon="12.2145291"><ele>-2.0</ele><time>2026-04-26T10:42:33.888Z</time></trkpt><trkpt lat="45.1904126" lon="12.2146664"><ele>-2.0</ele><time>2026-04-26T10:42:35.894Z</time></trkpt><trkpt lat="45.1903714" lon="12.2148046"><ele>-2.0</ele><time>2026-04-26T10:42:37.89Z</time></trkpt><trkpt lat="45.1903288" lon="12.2149441"><ele>-2.0</ele><time>2026-04-26T10:42:39.887Z</time></trkpt><trkpt lat="45.190286" lon="12.215085"><ele>-2.0</ele><time>2026-04-26T10:42:41.892Z</time></trkpt><trkpt lat="45.1902411" lon="12.2152288"><ele>-2.0</ele><time>2026-04-26T10:42:43.89Z</time></trkpt><trkpt lat="45.1902007" lon="12.2153681"><ele>-2.0</ele><time>2026-04-26T10:42:45.892Z</time></trkpt><trkpt lat="45.1901605" lon="12.2155038"><ele>-2.0</ele><time>2026-04-26T10:42:47.89Z</time></trkpt><trkpt lat="45.1901179" lon="12.2156357"><ele>-2.0</ele><time>2026-04-26T10:42:49.89Z</time></trkpt><trkpt lat="45.1900764" lon="12.2157682"><ele>-2.0</ele><time>2026-04-26T10:42:51.891Z</time></trkpt><trkpt lat="45.1900375" lon="12.2159066"><ele>-2.0</ele><time>2026-04-26T10:42:53.89Z</time></trkpt><trkpt lat="45.1900014" lon="12.2160432"><ele>-2.0</ele><time>2026-04-26T10:42:55.893Z</time></trkpt><trkpt lat="45.1899599" lon="12.2161814"><ele>-2.0</ele><time>2026-04-26T10:42:57.892Z</time></trkpt><trkpt lat="45.1899218" lon="12.2163208"><ele>-2.0</ele><time>2026-04-26T10:42:59.896Z</time></trkpt><trkpt lat="45.1898829" lon="12.216459"><ele>-2.0</ele><time>2026-04-26T10:43:01.889Z</time></trkpt><trkpt lat="45.1898469" lon="12.2165989"><ele>-2.0</ele><time>2026-04-26T10:43:03.9Z</time></trkpt><trkpt lat="45.1898099" lon="12.216734"><ele>-2.0</ele><time>2026-04-26T10:43:05.894Z</time></trkpt><trkpt lat="45.1897707" lon="12.2168677"><ele>-2.0</ele><time>2026-04-26T10:43:07.889Z</time></trkpt><trkpt lat="45.1897312" lon="12.2170048"><ele>-2.0</ele><time>2026-04-26T10:43:09.894Z</time></trkpt><trkpt lat="45.1896897" lon="12.2171432"><ele>-2.0</ele><time>2026-04-26T10:43:11.892Z</time></trkpt><trkpt lat="45.1896497" lon="12.2172861"><ele>-2.0</ele><time>2026-04-26T10:43:13.887Z</time></trkpt><trkpt lat="45.1896029" lon="12.2174292"><ele>-2.0</ele><time>2026-04-26T10:43:15.895Z</time></trkpt><trkpt lat="45.1895586" lon="12.2175717"><ele>-2.0</ele><time>2026-04-26T10:43:17.893Z</time></trkpt><trkpt lat="45.1895214" lon="12.2177154"><ele>-2.0</ele><time>2026-04-26T10:43:19.892Z</time></trkpt><trkpt lat="45.1894861" lon="12.2178614"><ele>-2.0</ele><time>2026-04-26T10:43:21.894Z</time></trkpt><trkpt lat="45.1894499" lon="12.2180048"><ele>-2.0</ele><time>2026-04-26T10:43:23.904Z</time></trkpt><trkpt lat="45.1894121" lon="12.2181544"><ele>-2.0</ele><time>2026-04-26T10:43:25.893Z</time></trkpt><trkpt lat="45.189376" lon="12.2183057"><ele>-2.0</ele><time>2026-04-26T10:43:27.889Z</time></trkpt><trkpt lat="45.1893402" lon="12.2184559"><ele>-2.0</ele><time>2026-04-26T10:43:29.893Z</time></trkpt><trkpt lat="45.1893067" lon="12.2186031"><ele>-2.0</ele><time>2026-04-26T10:43:31.889Z</time></trkpt><trkpt lat="45.18927" lon="12.2187447"><ele>-2.0</ele><time>2026-04-26T10:43:33.895Z</time></trkpt><trkpt lat="45.189233" lon="12.2188828"><ele>-2.0</ele><time>2026-04-26T10:43:35.891Z</time></trkpt><trkpt lat="45.1891967" lon="12.2190237"><ele>-2.0</ele><time>2026-04-26T10:43:37.899Z</time></trkpt><trkpt lat="45.18916" lon="12.2191626"><ele>-2.0</ele><time>2026-04-26T10:43:39.895Z</time></trkpt><trkpt lat="45.1891226" lon="12.2193027"><ele>-2.0</ele><time>2026-04-26T10:43:41.904Z</time></trkpt><trkpt lat="45.1890812" lon="12.2194382"><ele>-2.0</ele><time>2026-04-26T10:43:43.895Z</time></trkpt><trkpt lat="45.1890456" lon="12.2195726"><ele>-2.0</ele><time>2026-04-26T10:43:45.895Z</time></trkpt><trkpt lat="45.1890154" lon="12.2197071"><ele>-2.0</ele><time>2026-04-26T10:43:47.9Z</time></trkpt><trkpt lat="45.1889812" lon="12.219842"><ele>-2.0</ele><time>2026-04-26T10:43:49.896Z</time></trkpt><trkpt lat="45.1889472" lon="12.2199778"><ele>-2.0</ele><time>2026-04-26T10:43:51.893Z</time></trkpt><trkpt lat="45.1889138" lon="12.2201145"><ele>-2.0</ele><time>2026-04-26T10:43:53.891Z</time></trkpt><trkpt lat="45.1888777" lon="12.2202525"><ele>-2.0</ele><time>2026-04-26T10:43:55.897Z</time></trkpt><trkpt lat="45.1888447" lon="12.2203895"><ele>-2.0</ele><time>2026-04-26T10:43:57.889Z</time></trkpt><trkpt lat="45.1888083" lon="12.2205291"><ele>-2.0</ele><time>2026-04-26T10:43:59.891Z</time></trkpt><trkpt lat="45.1887725" lon="12.2206715"><ele>-2.0</ele><time>2026-04-26T10:44:01.894Z</time></trkpt><trkpt lat="45.1887435" lon="12.2208182"><ele>-2.0</ele><time>2026-04-26T10:44:03.897Z</time></trkpt><trkpt lat="45.1887144" lon="12.2209659"><ele>-2.0</ele><time>2026-04-26T10:44:05.887Z</time></trkpt><trkpt lat="45.188683" lon="12.2211099"><ele>-2.0</ele><time>2026-04-26T10:44:07.891Z</time></trkpt><trkpt lat="45.1886494" lon="12.2212532"><ele>-2.0</ele><time>2026-04-26T10:44:09.89Z</time></trkpt><trkpt lat="45.1886131" lon="12.2213949"><ele>-2.0</ele><time>2026-04-26T10:44:11.888Z</time></trkpt><trkpt lat="45.1885816" lon="12.2215324"><ele>-2.0</ele><time>2026-04-26T10:44:13.89Z</time></trkpt><trkpt lat="45.1885467" lon="12.2216773"><ele>-2.0</ele><time>2026-04-26T10:44:15.892Z</time></trkpt><trkpt lat="45.1885116" lon="12.2218215"><ele>-2.0</ele><time>2026-04-26T10:44:17.889Z</time></trkpt><trkpt lat="45.188478" lon="12.2219634"><ele>-2.0</ele><time>2026-04-26T10:44:19.894Z</time></trkpt><trkpt lat="45.1884381" lon="12.2221029"><ele>-2.0</ele><time>2026-04-26T10:44:21.894Z</time></trkpt><trkpt lat="45.1884021" lon="12.22225"><ele>-2.0</ele><time>2026-04-26T10:44:23.891Z</time></trkpt><trkpt lat="45.1883694" lon="12.2223971"><ele>-2.0</ele><time>2026-04-26T10:44:25.891Z</time></trkpt><trkpt lat="45.1883378" lon="12.2225409"><ele>-2.0</ele><time>2026-04-26T10:44:27.89Z</time></trkpt><trkpt lat="45.1883076" lon="12.2226862"><ele>-2.0</ele><time>2026-04-26T10:44:29.892Z</time></trkpt><trkpt lat="45.1882792" lon="12.2228276"><ele>-2.0</ele><time>2026-04-26T10:44:31.9Z</time></trkpt><trkpt lat="45.1882498" lon="12.2229698"><ele>-2.0</ele><time>2026-04-26T10:44:33.892Z</time></trkpt><trkpt lat="45.1882193" lon="12.2231161"><ele>-2.0</ele><time>2026-04-26T10:44:35.888Z</time></trkpt><trkpt lat="45.188188" lon="12.2232581"><ele>-2.0</ele><time>2026-04-26T10:44:37.89Z</time></trkpt><trkpt lat="45.1881559" lon="12.2233971"><ele>-2.0</ele><time>2026-04-26T10:44:39.891Z</time></trkpt><trkpt lat="45.1881258" lon="12.2235342"><ele>-2.0</ele><time>2026-04-26T10:44:41.889Z</time></trkpt><trkpt lat="45.188093" lon="12.223673"><ele>-2.0</ele><time>2026-04-26T10:44:43.892Z</time></trkpt><trkpt lat="45.1880604" lon="12.2238137"><ele>-2.0</ele><time>2026-04-26T10:44:45.894Z</time></trkpt><trkpt lat="45.1880325" lon="12.2239568"><ele>-2.0</ele><time>2026-04-26T10:44:47.891Z</time></trkpt><trkpt lat="45.1880007" lon="12.2240986"><ele>-2.0</ele><time>2026-04-26T10:44:49.896Z</time></trkpt><trkpt lat="45.1879693" lon="12.2242414"><ele>-2.0</ele><time>2026-04-26T10:44:51.895Z</time></trkpt><trkpt lat="45.187936" lon="12.2243849"><ele>-2.0</ele><time>2026-04-26T10:44:53.896Z</time></trkpt><trkpt lat="45.1879028" lon="12.2245297"><ele>-2.0</ele><time>2026-04-26T10:44:55.885Z</time></trkpt><trkpt lat="45.1878715" lon="12.2246708"><ele>-2.0</ele><time>2026-04-26T10:44:57.892Z</time></trkpt><trkpt lat="45.1878421" lon="12.22481"><ele>-2.0</ele><time>2026-04-26T10:44:59.89Z</time></trkpt><trkpt lat="45.1878115" lon="12.2249485"><ele>-2.0</ele><time>2026-04-26T10:45:01.889Z</time></trkpt><trkpt lat="45.1877775" lon="12.2250858"><ele>-2.0</ele><time>2026-04-26T10:45:03.89Z</time></trkpt><trkpt lat="45.1877452" lon="12.2252294"><ele>-2.0</ele><time>2026-04-26T10:45:05.897Z</time></trkpt><trkpt lat="45.187714" lon="12.2253701"><ele>-2.0</ele><time>2026-04-26T10:45:07.89Z</time></trkpt><trkpt lat="45.1876816" lon="12.2255091"><ele>-1.8</ele><time>2026-04-26T10:45:09.888Z</time></trkpt><trkpt lat="45.1876507" lon="12.2256515"><ele>-1.6</ele><time>2026-04-26T10:45:11.89Z</time></trkpt><trkpt lat="45.1876211" lon="12.2257927"><ele>-1.4000000000000001</ele><time>2026-04-26T10:45:13.893Z</time></trkpt><trkpt lat="45.1875869" lon="12.225938"><ele>-1.2000000000000002</ele><time>2026-04-26T10:45:15.891Z</time></trkpt><trkpt lat="45.1875533" lon="12.2260851"><ele>-1.0</ele><time>2026-04-26T10:45:17.893Z</time></trkpt><trkpt lat="45.18752" lon="12.2262366"><ele>-1.0</ele><time>2026-04-26T10:45:19.892Z</time></trkpt><trkpt lat="45.1874874" lon="12.2263864"><ele>-1.0</ele><time>2026-04-26T10:45:21.89Z</time></trkpt><trkpt lat="45.1874545" lon="12.2265344"><ele>-1.0</ele><time>2026-04-26T10:45:23.891Z</time></trkpt><trkpt lat="45.1874205" lon="12.2266762"><ele>-1.0</ele><time>2026-04-26T10:45:25.886Z</time></trkpt><trkpt lat="45.1873852" lon="12.2268195"><ele>-1.0</ele><time>2026-04-26T10:45:27.887Z</time></trkpt><trkpt lat="45.1873502" lon="12.2269624"><ele>-1.0</ele><time>2026-04-26T10:45:29.887Z</time></trkpt><trkpt lat="45.1873162" lon="12.2271051"><ele>-1.0</ele><time>2026-04-26T10:45:31.892Z</time></trkpt><trkpt lat="45.1872854" lon="12.2272458"><ele>-1.0</ele><time>2026-04-26T10:45:33.888Z</time></trkpt><trkpt lat="45.187254" lon="12.2273871"><ele>-1.0</ele><time>2026-04-26T10:45:35.888Z</time></trkpt><trkpt lat="45.1872233" lon="12.2275264"><ele>-1.0</ele><time>2026-04-26T10:45:37.889Z</time></trkpt><trkpt lat="45.1871881" lon="12.2276612"><ele>-1.0</ele><time>2026-04-26T10:45:39.889Z</time></trkpt><trkpt lat="45.187153" lon="12.227799"><ele>-1.0</ele><time>2026-04-26T10:45:41.888Z</time></trkpt><trkpt lat="45.1871199" lon="12.2279444"><ele>-1.0</ele><time>2026-04-26T10:45:43.89Z</time></trkpt><trkpt lat="45.1870882" lon="12.2280877"><ele>-1.0</ele><time>2026-04-26T10:45:45.89Z</time></trkpt><trkpt lat="45.1870561" lon="12.2282315"><ele>-1.0</ele><time>2026-04-26T10:45:47.894Z</time></trkpt><trkpt lat="45.1870216" lon="12.2283774"><ele>-0.8</ele><time>2026-04-26T10:45:49.889Z</time></trkpt><trkpt lat="45.1869851" lon="12.2285233"><ele>-0.6000000000000001</ele><time>2026-04-26T10:45:51.89Z</time></trkpt><trkpt lat="45.1869514" lon="12.2286667"><ele>-0.4</ele><time>2026-04-26T10:45:53.895Z</time></trkpt><trkpt lat="45.1869196" lon="12.228807"><ele>-0.2</ele><time>2026-04-26T10:45:55.894Z</time></trkpt><trkpt lat="45.1868893" lon="12.2289428"><ele>0.0</ele><time>2026-04-26T10:45:57.894Z</time></trkpt><trkpt lat="45.1868563" lon="12.2290829"><ele>0.2</ele><time>2026-04-26T10:45:59.893Z</time></trkpt><trkpt lat="45.1868239" lon="12.2292247"><ele>0.4</ele><time>2026-04-26T10:46:01.892Z</time></trkpt><trkpt lat="45.1867935" lon="12.2293657"><ele>0.6000000000000001</ele><time>2026-04-26T10:46:03.892Z</time></trkpt><trkpt lat="45.1867631" lon="12.2295062"><ele>0.8</ele><time>2026-04-26T10:46:05.894Z</time></trkpt><trkpt lat="45.1867348" lon="12.2296446"><ele>1.0</ele><time>2026-04-26T10:46:07.89Z</time></trkpt><trkpt lat="45.1867009" lon="12.2297808"><ele>0.8</ele><time>2026-04-26T10:46:09.893Z</time></trkpt><trkpt lat="45.1866676" lon="12.2299209"><ele>0.6000000000000001</ele><time>2026-04-26T10:46:11.888Z</time></trkpt><trkpt lat="45.1866341" lon="12.2300607"><ele>0.4</ele><time>2026-04-26T10:46:13.89Z</time></trkpt><trkpt lat="45.1866012" lon="12.2301966"><ele>0.2</ele><time>2026-04-26T10:46:15.893Z</time></trkpt><trkpt lat="45.18657" lon="12.2303368"><ele>0.0</ele><time>2026-04-26T10:46:17.893Z</time></trkpt><trkpt lat="45.1865403" lon="12.2304746"><ele>-0.2</ele><time>2026-04-26T10:46:19.891Z</time></trkpt><trkpt lat="45.1865078" lon="12.2306178"><ele>-0.4</ele><time>2026-04-26T10:46:21.894Z</time></trkpt><trkpt lat="45.1864722" lon="12.2307642"><ele>-0.6000000000000001</ele><time>2026-04-26T10:46:23.895Z</time></trkpt><trkpt lat="45.1864414" lon="12.2309117"><ele>-0.8</ele><time>2026-04-26T10:46:25.896Z</time></trkpt><trkpt lat="45.1864054" lon="12.2310565"><ele>-1.0</ele><time>2026-04-26T10:46:27.891Z</time></trkpt><trkpt lat="45.1863679" lon="12.2311992"><ele>-1.0</ele><time>2026-04-26T10:46:29.892Z</time></trkpt><trkpt lat="45.186334" lon="12.2313444"><ele>-1.0</ele><time>2026-04-26T10:46:31.894Z</time></trkpt><trkpt lat="45.1863023" lon="12.2314887"><ele>-1.0</ele><time>2026-04-26T10:46:33.894Z</time></trkpt><trkpt lat="45.1862705" lon="12.2316301"><ele>-1.0</ele><time>2026-04-26T10:46:35.894Z</time></trkpt><trkpt lat="45.1862383" lon="12.2317757"><ele>-1.0</ele><time>2026-04-26T10:46:37.892Z</time></trkpt><trkpt lat="45.1862054" lon="12.231925"><ele>-1.0</ele><time>2026-04-26T10:46:39.893Z</time></trkpt><trkpt lat="45.1861728" lon="12.2320719"><ele>-1.0</ele><time>2026-04-26T10:46:41.888Z</time></trkpt><trkpt lat="45.1861379" lon="12.2322115"><ele>-1.0</ele><time>2026-04-26T10:46:43.892Z</time></trkpt><trkpt lat="45.1861067" lon="12.2323489"><ele>-1.0</ele><time>2026-04-26T10:46:45.892Z</time></trkpt><trkpt lat="45.1860742" lon="12.2324852"><ele>-1.0</ele><time>2026-04-26T10:46:47.891Z</time></trkpt><trkpt lat="45.1860401" lon="12.232627"><ele>-1.0</ele><time>2026-04-26T10:46:49.892Z</time></trkpt><trkpt lat="45.1860096" lon="12.2327741"><ele>-1.0</ele><time>2026-04-26T10:46:51.889Z</time></trkpt><trkpt lat="45.1859788" lon="12.23292"><ele>-1.0</ele><time>2026-04-26T10:46:53.891Z</time></trkpt><trkpt lat="45.1859467" lon="12.2330632"><ele>-1.0</ele><time>2026-04-26T10:46:55.888Z</time></trkpt><trkpt lat="45.1859157" lon="12.2332048"><ele>-1.0</ele><time>2026-04-26T10:46:57.893Z</time></trkpt><trkpt lat="45.1858854" lon="12.2333485"><ele>-1.0</ele><time>2026-04-26T10:46:59.893Z</time></trkpt><trkpt lat="45.1858566" lon="12.2334892"><ele>-1.0</ele><time>2026-04-26T10:47:01.892Z</time></trkpt><trkpt lat="45.1858247" lon="12.2336295"><ele>-1.0</ele><time>2026-04-26T10:47:03.891Z</time></trkpt><trkpt lat="45.1857908" lon="12.233772"><ele>-1.0</ele><time>2026-04-26T10:47:05.896Z</time></trkpt><trkpt lat="45.1857561" lon="12.2339171"><ele>-1.0</ele><time>2026-04-26T10:47:07.893Z</time></trkpt><trkpt lat="45.1857239" lon="12.2340587"><ele>-1.0</ele><time>2026-04-26T10:47:09.89Z</time></trkpt><trkpt lat="45.1856894" lon="12.2342022"><ele>-1.0</ele><time>2026-04-26T10:47:11.893Z</time></trkpt><trkpt lat="45.1856579" lon="12.2343432"><ele>-1.0</ele><time>2026-04-26T10:47:13.89Z</time></trkpt><trkpt lat="45.1856258" lon="12.2344867"><ele>-1.0</ele><time>2026-04-26T10:47:15.892Z</time></trkpt><trkpt lat="45.1855952" lon="12.2346299"><ele>-1.0</ele><time>2026-04-26T10:47:17.89Z</time></trkpt><trkpt lat="45.1855653" lon="12.2347746"><ele>-1.0</ele><time>2026-04-26T10:47:19.894Z</time></trkpt><trkpt lat="45.1855365" lon="12.2349182"><ele>-1.0</ele><time>2026-04-26T10:47:21.893Z</time></trkpt><trkpt lat="45.1855079" lon="12.2350604"><ele>-1.0</ele><time>2026-04-26T10:47:23.89Z</time></trkpt><trkpt lat="45.1854806" lon="12.2351992"><ele>-1.0</ele><time>2026-04-26T10:47:25.894Z</time></trkpt><trkpt lat="45.1854539" lon="12.2353418"><ele>-1.0</ele><time>2026-04-26T10:47:27.896Z</time></trkpt><trkpt lat="45.1854293" lon="12.2354821"><ele>-1.0</ele><time>2026-04-26T10:47:29.887Z</time></trkpt><trkpt lat="45.1854008" lon="12.2356216"><ele>-1.0</ele><time>2026-04-26T10:47:31.893Z</time></trkpt><trkpt lat="45.1853741" lon="12.2357623"><ele>-1.0</ele><time>2026-04-26T10:47:33.888Z</time></trkpt><trkpt lat="45.1853486" lon="12.2359068"><ele>-1.0</ele><time>2026-04-26T10:47:35.89Z</time></trkpt><trkpt lat="45.185331" lon="12.2360501"><ele>-1.0</ele><time>2026-04-26T10:47:37.884Z</time></trkpt><trkpt lat="45.1853173" lon="12.236193"><ele>-0.8</ele><time>2026-04-26T10:47:39.891Z</time></trkpt><trkpt lat="45.1852967" lon="12.2363307"><ele>-0.6000000000000001</ele><time>2026-04-26T10:47:41.893Z</time></trkpt><trkpt lat="45.1852767" lon="12.2364686"><ele>-0.4</ele><time>2026-04-26T10:47:43.893Z</time></trkpt><trkpt lat="45.1852523" lon="12.2366088"><ele>-0.2</ele><time>2026-04-26T10:47:45.89Z</time></trkpt><trkpt lat="45.1852256" lon="12.2367457"><ele>0.0</ele><time>2026-04-26T10:47:47.891Z</time></trkpt><trkpt lat="45.1852075" lon="12.2368852"><ele>0.0</ele><time>2026-04-26T10:47:49.893Z</time></trkpt><trkpt lat="45.1851937" lon="12.2370251"><ele>0.0</ele><time>2026-04-26T10:47:51.892Z</time></trkpt><trkpt lat="45.1851777" lon="12.2371661"><ele>0.0</ele><time>2026-04-26T10:47:53.892Z</time></trkpt><trkpt lat="45.1851634" lon="12.2373089"><ele>0.0</ele><time>2026-04-26T10:47:55.891Z</time></trkpt><trkpt lat="45.1851502" lon="12.2374446"><ele>0.0</ele><time>2026-04-26T10:47:57.889Z</time></trkpt><trkpt lat="45.1851361" lon="12.2375793"><ele>0.2</ele><time>2026-04-26T10:47:59.89Z</time></trkpt><trkpt lat="45.1851231" lon="12.2377198"><ele>0.4</ele><time>2026-04-26T10:48:01.891Z</time></trkpt><trkpt lat="45.185113" lon="12.2378601"><ele>0.6000000000000001</ele><time>2026-04-26T10:48:03.887Z</time></trkpt><trkpt lat="45.1850949" lon="12.2379991"><ele>0.8</ele><time>2026-04-26T10:48:05.891Z</time></trkpt><trkpt lat="45.1850748" lon="12.2381374"><ele>1.0</ele><time>2026-04-26T10:48:07.891Z</time></trkpt><trkpt lat="45.1850585" lon="12.2382787"><ele>1.2000000000000002</ele><time>2026-04-26T10:48:09.887Z</time></trkpt><trkpt lat="45.1850423" lon="12.2384174"><ele>1.4000000000000001</ele><time>2026-04-26T10:48:11.89Z</time></trkpt><trkpt lat="45.1850304" lon="12.2385514"><ele>1.6</ele><time>2026-04-26T10:48:13.893Z</time></trkpt><trkpt lat="45.1850171" lon="12.2386907"><ele>1.8</ele><time>2026-04-26T10:48:15.885Z</time></trkpt><trkpt lat="45.1850041" lon="12.2388327"><ele>2.0</ele><time>2026-04-26T10:48:17.895Z</time></trkpt><trkpt lat="45.1849891" lon="12.2389677"><ele>1.4000000000000001</ele><time>2026-04-26T10:48:19.891Z</time></trkpt><trkpt lat="45.1849778" lon="12.2391052"><ele>0.8000000000000002</ele><time>2026-04-26T10:48:21.89Z</time></trkpt><trkpt lat="45.1849649" lon="12.2392457"><ele>0.19999999999999996</ele><time>2026-04-26T10:48:23.893Z</time></trkpt><trkpt lat="45.1849493" lon="12.2393896"><ele>-0.4</ele><time>2026-04-26T10:48:25.89Z</time></trkpt><trkpt lat="45.1849311" lon="12.239533"><ele>-1.0</ele><time>2026-04-26T10:48:27.892Z</time></trkpt><trkpt lat="45.184916" lon="12.2396811"><ele>-1.0</ele><time>2026-04-26T10:48:29.888Z</time></trkpt><trkpt lat="45.1848977" lon="12.2398315"><ele>-1.0</ele><time>2026-04-26T10:48:31.891Z</time></trkpt><trkpt lat="45.184875" lon="12.2399777"><ele>-1.0</ele><time>2026-04-26T10:48:33.888Z</time></trkpt><trkpt lat="45.184851" lon="12.24012"><ele>-1.0</ele><time>2026-04-26T10:48:35.89Z</time></trkpt><trkpt lat="45.18483" lon="12.2402578"><ele>-1.0</ele><time>2026-04-26T10:48:37.89Z</time></trkpt><trkpt lat="45.1848103" lon="12.2403924"><ele>-1.2000000000000002</ele><time>2026-04-26T10:48:39.888Z</time></trkpt><trkpt lat="45.1847906" lon="12.2405282"><ele>-1.4000000000000001</ele><time>2026-04-26T10:48:41.89Z</time></trkpt><trkpt lat="45.184772" lon="12.2406642"><ele>-1.6</ele><time>2026-04-26T10:48:43.887Z</time></trkpt><trkpt lat="45.1847498" lon="12.2408017"><ele>-1.8</ele><time>2026-04-26T10:48:45.889Z</time></trkpt><trkpt lat="45.1847237" lon="12.2409421"><ele>-2.0</ele><time>2026-04-26T10:48:47.883Z</time></trkpt><trkpt lat="45.1847004" lon="12.2410807"><ele>-1.9999999999999998</ele><time>2026-04-26T10:48:49.894Z</time></trkpt><trkpt lat="45.1846844" lon="12.2412068"><ele>-2.0</ele><time>2026-04-26T10:48:51.886Z</time></trkpt><trkpt lat="45.1846751" lon="12.2413263"><ele>-2.0</ele><time>2026-04-26T10:48:53.886Z</time></trkpt><trkpt lat="45.1846576" lon="12.2414352"><ele>-2.0</ele><time>2026-04-26T10:48:55.889Z</time></trkpt><trkpt lat="45.1846353" lon="12.2415377"><ele>-1.9999999999999998</ele><time>2026-04-26T10:48:57.888Z</time></trkpt><trkpt lat="45.1846141" lon="12.2416389"><ele>-2.0</ele><time>2026-04-26T10:48:59.888Z</time></trkpt><trkpt lat="45.1845976" lon="12.2417332"><ele>-1.857142857142857</ele><time>2026-04-26T10:49:01.887Z</time></trkpt><trkpt lat="45.1845758" lon="12.2418424"><ele>-1.714285714285714</ele><time>2026-04-26T10:49:04.885Z</time></trkpt><trkpt lat="45.1845558" lon="12.2419349"><ele>-1.5714285714285714</ele><time>2026-04-26T10:49:07.891Z</time></trkpt><trkpt lat="45.1845378" lon="12.242035"><ele>-1.4285714285714284</ele><time>2026-04-26T10:49:11.894Z</time></trkpt><trkpt lat="45.1845596" lon="12.2421262"><ele>-1.2857142857142856</ele><time>2026-04-26T10:49:15.885Z</time></trkpt><trkpt lat="45.1846077" lon="12.2421973"><ele>-1.1428571428571428</ele><time>2026-04-26T10:49:18.894Z</time></trkpt><trkpt lat="45.1846372" lon="12.2422852"><ele>-1.0</ele><time>2026-04-26T10:49:21.893Z</time></trkpt><trkpt lat="45.1846516" lon="12.2424156"><ele>-0.9999999999999999</ele><time>2026-04-26T10:49:24.891Z</time></trkpt><trkpt lat="45.1846943" lon="12.2425118"><ele>-1.0</ele><time>2026-04-26T10:49:26.883Z</time></trkpt><trkpt lat="45.1847529" lon="12.2425944"><ele>-1.0</ele><time>2026-04-26T10:49:28.893Z</time></trkpt><trkpt lat="45.1848082" lon="12.2426689"><ele>-1.0</ele><time>2026-04-26T10:49:30.892Z</time></trkpt><trkpt lat="45.1848619" lon="12.2427441"><ele>-0.9999999999999999</ele><time>2026-04-26T10:49:32.886Z</time></trkpt><trkpt lat="45.1849114" lon="12.24282"><ele>-1.0</ele><time>2026-04-26T10:49:34.888Z</time></trkpt><trkpt lat="45.1849602" lon="12.2428962"><ele>-1.0</ele><time>2026-04-26T10:49:36.893Z</time></trkpt><trkpt lat="45.1850102" lon="12.2429728"><ele>-0.9999999999999999</ele><time>2026-04-26T10:49:38.885Z</time></trkpt><trkpt lat="45.1850571" lon="12.2430489"><ele>-1.0</ele><time>2026-04-26T10:49:40.89Z</time></trkpt><trkpt lat="45.1851016" lon="12.2431205"><ele>-1.0</ele><time>2026-04-26T10:49:42.895Z</time></trkpt><trkpt lat="45.1851473" lon="12.2431904"><ele>-0.9999999999999999</ele><time>2026-04-26T10:49:44.884Z</time></trkpt><trkpt lat="45.1851944" lon="12.243263"><ele>-1.0</ele><time>2026-04-26T10:49:46.887Z</time></trkpt><trkpt lat="45.1852373" lon="12.2433452"><ele>-1.0</ele><time>2026-04-26T10:49:48.896Z</time></trkpt><trkpt lat="45.1852711" lon="12.2434372"><ele>-0.8</ele><time>2026-04-26T10:49:50.886Z</time></trkpt><trkpt lat="45.1852966" lon="12.243546"><ele>-0.6000000000000001</ele><time>2026-04-26T10:49:52.892Z</time></trkpt><trkpt lat="45.1853133" lon="12.243671"><ele>-0.4</ele><time>2026-04-26T10:49:54.892Z</time></trkpt><trkpt lat="45.1853103" lon="12.2438105"><ele>-0.2</ele><time>2026-04-26T10:49:56.89Z</time></trkpt><trkpt lat="45.1852862" lon="12.2439563"><ele>0.0</ele><time>2026-04-26T10:49:58.892Z</time></trkpt><trkpt lat="45.1852627" lon="12.2441116"><ele>0.0</ele><time>2026-04-26T10:50:00.888Z</time></trkpt><trkpt lat="45.1852369" lon="12.2442687"><ele>0.0</ele><time>2026-04-26T10:50:02.884Z</time></trkpt><trkpt lat="45.1852052" lon="12.2444299"><ele>0.0</ele><time>2026-04-26T10:50:04.893Z</time></trkpt><trkpt lat="45.1851743" lon="12.2445923"><ele>0.0</ele><time>2026-04-26T10:50:06.891Z</time></trkpt><trkpt lat="45.1851474" lon="12.2447568"><ele>0.0</ele><time>2026-04-26T10:50:08.887Z</time></trkpt><trkpt lat="45.1851175" lon="12.2449247"><ele>0.0</ele><time>2026-04-26T10:50:10.89Z</time></trkpt><trkpt lat="45.1850798" lon="12.2450858"><ele>0.0</ele><time>2026-04-26T10:50:12.892Z</time></trkpt><trkpt lat="45.1850361" lon="12.2452356"><ele>0.0</ele><time>2026-04-26T10:50:14.887Z</time></trkpt><trkpt lat="45.1849884" lon="12.2453822"><ele>0.0</ele><time>2026-04-26T10:50:16.888Z</time></trkpt><trkpt lat="45.1849432" lon="12.2455197"><ele>0.0</ele><time>2026-04-26T10:50:18.891Z</time></trkpt><trkpt lat="45.184903" lon="12.2456505"><ele>0.0</ele><time>2026-04-26T10:50:20.892Z</time></trkpt><trkpt lat="45.1848616" lon="12.2457832"><ele>0.0</ele><time>2026-04-26T10:50:22.893Z</time></trkpt><trkpt lat="45.1848181" lon="12.2459237"><ele>0.0</ele><time>2026-04-26T10:50:24.884Z</time></trkpt><trkpt lat="45.1847737" lon="12.2460705"><ele>0.0</ele><time>2026-04-26T10:50:26.889Z</time></trkpt><trkpt lat="45.1847294" lon="12.246219"><ele>0.0</ele><time>2026-04-26T10:50:28.891Z</time></trkpt><trkpt lat="45.1846892" lon="12.2463674"><ele>0.0</ele><time>2026-04-26T10:50:30.889Z</time></trkpt><trkpt lat="45.1846453" lon="12.2465151"><ele>0.0</ele><time>2026-04-26T10:50:32.896Z</time></trkpt><trkpt lat="45.1846035" lon="12.2466602"><ele>0.0</ele><time>2026-04-26T10:50:34.89Z</time></trkpt><trkpt lat="45.1845603" lon="12.2468073"><ele>0.0</ele><time>2026-04-26T10:50:36.892Z</time></trkpt><trkpt lat="45.184517" lon="12.2469547"><ele>0.0</ele><time>2026-04-26T10:50:38.883Z</time></trkpt><trkpt lat="45.1844781" lon="12.2471009"><ele>0.0</ele><time>2026-04-26T10:50:40.892Z</time></trkpt><trkpt lat="45.1844339" lon="12.2472453"><ele>0.0</ele><time>2026-04-26T10:50:42.892Z</time></trkpt><trkpt lat="45.1843888" lon="12.2473887"><ele>0.0</ele><time>2026-04-26T10:50:44.889Z</time></trkpt><trkpt lat="45.1843448" lon="12.2475338"><ele>0.0</ele><time>2026-04-26T10:50:46.893Z</time></trkpt><trkpt lat="45.1842975" lon="12.24768"><ele>0.0</ele><time>2026-04-26T10:50:48.893Z</time></trkpt><trkpt lat="45.1842546" lon="12.247827"><ele>0.0</ele><time>2026-04-26T10:50:50.889Z</time></trkpt><trkpt lat="45.1842146" lon="12.2479734"><ele>0.0</ele><time>2026-04-26T10:50:52.896Z</time></trkpt><trkpt lat="45.1841744" lon="12.2481193"><ele>0.0</ele><time>2026-04-26T10:50:54.891Z</time></trkpt><trkpt lat="45.1841338" lon="12.2482594"><ele>0.0</ele><time>2026-04-26T10:50:56.89Z</time></trkpt><trkpt lat="45.1840918" lon="12.2484039"><ele>0.0</ele><time>2026-04-26T10:50:58.891Z</time></trkpt><trkpt lat="45.1840563" lon="12.2485521"><ele>0.0</ele><time>2026-04-26T10:51:00.891Z</time></trkpt><trkpt lat="45.1840223" lon="12.2486976"><ele>0.0</ele><time>2026-04-26T10:51:02.891Z</time></trkpt><trkpt lat="45.1839926" lon="12.2488473"><ele>0.0</ele><time>2026-04-26T10:51:04.892Z</time></trkpt><trkpt lat="45.1839775" lon="12.2489941"><ele>0.0</ele><time>2026-04-26T10:51:06.888Z</time></trkpt><trkpt lat="45.18397" lon="12.2491394"><ele>0.0</ele><time>2026-04-26T10:51:08.888Z</time></trkpt><trkpt lat="45.1839635" lon="12.2492944"><ele>0.0</ele><time>2026-04-26T10:51:10.89Z</time></trkpt><trkpt lat="45.1839548" lon="12.2494478"><ele>0.0</ele><time>2026-04-26T10:51:12.893Z</time></trkpt><trkpt lat="45.1839437" lon="12.2496013"><ele>0.0</ele><time>2026-04-26T10:51:14.889Z</time></trkpt><trkpt lat="45.1839358" lon="12.2497553"><ele>0.0</ele><time>2026-04-26T10:51:16.893Z</time></trkpt><trkpt lat="45.183932" lon="12.2499017"><ele>0.0</ele><time>2026-04-26T10:51:18.891Z</time></trkpt><trkpt lat="45.183925" lon="12.2500492"><ele>0.0</ele><time>2026-04-26T10:51:20.891Z</time></trkpt><trkpt lat="45.1839159" lon="12.2501968"><ele>0.0</ele><time>2026-04-26T10:51:22.894Z</time></trkpt><trkpt lat="45.1839054" lon="12.2503487"><ele>0.0</ele><time>2026-04-26T10:51:24.892Z</time></trkpt><trkpt lat="45.1838942" lon="12.2505001"><ele>0.0</ele><time>2026-04-26T10:51:26.888Z</time></trkpt><trkpt lat="45.1838816" lon="12.2506512"><ele>0.0</ele><time>2026-04-26T10:51:28.895Z</time></trkpt><trkpt lat="45.1838717" lon="12.2507986"><ele>0.0</ele><time>2026-04-26T10:51:30.892Z</time></trkpt><trkpt lat="45.1838638" lon="12.2509473"><ele>0.0</ele><time>2026-04-26T10:51:32.89Z</time></trkpt><trkpt lat="45.1838543" lon="12.2510971"><ele>0.0</ele><time>2026-04-26T10:51:34.891Z</time></trkpt><trkpt lat="45.183846" lon="12.2512451"><ele>0.0</ele><time>2026-04-26T10:51:36.893Z</time></trkpt><trkpt lat="45.1838355" lon="12.251392"><ele>0.0</ele><time>2026-04-26T10:51:38.892Z</time></trkpt><trkpt lat="45.1838285" lon="12.2515418"><ele>0.0</ele><time>2026-04-26T10:51:40.891Z</time></trkpt><trkpt lat="45.1838235" lon="12.2516912"><ele>0.0</ele><time>2026-04-26T10:51:42.892Z</time></trkpt><trkpt lat="45.1838129" lon="12.2518399"><ele>0.0</ele><time>2026-04-26T10:51:44.886Z</time></trkpt><trkpt lat="45.1838047" lon="12.2519924"><ele>0.2</ele><time>2026-04-26T10:51:46.888Z</time></trkpt><trkpt lat="45.1838" lon="12.2521444"><ele>0.4</ele><time>2026-04-26T10:51:48.889Z</time></trkpt><trkpt lat="45.1837939" lon="12.2522922"><ele>0.6000000000000001</ele><time>2026-04-26T10:51:50.889Z</time></trkpt><trkpt lat="45.1837877" lon="12.2524387"><ele>0.8</ele><time>2026-04-26T10:51:52.893Z</time></trkpt><trkpt lat="45.1837785" lon="12.2525862"><ele>1.0</ele><time>2026-04-26T10:51:54.892Z</time></trkpt><trkpt lat="45.1837696" lon="12.2527322"><ele>1.0</ele><time>2026-04-26T10:51:56.89Z</time></trkpt><trkpt lat="45.1837607" lon="12.2528834"><ele>1.0</ele><time>2026-04-26T10:51:58.892Z</time></trkpt><trkpt lat="45.1837536" lon="12.2530347"><ele>1.0</ele><time>2026-04-26T10:52:00.89Z</time></trkpt><trkpt lat="45.1837465" lon="12.2531871"><ele>1.0</ele><time>2026-04-26T10:52:02.89Z</time></trkpt><trkpt lat="45.183735" lon="12.2533364"><ele>1.0</ele><time>2026-04-26T10:52:04.888Z</time></trkpt><trkpt lat="45.1837229" lon="12.2534829"><ele>0.8</ele><time>2026-04-26T10:52:06.891Z</time></trkpt><trkpt lat="45.1837174" lon="12.2536332"><ele>0.6000000000000001</ele><time>2026-04-26T10:52:08.888Z</time></trkpt><trkpt lat="45.1837134" lon="12.253787"><ele>0.4</ele><time>2026-04-26T10:52:10.893Z</time></trkpt><trkpt lat="45.1837063" lon="12.253937"><ele>0.2</ele><time>2026-04-26T10:52:12.896Z</time></trkpt><trkpt lat="45.1836974" lon="12.2540883"><ele>0.0</ele><time>2026-04-26T10:52:14.888Z</time></trkpt><trkpt lat="45.1836867" lon="12.2542435"><ele>0.0</ele><time>2026-04-26T10:52:16.891Z</time></trkpt><trkpt lat="45.1836757" lon="12.2544015"><ele>0.0</ele><time>2026-04-26T10:52:18.89Z</time></trkpt><trkpt lat="45.1836625" lon="12.2545565"><ele>0.0</ele><time>2026-04-26T10:52:20.893Z</time></trkpt><trkpt lat="45.1836519" lon="12.2547117"><ele>0.0</ele><time>2026-04-26T10:52:22.881Z</time></trkpt><trkpt lat="45.1836463" lon="12.2548672"><ele>0.0</ele><time>2026-04-26T10:52:24.891Z</time></trkpt><trkpt lat="45.1836394" lon="12.2550262"><ele>0.0</ele><time>2026-04-26T10:52:26.893Z</time></trkpt><trkpt lat="45.1836303" lon="12.2551844"><ele>0.0</ele><time>2026-04-26T10:52:28.886Z</time></trkpt><trkpt lat="45.1836213" lon="12.2553446"><ele>0.0</ele><time>2026-04-26T10:52:30.89Z</time></trkpt><trkpt lat="45.1836122" lon="12.2555057"><ele>0.0</ele><time>2026-04-26T10:52:32.889Z</time></trkpt><trkpt lat="45.1836021" lon="12.2556655"><ele>-0.2</ele><time>2026-04-26T10:52:34.886Z</time></trkpt><trkpt lat="45.1835938" lon="12.2558234"><ele>-0.4</ele><time>2026-04-26T10:52:36.891Z</time></trkpt><trkpt lat="45.183587" lon="12.2559756"><ele>-0.6000000000000001</ele><time>2026-04-26T10:52:38.891Z</time></trkpt><trkpt lat="45.183578" lon="12.2561247"><ele>-0.8</ele><time>2026-04-26T10:52:40.888Z</time></trkpt><trkpt lat="45.1835712" lon="12.2562723"><ele>-1.0</ele><time>2026-04-26T10:52:42.891Z</time></trkpt><trkpt lat="45.1835604" lon="12.2564227"><ele>-1.0</ele><time>2026-04-26T10:52:44.889Z</time></trkpt><trkpt lat="45.1835519" lon="12.256577"><ele>-1.0</ele><time>2026-04-26T10:52:46.89Z</time></trkpt><trkpt lat="45.1835433" lon="12.25673"><ele>-1.0</ele><time>2026-04-26T10:52:48.89Z</time></trkpt><trkpt lat="45.1835327" lon="12.2568814"><ele>-1.0</ele><time>2026-04-26T10:52:50.892Z</time></trkpt><trkpt lat="45.1835268" lon="12.2570304"><ele>-1.0</ele><time>2026-04-26T10:52:52.894Z</time></trkpt><trkpt lat="45.1835202" lon="12.2571786"><ele>-1.0</ele><time>2026-04-26T10:52:54.887Z</time></trkpt><trkpt lat="45.1835125" lon="12.2573291"><ele>-1.0</ele><time>2026-04-26T10:52:56.888Z</time></trkpt><trkpt lat="45.1835127" lon="12.2574813"><ele>-1.0</ele><time>2026-04-26T10:52:58.887Z</time></trkpt><trkpt lat="45.1835119" lon="12.2576364"><ele>-1.0</ele><time>2026-04-26T10:53:00.887Z</time></trkpt><trkpt lat="45.1835095" lon="12.2577919"><ele>-1.0</ele><time>2026-04-26T10:53:02.897Z</time></trkpt><trkpt lat="45.1835066" lon="12.2579473"><ele>-1.0</ele><time>2026-04-26T10:53:04.893Z</time></trkpt><trkpt lat="45.1835021" lon="12.2581064"><ele>-1.0</ele><time>2026-04-26T10:53:06.892Z</time></trkpt><trkpt lat="45.1834933" lon="12.2582648"><ele>-1.0</ele><time>2026-04-26T10:53:08.895Z</time></trkpt><trkpt lat="45.183487" lon="12.2584194"><ele>-1.0</ele><time>2026-04-26T10:53:10.887Z</time></trkpt><trkpt lat="45.1834796" lon="12.2585745"><ele>-1.0</ele><time>2026-04-26T10:53:12.893Z</time></trkpt><trkpt lat="45.183469" lon="12.2587285"><ele>-0.8</ele><time>2026-04-26T10:53:14.894Z</time></trkpt><trkpt lat="45.1834626" lon="12.2588798"><ele>-0.6000000000000001</ele><time>2026-04-26T10:53:16.892Z</time></trkpt><trkpt lat="45.1834564" lon="12.2590303"><ele>-0.4</ele><time>2026-04-26T10:53:18.893Z</time></trkpt><trkpt lat="45.1834526" lon="12.2591823"><ele>-0.2</ele><time>2026-04-26T10:53:20.89Z</time></trkpt><trkpt lat="45.1834477" lon="12.2593368"><ele>0.0</ele><time>2026-04-26T10:53:22.893Z</time></trkpt><trkpt lat="45.1834408" lon="12.2594904"><ele>0.0</ele><time>2026-04-26T10:53:24.891Z</time></trkpt><trkpt lat="45.1834329" lon="12.2596422"><ele>0.0</ele><time>2026-04-26T10:53:26.889Z</time></trkpt><trkpt lat="45.1834303" lon="12.2597977"><ele>0.0</ele><time>2026-04-26T10:53:28.893Z</time></trkpt><trkpt lat="45.1834275" lon="12.2599503"><ele>0.0</ele><time>2026-04-26T10:53:30.896Z</time></trkpt><trkpt lat="45.1834234" lon="12.2601037"><ele>0.0</ele><time>2026-04-26T10:53:32.889Z</time></trkpt><trkpt lat="45.1834195" lon="12.2602581"><ele>-0.2</ele><time>2026-04-26T10:53:34.893Z</time></trkpt><trkpt lat="45.183419" lon="12.2604107"><ele>-0.4</ele><time>2026-04-26T10:53:36.891Z</time></trkpt><trkpt lat="45.1834199" lon="12.2605617"><ele>-0.6000000000000001</ele><time>2026-04-26T10:53:38.895Z</time></trkpt><trkpt lat="45.1834172" lon="12.2607147"><ele>-0.8</ele><time>2026-04-26T10:53:40.892Z</time></trkpt><trkpt lat="45.183416" lon="12.2608669"><ele>-1.0</ele><time>2026-04-26T10:53:42.894Z</time></trkpt><trkpt lat="45.1834131" lon="12.2610197"><ele>-1.2000000000000002</ele><time>2026-04-26T10:53:44.889Z</time></trkpt><trkpt lat="45.1834078" lon="12.2611758"><ele>-1.4000000000000001</ele><time>2026-04-26T10:53:46.885Z</time></trkpt><trkpt lat="45.183403" lon="12.2613305"><ele>-1.6</ele><time>2026-04-26T10:53:48.888Z</time></trkpt><trkpt lat="45.1833999" lon="12.2614875"><ele>-1.8</ele><time>2026-04-26T10:53:50.892Z</time></trkpt><trkpt lat="45.1833937" lon="12.2616434"><ele>-2.0</ele><time>2026-04-26T10:53:52.892Z</time></trkpt><trkpt lat="45.1833866" lon="12.2617994"><ele>-2.0</ele><time>2026-04-26T10:53:54.889Z</time></trkpt><trkpt lat="45.1833835" lon="12.2619534"><ele>-2.0</ele><time>2026-04-26T10:53:56.893Z</time></trkpt><trkpt lat="45.1833787" lon="12.2621052"><ele>-2.0</ele><time>2026-04-26T10:53:58.887Z</time></trkpt><trkpt lat="45.183375" lon="12.2622591"><ele>-2.0</ele><time>2026-04-26T10:54:00.889Z</time></trkpt><trkpt lat="45.1833736" lon="12.2624139"><ele>-2.0</ele><time>2026-04-26T10:54:02.892Z</time></trkpt><trkpt lat="45.1833726" lon="12.2625673"><ele>-2.0</ele><time>2026-04-26T10:54:04.891Z</time></trkpt><trkpt lat="45.183372" lon="12.2627216"><ele>-2.0</ele><time>2026-04-26T10:54:06.891Z</time></trkpt><trkpt lat="45.1833714" lon="12.2628748"><ele>-2.0</ele><time>2026-04-26T10:54:08.885Z</time></trkpt><trkpt lat="45.1833669" lon="12.2630298"><ele>-2.0</ele><time>2026-04-26T10:54:10.889Z</time></trkpt><trkpt lat="45.1833643" lon="12.2631849"><ele>-2.0</ele><time>2026-04-26T10:54:12.892Z</time></trkpt><trkpt lat="45.1833631" lon="12.2633431"><ele>-2.0</ele><time>2026-04-26T10:54:14.892Z</time></trkpt><trkpt lat="45.1833605" lon="12.2635024"><ele>-2.0</ele><time>2026-04-26T10:54:16.892Z</time></trkpt><trkpt lat="45.1833577" lon="12.2636601"><ele>-2.0</ele><time>2026-04-26T10:54:18.885Z</time></trkpt><trkpt lat="45.1833524" lon="12.2638174"><ele>-2.0</ele><time>2026-04-26T10:54:20.89Z</time></trkpt><trkpt lat="45.183349" lon="12.2639787"><ele>-2.0</ele><time>2026-04-26T10:54:22.899Z</time></trkpt><trkpt lat="45.1833467" lon="12.2641422"><ele>-2.0</ele><time>2026-04-26T10:54:24.89Z</time></trkpt><trkpt lat="45.1833452" lon="12.2643085"><ele>-2.0</ele><time>2026-04-26T10:54:26.889Z</time></trkpt><trkpt lat="45.1833436" lon="12.264474"><ele>-2.0</ele><time>2026-04-26T10:54:28.892Z</time></trkpt><trkpt lat="45.1833387" lon="12.264633"><ele>-2.0</ele><time>2026-04-26T10:54:30.89Z</time></trkpt><trkpt lat="45.1833355" lon="12.2647917"><ele>-2.0</ele><time>2026-04-26T10:54:32.895Z</time></trkpt><trkpt lat="45.1833344" lon="12.26495"><ele>-2.0</ele><time>2026-04-26T10:54:34.891Z</time></trkpt><trkpt lat="45.1833315" lon="12.2651086"><ele>-2.0</ele><time>2026-04-26T10:54:36.889Z</time></trkpt><trkpt lat="45.1833305" lon="12.265264"><ele>-2.0</ele><time>2026-04-26T10:54:38.889Z</time></trkpt><trkpt lat="45.1833282" lon="12.2654126"><ele>-2.0</ele><time>2026-04-26T10:54:40.89Z</time></trkpt><trkpt lat="45.1833254" lon="12.2655518"><ele>-2.4000000000000004</ele><time>2026-04-26T10:54:42.892Z</time></trkpt><trkpt lat="45.1833194" lon="12.2656946"><ele>-2.8000000000000003</ele><time>2026-04-26T10:54:44.892Z</time></trkpt><trkpt lat="45.1833147" lon="12.2658379"><ele>-3.2</ele><time>2026-04-26T10:54:46.89Z</time></trkpt><trkpt lat="45.1833096" lon="12.2659797"><ele>-3.6</ele><time>2026-04-26T10:54:48.887Z</time></trkpt><trkpt lat="45.1833107" lon="12.2661188"><ele>-4.0</ele><time>2026-04-26T10:54:50.892Z</time></trkpt><trkpt lat="45.1833108" lon="12.2662568"><ele>-3.9999999999999996</ele><time>2026-04-26T10:54:52.896Z</time></trkpt><trkpt lat="45.1833118" lon="12.2663882"><ele>-4.0</ele><time>2026-04-26T10:54:54.895Z</time></trkpt><trkpt lat="45.1833077" lon="12.2665103"><ele>-4.0</ele><time>2026-04-26T10:54:56.888Z</time></trkpt><trkpt lat="45.1833003" lon="12.2666291"><ele>-4.0</ele><time>2026-04-26T10:54:58.895Z</time></trkpt><trkpt lat="45.1832952" lon="12.2667469"><ele>-3.9999999999999996</ele><time>2026-04-26T10:55:00.886Z</time></trkpt><trkpt lat="45.1833155" lon="12.2668616"><ele>-4.0</ele><time>2026-04-26T10:55:02.889Z</time></trkpt><trkpt lat="45.1833659" lon="12.2669585"><ele>-3.8571428571428568</ele><time>2026-04-26T10:55:04.888Z</time></trkpt><trkpt lat="45.1834111" lon="12.2670463"><ele>-3.714285714285714</ele><time>2026-04-26T10:55:06.89Z</time></trkpt><trkpt lat="45.1834443" lon="12.2671397"><ele>-3.571428571428571</ele><time>2026-04-26T10:55:08.889Z</time></trkpt><trkpt lat="45.1834734" lon="12.2672299"><ele>-3.4285714285714284</ele><time>2026-04-26T10:55:10.892Z</time></trkpt><trkpt lat="45.1834984" lon="12.2673169"><ele>-3.2857142857142856</ele><time>2026-04-26T10:55:12.89Z</time></trkpt><trkpt lat="45.1835234" lon="12.2674014"><ele>-3.1428571428571423</ele><time>2026-04-26T10:55:14.892Z</time></trkpt><trkpt lat="45.1835569" lon="12.2675134"><ele>-3.0</ele><time>2026-04-26T10:55:17.892Z</time></trkpt><trkpt lat="45.1835894" lon="12.2676288"><ele>-2.6666666666666665</ele><time>2026-04-26T10:55:20.885Z</time></trkpt><trkpt lat="45.1836232" lon="12.2677439"><ele>-2.3333333333333335</ele><time>2026-04-26T10:55:23.892Z</time></trkpt><trkpt lat="45.1836529" lon="12.267852"><ele>-2.0</ele><time>2026-04-26T10:55:26.889Z</time></trkpt><trkpt lat="45.1836836" lon="12.2679592"><ele>-1.6666666666666665</ele><time>2026-04-26T10:55:29.89Z</time></trkpt><trkpt lat="45.1837104" lon="12.268064"><ele>-1.3333333333333333</ele><time>2026-04-26T10:55:32.894Z</time></trkpt><trkpt lat="45.183741" lon="12.2681733"><ele>-1.0</ele><time>2026-04-26T10:55:35.887Z</time></trkpt><trkpt lat="45.183766" lon="12.268291"><ele>-0.9999999999999999</ele><time>2026-04-26T10:55:38.893Z</time></trkpt><trkpt lat="45.1837981" lon="12.2684063"><ele>-1.0</ele><time>2026-04-26T10:55:41.887Z</time></trkpt><trkpt lat="45.183829" lon="12.2685197"><ele>-1.0</ele><time>2026-04-26T10:55:44.887Z</time></trkpt><trkpt lat="45.1838616" lon="12.2686316"><ele>-1.0</ele><time>2026-04-26T10:55:47.887Z</time></trkpt><trkpt lat="45.1838971" lon="12.268746"><ele>-0.9999999999999999</ele><time>2026-04-26T10:55:50.886Z</time></trkpt><trkpt lat="45.1839279" lon="12.268861"><ele>-1.0</ele><time>2026-04-26T10:55:53.895Z</time></trkpt><trkpt lat="45.1839631" lon="12.2689749"><ele>-0.8333333333333333</ele><time>2026-04-26T10:55:56.884Z</time></trkpt><trkpt lat="45.1839958" lon="12.2690939"><ele>-0.6666666666666666</ele><time>2026-04-26T10:55:59.897Z</time></trkpt><trkpt lat="45.184024" lon="12.2692131"><ele>-0.5</ele><time>2026-04-26T10:56:02.896Z</time></trkpt><trkpt lat="45.1840581" lon="12.2693287"><ele>-0.3333333333333333</ele><time>2026-04-26T10:56:05.896Z</time></trkpt><trkpt lat="45.1840853" lon="12.2694424"><ele>-0.16666666666666666</ele><time>2026-04-26T10:56:08.891Z</time></trkpt><trkpt lat="45.1841104" lon="12.2695535"><ele>0.0</ele><time>2026-04-26T10:56:11.886Z</time></trkpt><trkpt lat="45.1841395" lon="12.269661"><ele>0.0</ele><time>2026-04-26T10:56:14.892Z</time></trkpt><trkpt lat="45.1841692" lon="12.2697728"><ele>0.0</ele><time>2026-04-26T10:56:17.886Z</time></trkpt><trkpt lat="45.1841966" lon="12.2698876"><ele>0.0</ele><time>2026-04-26T10:56:20.886Z</time></trkpt><trkpt lat="45.1842193" lon="12.2699949"><ele>0.0</ele><time>2026-04-26T10:56:23.884Z</time></trkpt><trkpt lat="45.1842465" lon="12.2701136"><ele>0.0</ele><time>2026-04-26T10:56:26.889Z</time></trkpt><trkpt lat="45.1842732" lon="12.2702318"><ele>0.0</ele><time>2026-04-26T10:56:29.887Z</time></trkpt><trkpt lat="45.1843001" lon="12.2703525"><ele>0.16666666666666666</ele><time>2026-04-26T10:56:32.893Z</time></trkpt><trkpt lat="45.1843341" lon="12.2704681"><ele>0.3333333333333333</ele><time>2026-04-26T10:56:35.885Z</time></trkpt><trkpt lat="45.1843593" lon="12.2705848"><ele>0.5</ele><time>2026-04-26T10:56:38.889Z</time></trkpt><trkpt lat="45.1843834" lon="12.2706677"><ele>0.6666666666666666</ele><time>2026-04-26T10:56:40.886Z</time></trkpt><trkpt lat="45.1844067" lon="12.2707518"><ele>0.8333333333333333</ele><time>2026-04-26T10:56:42.891Z</time></trkpt><trkpt lat="45.1844256" lon="12.2708378"><ele>1.0</ele><time>2026-04-26T10:56:44.891Z</time></trkpt><trkpt lat="45.184459" lon="12.2709604"><ele>0.7142857142857142</ele><time>2026-04-26T10:56:47.891Z</time></trkpt><trkpt lat="45.1844951" lon="12.2710844"><ele>0.4285714285714285</ele><time>2026-04-26T10:56:50.89Z</time></trkpt><trkpt lat="45.1845255" lon="12.2711774"><ele>0.14285714285714285</ele><time>2026-04-26T10:56:52.892Z</time></trkpt><trkpt lat="45.1845496" lon="12.2712644"><ele>-0.14285714285714285</ele><time>2026-04-26T10:56:54.889Z</time></trkpt><trkpt lat="45.1845742" lon="12.2713475"><ele>-0.4285714285714285</ele><time>2026-04-26T10:56:56.89Z</time></trkpt><trkpt lat="45.1845948" lon="12.271437"><ele>-0.7142857142857142</ele><time>2026-04-26T10:56:58.89Z</time></trkpt><trkpt lat="45.184621" lon="12.2715229"><ele>-1.0</ele><time>2026-04-26T10:57:00.89Z</time></trkpt><trkpt lat="45.1846485" lon="12.2716477"><ele>-0.9999999999999999</ele><time>2026-04-26T10:57:03.889Z</time></trkpt><trkpt lat="45.1846713" lon="12.2717787"><ele>-1.0</ele><time>2026-04-26T10:57:06.886Z</time></trkpt><trkpt lat="45.184691" lon="12.2718775"><ele>-1.0</ele><time>2026-04-26T10:57:08.888Z</time></trkpt><trkpt lat="45.1847109" lon="12.2719748"><ele>-1.0</ele><time>2026-04-26T10:57:10.882Z</time></trkpt><trkpt lat="45.1847318" lon="12.2720769"><ele>-0.9999999999999999</ele><time>2026-04-26T10:57:12.889Z</time></trkpt><trkpt lat="45.1847581" lon="12.2721957"><ele>-1.0</ele><time>2026-04-26T10:57:14.891Z</time></trkpt><trkpt lat="45.1847883" lon="12.2723189"><ele>-0.75</ele><time>2026-04-26T10:57:16.886Z</time></trkpt><trkpt lat="45.1848078" lon="12.2724547"><ele>-0.5</ele><time>2026-04-26T10:57:18.891Z</time></trkpt><trkpt lat="45.1848279" lon="12.2726054"><ele>-0.25</ele><time>2026-04-26T10:57:20.884Z</time></trkpt><trkpt lat="45.1848633" lon="12.2727655"><ele>0.0</ele><time>2026-04-26T10:57:22.89Z</time></trkpt><trkpt lat="45.184905" lon="12.2729359"><ele>0.0</ele><time>2026-04-26T10:57:24.891Z</time></trkpt><trkpt lat="45.1849325" lon="12.2730187"><ele>0.0</ele><time>2026-04-26T10:57:25.895Z</time></trkpt><trkpt lat="45.1850051" lon="12.2731587"><ele>0.0</ele><time>2026-04-26T10:57:27.891Z</time></trkpt><trkpt lat="45.1850717" lon="12.2732989"><ele>0.0</ele><time>2026-04-26T10:57:29.888Z</time></trkpt><trkpt lat="45.1851172" lon="12.273453"><ele>0.0</ele><time>2026-04-26T10:57:31.887Z</time></trkpt><trkpt lat="45.1851544" lon="12.2736024"><ele>0.0</ele><time>2026-04-26T10:57:33.89Z</time></trkpt><trkpt lat="45.1851883" lon="12.2737436"><ele>0.0</ele><time>2026-04-26T10:57:35.891Z</time></trkpt><trkpt lat="45.1852168" lon="12.2738746"><ele>0.0</ele><time>2026-04-26T10:57:37.89Z</time></trkpt><trkpt lat="45.1852375" lon="12.2740014"><ele>0.0</ele><time>2026-04-26T10:57:39.892Z</time></trkpt><trkpt lat="45.185258" lon="12.2741192"><ele>0.0</ele><time>2026-04-26T10:57:41.887Z</time></trkpt><trkpt lat="45.1852767" lon="12.274232"><ele>0.16666666666666666</ele><time>2026-04-26T10:57:43.884Z</time></trkpt><trkpt lat="45.1852987" lon="12.2743418"><ele>0.3333333333333333</ele><time>2026-04-26T10:57:45.887Z</time></trkpt><trkpt lat="45.1853183" lon="12.2744483"><ele>0.5</ele><time>2026-04-26T10:57:47.888Z</time></trkpt><trkpt lat="45.185331" lon="12.2745548"><ele>0.6666666666666666</ele><time>2026-04-26T10:57:49.89Z</time></trkpt><trkpt lat="45.1853219" lon="12.2746715"><ele>0.8333333333333333</ele><time>2026-04-26T10:57:51.89Z</time></trkpt><trkpt lat="45.1853019" lon="12.274788"><ele>1.0</ele><time>2026-04-26T10:57:53.884Z</time></trkpt><trkpt lat="45.1853063" lon="12.2748979"><ele>0.6666666666666666</ele><time>2026-04-26T10:57:55.89Z</time></trkpt><trkpt lat="45.1853549" lon="12.2749854"><ele>0.3333333333333333</ele><time>2026-04-26T10:57:57.892Z</time></trkpt><trkpt lat="45.1854352" lon="12.2750246"><ele>0.0</ele><time>2026-04-26T10:57:59.888Z</time></trkpt><trkpt lat="45.1855212" lon="12.2750108"><ele>-0.3333333333333333</ele><time>2026-04-26T10:58:01.886Z</time></trkpt><trkpt lat="45.1855898" lon="12.2749319"><ele>-0.6666666666666666</ele><time>2026-04-26T10:58:03.895Z</time></trkpt><trkpt lat="45.1856543" lon="12.2748431"><ele>-1.0</ele><time>2026-04-26T10:58:05.889Z</time></trkpt><trkpt lat="45.1857358" lon="12.2747705"><ele>-1.0</ele><time>2026-04-26T10:58:07.894Z</time></trkpt><trkpt lat="45.1858332" lon="12.2747255"><ele>-1.0</ele><time>2026-04-26T10:58:09.892Z</time></trkpt><trkpt lat="45.1859396" lon="12.274707"><ele>-1.0</ele><time>2026-04-26T10:58:11.885Z</time></trkpt><trkpt lat="45.1860446" lon="12.2747014"><ele>-1.0</ele><time>2026-04-26T10:58:13.891Z</time></trkpt><trkpt lat="45.1861479" lon="12.2747078"><ele>-1.0</ele><time>2026-04-26T10:58:15.89Z</time></trkpt><trkpt lat="45.1862427" lon="12.2747194"><ele>-1.0</ele><time>2026-04-26T10:58:17.889Z</time></trkpt><trkpt lat="45.1863322" lon="12.2747263"><ele>-1.0</ele><time>2026-04-26T10:58:19.887Z</time></trkpt><trkpt lat="45.1864195" lon="12.2747318"><ele>-1.0</ele><time>2026-04-26T10:58:21.888Z</time></trkpt><trkpt lat="45.1865125" lon="12.2747475"><ele>-1.0</ele><time>2026-04-26T10:58:23.893Z</time></trkpt><trkpt lat="45.186608" lon="12.2747766"><ele>-1.0</ele><time>2026-04-26T10:58:25.894Z</time></trkpt><trkpt lat="45.1867041" lon="12.2748382"><ele>-0.6000000000000001</ele><time>2026-04-26T10:58:27.89Z</time></trkpt><trkpt lat="45.1867929" lon="12.2749317"><ele>-0.20000000000000007</ele><time>2026-04-26T10:58:29.889Z</time></trkpt><trkpt lat="45.1868794" lon="12.2750467"><ele>0.20000000000000007</ele><time>2026-04-26T10:58:31.891Z</time></trkpt><trkpt lat="45.1869359" lon="12.2752006"><ele>0.6000000000000001</ele><time>2026-04-26T10:58:33.893Z</time></trkpt><trkpt lat="45.186952" lon="12.2752881"><ele>1.0</ele><time>2026-04-26T10:58:34.891Z</time></trkpt><trkpt lat="45.1869673" lon="12.2753757"><ele>1.0</ele><time>2026-04-26T10:58:35.887Z</time></trkpt><trkpt lat="45.187021" lon="12.2755283"><ele>1.0</ele><time>2026-04-26T10:58:37.887Z</time></trkpt><trkpt lat="45.1870522" lon="12.2756838"><ele>1.0</ele><time>2026-04-26T10:58:39.893Z</time></trkpt><trkpt lat="45.187024" lon="12.2758311"><ele>1.0</ele><time>2026-04-26T10:58:41.89Z</time></trkpt><trkpt lat="45.1869732" lon="12.2759652"><ele>1.0</ele><time>2026-04-26T10:58:43.888Z</time></trkpt><trkpt lat="45.1869" lon="12.2760742"><ele>0.6000000000000001</ele><time>2026-04-26T10:58:45.887Z</time></trkpt><trkpt lat="45.1868172" lon="12.2761699"><ele>0.20000000000000007</ele><time>2026-04-26T10:58:47.891Z</time></trkpt><trkpt lat="45.1867324" lon="12.2762619"><ele>-0.20000000000000007</ele><time>2026-04-26T10:58:49.89Z</time></trkpt><trkpt lat="45.1866694" lon="12.2763699"><ele>-0.6000000000000001</ele><time>2026-04-26T10:58:51.889Z</time></trkpt><trkpt lat="45.186632" lon="12.2765037"><ele>-1.0</ele><time>2026-04-26T10:58:53.89Z</time></trkpt><trkpt lat="45.1866144" lon="12.2766512"><ele>-1.2000000000000002</ele><time>2026-04-26T10:58:55.891Z</time></trkpt><trkpt lat="45.1866101" lon="12.2767884"><ele>-1.4000000000000001</ele><time>2026-04-26T10:58:57.89Z</time></trkpt><trkpt lat="45.1866295" lon="12.2769167"><ele>-1.6</ele><time>2026-04-26T10:58:59.885Z</time></trkpt><trkpt lat="45.1866603" lon="12.2770579"><ele>-1.8</ele><time>2026-04-26T10:59:01.887Z</time></trkpt><trkpt lat="45.1867179" lon="12.2771846"><ele>-2.0</ele><time>2026-04-26T10:59:03.893Z</time></trkpt><trkpt lat="45.1867749" lon="12.277308"><ele>-1.9999999999999998</ele><time>2026-04-26T10:59:05.89Z</time></trkpt><trkpt lat="45.1867992" lon="12.2774296"><ele>-2.0</ele><time>2026-04-26T10:59:07.892Z</time></trkpt><trkpt lat="45.1867833" lon="12.2775368"><ele>-2.0</ele><time>2026-04-26T10:59:09.889Z</time></trkpt><trkpt lat="45.1867339" lon="12.2776153"><ele>-2.0</ele><time>2026-04-26T10:59:11.891Z</time></trkpt><trkpt lat="45.1866638" lon="12.2776737"><ele>-1.9999999999999998</ele><time>2026-04-26T10:59:13.885Z</time></trkpt><trkpt lat="45.1866118" lon="12.2777476"><ele>-2.0</ele><time>2026-04-26T10:59:15.89Z</time></trkpt><trkpt lat="45.1865673" lon="12.2778398"><ele>-1.6666666666666665</ele><time>2026-04-26T10:59:18.885Z</time></trkpt><trkpt lat="45.1865044" lon="12.2777103"><ele>-1.3333333333333333</ele><time>2026-04-26T10:59:23.885Z</time></trkpt><trkpt lat="45.1864851" lon="12.277617"><ele>-1.0</ele><time>2026-04-26T10:59:25.889Z</time></trkpt><trkpt lat="45.186458" lon="12.2775321"><ele>-0.6666666666666666</ele><time>2026-04-26T10:59:27.885Z</time></trkpt><trkpt lat="45.186429" lon="12.2774307"><ele>-0.3333333333333333</ele><time>2026-04-26T10:59:29.89Z</time></trkpt><trkpt lat="45.1863982" lon="12.2773262"><ele>0.0</ele><time>2026-04-26T10:59:31.885Z</time></trkpt><trkpt lat="45.1863465" lon="12.2772545"><ele>0.16666666666666666</ele><time>2026-04-26T10:59:33.882Z</time></trkpt><trkpt lat="45.1862796" lon="12.2771844"><ele>0.3333333333333333</ele><time>2026-04-26T10:59:36.888Z</time></trkpt><trkpt lat="45.1861954" lon="12.277173"><ele>0.5</ele><time>2026-04-26T10:59:39.889Z</time></trkpt><trkpt lat="45.1861189" lon="12.27719"><ele>0.6666666666666666</ele><time>2026-04-26T10:59:41.89Z</time></trkpt><trkpt lat="45.1860367" lon="12.2771995"><ele>0.8333333333333333</ele><time>2026-04-26T10:59:43.885Z</time></trkpt><trkpt lat="45.1859516" lon="12.2772077"><ele>1.0</ele><time>2026-04-26T10:59:45.889Z</time></trkpt><trkpt lat="45.1858633" lon="12.2772166"><ele>0.9999999999999999</ele><time>2026-04-26T10:59:47.89Z</time></trkpt><trkpt lat="45.1857717" lon="12.277222"><ele>1.0</ele><time>2026-04-26T10:59:49.886Z</time></trkpt><trkpt lat="45.1856915" lon="12.2772247"><ele>1.0</ele><time>2026-04-26T10:59:51.885Z</time></trkpt><trkpt lat="45.1856107" lon="12.2772272"><ele>1.0</ele><time>2026-04-26T10:59:53.891Z</time></trkpt><trkpt lat="45.1855242" lon="12.2772302"><ele>0.9999999999999999</ele><time>2026-04-26T10:59:55.89Z</time></trkpt><trkpt lat="45.1854343" lon="12.2772314"><ele>1.0</ele><time>2026-04-26T10:59:57.888Z</time></trkpt><trkpt lat="45.1853513" lon="12.277229"><ele>0.6666666666666666</ele><time>2026-04-26T10:59:59.891Z</time></trkpt><trkpt lat="45.1852741" lon="12.2772308"><ele>0.3333333333333333</ele><time>2026-04-26T11:00:01.889Z</time></trkpt><trkpt lat="45.1851985" lon="12.2772251"><ele>0.0</ele><time>2026-04-26T11:00:03.885Z</time></trkpt><trkpt lat="45.1851289" lon="12.2772219"><ele>-0.3333333333333333</ele><time>2026-04-26T11:00:05.889Z</time></trkpt><trkpt lat="45.1850594" lon="12.2772133"><ele>-0.6666666666666666</ele><time>2026-04-26T11:00:07.884Z</time></trkpt><trkpt lat="45.1849938" lon="12.2772142"><ele>-1.0</ele><time>2026-04-26T11:00:09.884Z</time></trkpt><trkpt lat="45.1849009" lon="12.2772182"><ele>-0.9999999999999999</ele><time>2026-04-26T11:00:12.894Z</time></trkpt><trkpt lat="45.1848401" lon="12.2773119"><ele>-1.0</ele><time>2026-04-26T11:00:15.89Z</time></trkpt><trkpt lat="45.1848267" lon="12.2774166"><ele>-1.0</ele><time>2026-04-26T11:00:17.886Z</time></trkpt><trkpt lat="45.1848124" lon="12.2775301"><ele>-1.0</ele><time>2026-04-26T11:00:19.89Z</time></trkpt><trkpt lat="45.1847919" lon="12.2776365"><ele>-0.9999999999999999</ele><time>2026-04-26T11:00:21.885Z</time></trkpt><trkpt lat="45.18477" lon="12.2777404"><ele>-1.0</ele><time>2026-04-26T11:00:23.885Z</time></trkpt><trkpt lat="45.1847466" lon="12.2778395"><ele>-0.9999999999999999</ele><time>2026-04-26T11:00:25.89Z</time></trkpt><trkpt lat="45.1846978" lon="12.2779418"><ele>-1.0</ele><time>2026-04-26T11:00:28.889Z</time></trkpt><trkpt lat="45.1846144" lon="12.2779182"><ele>-1.0</ele><time>2026-04-26T11:00:30.885Z</time></trkpt><trkpt lat="45.184518" lon="12.2778781"><ele>-1.0</ele><time>2026-04-26T11:00:32.884Z</time></trkpt><trkpt lat="45.1844251" lon="12.2778453"><ele>-0.9999999999999999</ele><time>2026-04-26T11:00:34.888Z</time></trkpt><trkpt lat="45.1843588" lon="12.2778349"><ele>-1.0</ele><time>2026-04-26T11:00:36.889Z</time></trkpt><trkpt lat="45.1842979" lon="12.2778992"><ele>-0.9999999999999999</ele><time>2026-04-26T11:00:39.88Z</time></trkpt><trkpt lat="45.1843155" lon="12.2780244"><ele>-1.0</ele><time>2026-04-26T11:00:42.889Z</time></trkpt><trkpt lat="45.1843657" lon="12.2780865"><ele>-1.0</ele><time>2026-04-26T11:00:44.886Z</time></trkpt><trkpt lat="45.1844351" lon="12.2781329"><ele>-1.0</ele><time>2026-04-26T11:00:47.887Z</time></trkpt><trkpt lat="45.1845231" lon="12.2781819"><ele>-0.9999999999999999</ele><time>2026-04-26T11:00:50.89Z</time></trkpt><trkpt lat="45.1845815" lon="12.2782177"><ele>-1.0</ele><time>2026-04-26T11:00:52.891Z</time></trkpt><trkpt lat="45.184628" lon="12.2782784"><ele>-0.6666666666666666</ele><time>2026-04-26T11:00:54.891Z</time></trkpt><trkpt lat="45.1846556" lon="12.2783694"><ele>-0.3333333333333333</ele><time>2026-04-26T11:00:56.886Z</time></trkpt><trkpt lat="45.1847075" lon="12.2784681"><ele>0.0</ele><time>2026-04-26T11:00:59.892Z</time></trkpt><trkpt lat="45.1847437" lon="12.2785548"><ele>0.3333333333333333</ele><time>2026-04-26T11:01:03.886Z</time></trkpt><trkpt lat="45.1848238" lon="12.2785934"><ele>0.6666666666666666</ele><time>2026-04-26T11:01:06.886Z</time></trkpt><trkpt lat="45.1848859" lon="12.2786229"><ele>1.0</ele><time>2026-04-26T11:01:08.885Z</time></trkpt><trkpt lat="45.1849597" lon="12.2786553"><ele>1.0</ele><time>2026-04-26T11:01:10.889Z</time></trkpt><trkpt lat="45.1850487" lon="12.2786875"><ele>1.0</ele><time>2026-04-26T11:01:12.887Z</time></trkpt><trkpt lat="45.1851439" lon="12.2787163"><ele>1.0</ele><time>2026-04-26T11:01:14.89Z</time></trkpt><trkpt lat="45.1852371" lon="12.2787511"><ele>1.0</ele><time>2026-04-26T11:01:16.893Z</time></trkpt><trkpt lat="45.1853217" lon="12.2787874"><ele>1.0</ele><time>2026-04-26T11:01:18.88Z</time></trkpt><trkpt lat="45.1854065" lon="12.2788183"><ele>0.9999999999999999</ele><time>2026-04-26T11:01:20.891Z</time></trkpt><trkpt lat="45.1854859" lon="12.2788498"><ele>1.0</ele><time>2026-04-26T11:01:22.89Z</time></trkpt><trkpt lat="45.1855692" lon="12.2788846"><ele>1.0</ele><time>2026-04-26T11:01:24.888Z</time></trkpt><trkpt lat="45.1856547" lon="12.2789119"><ele>1.0</ele><time>2026-04-26T11:01:26.89Z</time></trkpt><trkpt lat="45.1857395" lon="12.2789424"><ele>0.9999999999999999</ele><time>2026-04-26T11:01:28.885Z</time></trkpt><trkpt lat="45.1858255" lon="12.278974"><ele>1.0</ele><time>2026-04-26T11:01:30.88Z</time></trkpt><trkpt lat="45.1859122" lon="12.2789998"><ele>0.8333333333333333</ele><time>2026-04-26T11:01:32.887Z</time></trkpt><trkpt lat="45.1859955" lon="12.2790321"><ele>0.6666666666666666</ele><time>2026-04-26T11:01:34.886Z</time></trkpt><trkpt lat="45.186075" lon="12.2790655"><ele>0.5</ele><time>2026-04-26T11:01:36.887Z</time></trkpt><trkpt lat="45.186155" lon="12.2790972"><ele>0.3333333333333333</ele><time>2026-04-26T11:01:38.885Z</time></trkpt><trkpt lat="45.1862364" lon="12.2791274"><ele>0.16666666666666666</ele><time>2026-04-26T11:01:40.884Z</time></trkpt><trkpt lat="45.1863195" lon="12.2791638"><ele>0.0</ele><time>2026-04-26T11:01:42.894Z</time></trkpt><trkpt lat="45.1864059" lon="12.2791934"><ele>0.0</ele><time>2026-04-26T11:01:44.888Z</time></trkpt><trkpt lat="45.1864861" lon="12.2792296"><ele>0.0</ele><time>2026-04-26T11:01:46.888Z</time></trkpt><trkpt lat="45.1865629" lon="12.2792665"><ele>0.0</ele><time>2026-04-26T11:01:48.892Z</time></trkpt><trkpt lat="45.1866383" lon="12.2793011"><ele>0.0</ele><time>2026-04-26T11:01:50.885Z</time></trkpt><trkpt lat="45.1867156" lon="12.2793367"><ele>0.0</ele><time>2026-04-26T11:01:52.894Z</time></trkpt><trkpt lat="45.186796" lon="12.2793652"><ele>0.0</ele><time>2026-04-26T11:01:54.888Z</time></trkpt><trkpt lat="45.1868789" lon="12.2793916"><ele>0.3333333333333333</ele><time>2026-04-26T11:01:56.89Z</time></trkpt><trkpt lat="45.1869585" lon="12.2794248"><ele>0.6666666666666666</ele><time>2026-04-26T11:01:58.891Z</time></trkpt><trkpt lat="45.1870335" lon="12.2794612"><ele>1.0</ele><time>2026-04-26T11:02:00.888Z</time></trkpt><trkpt lat="45.1871102" lon="12.2794979"><ele>1.3333333333333333</ele><time>2026-04-26T11:02:02.891Z</time></trkpt><trkpt lat="45.187189" lon="12.2795387"><ele>1.6666666666666665</ele><time>2026-04-26T11:02:04.887Z</time></trkpt><trkpt lat="45.1872686" lon="12.279572"><ele>2.0</ele><time>2026-04-26T11:02:06.885Z</time></trkpt><trkpt lat="45.1873417" lon="12.2796056"><ele>1.8333333333333333</ele><time>2026-04-26T11:02:08.89Z</time></trkpt><trkpt lat="45.1874188" lon="12.2796413"><ele>1.6666666666666665</ele><time>2026-04-26T11:02:10.884Z</time></trkpt><trkpt lat="45.1874961" lon="12.2796754"><ele>1.5</ele><time>2026-04-26T11:02:12.881Z</time></trkpt><trkpt lat="45.1875724" lon="12.2797083"><ele>1.3333333333333333</ele><time>2026-04-26T11:02:14.889Z</time></trkpt><trkpt lat="45.1876532" lon="12.2797451"><ele>1.1666666666666665</ele><time>2026-04-26T11:02:16.886Z</time></trkpt><trkpt lat="45.1877295" lon="12.2797814"><ele>1.0</ele><time>2026-04-26T11:02:18.884Z</time></trkpt><trkpt lat="45.1878013" lon="12.2798229"><ele>0.9999999999999999</ele><time>2026-04-26T11:02:20.889Z</time></trkpt><trkpt lat="45.1878738" lon="12.279867"><ele>1.0</ele><time>2026-04-26T11:02:22.892Z</time></trkpt><trkpt lat="45.1879506" lon="12.2799075"><ele>1.0</ele><time>2026-04-26T11:02:24.89Z</time></trkpt><trkpt lat="45.1880274" lon="12.2799443"><ele>1.0</ele><time>2026-04-26T11:02:26.892Z</time></trkpt><trkpt lat="45.1881076" lon="12.2799823"><ele>0.9999999999999999</ele><time>2026-04-26T11:02:28.885Z</time></trkpt><trkpt lat="45.1881874" lon="12.2800183"><ele>1.0</ele><time>2026-04-26T11:02:30.89Z</time></trkpt><trkpt lat="45.1882707" lon="12.2800454"><ele>0.9999999999999999</ele><time>2026-04-26T11:02:32.882Z</time></trkpt><trkpt lat="45.1883572" lon="12.2800638"><ele>1.0</ele><time>2026-04-26T11:02:34.884Z</time></trkpt><trkpt lat="45.1884453" lon="12.2800714"><ele>1.0</ele><time>2026-04-26T11:02:36.887Z</time></trkpt><trkpt lat="45.1885308" lon="12.2800783"><ele>1.0</ele><time>2026-04-26T11:02:38.886Z</time></trkpt><trkpt lat="45.1886174" lon="12.2800891"><ele>0.9999999999999999</ele><time>2026-04-26T11:02:40.889Z</time></trkpt><trkpt lat="45.1887081" lon="12.2800939"><ele>1.0</ele><time>2026-04-26T11:02:42.893Z</time></trkpt><trkpt lat="45.1887956" lon="12.280104"><ele>1.0</ele><time>2026-04-26T11:02:44.891Z</time></trkpt><trkpt lat="45.1888889" lon="12.2801094"><ele>1.0</ele><time>2026-04-26T11:02:46.886Z</time></trkpt><trkpt lat="45.1889794" lon="12.2801137"><ele>1.0</ele><time>2026-04-26T11:02:48.892Z</time></trkpt><trkpt lat="45.189069" lon="12.2801294"><ele>1.0</ele><time>2026-04-26T11:02:50.892Z</time></trkpt><trkpt lat="45.1891619" lon="12.2801378"><ele>1.0</ele><time>2026-04-26T11:02:52.893Z</time></trkpt><trkpt lat="45.1892472" lon="12.2801487"><ele>0.8333333333333333</ele><time>2026-04-26T11:02:54.892Z</time></trkpt><trkpt lat="45.1893344" lon="12.2801604"><ele>0.6666666666666666</ele><time>2026-04-26T11:02:56.892Z</time></trkpt><trkpt lat="45.1894222" lon="12.2801682"><ele>0.5</ele><time>2026-04-26T11:02:58.891Z</time></trkpt><trkpt lat="45.1895076" lon="12.2801855"><ele>0.3333333333333333</ele><time>2026-04-26T11:03:00.888Z</time></trkpt><trkpt lat="45.1895915" lon="12.2802004"><ele>0.16666666666666666</ele><time>2026-04-26T11:03:02.892Z</time></trkpt><trkpt lat="45.1896765" lon="12.2802098"><ele>0.0</ele><time>2026-04-26T11:03:04.883Z</time></trkpt><trkpt lat="45.1897602" lon="12.2802221"><ele>0.0</ele><time>2026-04-26T11:03:06.887Z</time></trkpt><trkpt lat="45.1898456" lon="12.2802318"><ele>0.0</ele><time>2026-04-26T11:03:08.89Z</time></trkpt><trkpt lat="45.1899297" lon="12.2802391"><ele>0.0</ele><time>2026-04-26T11:03:10.886Z</time></trkpt><trkpt lat="45.190014" lon="12.280254"><ele>0.0</ele><time>2026-04-26T11:03:12.89Z</time></trkpt><trkpt lat="45.1901023" lon="12.2802719"><ele>0.0</ele><time>2026-04-26T11:03:14.885Z</time></trkpt><trkpt lat="45.1901929" lon="12.2802921"><ele>0.0</ele><time>2026-04-26T11:03:16.886Z</time></trkpt><trkpt lat="45.1902817" lon="12.2803075"><ele>0.0</ele><time>2026-04-26T11:03:18.889Z</time></trkpt><trkpt lat="45.1903675" lon="12.2803265"><ele>0.0</ele><time>2026-04-26T11:03:20.891Z</time></trkpt><trkpt lat="45.1904534" lon="12.2803498"><ele>0.0</ele><time>2026-04-26T11:03:22.887Z</time></trkpt><trkpt lat="45.1905366" lon="12.28037"><ele>0.0</ele><time>2026-04-26T11:03:24.885Z</time></trkpt><trkpt lat="45.1906203" lon="12.2803899"><ele>0.0</ele><time>2026-04-26T11:03:26.889Z</time></trkpt><trkpt lat="45.1907036" lon="12.2804091"><ele>0.0</ele><time>2026-04-26T11:03:28.889Z</time></trkpt><trkpt lat="45.19079" lon="12.2804306"><ele>0.16666666666666666</ele><time>2026-04-26T11:03:30.889Z</time></trkpt><trkpt lat="45.1908755" lon="12.2804599"><ele>0.3333333333333333</ele><time>2026-04-26T11:03:32.887Z</time></trkpt><trkpt lat="45.1909612" lon="12.2804988"><ele>0.5</ele><time>2026-04-26T11:03:34.887Z</time></trkpt><trkpt lat="45.1910447" lon="12.2805411"><ele>0.6666666666666666</ele><time>2026-04-26T11:03:36.889Z</time></trkpt><trkpt lat="45.1911295" lon="12.2805891"><ele>0.8333333333333333</ele><time>2026-04-26T11:03:38.885Z</time></trkpt><trkpt lat="45.1912154" lon="12.2806317"><ele>1.0</ele><time>2026-04-26T11:03:40.891Z</time></trkpt><trkpt lat="45.1913017" lon="12.2806733"><ele>1.0</ele><time>2026-04-26T11:03:42.89Z</time></trkpt><trkpt lat="45.1913899" lon="12.2807185"><ele>1.0</ele><time>2026-04-26T11:03:44.889Z</time></trkpt><trkpt lat="45.1914718" lon="12.2807589"><ele>1.0</ele><time>2026-04-26T11:03:46.889Z</time></trkpt><trkpt lat="45.1915509" lon="12.2808004"><ele>1.0</ele><time>2026-04-26T11:03:48.886Z</time></trkpt><trkpt lat="45.1916353" lon="12.280848"><ele>1.0</ele><time>2026-04-26T11:03:50.89Z</time></trkpt><trkpt lat="45.1917253" lon="12.2808888"><ele>1.2000000000000002</ele><time>2026-04-26T11:03:52.893Z</time></trkpt><trkpt lat="45.1918158" lon="12.2809302"><ele>1.4000000000000001</ele><time>2026-04-26T11:03:54.89Z</time></trkpt><trkpt lat="45.1919018" lon="12.2809732"><ele>1.6</ele><time>2026-04-26T11:03:56.889Z</time></trkpt><trkpt lat="45.1919872" lon="12.2810144"><ele>1.8</ele><time>2026-04-26T11:03:58.89Z</time></trkpt><trkpt lat="45.1920704" lon="12.2810555"><ele>2.0</ele><time>2026-04-26T11:04:00.89Z</time></trkpt><trkpt lat="45.1921524" lon="12.281094"><ele>1.9999999999999998</ele><time>2026-04-26T11:04:02.884Z</time></trkpt><trkpt lat="45.1922343" lon="12.2811344"><ele>2.0</ele><time>2026-04-26T11:04:04.888Z</time></trkpt><trkpt lat="45.1923124" lon="12.281171"><ele>2.0</ele><time>2026-04-26T11:04:06.888Z</time></trkpt><trkpt lat="45.1923823" lon="12.2812065"><ele>2.0</ele><time>2026-04-26T11:04:08.891Z</time></trkpt><trkpt lat="45.1924487" lon="12.2812551"><ele>1.9999999999999998</ele><time>2026-04-26T11:04:10.888Z</time></trkpt><trkpt lat="45.1925314" lon="12.2813044"><ele>2.0</ele><time>2026-04-26T11:04:12.891Z</time></trkpt><trkpt lat="45.1926148" lon="12.2813508"><ele>1.8</ele><time>2026-04-26T11:04:14.89Z</time></trkpt><trkpt lat="45.1927042" lon="12.2813957"><ele>1.6</ele><time>2026-04-26T11:04:16.886Z</time></trkpt><trkpt lat="45.1927898" lon="12.2814335"><ele>1.4000000000000001</ele><time>2026-04-26T11:04:18.884Z</time></trkpt><trkpt lat="45.1928749" lon="12.2814702"><ele>1.2000000000000002</ele><time>2026-04-26T11:04:20.885Z</time></trkpt><trkpt lat="45.1929619" lon="12.2815006"><ele>1.0</ele><time>2026-04-26T11:04:22.891Z</time></trkpt><trkpt lat="45.1930515" lon="12.2815299"><ele>0.9999999999999999</ele><time>2026-04-26T11:04:24.889Z</time></trkpt><trkpt lat="45.1931392" lon="12.2815527"><ele>1.0</ele><time>2026-04-26T11:04:26.89Z</time></trkpt><trkpt lat="45.1932252" lon="12.2815772"><ele>1.0</ele><time>2026-04-26T11:04:28.891Z</time></trkpt><trkpt lat="45.1933116" lon="12.2816013"><ele>1.0</ele><time>2026-04-26T11:04:30.887Z</time></trkpt><trkpt lat="45.1933941" lon="12.2816254"><ele>0.9999999999999999</ele><time>2026-04-26T11:04:32.886Z</time></trkpt><trkpt lat="45.1934823" lon="12.2816489"><ele>1.0</ele><time>2026-04-26T11:04:34.893Z</time></trkpt><trkpt lat="45.1935722" lon="12.281677"><ele>0.9999999999999999</ele><time>2026-04-26T11:04:36.889Z</time></trkpt><trkpt lat="45.1936599" lon="12.2817063"><ele>1.0</ele><time>2026-04-26T11:04:38.885Z</time></trkpt><trkpt lat="45.193739" lon="12.2817397"><ele>1.0</ele><time>2026-04-26T11:04:40.895Z</time></trkpt><trkpt lat="45.1938226" lon="12.2817649"><ele>1.0</ele><time>2026-04-26T11:04:42.895Z</time></trkpt><trkpt lat="45.1939122" lon="12.2817922"><ele>0.9999999999999999</ele><time>2026-04-26T11:04:44.892Z</time></trkpt><trkpt lat="45.1940018" lon="12.2818181"><ele>1.0</ele><time>2026-04-26T11:04:46.887Z</time></trkpt><trkpt lat="45.194095" lon="12.2818447"><ele>1.3333333333333333</ele><time>2026-04-26T11:04:48.886Z</time></trkpt><trkpt lat="45.1941829" lon="12.2818719"><ele>1.6666666666666665</ele><time>2026-04-26T11:04:50.886Z</time></trkpt><trkpt lat="45.1942661" lon="12.2818985"><ele>2.0</ele><time>2026-04-26T11:04:52.89Z</time></trkpt><trkpt lat="45.1943492" lon="12.2819295"><ele>2.3333333333333335</ele><time>2026-04-26T11:04:54.893Z</time></trkpt><trkpt lat="45.194437" lon="12.2819634"><ele>2.6666666666666665</ele><time>2026-04-26T11:04:56.889Z</time></trkpt><trkpt lat="45.1945257" lon="12.281997"><ele>3.0</ele><time>2026-04-26T11:04:58.887Z</time></trkpt><trkpt lat="45.1946095" lon="12.2820278"><ele>3.0</ele><time>2026-04-26T11:05:00.889Z</time></trkpt><trkpt lat="45.1946934" lon="12.2820545"><ele>3.0</ele><time>2026-04-26T11:05:02.892Z</time></trkpt><trkpt lat="45.1947727" lon="12.2820802"><ele>3.0</ele><time>2026-04-26T11:05:04.888Z</time></trkpt><trkpt lat="45.194853" lon="12.2821071"><ele>3.0</ele><time>2026-04-26T11:05:06.886Z</time></trkpt><trkpt lat="45.1949365" lon="12.2821323"><ele>3.0</ele><time>2026-04-26T11:05:08.885Z</time></trkpt><trkpt lat="45.1950206" lon="12.2821551"><ele>3.0</ele><time>2026-04-26T11:05:10.885Z</time></trkpt><trkpt lat="45.1951038" lon="12.2821812"><ele>2.6666666666666665</ele><time>2026-04-26T11:05:12.893Z</time></trkpt><trkpt lat="45.1951853" lon="12.2822091"><ele>2.3333333333333335</ele><time>2026-04-26T11:05:14.883Z</time></trkpt><trkpt lat="45.1952647" lon="12.282236"><ele>2.0</ele><time>2026-04-26T11:05:16.886Z</time></trkpt><trkpt lat="45.1953409" lon="12.282266"><ele>1.6666666666666665</ele><time>2026-04-26T11:05:18.892Z</time></trkpt><trkpt lat="45.1954147" lon="12.2822848"><ele>1.3333333333333333</ele><time>2026-04-26T11:05:20.886Z</time></trkpt><trkpt lat="45.1954845" lon="12.2822989"><ele>1.0</ele><time>2026-04-26T11:05:22.89Z</time></trkpt><trkpt lat="45.1955575" lon="12.2823159"><ele>1.0</ele><time>2026-04-26T11:05:24.893Z</time></trkpt><trkpt lat="45.1956272" lon="12.282327"><ele>0.9999999999999999</ele><time>2026-04-26T11:05:26.885Z</time></trkpt><trkpt lat="45.1957088" lon="12.2823259"><ele>1.0</ele><time>2026-04-26T11:05:29.895Z</time></trkpt><trkpt lat="45.1957709" lon="12.2822812"><ele>1.0</ele><time>2026-04-26T11:05:32.886Z</time></trkpt><trkpt lat="45.1958217" lon="12.2822254"><ele>0.9999999999999999</ele><time>2026-04-26T11:05:35.886Z</time></trkpt><trkpt lat="45.1958757" lon="12.2821487"><ele>1.0</ele><time>2026-04-26T11:05:38.891Z</time></trkpt><trkpt lat="45.195919" lon="12.2820669"><ele>1.0</ele><time>2026-04-26T11:05:41.889Z</time></trkpt><trkpt lat="45.1959513" lon="12.2819621"><ele>1.0</ele><time>2026-04-26T11:05:44.887Z</time></trkpt><trkpt lat="45.1959638" lon="12.2818697"><ele>0.9999999999999999</ele><time>2026-04-26T11:05:47.885Z</time></trkpt><trkpt lat="45.1960122" lon="12.281793"><ele>1.0</ele><time>2026-04-26T11:05:51.892Z</time></trkpt><trkpt lat="45.196091" lon="12.28177"><ele>1.0</ele><time>2026-04-26T11:05:55.891Z</time></trkpt><trkpt lat="45.1961277" lon="12.2816943"><ele>0.9999999999999999</ele><time>2026-04-26T11:05:57.887Z</time></trkpt><trkpt lat="45.1961509" lon="12.2815867"><ele>1.0</ele><time>2026-04-26T11:05:59.893Z</time></trkpt><trkpt lat="45.1961839" lon="12.2814772"><ele>1.0</ele><time>2026-04-26T11:06:01.885Z</time></trkpt><trkpt lat="45.1962139" lon="12.2813656"><ele>0.9999999999999999</ele><time>2026-04-26T11:06:03.893Z</time></trkpt><trkpt lat="45.1962479" lon="12.2812561"><ele>1.0</ele><time>2026-04-26T11:06:05.892Z</time></trkpt><trkpt lat="45.1962749" lon="12.281145"><ele>1.0</ele><time>2026-04-26T11:06:07.891Z</time></trkpt><trkpt lat="45.196306" lon="12.2810369"><ele>1.0</ele><time>2026-04-26T11:06:09.889Z</time></trkpt><trkpt lat="45.1963296" lon="12.2809322"><ele>0.9999999999999999</ele><time>2026-04-26T11:06:11.886Z</time></trkpt><trkpt lat="45.1963576" lon="12.2808235"><ele>1.0</ele><time>2026-04-26T11:06:13.889Z</time></trkpt><trkpt lat="45.1963879" lon="12.2807169"><ele>0.9999999999999999</ele><time>2026-04-26T11:06:15.889Z</time></trkpt><trkpt lat="45.1964171" lon="12.2806151"><ele>1.0</ele><time>2026-04-26T11:06:17.89Z</time></trkpt><trkpt lat="45.1964442" lon="12.2805147"><ele>1.0</ele><time>2026-04-26T11:06:19.883Z</time></trkpt><trkpt lat="45.1964659" lon="12.280416"><ele>1.0</ele><time>2026-04-26T11:06:21.889Z</time></trkpt><trkpt lat="45.1964931" lon="12.2803198"><ele>0.9999999999999999</ele><time>2026-04-26T11:06:23.89Z</time></trkpt><trkpt lat="45.1965158" lon="12.2802277"><ele>1.0</ele><time>2026-04-26T11:06:25.892Z</time></trkpt><trkpt lat="45.1965543" lon="12.2801145"><ele>0.6666666666666666</ele><time>2026-04-26T11:06:28.889Z</time></trkpt><trkpt lat="45.1966066" lon="12.280004"><ele>0.3333333333333333</ele><time>2026-04-26T11:06:31.89Z</time></trkpt><trkpt lat="45.1966511" lon="12.2799181"><ele>0.0</ele><time>2026-04-26T11:06:33.884Z</time></trkpt><trkpt lat="45.1966959" lon="12.2798191"><ele>-0.3333333333333333</ele><time>2026-04-26T11:06:35.89Z</time></trkpt><trkpt lat="45.1967388" lon="12.2797222"><ele>-0.6666666666666666</ele><time>2026-04-26T11:06:37.889Z</time></trkpt><trkpt lat="45.1967822" lon="12.2796346"><ele>-1.0</ele><time>2026-04-26T11:06:39.885Z</time></trkpt><trkpt lat="45.1968197" lon="12.2795472"><ele>-0.9999999999999999</ele><time>2026-04-26T11:06:41.886Z</time></trkpt><trkpt lat="45.19686" lon="12.2794645"><ele>-1.0</ele><time>2026-04-26T11:06:43.887Z</time></trkpt><trkpt lat="45.1969059" lon="12.2793759"><ele>-1.0</ele><time>2026-04-26T11:06:45.89Z</time></trkpt><trkpt lat="45.1969543" lon="12.2792737"><ele>-1.0</ele><time>2026-04-26T11:06:47.892Z</time></trkpt><trkpt lat="45.1970013" lon="12.2791621"><ele>-0.9999999999999999</ele><time>2026-04-26T11:06:49.889Z</time></trkpt><trkpt lat="45.1970279" lon="12.2790278"><ele>-1.0</ele><time>2026-04-26T11:06:51.891Z</time></trkpt><trkpt lat="45.1970496" lon="12.2788784"><ele>-0.8</ele><time>2026-04-26T11:06:53.892Z</time></trkpt><trkpt lat="45.1970724" lon="12.2787236"><ele>-0.6000000000000001</ele><time>2026-04-26T11:06:55.891Z</time></trkpt><trkpt lat="45.1971057" lon="12.2785764"><ele>-0.4</ele><time>2026-04-26T11:06:57.89Z</time></trkpt><trkpt lat="45.197143" lon="12.2784345"><ele>-0.2</ele><time>2026-04-26T11:06:59.891Z</time></trkpt><trkpt lat="45.1971717" lon="12.2782936"><ele>0.0</ele><time>2026-04-26T11:07:01.89Z</time></trkpt><trkpt lat="45.1971961" lon="12.2781602"><ele>0.16666666666666666</ele><time>2026-04-26T11:07:03.888Z</time></trkpt><trkpt lat="45.1972234" lon="12.2780336"><ele>0.3333333333333333</ele><time>2026-04-26T11:07:05.894Z</time></trkpt><trkpt lat="45.197249" lon="12.2779138"><ele>0.5</ele><time>2026-04-26T11:07:07.885Z</time></trkpt><trkpt lat="45.1972808" lon="12.2778051"><ele>0.6666666666666666</ele><time>2026-04-26T11:07:09.886Z</time></trkpt><trkpt lat="45.1973122" lon="12.2776895"><ele>0.8333333333333333</ele><time>2026-04-26T11:07:11.882Z</time></trkpt><trkpt lat="45.197331" lon="12.2775723"><ele>1.0</ele><time>2026-04-26T11:07:13.887Z</time></trkpt><trkpt lat="45.1973464" lon="12.2774433"><ele>0.9999999999999999</ele><time>2026-04-26T11:07:15.887Z</time></trkpt><trkpt lat="45.1973526" lon="12.2773072"><ele>1.0</ele><time>2026-04-26T11:07:17.884Z</time></trkpt><trkpt lat="45.1973541" lon="12.2771851"><ele>1.0</ele><time>2026-04-26T11:07:19.888Z</time></trkpt><trkpt lat="45.1973689" lon="12.2770715"><ele>1.0</ele><time>2026-04-26T11:07:21.889Z</time></trkpt><trkpt lat="45.1973833" lon="12.2769639"><ele>0.9999999999999999</ele><time>2026-04-26T11:07:23.885Z</time></trkpt><trkpt lat="45.1973882" lon="12.2768645"><ele>1.0</ele><time>2026-04-26T11:07:25.889Z</time></trkpt><trkpt lat="45.1974336" lon="12.2767656"><ele>0.9999999999999999</ele><time>2026-04-26T11:07:28.886Z</time></trkpt><trkpt lat="45.1974984" lon="12.276767"><ele>1.0</ele><time>2026-04-26T11:07:30.883Z</time></trkpt><trkpt lat="45.1975937" lon="12.2767977"><ele>1.0</ele><time>2026-04-26T11:07:33.885Z</time></trkpt><trkpt lat="45.1976742" lon="12.2768315"><ele>1.0</ele><time>2026-04-26T11:07:35.882Z</time></trkpt><trkpt lat="45.1977634" lon="12.2768529"><ele>0.9999999999999999</ele><time>2026-04-26T11:07:37.882Z</time></trkpt><trkpt lat="45.1978517" lon="12.2768625"><ele>1.0</ele><time>2026-04-26T11:07:39.885Z</time></trkpt><trkpt lat="45.1979407" lon="12.276868"><ele>1.0</ele><time>2026-04-26T11:07:41.885Z</time></trkpt><trkpt lat="45.1980332" lon="12.2768761"><ele>1.0</ele><time>2026-04-26T11:07:43.883Z</time></trkpt><trkpt lat="45.1981204" lon="12.276895"><ele>1.0</ele><time>2026-04-26T11:07:45.882Z</time></trkpt><trkpt lat="45.1982126" lon="12.2769211"><ele>1.0</ele><time>2026-04-26T11:07:47.89Z</time></trkpt><trkpt lat="45.1983067" lon="12.276929"><ele>1.0</ele><time>2026-04-26T11:07:49.887Z</time></trkpt><trkpt lat="45.1983938" lon="12.2769318"><ele>1.1666666666666665</ele><time>2026-04-26T11:07:51.886Z</time></trkpt><trkpt lat="45.1984766" lon="12.276948"><ele>1.3333333333333333</ele><time>2026-04-26T11:07:53.883Z</time></trkpt><trkpt lat="45.1985605" lon="12.2769705"><ele>1.5</ele><time>2026-04-26T11:07:55.885Z</time></trkpt><trkpt lat="45.1986481" lon="12.2769862"><ele>1.6666666666666665</ele><time>2026-04-26T11:07:57.882Z</time></trkpt><trkpt lat="45.1987385" lon="12.2769983"><ele>1.8333333333333333</ele><time>2026-04-26T11:07:59.883Z</time></trkpt><trkpt lat="45.1988299" lon="12.277011"><ele>2.0</ele><time>2026-04-26T11:08:01.884Z</time></trkpt><trkpt lat="45.198921" lon="12.2770276"><ele>1.6</ele><time>2026-04-26T11:08:03.883Z</time></trkpt><trkpt lat="45.199012" lon="12.2770496"><ele>1.2000000000000002</ele><time>2026-04-26T11:08:05.887Z</time></trkpt><trkpt lat="45.1991017" lon="12.2770737"><ele>0.8</ele><time>2026-04-26T11:08:07.885Z</time></trkpt><trkpt lat="45.1991958" lon="12.2770838"><ele>0.4</ele><time>2026-04-26T11:08:09.889Z</time></trkpt><trkpt lat="45.1992915" lon="12.2770668"><ele>0.0</ele><time>2026-04-26T11:08:11.883Z</time></trkpt><trkpt lat="45.1993865" lon="12.2770458"><ele>0.0</ele><time>2026-04-26T11:08:13.887Z</time></trkpt><trkpt lat="45.1994796" lon="12.277043"><ele>0.0</ele><time>2026-04-26T11:08:15.886Z</time></trkpt><trkpt lat="45.1995764" lon="12.2770471"><ele>0.0</ele><time>2026-04-26T11:08:17.884Z</time></trkpt><trkpt lat="45.1996751" lon="12.2770504"><ele>0.0</ele><time>2026-04-26T11:08:19.884Z</time></trkpt><trkpt lat="45.1997795" lon="12.2770559"><ele>0.0</ele><time>2026-04-26T11:08:21.884Z</time></trkpt><trkpt lat="45.1998837" lon="12.2770591"><ele>0.4</ele><time>2026-04-26T11:08:23.887Z</time></trkpt><trkpt lat="45.1999871" lon="12.2770572"><ele>0.8</ele><time>2026-04-26T11:08:25.887Z</time></trkpt><trkpt lat="45.2000883" lon="12.2770578"><ele>1.2000000000000002</ele><time>2026-04-26T11:08:27.885Z</time></trkpt><trkpt lat="45.200191" lon="12.2770621"><ele>1.6</ele><time>2026-04-26T11:08:29.885Z</time></trkpt><trkpt lat="45.2002903" lon="12.2770757"><ele>2.0</ele><time>2026-04-26T11:08:31.886Z</time></trkpt><trkpt lat="45.2003918" lon="12.2770821"><ele>2.0</ele><time>2026-04-26T11:08:33.885Z</time></trkpt><trkpt lat="45.2004998" lon="12.2770869"><ele>2.0</ele><time>2026-04-26T11:08:35.884Z</time></trkpt><trkpt lat="45.200609" lon="12.2770899"><ele>2.0</ele><time>2026-04-26T11:08:37.885Z</time></trkpt><trkpt lat="45.2007162" lon="12.27709"><ele>2.0</ele><time>2026-04-26T11:08:39.885Z</time></trkpt><trkpt lat="45.2008195" lon="12.2770927"><ele>2.0</ele><time>2026-04-26T11:08:41.884Z</time></trkpt><trkpt lat="45.2009331" lon="12.2771032"><ele>2.0</ele><time>2026-04-26T11:08:43.885Z</time></trkpt><trkpt lat="45.2010472" lon="12.2771043"><ele>2.0</ele><time>2026-04-26T11:08:45.886Z</time></trkpt><trkpt lat="45.2011636" lon="12.2771136"><ele>2.0</ele><time>2026-04-26T11:08:47.881Z</time></trkpt><trkpt lat="45.201273" lon="12.2771221"><ele>2.0</ele><time>2026-04-26T11:08:49.884Z</time></trkpt><trkpt lat="45.2013859" lon="12.2771174"><ele>2.0</ele><time>2026-04-26T11:08:51.888Z</time></trkpt><trkpt lat="45.2014976" lon="12.2771024"><ele>2.0</ele><time>2026-04-26T11:08:53.885Z</time></trkpt><trkpt lat="45.201609" lon="12.2770774"><ele>2.0</ele><time>2026-04-26T11:08:55.892Z</time></trkpt><trkpt lat="45.2017196" lon="12.2770606"><ele>2.0</ele><time>2026-04-26T11:08:57.889Z</time></trkpt><trkpt lat="45.2018197" lon="12.277036"><ele>2.0</ele><time>2026-04-26T11:08:59.885Z</time></trkpt><trkpt lat="45.2019205" lon="12.277011"><ele>1.6</ele><time>2026-04-26T11:09:01.889Z</time></trkpt><trkpt lat="45.2020269" lon="12.2769904"><ele>1.2000000000000002</ele><time>2026-04-26T11:09:03.886Z</time></trkpt><trkpt lat="45.2021345" lon="12.2769748"><ele>0.8</ele><time>2026-04-26T11:09:05.892Z</time></trkpt><trkpt lat="45.2022373" lon="12.2769465"><ele>0.4</ele><time>2026-04-26T11:09:07.889Z</time></trkpt><trkpt lat="45.2023421" lon="12.2769189"><ele>0.0</ele><time>2026-04-26T11:09:09.89Z</time></trkpt><trkpt lat="45.2024497" lon="12.2768956"><ele>0.0</ele><time>2026-04-26T11:09:11.888Z</time></trkpt><trkpt lat="45.2025578" lon="12.2768762"><ele>0.0</ele><time>2026-04-26T11:09:13.891Z</time></trkpt><trkpt lat="45.202664" lon="12.2768681"><ele>0.0</ele><time>2026-04-26T11:09:15.89Z</time></trkpt><trkpt lat="45.2027712" lon="12.2768642"><ele>0.0</ele><time>2026-04-26T11:09:17.883Z</time></trkpt><trkpt lat="45.2028785" lon="12.276836"><ele>0.0</ele><time>2026-04-26T11:09:19.886Z</time></trkpt><trkpt lat="45.2029811" lon="12.2768195"><ele>0.0</ele><time>2026-04-26T11:09:21.888Z</time></trkpt><trkpt lat="45.2030856" lon="12.276803"><ele>0.0</ele><time>2026-04-26T11:09:23.891Z</time></trkpt><trkpt lat="45.2031896" lon="12.2767835"><ele>0.0</ele><time>2026-04-26T11:09:25.889Z</time></trkpt><trkpt lat="45.2032936" lon="12.2767657"><ele>0.0</ele><time>2026-04-26T11:09:27.891Z</time></trkpt><trkpt lat="45.2033936" lon="12.2767502"><ele>0.0</ele><time>2026-04-26T11:09:29.892Z</time></trkpt><trkpt lat="45.2034862" lon="12.2767275"><ele>0.8</ele><time>2026-04-26T11:09:31.892Z</time></trkpt><trkpt lat="45.2035822" lon="12.2767044"><ele>1.6</ele><time>2026-04-26T11:09:33.889Z</time></trkpt><trkpt lat="45.2036848" lon="12.2766903"><ele>2.4000000000000004</ele><time>2026-04-26T11:09:35.891Z</time></trkpt><trkpt lat="45.203784" lon="12.2766745"><ele>3.2</ele><time>2026-04-26T11:09:37.892Z</time></trkpt><trkpt lat="45.2038862" lon="12.276661"><ele>4.0</ele><time>2026-04-26T11:09:39.889Z</time></trkpt><trkpt lat="45.2039895" lon="12.2766461"><ele>3.6</ele><time>2026-04-26T11:09:41.886Z</time></trkpt><trkpt lat="45.2040957" lon="12.2766315"><ele>3.2</ele><time>2026-04-26T11:09:43.891Z</time></trkpt><trkpt lat="45.2042026" lon="12.2766127"><ele>2.8000000000000003</ele><time>2026-04-26T11:09:45.891Z</time></trkpt><trkpt lat="45.204314" lon="12.2765883"><ele>2.4000000000000004</ele><time>2026-04-26T11:09:47.889Z</time></trkpt><trkpt lat="45.2044179" lon="12.2765596"><ele>2.0</ele><time>2026-04-26T11:09:49.893Z</time></trkpt><trkpt lat="45.2045204" lon="12.2765395"><ele>2.0</ele><time>2026-04-26T11:09:51.896Z</time></trkpt><trkpt lat="45.2046269" lon="12.2765154"><ele>2.0</ele><time>2026-04-26T11:09:53.892Z</time></trkpt><trkpt lat="45.2047285" lon="12.2764878"><ele>2.0</ele><time>2026-04-26T11:09:55.89Z</time></trkpt><trkpt lat="45.204835" lon="12.2764627"><ele>2.0</ele><time>2026-04-26T11:09:57.895Z</time></trkpt><trkpt lat="45.2049414" lon="12.2764373"><ele>2.0</ele><time>2026-04-26T11:09:59.897Z</time></trkpt><trkpt lat="45.205051" lon="12.2764161"><ele>2.4000000000000004</ele><time>2026-04-26T11:10:01.9Z</time></trkpt><trkpt lat="45.2051571" lon="12.2763974"><ele>2.8000000000000003</ele><time>2026-04-26T11:10:03.894Z</time></trkpt><trkpt lat="45.2052537" lon="12.2763712"><ele>3.2</ele><time>2026-04-26T11:10:05.899Z</time></trkpt><trkpt lat="45.2053504" lon="12.2763432"><ele>3.6</ele><time>2026-04-26T11:10:07.887Z</time></trkpt><trkpt lat="45.2054522" lon="12.2763166"><ele>4.0</ele><time>2026-04-26T11:10:09.889Z</time></trkpt><trkpt lat="45.2055536" lon="12.2762955"><ele>4.0</ele><time>2026-04-26T11:10:11.893Z</time></trkpt><trkpt lat="45.2056557" lon="12.2762798"><ele>4.0</ele><time>2026-04-26T11:10:13.891Z</time></trkpt><trkpt lat="45.2057526" lon="12.276259"><ele>4.0</ele><time>2026-04-26T11:10:15.89Z</time></trkpt><trkpt lat="45.2058478" lon="12.2762358"><ele>4.0</ele><time>2026-04-26T11:10:17.893Z</time></trkpt><trkpt lat="45.2059483" lon="12.2762087"><ele>4.0</ele><time>2026-04-26T11:10:19.886Z</time></trkpt><trkpt lat="45.2060525" lon="12.2761902"><ele>3.6</ele><time>2026-04-26T11:10:21.892Z</time></trkpt><trkpt lat="45.2061569" lon="12.2761675"><ele>3.2</ele><time>2026-04-26T11:10:23.893Z</time></trkpt><trkpt lat="45.2062573" lon="12.2761444"><ele>2.8000000000000003</ele><time>2026-04-26T11:10:25.891Z</time></trkpt><trkpt lat="45.2063548" lon="12.2761227"><ele>2.4000000000000004</ele><time>2026-04-26T11:10:27.894Z</time></trkpt><trkpt lat="45.2064549" lon="12.2760997"><ele>2.0</ele><time>2026-04-26T11:10:29.89Z</time></trkpt><trkpt lat="45.2065527" lon="12.2760756"><ele>1.6</ele><time>2026-04-26T11:10:31.89Z</time></trkpt><trkpt lat="45.2066489" lon="12.2760468"><ele>1.2000000000000002</ele><time>2026-04-26T11:10:33.897Z</time></trkpt><trkpt lat="45.2067443" lon="12.2760174"><ele>0.8</ele><time>2026-04-26T11:10:35.889Z</time></trkpt><trkpt lat="45.2068404" lon="12.2759972"><ele>0.4</ele><time>2026-04-26T11:10:37.885Z</time></trkpt><trkpt lat="45.2069409" lon="12.275982"><ele>0.0</ele><time>2026-04-26T11:10:39.892Z</time></trkpt><trkpt lat="45.2070425" lon="12.275965"><ele>0.0</ele><time>2026-04-26T11:10:41.889Z</time></trkpt><trkpt lat="45.207141" lon="12.2759415"><ele>0.0</ele><time>2026-04-26T11:10:43.888Z</time></trkpt><trkpt lat="45.2072493" lon="12.275925"><ele>0.0</ele><time>2026-04-26T11:10:45.889Z</time></trkpt><trkpt lat="45.2073513" lon="12.275904"><ele>0.0</ele><time>2026-04-26T11:10:47.89Z</time></trkpt><trkpt lat="45.2074532" lon="12.2758791"><ele>0.0</ele><time>2026-04-26T11:10:49.888Z</time></trkpt><trkpt lat="45.2075514" lon="12.2758547"><ele>-0.2</ele><time>2026-04-26T11:10:51.887Z</time></trkpt><trkpt lat="45.2076522" lon="12.2758328"><ele>-0.4</ele><time>2026-04-26T11:10:53.89Z</time></trkpt><trkpt lat="45.2077571" lon="12.275808"><ele>-0.6000000000000001</ele><time>2026-04-26T11:10:55.888Z</time></trkpt><trkpt lat="45.2078634" lon="12.2757855"><ele>-0.8</ele><time>2026-04-26T11:10:57.889Z</time></trkpt><trkpt lat="45.2079758" lon="12.2757685"><ele>-1.0</ele><time>2026-04-26T11:10:59.885Z</time></trkpt><trkpt lat="45.2080832" lon="12.2757463"><ele>-1.0</ele><time>2026-04-26T11:11:01.886Z</time></trkpt><trkpt lat="45.2081732" lon="12.2757304"><ele>-1.0</ele><time>2026-04-26T11:11:03.882Z</time></trkpt><trkpt lat="45.2082654" lon="12.275731"><ele>-1.0</ele><time>2026-04-26T11:11:05.888Z</time></trkpt><trkpt lat="45.2083653" lon="12.2757371"><ele>-1.0</ele><time>2026-04-26T11:11:07.881Z</time></trkpt><trkpt lat="45.2084749" lon="12.275748"><ele>-1.0</ele><time>2026-04-26T11:11:09.89Z</time></trkpt><trkpt lat="45.2085871" lon="12.2757622"><ele>-1.0</ele><time>2026-04-26T11:11:11.884Z</time></trkpt><trkpt lat="45.208696" lon="12.2757756"><ele>-1.0</ele><time>2026-04-26T11:11:13.892Z</time></trkpt><trkpt lat="45.2087985" lon="12.2757998"><ele>-1.0</ele><time>2026-04-26T11:11:15.884Z</time></trkpt><trkpt lat="45.2088957" lon="12.275821"><ele>-1.0</ele><time>2026-04-26T11:11:17.882Z</time></trkpt><trkpt lat="45.2089996" lon="12.2758393"><ele>-1.0</ele><time>2026-04-26T11:11:19.89Z</time></trkpt><trkpt lat="45.2090971" lon="12.2758518"><ele>-1.0</ele><time>2026-04-26T11:11:21.891Z</time></trkpt><trkpt lat="45.2091934" lon="12.2758645"><ele>-1.0</ele><time>2026-04-26T11:11:23.887Z</time></trkpt><trkpt lat="45.2092923" lon="12.2758836"><ele>-1.0</ele><time>2026-04-26T11:11:25.884Z</time></trkpt><trkpt lat="45.2093808" lon="12.2759035"><ele>-1.0</ele><time>2026-04-26T11:11:27.883Z</time></trkpt><trkpt lat="45.2094677" lon="12.2759257"><ele>-1.0</ele><time>2026-04-26T11:11:29.882Z</time></trkpt><trkpt lat="45.2095529" lon="12.2759455"><ele>-1.0</ele><time>2026-04-26T11:11:31.891Z</time></trkpt><trkpt lat="45.2096381" lon="12.2759672"><ele>-1.0</ele><time>2026-04-26T11:11:33.894Z</time></trkpt><trkpt lat="45.2097305" lon="12.275985"><ele>-1.0</ele><time>2026-04-26T11:11:35.89Z</time></trkpt><trkpt lat="45.2098222" lon="12.2760025"><ele>-1.0</ele><time>2026-04-26T11:11:37.891Z</time></trkpt><trkpt lat="45.2099205" lon="12.2760224"><ele>-1.0</ele><time>2026-04-26T11:11:39.889Z</time></trkpt><trkpt lat="45.210024" lon="12.2760393"><ele>-0.8</ele><time>2026-04-26T11:11:41.891Z</time></trkpt><trkpt lat="45.2101261" lon="12.2760559"><ele>-0.6000000000000001</ele><time>2026-04-26T11:11:43.889Z</time></trkpt><trkpt lat="45.2102316" lon="12.2760778"><ele>-0.4</ele><time>2026-04-26T11:11:45.89Z</time></trkpt><trkpt lat="45.2103303" lon="12.2761008"><ele>-0.2</ele><time>2026-04-26T11:11:47.886Z</time></trkpt><trkpt lat="45.2104283" lon="12.2761243"><ele>0.0</ele><time>2026-04-26T11:11:49.892Z</time></trkpt><trkpt lat="45.2105265" lon="12.2761406"><ele>0.0</ele><time>2026-04-26T11:11:51.89Z</time></trkpt><trkpt lat="45.2106208" lon="12.2761586"><ele>0.0</ele><time>2026-04-26T11:11:53.893Z</time></trkpt><trkpt lat="45.2107184" lon="12.2761848"><ele>0.0</ele><time>2026-04-26T11:11:55.89Z</time></trkpt><trkpt lat="45.210818" lon="12.2762036"><ele>0.0</ele><time>2026-04-26T11:11:57.884Z</time></trkpt><trkpt lat="45.2109129" lon="12.2762225"><ele>0.0</ele><time>2026-04-26T11:11:59.887Z</time></trkpt><trkpt lat="45.2110059" lon="12.2762421"><ele>0.2</ele><time>2026-04-26T11:12:01.886Z</time></trkpt><trkpt lat="45.2111026" lon="12.2762593"><ele>0.4</ele><time>2026-04-26T11:12:03.89Z</time></trkpt><trkpt lat="45.2112004" lon="12.2762803"><ele>0.6000000000000001</ele><time>2026-04-26T11:12:05.889Z</time></trkpt><trkpt lat="45.2112961" lon="12.2762972"><ele>0.8</ele><time>2026-04-26T11:12:07.888Z</time></trkpt><trkpt lat="45.2113937" lon="12.2763213"><ele>1.0</ele><time>2026-04-26T11:12:09.886Z</time></trkpt><trkpt lat="45.2114913" lon="12.276341"><ele>1.0</ele><time>2026-04-26T11:12:11.887Z</time></trkpt><trkpt lat="45.2115914" lon="12.2763557"><ele>1.0</ele><time>2026-04-26T11:12:13.881Z</time></trkpt><trkpt lat="45.2116847" lon="12.2763755"><ele>1.0</ele><time>2026-04-26T11:12:15.883Z</time></trkpt><trkpt lat="45.2117779" lon="12.2763961"><ele>1.0</ele><time>2026-04-26T11:12:17.885Z</time></trkpt><trkpt lat="45.2118658" lon="12.2764066"><ele>1.0</ele><time>2026-04-26T11:12:19.888Z</time></trkpt><trkpt lat="45.2119374" lon="12.2764459"><ele>1.0</ele><time>2026-04-26T11:12:21.884Z</time></trkpt><trkpt lat="45.2120013" lon="12.2765112"><ele>0.9999999999999999</ele><time>2026-04-26T11:12:23.886Z</time></trkpt><trkpt lat="45.2120712" lon="12.2765337"><ele>1.0</ele><time>2026-04-26T11:12:25.888Z</time></trkpt><trkpt lat="45.2121453" lon="12.2765244"><ele>1.0</ele><time>2026-04-26T11:12:27.883Z</time></trkpt><trkpt lat="45.2122195" lon="12.2765137"><ele>0.9999999999999999</ele><time>2026-04-26T11:12:29.884Z</time></trkpt><trkpt lat="45.2122955" lon="12.2765206"><ele>1.0</ele><time>2026-04-26T11:12:31.887Z</time></trkpt><trkpt lat="45.2123636" lon="12.2765331"><ele>1.0</ele><time>2026-04-26T11:12:33.888Z</time></trkpt><trkpt lat="45.2124402" lon="12.276541"><ele>0.8333333333333333</ele><time>2026-04-26T11:12:35.89Z</time></trkpt><trkpt lat="45.2125196" lon="12.2765551"><ele>0.6666666666666666</ele><time>2026-04-26T11:12:37.889Z</time></trkpt><trkpt lat="45.2125976" lon="12.276571"><ele>0.5</ele><time>2026-04-26T11:12:39.882Z</time></trkpt><trkpt lat="45.2126791" lon="12.276593"><ele>0.3333333333333333</ele><time>2026-04-26T11:12:41.886Z</time></trkpt><trkpt lat="45.2127625" lon="12.2766148"><ele>0.16666666666666666</ele><time>2026-04-26T11:12:43.889Z</time></trkpt><trkpt lat="45.21285" lon="12.2766331"><ele>0.0</ele><time>2026-04-26T11:12:45.885Z</time></trkpt><trkpt lat="45.212938" lon="12.2766515"><ele>0.0</ele><time>2026-04-26T11:12:47.888Z</time></trkpt><trkpt lat="45.2130249" lon="12.2766663"><ele>0.0</ele><time>2026-04-26T11:12:49.888Z</time></trkpt><trkpt lat="45.2131088" lon="12.2766807"><ele>0.0</ele><time>2026-04-26T11:12:51.894Z</time></trkpt><trkpt lat="45.2131955" lon="12.2766984"><ele>0.0</ele><time>2026-04-26T11:12:53.883Z</time></trkpt><trkpt lat="45.2132836" lon="12.2767187"><ele>0.0</ele><time>2026-04-26T11:12:55.886Z</time></trkpt><trkpt lat="45.2133627" lon="12.2767398"><ele>0.0</ele><time>2026-04-26T11:12:57.887Z</time></trkpt><trkpt lat="45.2134397" lon="12.2767562"><ele>0.0</ele><time>2026-04-26T11:12:59.889Z</time></trkpt><trkpt lat="45.2135248" lon="12.2767699"><ele>0.0</ele><time>2026-04-26T11:13:01.887Z</time></trkpt><trkpt lat="45.2136051" lon="12.2767745"><ele>0.0</ele><time>2026-04-26T11:13:03.891Z</time></trkpt><trkpt lat="45.2136833" lon="12.2767976"><ele>0.0</ele><time>2026-04-26T11:13:05.89Z</time></trkpt><trkpt lat="45.2137633" lon="12.27682"><ele>0.0</ele><time>2026-04-26T11:13:07.892Z</time></trkpt><trkpt lat="45.2138455" lon="12.276837"><ele>0.0</ele><time>2026-04-26T11:13:09.885Z</time></trkpt><trkpt lat="45.213928" lon="12.2768516"><ele>0.14285714285714285</ele><time>2026-04-26T11:13:11.889Z</time></trkpt><trkpt lat="45.2140045" lon="12.2768686"><ele>0.2857142857142857</ele><time>2026-04-26T11:13:13.891Z</time></trkpt><trkpt lat="45.2140744" lon="12.2768852"><ele>0.42857142857142855</ele><time>2026-04-26T11:13:15.883Z</time></trkpt><trkpt lat="45.2141388" lon="12.2768983"><ele>0.5714285714285714</ele><time>2026-04-26T11:13:17.887Z</time></trkpt><trkpt lat="45.2142097" lon="12.2769119"><ele>0.7142857142857142</ele><time>2026-04-26T11:13:20.885Z</time></trkpt><trkpt lat="45.2142173" lon="12.2770134"><ele>0.8571428571428571</ele><time>2026-04-26T11:13:24.889Z</time></trkpt><trkpt lat="45.2141821" lon="12.2771012"><ele>1.0</ele><time>2026-04-26T11:13:26.884Z</time></trkpt><trkpt lat="45.2141631" lon="12.277187"><ele>0.9999999999999999</ele><time>2026-04-26T11:13:28.885Z</time></trkpt><trkpt lat="45.2141321" lon="12.2773123"><ele>1.0</ele><time>2026-04-26T11:13:31.885Z</time></trkpt><trkpt lat="45.214099" lon="12.2774151"><ele>1.0</ele><time>2026-04-26T11:13:33.881Z</time></trkpt><trkpt lat="45.214045" lon="12.2774951"><ele>1.0</ele><time>2026-04-26T11:13:35.88Z</time></trkpt><trkpt lat="45.2140186" lon="12.277589"><ele>0.9999999999999999</ele><time>2026-04-26T11:13:37.887Z</time></trkpt><trkpt lat="45.2140559" lon="12.2776847"><ele>1.0</ele><time>2026-04-26T11:13:39.891Z</time></trkpt><trkpt lat="45.2141341" lon="12.2777073"><ele>1.0</ele><time>2026-04-26T11:13:41.881Z</time></trkpt><trkpt lat="45.2142061" lon="12.2777169"><ele>0.9999999999999999</ele><time>2026-04-26T11:13:43.882Z</time></trkpt><trkpt lat="45.2142771" lon="12.277741"><ele>1.0</ele><time>2026-04-26T11:13:46.889Z</time></trkpt><trkpt lat="45.2143528" lon="12.2777649"><ele>1.0</ele><time>2026-04-26T11:13:49.888Z</time></trkpt><trkpt lat="45.2144215" lon="12.2777825"><ele>0.9999999999999999</ele><time>2026-04-26T11:13:51.887Z</time></trkpt><trkpt lat="45.2144933" lon="12.2778147"><ele>1.0</ele><time>2026-04-26T11:13:53.89Z</time></trkpt><trkpt lat="45.2145662" lon="12.2778548"><ele>1.0</ele><time>2026-04-26T11:13:55.885Z</time></trkpt><trkpt lat="45.2146333" lon="12.2778895"><ele>1.0</ele><time>2026-04-26T11:13:57.887Z</time></trkpt><trkpt lat="45.2147055" lon="12.2779243"><ele>0.9999999999999999</ele><time>2026-04-26T11:13:59.882Z</time></trkpt><trkpt lat="45.2147734" lon="12.2779578"><ele>1.0</ele><time>2026-04-26T11:14:01.882Z</time></trkpt><trkpt lat="45.21484" lon="12.2779974"><ele>1.0</ele><time>2026-04-26T11:14:03.887Z</time></trkpt><trkpt lat="45.2149071" lon="12.2780381"><ele>0.9999999999999999</ele><time>2026-04-26T11:14:05.89Z</time></trkpt><trkpt lat="45.2149661" lon="12.2780854"><ele>1.0</ele><time>2026-04-26T11:14:07.889Z</time></trkpt><trkpt lat="45.2150252" lon="12.2781249"><ele>1.0</ele><time>2026-04-26T11:14:09.888Z</time></trkpt><trkpt lat="45.215097" lon="12.2781424"><ele>0.9999999999999999</ele><time>2026-04-26T11:14:12.891Z</time></trkpt><trkpt lat="45.2151724" lon="12.2781642"><ele>1.0</ele><time>2026-04-26T11:14:15.884Z</time></trkpt><trkpt lat="45.2152476" lon="12.2781711"><ele>1.0</ele><time>2026-04-26T11:14:18.889Z</time></trkpt><trkpt lat="45.2153077" lon="12.2781224"><ele>1.0</ele><time>2026-04-26T11:14:20.884Z</time></trkpt><trkpt lat="45.2153544" lon="12.2780367"><ele>0.9999999999999999</ele><time>2026-04-26T11:14:22.888Z</time></trkpt><trkpt lat="45.2153818" lon="12.2779321"><ele>1.0</ele><time>2026-04-26T11:14:24.881Z</time></trkpt><trkpt lat="45.2154142" lon="12.2778269"><ele>1.1666666666666665</ele><time>2026-04-26T11:14:26.886Z</time></trkpt><trkpt lat="45.215446" lon="12.2777239"><ele>1.3333333333333333</ele><time>2026-04-26T11:14:28.887Z</time></trkpt><trkpt lat="45.2154779" lon="12.2776251"><ele>1.5</ele><time>2026-04-26T11:14:30.886Z</time></trkpt><trkpt lat="45.2155269" lon="12.2775372"><ele>1.6666666666666665</ele><time>2026-04-26T11:14:32.887Z</time></trkpt><trkpt lat="45.2155938" lon="12.2774676"><ele>1.8333333333333333</ele><time>2026-04-26T11:14:34.89Z</time></trkpt><trkpt lat="45.2156604" lon="12.2774049"><ele>2.0</ele><time>2026-04-26T11:14:36.887Z</time></trkpt><trkpt lat="45.2157368" lon="12.2773624"><ele>1.6666666666666665</ele><time>2026-04-26T11:14:38.89Z</time></trkpt><trkpt lat="45.2158128" lon="12.2773576"><ele>1.3333333333333333</ele><time>2026-04-26T11:14:40.881Z</time></trkpt><trkpt lat="45.2158854" lon="12.2773891"><ele>1.0</ele><time>2026-04-26T11:14:42.891Z</time></trkpt><trkpt lat="45.2159514" lon="12.2774191"><ele>0.6666666666666666</ele><time>2026-04-26T11:14:44.883Z</time></trkpt><trkpt lat="45.2160331" lon="12.2774215"><ele>0.3333333333333333</ele><time>2026-04-26T11:14:47.885Z</time></trkpt><trkpt lat="45.2160727" lon="12.2773423"><ele>0.0</ele><time>2026-04-26T11:14:50.889Z</time></trkpt><trkpt lat="45.2160863" lon="12.2772301"><ele>0.5714285714285714</ele><time>2026-04-26T11:14:53.883Z</time></trkpt><trkpt lat="45.2161073" lon="12.2771402"><ele>1.1428571428571428</ele><time>2026-04-26T11:14:55.886Z</time></trkpt><trkpt lat="45.2161328" lon="12.2770543"><ele>1.7142857142857142</ele><time>2026-04-26T11:14:57.882Z</time></trkpt><trkpt lat="45.2161671" lon="12.2769232"><ele>2.2857142857142856</ele><time>2026-04-26T11:15:00.888Z</time></trkpt><trkpt lat="45.2161708" lon="12.2768337"><ele>2.8571428571428568</ele><time>2026-04-26T11:15:02.892Z</time></trkpt><trkpt lat="45.2161147" lon="12.2767712"><ele>3.4285714285714284</ele><time>2026-04-26T11:15:04.887Z</time></trkpt><trkpt lat="45.2160501" lon="12.2767329"><ele>4.0</ele><time>2026-04-26T11:15:06.886Z</time></trkpt><trkpt lat="45.2160509" lon="12.2766169"><ele>4.0</ele><time>2026-04-26T11:15:10.887Z</time></trkpt><trkpt lat="45.2160793" lon="12.2765096"><ele>4.0</ele><time>2026-04-26T11:15:14.885Z</time></trkpt><trkpt lat="45.2160966" lon="12.2764145"><ele>4.0</ele><time>2026-04-26T11:15:17.88Z</time></trkpt></trkseg></trk></gpx>